<?xml version="1.0" encoding="UTF-8" standalone="no" ?>
<gpx xmlns="http://www.topografix.com/GPX/1/1" xmlns:xsi="http://www.w3.org/2001/XMLSchema-instance" xsi:schemaLocation="http://www.topografix.com/GPX/1/1 http://www.topografix.com/GPX/1/1/gpx.xsd" version="1.1" creator="VisuGPX - https://www.visugpx.com">
  <metadata>
    <name>Butte de Suin</name>
    <desc><![CDATA[Trace AlpineQuest 07/06/2020 06:56:03]]></desc>
  </metadata>
  <trk>
    <name><![CDATA[Butte de Suin_1]]></name>
    <trkseg>
      <trkpt lat="46.53783" lon="4.53372">
        <ele>266.6</ele>
        <time>2020-06-07T04:56:03Z</time>
      </trkpt>
      <trkpt lat="46.53772" lon="4.53364">
        <ele>227.6</ele>
        <time>2020-06-07T04:56:08Z</time>
      </trkpt>
      <trkpt lat="46.5378" lon="4.53366">
        <ele>244.6</ele>
        <time>2020-06-07T04:56:09Z</time>
      </trkpt>
      <trkpt lat="46.53774" lon="4.53362">
        <ele>245.6</ele>
        <time>2020-06-07T04:56:19Z</time>
      </trkpt>
      <trkpt lat="46.53767" lon="4.53358">
        <ele>242.6</ele>
        <time>2020-06-07T04:56:25Z</time>
      </trkpt>
      <trkpt lat="46.53762" lon="4.53351">
        <ele>243.6</ele>
        <time>2020-06-07T04:56:32Z</time>
      </trkpt>
      <trkpt lat="46.53763" lon="4.53341">
        <ele>243.6</ele>
        <time>2020-06-07T04:56:38Z</time>
      </trkpt>
      <trkpt lat="46.53761" lon="4.53332">
        <ele>245.6</ele>
        <time>2020-06-07T04:56:43Z</time>
      </trkpt>
      <trkpt lat="46.53754" lon="4.53327">
        <ele>240.6</ele>
        <time>2020-06-07T04:56:53Z</time>
      </trkpt>
      <trkpt lat="46.53748" lon="4.53328">
        <ele>238.6</ele>
        <time>2020-06-07T04:56:58Z</time>
      </trkpt>
      <trkpt lat="46.53741" lon="4.53328">
        <ele>237.6</ele>
        <time>2020-06-07T04:57:03Z</time>
      </trkpt>
      <trkpt lat="46.53734" lon="4.53326">
        <ele>237.6</ele>
        <time>2020-06-07T04:57:08Z</time>
      </trkpt>
      <trkpt lat="46.53727" lon="4.53325">
        <ele>236.6</ele>
        <time>2020-06-07T04:57:13Z</time>
      </trkpt>
      <trkpt lat="46.5372" lon="4.53328">
        <ele>237.6</ele>
        <time>2020-06-07T04:57:18Z</time>
      </trkpt>
      <trkpt lat="46.53711" lon="4.53328">
        <ele>234.6</ele>
        <time>2020-06-07T04:57:23Z</time>
      </trkpt>
      <trkpt lat="46.53703" lon="4.53327">
        <ele>233.6</ele>
        <time>2020-06-07T04:57:28Z</time>
      </trkpt>
      <trkpt lat="46.53697" lon="4.53327">
        <ele>233.6</ele>
        <time>2020-06-07T04:57:33Z</time>
      </trkpt>
      <trkpt lat="46.53688" lon="4.53326">
        <ele>232.6</ele>
        <time>2020-06-07T04:57:38Z</time>
      </trkpt>
      <trkpt lat="46.53682" lon="4.53324">
        <ele>233.6</ele>
        <time>2020-06-07T04:57:43Z</time>
      </trkpt>
      <trkpt lat="46.53675" lon="4.53322">
        <ele>231.6</ele>
        <time>2020-06-07T04:57:48Z</time>
      </trkpt>
      <trkpt lat="46.53668" lon="4.53319">
        <ele>231.6</ele>
        <time>2020-06-07T04:57:53Z</time>
      </trkpt>
      <trkpt lat="46.53661" lon="4.53315">
        <ele>231.6</ele>
        <time>2020-06-07T04:57:59Z</time>
      </trkpt>
      <trkpt lat="46.53654" lon="4.5331">
        <ele>231.6</ele>
        <time>2020-06-07T04:58:04Z</time>
      </trkpt>
      <trkpt lat="46.53647" lon="4.53304">
        <ele>231.6</ele>
        <time>2020-06-07T04:58:09Z</time>
      </trkpt>
      <trkpt lat="46.5364" lon="4.533">
        <ele>230.6</ele>
        <time>2020-06-07T04:58:15Z</time>
      </trkpt>
      <trkpt lat="46.53634" lon="4.53296">
        <ele>232.6</ele>
        <time>2020-06-07T04:58:20Z</time>
      </trkpt>
      <trkpt lat="46.53627" lon="4.5329">
        <ele>233.6</ele>
        <time>2020-06-07T04:58:25Z</time>
      </trkpt>
      <trkpt lat="46.5362" lon="4.53285">
        <ele>234.6</ele>
        <time>2020-06-07T04:58:30Z</time>
      </trkpt>
      <trkpt lat="46.53613" lon="4.53279">
        <ele>235.6</ele>
        <time>2020-06-07T04:58:35Z</time>
      </trkpt>
      <trkpt lat="46.53607" lon="4.53272">
        <ele>237.6</ele>
        <time>2020-06-07T04:58:40Z</time>
      </trkpt>
      <trkpt lat="46.536" lon="4.53267">
        <ele>238.6</ele>
        <time>2020-06-07T04:58:45Z</time>
      </trkpt>
      <trkpt lat="46.53593" lon="4.5326">
        <ele>241.6</ele>
        <time>2020-06-07T04:58:50Z</time>
      </trkpt>
      <trkpt lat="46.53587" lon="4.53254">
        <ele>242.6</ele>
        <time>2020-06-07T04:58:55Z</time>
      </trkpt>
      <trkpt lat="46.53581" lon="4.53249">
        <ele>244.6</ele>
        <time>2020-06-07T04:59:00Z</time>
      </trkpt>
      <trkpt lat="46.53574" lon="4.53244">
        <ele>242.6</ele>
        <time>2020-06-07T04:59:05Z</time>
      </trkpt>
      <trkpt lat="46.53567" lon="4.53241">
        <ele>243.6</ele>
        <time>2020-06-07T04:59:10Z</time>
      </trkpt>
      <trkpt lat="46.53561" lon="4.53234">
        <ele>245.6</ele>
        <time>2020-06-07T04:59:15Z</time>
      </trkpt>
      <trkpt lat="46.53554" lon="4.5323">
        <ele>245.6</ele>
        <time>2020-06-07T04:59:20Z</time>
      </trkpt>
      <trkpt lat="46.53548" lon="4.53225">
        <ele>246.6</ele>
        <time>2020-06-07T04:59:25Z</time>
      </trkpt>
      <trkpt lat="46.53541" lon="4.53221">
        <ele>245.6</ele>
        <time>2020-06-07T04:59:30Z</time>
      </trkpt>
      <trkpt lat="46.53535" lon="4.53216">
        <ele>246.6</ele>
        <time>2020-06-07T04:59:35Z</time>
      </trkpt>
      <trkpt lat="46.53529" lon="4.53211">
        <ele>246.6</ele>
        <time>2020-06-07T04:59:40Z</time>
      </trkpt>
      <trkpt lat="46.53523" lon="4.53206">
        <ele>246.6</ele>
        <time>2020-06-07T04:59:45Z</time>
      </trkpt>
      <trkpt lat="46.53516" lon="4.53201">
        <ele>246.6</ele>
        <time>2020-06-07T04:59:50Z</time>
      </trkpt>
      <trkpt lat="46.5351" lon="4.53195">
        <ele>246.599</ele>
        <time>2020-06-07T04:59:55Z</time>
      </trkpt>
      <trkpt lat="46.53502" lon="4.53191">
        <ele>247.599</ele>
        <time>2020-06-07T05:00:01Z</time>
      </trkpt>
      <trkpt lat="46.53495" lon="4.53185">
        <ele>247.599</ele>
        <time>2020-06-07T05:00:06Z</time>
      </trkpt>
      <trkpt lat="46.53489" lon="4.53182">
        <ele>244.599</ele>
        <time>2020-06-07T05:00:12Z</time>
      </trkpt>
      <trkpt lat="46.53484" lon="4.53176">
        <ele>243.599</ele>
        <time>2020-06-07T05:00:17Z</time>
      </trkpt>
      <trkpt lat="46.53477" lon="4.53172">
        <ele>242.599</ele>
        <time>2020-06-07T05:00:23Z</time>
      </trkpt>
      <trkpt lat="46.5347" lon="4.53171">
        <ele>246.599</ele>
        <time>2020-06-07T05:00:29Z</time>
      </trkpt>
      <trkpt lat="46.53463" lon="4.53165">
        <ele>248.599</ele>
        <time>2020-06-07T05:00:34Z</time>
      </trkpt>
      <trkpt lat="46.53456" lon="4.53161">
        <ele>249.599</ele>
        <time>2020-06-07T05:00:40Z</time>
      </trkpt>
      <trkpt lat="46.53447" lon="4.53158">
        <ele>251.599</ele>
        <time>2020-06-07T05:00:45Z</time>
      </trkpt>
      <trkpt lat="46.53439" lon="4.53151">
        <ele>256.599</ele>
        <time>2020-06-07T05:00:50Z</time>
      </trkpt>
      <trkpt lat="46.53431" lon="4.53148">
        <ele>257.599</ele>
        <time>2020-06-07T05:00:55Z</time>
      </trkpt>
      <trkpt lat="46.53424" lon="4.53141">
        <ele>255.599</ele>
        <time>2020-06-07T05:01:00Z</time>
      </trkpt>
      <trkpt lat="46.53417" lon="4.53137">
        <ele>253.599</ele>
        <time>2020-06-07T05:01:07Z</time>
      </trkpt>
      <trkpt lat="46.53414" lon="4.53129">
        <ele>253.599</ele>
        <time>2020-06-07T05:01:12Z</time>
      </trkpt>
      <trkpt lat="46.53412" lon="4.5312">
        <ele>251.599</ele>
        <time>2020-06-07T05:01:18Z</time>
      </trkpt>
      <trkpt lat="46.53411" lon="4.53109">
        <ele>253.599</ele>
        <time>2020-06-07T05:01:25Z</time>
      </trkpt>
      <trkpt lat="46.53408" lon="4.531">
        <ele>252.599</ele>
        <time>2020-06-07T05:01:31Z</time>
      </trkpt>
      <trkpt lat="46.53405" lon="4.53087">
        <ele>253.599</ele>
        <time>2020-06-07T05:01:36Z</time>
      </trkpt>
      <trkpt lat="46.53402" lon="4.53077">
        <ele>254.599</ele>
        <time>2020-06-07T05:01:41Z</time>
      </trkpt>
      <trkpt lat="46.53401" lon="4.53068">
        <ele>252.599</ele>
        <time>2020-06-07T05:01:47Z</time>
      </trkpt>
      <trkpt lat="46.53397" lon="4.53059">
        <ele>253.599</ele>
        <time>2020-06-07T05:01:52Z</time>
      </trkpt>
      <trkpt lat="46.53395" lon="4.53049">
        <ele>252.599</ele>
        <time>2020-06-07T05:01:57Z</time>
      </trkpt>
      <trkpt lat="46.53394" lon="4.53037">
        <ele>253.599</ele>
        <time>2020-06-07T05:02:02Z</time>
      </trkpt>
      <trkpt lat="46.53392" lon="4.53027">
        <ele>250.599</ele>
        <time>2020-06-07T05:02:09Z</time>
      </trkpt>
      <trkpt lat="46.5339" lon="4.53017">
        <ele>250.599</ele>
        <time>2020-06-07T05:02:15Z</time>
      </trkpt>
      <trkpt lat="46.53389" lon="4.53004">
        <ele>254.599</ele>
        <time>2020-06-07T05:02:20Z</time>
      </trkpt>
      <trkpt lat="46.53386" lon="4.52995">
        <ele>256.599</ele>
        <time>2020-06-07T05:02:25Z</time>
      </trkpt>
      <trkpt lat="46.53384" lon="4.52983">
        <ele>257.599</ele>
        <time>2020-06-07T05:02:30Z</time>
      </trkpt>
      <trkpt lat="46.53381" lon="4.52973">
        <ele>257.599</ele>
        <time>2020-06-07T05:02:36Z</time>
      </trkpt>
      <trkpt lat="46.53377" lon="4.52964">
        <ele>258.599</ele>
        <time>2020-06-07T05:02:41Z</time>
      </trkpt>
      <trkpt lat="46.53373" lon="4.52956">
        <ele>258.599</ele>
        <time>2020-06-07T05:02:46Z</time>
      </trkpt>
      <trkpt lat="46.53371" lon="4.52945">
        <ele>262.599</ele>
        <time>2020-06-07T05:02:51Z</time>
      </trkpt>
      <trkpt lat="46.53369" lon="4.52935">
        <ele>265.599</ele>
        <time>2020-06-07T05:02:56Z</time>
      </trkpt>
      <trkpt lat="46.53365" lon="4.52925">
        <ele>265.599</ele>
        <time>2020-06-07T05:03:01Z</time>
      </trkpt>
      <trkpt lat="46.5336" lon="4.52915">
        <ele>265.599</ele>
        <time>2020-06-07T05:03:06Z</time>
      </trkpt>
      <trkpt lat="46.53356" lon="4.52905">
        <ele>263.599</ele>
        <time>2020-06-07T05:03:11Z</time>
      </trkpt>
      <trkpt lat="46.53354" lon="4.52895">
        <ele>264.599</ele>
        <time>2020-06-07T05:03:17Z</time>
      </trkpt>
      <trkpt lat="46.5335" lon="4.52885">
        <ele>264.599</ele>
        <time>2020-06-07T05:03:22Z</time>
      </trkpt>
      <trkpt lat="46.53346" lon="4.52874">
        <ele>263.599</ele>
        <time>2020-06-07T05:03:27Z</time>
      </trkpt>
      <trkpt lat="46.53342" lon="4.52865">
        <ele>263.599</ele>
        <time>2020-06-07T05:03:32Z</time>
      </trkpt>
      <trkpt lat="46.53338" lon="4.52857">
        <ele>263.599</ele>
        <time>2020-06-07T05:03:37Z</time>
      </trkpt>
      <trkpt lat="46.53333" lon="4.52845">
        <ele>263.599</ele>
        <time>2020-06-07T05:03:42Z</time>
      </trkpt>
      <trkpt lat="46.53327" lon="4.5284">
        <ele>260.599</ele>
        <time>2020-06-07T05:03:49Z</time>
      </trkpt>
      <trkpt lat="46.53321" lon="4.5283">
        <ele>262.599</ele>
        <time>2020-06-07T05:03:54Z</time>
      </trkpt>
      <trkpt lat="46.53314" lon="4.52825">
        <ele>259.599</ele>
        <time>2020-06-07T05:03:59Z</time>
      </trkpt>
      <trkpt lat="46.53308" lon="4.52821">
        <ele>256.599</ele>
        <time>2020-06-07T05:04:06Z</time>
      </trkpt>
      <trkpt lat="46.53301" lon="4.52817">
        <ele>255.599</ele>
        <time>2020-06-07T05:04:11Z</time>
      </trkpt>
      <trkpt lat="46.53295" lon="4.52811">
        <ele>254.599</ele>
        <time>2020-06-07T05:04:16Z</time>
      </trkpt>
      <trkpt lat="46.53288" lon="4.52808">
        <ele>254.599</ele>
        <time>2020-06-07T05:04:22Z</time>
      </trkpt>
      <trkpt lat="46.5328" lon="4.528">
        <ele>254.599</ele>
        <time>2020-06-07T05:04:27Z</time>
      </trkpt>
      <trkpt lat="46.53274" lon="4.52794">
        <ele>252.599</ele>
        <time>2020-06-07T05:04:33Z</time>
      </trkpt>
      <trkpt lat="46.53267" lon="4.5279">
        <ele>252.599</ele>
        <time>2020-06-07T05:04:39Z</time>
      </trkpt>
      <trkpt lat="46.5326" lon="4.52784">
        <ele>252.599</ele>
        <time>2020-06-07T05:04:44Z</time>
      </trkpt>
      <trkpt lat="46.53253" lon="4.5278">
        <ele>251.598</ele>
        <time>2020-06-07T05:04:49Z</time>
      </trkpt>
      <trkpt lat="46.53247" lon="4.52774">
        <ele>253.598</ele>
        <time>2020-06-07T05:04:55Z</time>
      </trkpt>
      <trkpt lat="46.53241" lon="4.52768">
        <ele>251.598</ele>
        <time>2020-06-07T05:05:00Z</time>
      </trkpt>
      <trkpt lat="46.53235" lon="4.52763">
        <ele>250.598</ele>
        <time>2020-06-07T05:05:05Z</time>
      </trkpt>
      <trkpt lat="46.53228" lon="4.52758">
        <ele>250.598</ele>
        <time>2020-06-07T05:05:10Z</time>
      </trkpt>
      <trkpt lat="46.53222" lon="4.52751">
        <ele>252.598</ele>
        <time>2020-06-07T05:05:15Z</time>
      </trkpt>
      <trkpt lat="46.5322" lon="4.5274">
        <ele>252.598</ele>
        <time>2020-06-07T05:05:20Z</time>
      </trkpt>
      <trkpt lat="46.53224" lon="4.52729">
        <ele>253.598</ele>
        <time>2020-06-07T05:05:25Z</time>
      </trkpt>
      <trkpt lat="46.53227" lon="4.52718">
        <ele>255.598</ele>
        <time>2020-06-07T05:05:31Z</time>
      </trkpt>
      <trkpt lat="46.53229" lon="4.52707">
        <ele>257.598</ele>
        <time>2020-06-07T05:05:36Z</time>
      </trkpt>
      <trkpt lat="46.53227" lon="4.52695">
        <ele>255.598</ele>
        <time>2020-06-07T05:05:42Z</time>
      </trkpt>
      <trkpt lat="46.53227" lon="4.52684">
        <ele>255.598</ele>
        <time>2020-06-07T05:05:48Z</time>
      </trkpt>
      <trkpt lat="46.53229" lon="4.52674">
        <ele>253.598</ele>
        <time>2020-06-07T05:05:54Z</time>
      </trkpt>
      <trkpt lat="46.53229" lon="4.52664">
        <ele>253.598</ele>
        <time>2020-06-07T05:05:59Z</time>
      </trkpt>
      <trkpt lat="46.53228" lon="4.52652">
        <ele>254.598</ele>
        <time>2020-06-07T05:06:04Z</time>
      </trkpt>
      <trkpt lat="46.53228" lon="4.5264">
        <ele>254.598</ele>
        <time>2020-06-07T05:06:09Z</time>
      </trkpt>
      <trkpt lat="46.53227" lon="4.5263">
        <ele>254.598</ele>
        <time>2020-06-07T05:06:15Z</time>
      </trkpt>
      <trkpt lat="46.53227" lon="4.52619">
        <ele>254.598</ele>
        <time>2020-06-07T05:06:22Z</time>
      </trkpt>
      <trkpt lat="46.53226" lon="4.52608">
        <ele>255.598</ele>
        <time>2020-06-07T05:06:27Z</time>
      </trkpt>
      <trkpt lat="46.53225" lon="4.52598">
        <ele>255.598</ele>
        <time>2020-06-07T05:06:32Z</time>
      </trkpt>
      <trkpt lat="46.53224" lon="4.52589">
        <ele>256.598</ele>
        <time>2020-06-07T05:06:37Z</time>
      </trkpt>
      <trkpt lat="46.53222" lon="4.52579">
        <ele>254.598</ele>
        <time>2020-06-07T05:06:44Z</time>
      </trkpt>
      <trkpt lat="46.53222" lon="4.52567">
        <ele>254.598</ele>
        <time>2020-06-07T05:06:51Z</time>
      </trkpt>
      <trkpt lat="46.53221" lon="4.52554">
        <ele>255.598</ele>
        <time>2020-06-07T05:06:56Z</time>
      </trkpt>
      <trkpt lat="46.53222" lon="4.52544">
        <ele>258.598</ele>
        <time>2020-06-07T05:07:02Z</time>
      </trkpt>
      <trkpt lat="46.53223" lon="4.52528">
        <ele>264.598</ele>
        <time>2020-06-07T05:07:07Z</time>
      </trkpt>
      <trkpt lat="46.53226" lon="4.5252">
        <ele>263.598</ele>
        <time>2020-06-07T05:07:13Z</time>
      </trkpt>
      <trkpt lat="46.53234" lon="4.52517">
        <ele>263.598</ele>
        <time>2020-06-07T05:07:18Z</time>
      </trkpt>
      <trkpt lat="46.53244" lon="4.52512">
        <ele>265.598</ele>
        <time>2020-06-07T05:07:26Z</time>
      </trkpt>
      <trkpt lat="46.5325" lon="4.52509">
        <ele>268.598</ele>
        <time>2020-06-07T05:07:31Z</time>
      </trkpt>
      <trkpt lat="46.53259" lon="4.52504">
        <ele>268.598</ele>
        <time>2020-06-07T05:07:36Z</time>
      </trkpt>
      <trkpt lat="46.53264" lon="4.52496">
        <ele>264.598</ele>
        <time>2020-06-07T05:07:42Z</time>
      </trkpt>
      <trkpt lat="46.5327" lon="4.52491">
        <ele>264.598</ele>
        <time>2020-06-07T05:07:49Z</time>
      </trkpt>
      <trkpt lat="46.53276" lon="4.52485">
        <ele>264.598</ele>
        <time>2020-06-07T05:07:54Z</time>
      </trkpt>
      <trkpt lat="46.53281" lon="4.52477">
        <ele>267.598</ele>
        <time>2020-06-07T05:07:59Z</time>
      </trkpt>
      <trkpt lat="46.53285" lon="4.52467">
        <ele>260.598</ele>
        <time>2020-06-07T05:08:06Z</time>
      </trkpt>
      <trkpt lat="46.53286" lon="4.52456">
        <ele>263.598</ele>
        <time>2020-06-07T05:08:11Z</time>
      </trkpt>
      <trkpt lat="46.53286" lon="4.52447">
        <ele>264.598</ele>
        <time>2020-06-07T05:08:16Z</time>
      </trkpt>
      <trkpt lat="46.53284" lon="4.52435">
        <ele>267.598</ele>
        <time>2020-06-07T05:08:21Z</time>
      </trkpt>
      <trkpt lat="46.53291" lon="4.52426">
        <ele>269.598</ele>
        <time>2020-06-07T05:08:26Z</time>
      </trkpt>
      <trkpt lat="46.53295" lon="4.52413">
        <ele>270.598</ele>
        <time>2020-06-07T05:08:31Z</time>
      </trkpt>
      <trkpt lat="46.53295" lon="4.52404">
        <ele>268.598</ele>
        <time>2020-06-07T05:08:37Z</time>
      </trkpt>
      <trkpt lat="46.53294" lon="4.52394">
        <ele>268.598</ele>
        <time>2020-06-07T05:08:42Z</time>
      </trkpt>
      <trkpt lat="46.53299" lon="4.52384">
        <ele>269.598</ele>
        <time>2020-06-07T05:08:47Z</time>
      </trkpt>
      <trkpt lat="46.53299" lon="4.52374">
        <ele>268.598</ele>
        <time>2020-06-07T05:08:52Z</time>
      </trkpt>
      <trkpt lat="46.53302" lon="4.52365">
        <ele>261.598</ele>
        <time>2020-06-07T05:09:00Z</time>
      </trkpt>
      <trkpt lat="46.53302" lon="4.52354">
        <ele>258.598</ele>
        <time>2020-06-07T05:09:06Z</time>
      </trkpt>
      <trkpt lat="46.53303" lon="4.52343">
        <ele>258.598</ele>
        <time>2020-06-07T05:09:11Z</time>
      </trkpt>
      <trkpt lat="46.53304" lon="4.52327">
        <ele>262.598</ele>
        <time>2020-06-07T05:09:16Z</time>
      </trkpt>
      <trkpt lat="46.53299" lon="4.52319">
        <ele>263.598</ele>
        <time>2020-06-07T05:09:21Z</time>
      </trkpt>
      <trkpt lat="46.53291" lon="4.52316">
        <ele>261.598</ele>
        <time>2020-06-07T05:09:35Z</time>
      </trkpt>
      <trkpt lat="46.53283" lon="4.52314">
        <ele>262.598</ele>
        <time>2020-06-07T05:09:40Z</time>
      </trkpt>
      <trkpt lat="46.53277" lon="4.52311">
        <ele>263.598</ele>
        <time>2020-06-07T05:09:49Z</time>
      </trkpt>
      <trkpt lat="46.5327" lon="4.52306">
        <ele>262.598</ele>
        <time>2020-06-07T05:09:55Z</time>
      </trkpt>
      <trkpt lat="46.53263" lon="4.52299">
        <ele>260.598</ele>
        <time>2020-06-07T05:10:00Z</time>
      </trkpt>
      <trkpt lat="46.53255" lon="4.52293">
        <ele>256.598</ele>
        <time>2020-06-07T05:10:05Z</time>
      </trkpt>
      <trkpt lat="46.5325" lon="4.52286">
        <ele>256.598</ele>
        <time>2020-06-07T05:10:10Z</time>
      </trkpt>
      <trkpt lat="46.53243" lon="4.52275">
        <ele>261.598</ele>
        <time>2020-06-07T05:10:15Z</time>
      </trkpt>
      <trkpt lat="46.53239" lon="4.52267">
        <ele>262.598</ele>
        <time>2020-06-07T05:10:21Z</time>
      </trkpt>
      <trkpt lat="46.53233" lon="4.52261">
        <ele>264.598</ele>
        <time>2020-06-07T05:10:28Z</time>
      </trkpt>
      <trkpt lat="46.53227" lon="4.52256">
        <ele>265.598</ele>
        <time>2020-06-07T05:10:36Z</time>
      </trkpt>
      <trkpt lat="46.53221" lon="4.5225">
        <ele>262.598</ele>
        <time>2020-06-07T05:10:44Z</time>
      </trkpt>
      <trkpt lat="46.53214" lon="4.52245">
        <ele>260.598</ele>
        <time>2020-06-07T05:10:53Z</time>
      </trkpt>
      <trkpt lat="46.53207" lon="4.5224">
        <ele>260.598</ele>
        <time>2020-06-07T05:11:01Z</time>
      </trkpt>
      <trkpt lat="46.53199" lon="4.52235">
        <ele>257.598</ele>
        <time>2020-06-07T05:11:07Z</time>
      </trkpt>
      <trkpt lat="46.53192" lon="4.52232">
        <ele>260.598</ele>
        <time>2020-06-07T05:11:12Z</time>
      </trkpt>
      <trkpt lat="46.53185" lon="4.52228">
        <ele>262.598</ele>
        <time>2020-06-07T05:11:17Z</time>
      </trkpt>
      <trkpt lat="46.53177" lon="4.52221">
        <ele>264.598</ele>
        <time>2020-06-07T05:11:22Z</time>
      </trkpt>
      <trkpt lat="46.53173" lon="4.52213">
        <ele>261.598</ele>
        <time>2020-06-07T05:11:28Z</time>
      </trkpt>
      <trkpt lat="46.53165" lon="4.52205">
        <ele>260.598</ele>
        <time>2020-06-07T05:11:33Z</time>
      </trkpt>
      <trkpt lat="46.53159" lon="4.52199">
        <ele>261.598</ele>
        <time>2020-06-07T05:11:38Z</time>
      </trkpt>
      <trkpt lat="46.53152" lon="4.5219">
        <ele>263.598</ele>
        <time>2020-06-07T05:11:43Z</time>
      </trkpt>
      <trkpt lat="46.53147" lon="4.52182">
        <ele>265.598</ele>
        <time>2020-06-07T05:11:53Z</time>
      </trkpt>
      <trkpt lat="46.53145" lon="4.52171">
        <ele>264.598</ele>
        <time>2020-06-07T05:11:58Z</time>
      </trkpt>
      <trkpt lat="46.53142" lon="4.52159">
        <ele>264.598</ele>
        <time>2020-06-07T05:12:03Z</time>
      </trkpt>
      <trkpt lat="46.53139" lon="4.52149">
        <ele>263.598</ele>
        <time>2020-06-07T05:12:08Z</time>
      </trkpt>
      <trkpt lat="46.53138" lon="4.52138">
        <ele>262.598</ele>
        <time>2020-06-07T05:12:15Z</time>
      </trkpt>
      <trkpt lat="46.5314" lon="4.52126">
        <ele>262.598</ele>
        <time>2020-06-07T05:12:21Z</time>
      </trkpt>
      <trkpt lat="46.53139" lon="4.52113">
        <ele>265.598</ele>
        <time>2020-06-07T05:12:26Z</time>
      </trkpt>
      <trkpt lat="46.53137" lon="4.52103">
        <ele>268.598</ele>
        <time>2020-06-07T05:12:31Z</time>
      </trkpt>
      <trkpt lat="46.53135" lon="4.52093">
        <ele>266.598</ele>
        <time>2020-06-07T05:12:38Z</time>
      </trkpt>
      <trkpt lat="46.53135" lon="4.52083">
        <ele>264.598</ele>
        <time>2020-06-07T05:12:44Z</time>
      </trkpt>
      <trkpt lat="46.53135" lon="4.52073">
        <ele>264.598</ele>
        <time>2020-06-07T05:12:50Z</time>
      </trkpt>
      <trkpt lat="46.53135" lon="4.52063">
        <ele>264.598</ele>
        <time>2020-06-07T05:12:56Z</time>
      </trkpt>
      <trkpt lat="46.53135" lon="4.52052">
        <ele>265.598</ele>
        <time>2020-06-07T05:13:02Z</time>
      </trkpt>
      <trkpt lat="46.53135" lon="4.52042">
        <ele>266.598</ele>
        <time>2020-06-07T05:13:07Z</time>
      </trkpt>
      <trkpt lat="46.53135" lon="4.52032">
        <ele>266.598</ele>
        <time>2020-06-07T05:13:12Z</time>
      </trkpt>
      <trkpt lat="46.53134" lon="4.52021">
        <ele>267.598</ele>
        <time>2020-06-07T05:13:21Z</time>
      </trkpt>
      <trkpt lat="46.53133" lon="4.52011">
        <ele>267.598</ele>
        <time>2020-06-07T05:13:28Z</time>
      </trkpt>
      <trkpt lat="46.53132" lon="4.52">
        <ele>267.598</ele>
        <time>2020-06-07T05:13:34Z</time>
      </trkpt>
      <trkpt lat="46.53131" lon="4.51989">
        <ele>269.598</ele>
        <time>2020-06-07T05:13:40Z</time>
      </trkpt>
      <trkpt lat="46.53133" lon="4.51978">
        <ele>273.598</ele>
        <time>2020-06-07T05:13:47Z</time>
      </trkpt>
      <trkpt lat="46.53133" lon="4.51967">
        <ele>274.598</ele>
        <time>2020-06-07T05:13:53Z</time>
      </trkpt>
      <trkpt lat="46.53133" lon="4.51957">
        <ele>274.598</ele>
        <time>2020-06-07T05:13:59Z</time>
      </trkpt>
      <trkpt lat="46.53129" lon="4.51948">
        <ele>274.598</ele>
        <time>2020-06-07T05:14:04Z</time>
      </trkpt>
      <trkpt lat="46.53126" lon="4.51939">
        <ele>273.598</ele>
        <time>2020-06-07T05:14:13Z</time>
      </trkpt>
      <trkpt lat="46.53125" lon="4.51927">
        <ele>271.598</ele>
        <time>2020-06-07T05:14:20Z</time>
      </trkpt>
      <trkpt lat="46.53124" lon="4.51917">
        <ele>272.598</ele>
        <time>2020-06-07T05:14:27Z</time>
      </trkpt>
      <trkpt lat="46.53124" lon="4.51906">
        <ele>273.597</ele>
        <time>2020-06-07T05:14:33Z</time>
      </trkpt>
      <trkpt lat="46.53121" lon="4.51894">
        <ele>274.597</ele>
        <time>2020-06-07T05:14:38Z</time>
      </trkpt>
      <trkpt lat="46.53119" lon="4.51884">
        <ele>274.597</ele>
        <time>2020-06-07T05:14:43Z</time>
      </trkpt>
      <trkpt lat="46.53116" lon="4.51873">
        <ele>277.597</ele>
        <time>2020-06-07T05:14:50Z</time>
      </trkpt>
      <trkpt lat="46.53115" lon="4.51858">
        <ele>279.597</ele>
        <time>2020-06-07T05:14:55Z</time>
      </trkpt>
      <trkpt lat="46.53112" lon="4.5184">
        <ele>283.597</ele>
        <time>2020-06-07T05:15:00Z</time>
      </trkpt>
      <trkpt lat="46.53111" lon="4.51825">
        <ele>282.597</ele>
        <time>2020-06-07T05:15:05Z</time>
      </trkpt>
      <trkpt lat="46.53111" lon="4.51814">
        <ele>281.597</ele>
        <time>2020-06-07T05:15:10Z</time>
      </trkpt>
      <trkpt lat="46.53112" lon="4.51803">
        <ele>280.597</ele>
        <time>2020-06-07T05:15:15Z</time>
      </trkpt>
      <trkpt lat="46.5311" lon="4.51794">
        <ele>279.597</ele>
        <time>2020-06-07T05:15:22Z</time>
      </trkpt>
      <trkpt lat="46.53107" lon="4.51785">
        <ele>277.597</ele>
        <time>2020-06-07T05:15:28Z</time>
      </trkpt>
      <trkpt lat="46.53103" lon="4.51773">
        <ele>271.597</ele>
        <time>2020-06-07T05:15:43Z</time>
      </trkpt>
      <trkpt lat="46.53102" lon="4.51764">
        <ele>269.597</ele>
        <time>2020-06-07T05:15:49Z</time>
      </trkpt>
      <trkpt lat="46.53096" lon="4.51756">
        <ele>270.597</ele>
        <time>2020-06-07T05:15:54Z</time>
      </trkpt>
      <trkpt lat="46.53091" lon="4.51746">
        <ele>271.597</ele>
        <time>2020-06-07T05:15:59Z</time>
      </trkpt>
      <trkpt lat="46.53088" lon="4.51737">
        <ele>270.597</ele>
        <time>2020-06-07T05:16:04Z</time>
      </trkpt>
      <trkpt lat="46.53084" lon="4.51728">
        <ele>273.597</ele>
        <time>2020-06-07T05:16:09Z</time>
      </trkpt>
      <trkpt lat="46.53079" lon="4.51715">
        <ele>275.597</ele>
        <time>2020-06-07T05:16:14Z</time>
      </trkpt>
      <trkpt lat="46.53076" lon="4.51706">
        <ele>276.597</ele>
        <time>2020-06-07T05:16:19Z</time>
      </trkpt>
      <trkpt lat="46.53072" lon="4.51697">
        <ele>275.597</ele>
        <time>2020-06-07T05:16:25Z</time>
      </trkpt>
      <trkpt lat="46.53068" lon="4.51687">
        <ele>276.597</ele>
        <time>2020-06-07T05:16:30Z</time>
      </trkpt>
      <trkpt lat="46.53064" lon="4.51678">
        <ele>277.597</ele>
        <time>2020-06-07T05:16:35Z</time>
      </trkpt>
      <trkpt lat="46.5306" lon="4.51669">
        <ele>278.597</ele>
        <time>2020-06-07T05:16:41Z</time>
      </trkpt>
      <trkpt lat="46.53059" lon="4.51659">
        <ele>280.597</ele>
        <time>2020-06-07T05:16:46Z</time>
      </trkpt>
      <trkpt lat="46.53056" lon="4.51648">
        <ele>281.597</ele>
        <time>2020-06-07T05:16:51Z</time>
      </trkpt>
      <trkpt lat="46.53054" lon="4.51639">
        <ele>285.597</ele>
        <time>2020-06-07T05:16:56Z</time>
      </trkpt>
      <trkpt lat="46.53053" lon="4.51628">
        <ele>287.597</ele>
        <time>2020-06-07T05:17:01Z</time>
      </trkpt>
      <trkpt lat="46.53051" lon="4.51618">
        <ele>288.597</ele>
        <time>2020-06-07T05:17:07Z</time>
      </trkpt>
      <trkpt lat="46.5305" lon="4.51607">
        <ele>289.597</ele>
        <time>2020-06-07T05:17:14Z</time>
      </trkpt>
      <trkpt lat="46.53048" lon="4.51597">
        <ele>290.597</ele>
        <time>2020-06-07T05:17:20Z</time>
      </trkpt>
      <trkpt lat="46.53046" lon="4.51589">
        <ele>289.597</ele>
        <time>2020-06-07T05:17:25Z</time>
      </trkpt>
      <trkpt lat="46.53042" lon="4.5158">
        <ele>288.597</ele>
        <time>2020-06-07T05:17:32Z</time>
      </trkpt>
      <trkpt lat="46.53037" lon="4.51571">
        <ele>289.597</ele>
        <time>2020-06-07T05:17:37Z</time>
      </trkpt>
      <trkpt lat="46.53033" lon="4.51563">
        <ele>286.597</ele>
        <time>2020-06-07T05:17:43Z</time>
      </trkpt>
      <trkpt lat="46.5303" lon="4.51554">
        <ele>287.597</ele>
        <time>2020-06-07T05:17:49Z</time>
      </trkpt>
      <trkpt lat="46.53029" lon="4.51544">
        <ele>286.597</ele>
        <time>2020-06-07T05:17:54Z</time>
      </trkpt>
      <trkpt lat="46.53027" lon="4.51533">
        <ele>286.597</ele>
        <time>2020-06-07T05:17:59Z</time>
      </trkpt>
      <trkpt lat="46.53027" lon="4.51521">
        <ele>288.597</ele>
        <time>2020-06-07T05:18:04Z</time>
      </trkpt>
      <trkpt lat="46.53027" lon="4.51509">
        <ele>289.597</ele>
        <time>2020-06-07T05:18:09Z</time>
      </trkpt>
      <trkpt lat="46.53028" lon="4.51499">
        <ele>288.597</ele>
        <time>2020-06-07T05:18:16Z</time>
      </trkpt>
      <trkpt lat="46.53029" lon="4.51487">
        <ele>288.597</ele>
        <time>2020-06-07T05:18:22Z</time>
      </trkpt>
      <trkpt lat="46.53028" lon="4.51475">
        <ele>291.597</ele>
        <time>2020-06-07T05:18:27Z</time>
      </trkpt>
      <trkpt lat="46.53028" lon="4.51464">
        <ele>293.597</ele>
        <time>2020-06-07T05:18:32Z</time>
      </trkpt>
      <trkpt lat="46.53026" lon="4.51451">
        <ele>296.597</ele>
        <time>2020-06-07T05:18:37Z</time>
      </trkpt>
      <trkpt lat="46.53026" lon="4.5144">
        <ele>292.597</ele>
        <time>2020-06-07T05:18:44Z</time>
      </trkpt>
      <trkpt lat="46.53026" lon="4.51429">
        <ele>290.597</ele>
        <time>2020-06-07T05:18:51Z</time>
      </trkpt>
      <trkpt lat="46.53025" lon="4.51418">
        <ele>291.597</ele>
        <time>2020-06-07T05:18:56Z</time>
      </trkpt>
      <trkpt lat="46.53025" lon="4.51405">
        <ele>293.597</ele>
        <time>2020-06-07T05:19:01Z</time>
      </trkpt>
      <trkpt lat="46.53024" lon="4.51392">
        <ele>295.597</ele>
        <time>2020-06-07T05:19:06Z</time>
      </trkpt>
      <trkpt lat="46.53024" lon="4.5138">
        <ele>297.597</ele>
        <time>2020-06-07T05:19:11Z</time>
      </trkpt>
      <trkpt lat="46.53021" lon="4.5137">
        <ele>291.597</ele>
        <time>2020-06-07T05:19:19Z</time>
      </trkpt>
      <trkpt lat="46.53018" lon="4.5136">
        <ele>287.597</ele>
        <time>2020-06-07T05:19:27Z</time>
      </trkpt>
      <trkpt lat="46.53016" lon="4.51351">
        <ele>288.597</ele>
        <time>2020-06-07T05:19:32Z</time>
      </trkpt>
      <trkpt lat="46.53019" lon="4.51342">
        <ele>285.597</ele>
        <time>2020-06-07T05:19:40Z</time>
      </trkpt>
      <trkpt lat="46.53016" lon="4.51332">
        <ele>285.597</ele>
        <time>2020-06-07T05:19:46Z</time>
      </trkpt>
      <trkpt lat="46.53016" lon="4.51321">
        <ele>288.597</ele>
        <time>2020-06-07T05:19:53Z</time>
      </trkpt>
      <trkpt lat="46.53015" lon="4.51311">
        <ele>288.597</ele>
        <time>2020-06-07T05:19:58Z</time>
      </trkpt>
      <trkpt lat="46.53014" lon="4.51298">
        <ele>289.597</ele>
        <time>2020-06-07T05:20:03Z</time>
      </trkpt>
      <trkpt lat="46.53011" lon="4.51289">
        <ele>288.597</ele>
        <time>2020-06-07T05:20:08Z</time>
      </trkpt>
      <trkpt lat="46.53012" lon="4.51276">
        <ele>288.597</ele>
        <time>2020-06-07T05:20:13Z</time>
      </trkpt>
      <trkpt lat="46.53014" lon="4.51266">
        <ele>291.597</ele>
        <time>2020-06-07T05:20:19Z</time>
      </trkpt>
      <trkpt lat="46.5301" lon="4.51254">
        <ele>289.597</ele>
        <time>2020-06-07T05:20:24Z</time>
      </trkpt>
      <trkpt lat="46.53008" lon="4.51243">
        <ele>290.597</ele>
        <time>2020-06-07T05:20:30Z</time>
      </trkpt>
      <trkpt lat="46.53009" lon="4.51234">
        <ele>290.597</ele>
        <time>2020-06-07T05:20:35Z</time>
      </trkpt>
      <trkpt lat="46.53008" lon="4.51224">
        <ele>292.597</ele>
        <time>2020-06-07T05:20:40Z</time>
      </trkpt>
      <trkpt lat="46.53006" lon="4.51213">
        <ele>296.597</ele>
        <time>2020-06-07T05:20:45Z</time>
      </trkpt>
      <trkpt lat="46.53004" lon="4.51203">
        <ele>295.597</ele>
        <time>2020-06-07T05:20:50Z</time>
      </trkpt>
      <trkpt lat="46.53004" lon="4.51193">
        <ele>292.597</ele>
        <time>2020-06-07T05:20:57Z</time>
      </trkpt>
      <trkpt lat="46.53004" lon="4.51182">
        <ele>292.597</ele>
        <time>2020-06-07T05:21:03Z</time>
      </trkpt>
      <trkpt lat="46.53005" lon="4.51171">
        <ele>291.597</ele>
        <time>2020-06-07T05:21:08Z</time>
      </trkpt>
      <trkpt lat="46.53007" lon="4.51162">
        <ele>291.597</ele>
        <time>2020-06-07T05:21:14Z</time>
      </trkpt>
      <trkpt lat="46.53006" lon="4.51152">
        <ele>291.597</ele>
        <time>2020-06-07T05:21:19Z</time>
      </trkpt>
      <trkpt lat="46.53004" lon="4.51138">
        <ele>294.597</ele>
        <time>2020-06-07T05:21:24Z</time>
      </trkpt>
      <trkpt lat="46.53003" lon="4.51127">
        <ele>294.597</ele>
        <time>2020-06-07T05:21:29Z</time>
      </trkpt>
      <trkpt lat="46.53002" lon="4.51116">
        <ele>295.597</ele>
        <time>2020-06-07T05:21:34Z</time>
      </trkpt>
      <trkpt lat="46.53001" lon="4.51106">
        <ele>295.597</ele>
        <time>2020-06-07T05:21:39Z</time>
      </trkpt>
      <trkpt lat="46.53" lon="4.51096">
        <ele>295.597</ele>
        <time>2020-06-07T05:21:44Z</time>
      </trkpt>
      <trkpt lat="46.53" lon="4.51082">
        <ele>298.597</ele>
        <time>2020-06-07T05:21:49Z</time>
      </trkpt>
      <trkpt lat="46.53" lon="4.51071">
        <ele>298.597</ele>
        <time>2020-06-07T05:21:57Z</time>
      </trkpt>
      <trkpt lat="46.53001" lon="4.5106">
        <ele>297.597</ele>
        <time>2020-06-07T05:22:03Z</time>
      </trkpt>
      <trkpt lat="46.52998" lon="4.51051">
        <ele>295.597</ele>
        <time>2020-06-07T05:22:13Z</time>
      </trkpt>
      <trkpt lat="46.52996" lon="4.51038">
        <ele>298.597</ele>
        <time>2020-06-07T05:22:18Z</time>
      </trkpt>
      <trkpt lat="46.5299" lon="4.51032">
        <ele>293.596</ele>
        <time>2020-06-07T05:22:30Z</time>
      </trkpt>
      <trkpt lat="46.52983" lon="4.51037">
        <ele>292.596</ele>
        <time>2020-06-07T05:22:35Z</time>
      </trkpt>
      <trkpt lat="46.52977" lon="4.51042">
        <ele>290.596</ele>
        <time>2020-06-07T05:22:40Z</time>
      </trkpt>
      <trkpt lat="46.52971" lon="4.51045">
        <ele>290.596</ele>
        <time>2020-06-07T05:22:45Z</time>
      </trkpt>
      <trkpt lat="46.52965" lon="4.5105">
        <ele>289.596</ele>
        <time>2020-06-07T05:22:50Z</time>
      </trkpt>
      <trkpt lat="46.52959" lon="4.51054">
        <ele>287.596</ele>
        <time>2020-06-07T05:22:55Z</time>
      </trkpt>
      <trkpt lat="46.52953" lon="4.5106">
        <ele>285.596</ele>
        <time>2020-06-07T05:23:01Z</time>
      </trkpt>
      <trkpt lat="46.52946" lon="4.51064">
        <ele>285.596</ele>
        <time>2020-06-07T05:23:06Z</time>
      </trkpt>
      <trkpt lat="46.52939" lon="4.51068">
        <ele>285.596</ele>
        <time>2020-06-07T05:23:13Z</time>
      </trkpt>
      <trkpt lat="46.52931" lon="4.51071">
        <ele>284.596</ele>
        <time>2020-06-07T05:23:18Z</time>
      </trkpt>
      <trkpt lat="46.52926" lon="4.51076">
        <ele>281.596</ele>
        <time>2020-06-07T05:23:24Z</time>
      </trkpt>
      <trkpt lat="46.52917" lon="4.51081">
        <ele>280.596</ele>
        <time>2020-06-07T05:23:29Z</time>
      </trkpt>
      <trkpt lat="46.52911" lon="4.51084">
        <ele>281.596</ele>
        <time>2020-06-07T05:23:35Z</time>
      </trkpt>
      <trkpt lat="46.52904" lon="4.51088">
        <ele>279.596</ele>
        <time>2020-06-07T05:23:40Z</time>
      </trkpt>
      <trkpt lat="46.52896" lon="4.51093">
        <ele>275.596</ele>
        <time>2020-06-07T05:23:46Z</time>
      </trkpt>
      <trkpt lat="46.52888" lon="4.51095">
        <ele>275.596</ele>
        <time>2020-06-07T05:23:51Z</time>
      </trkpt>
      <trkpt lat="46.5288" lon="4.51098">
        <ele>275.596</ele>
        <time>2020-06-07T05:23:56Z</time>
      </trkpt>
      <trkpt lat="46.52874" lon="4.51103">
        <ele>275.596</ele>
        <time>2020-06-07T05:24:03Z</time>
      </trkpt>
      <trkpt lat="46.52865" lon="4.51106">
        <ele>275.596</ele>
        <time>2020-06-07T05:24:08Z</time>
      </trkpt>
      <trkpt lat="46.52859" lon="4.5111">
        <ele>273.596</ele>
        <time>2020-06-07T05:24:13Z</time>
      </trkpt>
      <trkpt lat="46.52852" lon="4.51114">
        <ele>273.596</ele>
        <time>2020-06-07T05:24:18Z</time>
      </trkpt>
      <trkpt lat="46.52846" lon="4.51118">
        <ele>272.596</ele>
        <time>2020-06-07T05:24:23Z</time>
      </trkpt>
      <trkpt lat="46.5284" lon="4.51122">
        <ele>273.596</ele>
        <time>2020-06-07T05:24:29Z</time>
      </trkpt>
      <trkpt lat="46.52833" lon="4.51125">
        <ele>271.596</ele>
        <time>2020-06-07T05:24:35Z</time>
      </trkpt>
      <trkpt lat="46.52826" lon="4.51129">
        <ele>271.596</ele>
        <time>2020-06-07T05:24:40Z</time>
      </trkpt>
      <trkpt lat="46.52819" lon="4.51132">
        <ele>270.596</ele>
        <time>2020-06-07T05:24:45Z</time>
      </trkpt>
      <trkpt lat="46.52811" lon="4.51134">
        <ele>269.596</ele>
        <time>2020-06-07T05:24:51Z</time>
      </trkpt>
      <trkpt lat="46.52805" lon="4.51139">
        <ele>265.596</ele>
        <time>2020-06-07T05:24:59Z</time>
      </trkpt>
      <trkpt lat="46.52798" lon="4.51141">
        <ele>264.596</ele>
        <time>2020-06-07T05:25:04Z</time>
      </trkpt>
      <trkpt lat="46.52791" lon="4.51144">
        <ele>264.596</ele>
        <time>2020-06-07T05:25:09Z</time>
      </trkpt>
      <trkpt lat="46.52784" lon="4.51148">
        <ele>265.596</ele>
        <time>2020-06-07T05:25:17Z</time>
      </trkpt>
      <trkpt lat="46.52777" lon="4.51151">
        <ele>266.596</ele>
        <time>2020-06-07T05:25:23Z</time>
      </trkpt>
      <trkpt lat="46.52771" lon="4.51154">
        <ele>265.596</ele>
        <time>2020-06-07T05:25:29Z</time>
      </trkpt>
      <trkpt lat="46.52764" lon="4.51153">
        <ele>265.596</ele>
        <time>2020-06-07T05:25:34Z</time>
      </trkpt>
      <trkpt lat="46.52756" lon="4.51156">
        <ele>266.596</ele>
        <time>2020-06-07T05:25:39Z</time>
      </trkpt>
      <trkpt lat="46.5275" lon="4.51159">
        <ele>267.596</ele>
        <time>2020-06-07T05:25:44Z</time>
      </trkpt>
      <trkpt lat="46.52743" lon="4.51164">
        <ele>263.596</ele>
        <time>2020-06-07T05:25:51Z</time>
      </trkpt>
      <trkpt lat="46.52737" lon="4.51168">
        <ele>266.596</ele>
        <time>2020-06-07T05:25:59Z</time>
      </trkpt>
      <trkpt lat="46.5273" lon="4.5117">
        <ele>267.596</ele>
        <time>2020-06-07T05:26:05Z</time>
      </trkpt>
      <trkpt lat="46.52723" lon="4.51173">
        <ele>268.596</ele>
        <time>2020-06-07T05:26:13Z</time>
      </trkpt>
      <trkpt lat="46.52716" lon="4.51175">
        <ele>269.596</ele>
        <time>2020-06-07T05:26:19Z</time>
      </trkpt>
      <trkpt lat="46.52708" lon="4.51178">
        <ele>269.596</ele>
        <time>2020-06-07T05:26:27Z</time>
      </trkpt>
      <trkpt lat="46.52701" lon="4.51177">
        <ele>271.596</ele>
        <time>2020-06-07T05:26:32Z</time>
      </trkpt>
      <trkpt lat="46.52694" lon="4.51178">
        <ele>272.596</ele>
        <time>2020-06-07T05:26:37Z</time>
      </trkpt>
      <trkpt lat="46.52686" lon="4.5118">
        <ele>275.596</ele>
        <time>2020-06-07T05:26:44Z</time>
      </trkpt>
      <trkpt lat="46.5268" lon="4.5118">
        <ele>277.596</ele>
        <time>2020-06-07T05:26:49Z</time>
      </trkpt>
      <trkpt lat="46.52672" lon="4.51181">
        <ele>276.596</ele>
        <time>2020-06-07T05:26:54Z</time>
      </trkpt>
      <trkpt lat="46.52666" lon="4.51185">
        <ele>274.596</ele>
        <time>2020-06-07T05:26:59Z</time>
      </trkpt>
      <trkpt lat="46.52657" lon="4.51188">
        <ele>274.596</ele>
        <time>2020-06-07T05:27:06Z</time>
      </trkpt>
      <trkpt lat="46.52651" lon="4.51193">
        <ele>274.596</ele>
        <time>2020-06-07T05:27:12Z</time>
      </trkpt>
      <trkpt lat="46.52645" lon="4.51198">
        <ele>275.596</ele>
        <time>2020-06-07T05:27:20Z</time>
      </trkpt>
      <trkpt lat="46.52638" lon="4.51203">
        <ele>274.596</ele>
        <time>2020-06-07T05:27:25Z</time>
      </trkpt>
      <trkpt lat="46.52631" lon="4.51201">
        <ele>276.596</ele>
        <time>2020-06-07T05:27:30Z</time>
      </trkpt>
      <trkpt lat="46.52623" lon="4.51202">
        <ele>278.596</ele>
        <time>2020-06-07T05:27:35Z</time>
      </trkpt>
      <trkpt lat="46.52616" lon="4.51198">
        <ele>281.596</ele>
        <time>2020-06-07T05:27:40Z</time>
      </trkpt>
      <trkpt lat="46.52612" lon="4.51204">
        <ele>277.596</ele>
        <time>2020-06-07T05:27:47Z</time>
      </trkpt>
      <trkpt lat="46.52605" lon="4.5121">
        <ele>274.596</ele>
        <time>2020-06-07T05:27:53Z</time>
      </trkpt>
      <trkpt lat="46.526" lon="4.5122">
        <ele>273.596</ele>
        <time>2020-06-07T05:27:58Z</time>
      </trkpt>
      <trkpt lat="46.52595" lon="4.51228">
        <ele>274.596</ele>
        <time>2020-06-07T05:28:04Z</time>
      </trkpt>
      <trkpt lat="46.5259" lon="4.51233">
        <ele>276.596</ele>
        <time>2020-06-07T05:28:09Z</time>
      </trkpt>
      <trkpt lat="46.52584" lon="4.5124">
        <ele>277.596</ele>
        <time>2020-06-07T05:28:14Z</time>
      </trkpt>
      <trkpt lat="46.52577" lon="4.51245">
        <ele>274.596</ele>
        <time>2020-06-07T05:28:19Z</time>
      </trkpt>
      <trkpt lat="46.52571" lon="4.51252">
        <ele>274.595</ele>
        <time>2020-06-07T05:28:25Z</time>
      </trkpt>
      <trkpt lat="46.52564" lon="4.51256">
        <ele>273.595</ele>
        <time>2020-06-07T05:28:30Z</time>
      </trkpt>
      <trkpt lat="46.52558" lon="4.51261">
        <ele>274.595</ele>
        <time>2020-06-07T05:28:35Z</time>
      </trkpt>
      <trkpt lat="46.5255" lon="4.51264">
        <ele>274.595</ele>
        <time>2020-06-07T05:28:41Z</time>
      </trkpt>
      <trkpt lat="46.52544" lon="4.51269">
        <ele>273.595</ele>
        <time>2020-06-07T05:28:47Z</time>
      </trkpt>
      <trkpt lat="46.52537" lon="4.51273">
        <ele>272.595</ele>
        <time>2020-06-07T05:28:52Z</time>
      </trkpt>
      <trkpt lat="46.52531" lon="4.51276">
        <ele>273.595</ele>
        <time>2020-06-07T05:28:57Z</time>
      </trkpt>
      <trkpt lat="46.52523" lon="4.51279">
        <ele>273.595</ele>
        <time>2020-06-07T05:29:02Z</time>
      </trkpt>
      <trkpt lat="46.52517" lon="4.51282">
        <ele>275.595</ele>
        <time>2020-06-07T05:29:08Z</time>
      </trkpt>
      <trkpt lat="46.52511" lon="4.51288">
        <ele>274.595</ele>
        <time>2020-06-07T05:29:15Z</time>
      </trkpt>
      <trkpt lat="46.52505" lon="4.51288">
        <ele>277.595</ele>
        <time>2020-06-07T05:29:20Z</time>
      </trkpt>
      <trkpt lat="46.52496" lon="4.5129">
        <ele>273.595</ele>
        <time>2020-06-07T05:29:27Z</time>
      </trkpt>
      <trkpt lat="46.5249" lon="4.51289">
        <ele>277.595</ele>
        <time>2020-06-07T05:29:32Z</time>
      </trkpt>
      <trkpt lat="46.52482" lon="4.51289">
        <ele>278.595</ele>
        <time>2020-06-07T05:29:37Z</time>
      </trkpt>
      <trkpt lat="46.52476" lon="4.51291">
        <ele>278.595</ele>
        <time>2020-06-07T05:29:42Z</time>
      </trkpt>
      <trkpt lat="46.52468" lon="4.5129">
        <ele>276.595</ele>
        <time>2020-06-07T05:29:47Z</time>
      </trkpt>
      <trkpt lat="46.52462" lon="4.51292">
        <ele>278.595</ele>
        <time>2020-06-07T05:29:55Z</time>
      </trkpt>
      <trkpt lat="46.52453" lon="4.51291">
        <ele>277.595</ele>
        <time>2020-06-07T05:30:00Z</time>
      </trkpt>
      <trkpt lat="46.52446" lon="4.51294">
        <ele>278.595</ele>
        <time>2020-06-07T05:30:10Z</time>
      </trkpt>
      <trkpt lat="46.52437" lon="4.51294">
        <ele>281.595</ele>
        <time>2020-06-07T05:30:17Z</time>
      </trkpt>
      <trkpt lat="46.52431" lon="4.51297">
        <ele>281.595</ele>
        <time>2020-06-07T05:30:22Z</time>
      </trkpt>
      <trkpt lat="46.52423" lon="4.51296">
        <ele>281.595</ele>
        <time>2020-06-07T05:30:28Z</time>
      </trkpt>
      <trkpt lat="46.52415" lon="4.51294">
        <ele>283.595</ele>
        <time>2020-06-07T05:30:33Z</time>
      </trkpt>
      <trkpt lat="46.52407" lon="4.51294">
        <ele>283.595</ele>
        <time>2020-06-07T05:30:39Z</time>
      </trkpt>
      <trkpt lat="46.52399" lon="4.51294">
        <ele>283.595</ele>
        <time>2020-06-07T05:30:44Z</time>
      </trkpt>
      <trkpt lat="46.52393" lon="4.51292">
        <ele>283.595</ele>
        <time>2020-06-07T05:30:49Z</time>
      </trkpt>
      <trkpt lat="46.52386" lon="4.51294">
        <ele>283.595</ele>
        <time>2020-06-07T05:30:56Z</time>
      </trkpt>
      <trkpt lat="46.5238" lon="4.51299">
        <ele>282.595</ele>
        <time>2020-06-07T05:31:01Z</time>
      </trkpt>
      <trkpt lat="46.52373" lon="4.51304">
        <ele>281.595</ele>
        <time>2020-06-07T05:31:06Z</time>
      </trkpt>
      <trkpt lat="46.52363" lon="4.51308">
        <ele>282.595</ele>
        <time>2020-06-07T05:31:11Z</time>
      </trkpt>
      <trkpt lat="46.52357" lon="4.51315">
        <ele>284.595</ele>
        <time>2020-06-07T05:31:16Z</time>
      </trkpt>
      <trkpt lat="46.5235" lon="4.5132">
        <ele>286.595</ele>
        <time>2020-06-07T05:31:21Z</time>
      </trkpt>
      <trkpt lat="46.52342" lon="4.51324">
        <ele>283.595</ele>
        <time>2020-06-07T05:31:26Z</time>
      </trkpt>
      <trkpt lat="46.52335" lon="4.5133">
        <ele>282.595</ele>
        <time>2020-06-07T05:31:31Z</time>
      </trkpt>
      <trkpt lat="46.5233" lon="4.51338">
        <ele>280.595</ele>
        <time>2020-06-07T05:31:36Z</time>
      </trkpt>
      <trkpt lat="46.52324" lon="4.51346">
        <ele>282.595</ele>
        <time>2020-06-07T05:31:41Z</time>
      </trkpt>
      <trkpt lat="46.52319" lon="4.51354">
        <ele>282.595</ele>
        <time>2020-06-07T05:31:46Z</time>
      </trkpt>
      <trkpt lat="46.52312" lon="4.5136">
        <ele>282.595</ele>
        <time>2020-06-07T05:31:51Z</time>
      </trkpt>
      <trkpt lat="46.52307" lon="4.51368">
        <ele>283.595</ele>
        <time>2020-06-07T05:31:56Z</time>
      </trkpt>
      <trkpt lat="46.52302" lon="4.51374">
        <ele>282.595</ele>
        <time>2020-06-07T05:32:01Z</time>
      </trkpt>
      <trkpt lat="46.52296" lon="4.51383">
        <ele>282.595</ele>
        <time>2020-06-07T05:32:06Z</time>
      </trkpt>
      <trkpt lat="46.52291" lon="4.51391">
        <ele>281.595</ele>
        <time>2020-06-07T05:32:13Z</time>
      </trkpt>
      <trkpt lat="46.52286" lon="4.51401">
        <ele>279.595</ele>
        <time>2020-06-07T05:32:18Z</time>
      </trkpt>
      <trkpt lat="46.52282" lon="4.51409">
        <ele>279.595</ele>
        <time>2020-06-07T05:32:23Z</time>
      </trkpt>
      <trkpt lat="46.52276" lon="4.51416">
        <ele>279.595</ele>
        <time>2020-06-07T05:32:28Z</time>
      </trkpt>
      <trkpt lat="46.52271" lon="4.51423">
        <ele>280.595</ele>
        <time>2020-06-07T05:32:33Z</time>
      </trkpt>
      <trkpt lat="46.52265" lon="4.5143">
        <ele>279.595</ele>
        <time>2020-06-07T05:32:38Z</time>
      </trkpt>
      <trkpt lat="46.5226" lon="4.51438">
        <ele>279.595</ele>
        <time>2020-06-07T05:32:43Z</time>
      </trkpt>
      <trkpt lat="46.52253" lon="4.51447">
        <ele>278.595</ele>
        <time>2020-06-07T05:32:48Z</time>
      </trkpt>
      <trkpt lat="46.52248" lon="4.51454">
        <ele>278.595</ele>
        <time>2020-06-07T05:32:54Z</time>
      </trkpt>
      <trkpt lat="46.52242" lon="4.51461">
        <ele>277.595</ele>
        <time>2020-06-07T05:32:59Z</time>
      </trkpt>
      <trkpt lat="46.52238" lon="4.5147">
        <ele>275.595</ele>
        <time>2020-06-07T05:33:04Z</time>
      </trkpt>
      <trkpt lat="46.52235" lon="4.51478">
        <ele>274.595</ele>
        <time>2020-06-07T05:33:09Z</time>
      </trkpt>
      <trkpt lat="46.52231" lon="4.51488">
        <ele>271.595</ele>
        <time>2020-06-07T05:33:14Z</time>
      </trkpt>
      <trkpt lat="46.52224" lon="4.51494">
        <ele>272.595</ele>
        <time>2020-06-07T05:33:20Z</time>
      </trkpt>
      <trkpt lat="46.52217" lon="4.5149">
        <ele>270.595</ele>
        <time>2020-06-07T05:33:25Z</time>
      </trkpt>
      <trkpt lat="46.52212" lon="4.51483">
        <ele>273.595</ele>
        <time>2020-06-07T05:33:31Z</time>
      </trkpt>
      <trkpt lat="46.52207" lon="4.51475">
        <ele>272.595</ele>
        <time>2020-06-07T05:33:36Z</time>
      </trkpt>
      <trkpt lat="46.52203" lon="4.51466">
        <ele>272.595</ele>
        <time>2020-06-07T05:33:41Z</time>
      </trkpt>
      <trkpt lat="46.52197" lon="4.51455">
        <ele>273.595</ele>
        <time>2020-06-07T05:33:46Z</time>
      </trkpt>
      <trkpt lat="46.52192" lon="4.51447">
        <ele>271.595</ele>
        <time>2020-06-07T05:33:51Z</time>
      </trkpt>
      <trkpt lat="46.52187" lon="4.51439">
        <ele>272.595</ele>
        <time>2020-06-07T05:33:56Z</time>
      </trkpt>
      <trkpt lat="46.52182" lon="4.5143">
        <ele>275.595</ele>
        <time>2020-06-07T05:34:01Z</time>
      </trkpt>
      <trkpt lat="46.52175" lon="4.51417">
        <ele>275.595</ele>
        <time>2020-06-07T05:34:06Z</time>
      </trkpt>
      <trkpt lat="46.52172" lon="4.51408">
        <ele>275.595</ele>
        <time>2020-06-07T05:34:11Z</time>
      </trkpt>
      <trkpt lat="46.52167" lon="4.51401">
        <ele>275.594</ele>
        <time>2020-06-07T05:34:18Z</time>
      </trkpt>
      <trkpt lat="46.52163" lon="4.51394">
        <ele>275.594</ele>
        <time>2020-06-07T05:34:24Z</time>
      </trkpt>
      <trkpt lat="46.52158" lon="4.51386">
        <ele>274.594</ele>
        <time>2020-06-07T05:34:30Z</time>
      </trkpt>
      <trkpt lat="46.52154" lon="4.51379">
        <ele>272.594</ele>
        <time>2020-06-07T05:34:35Z</time>
      </trkpt>
      <trkpt lat="46.5215" lon="4.51372">
        <ele>269.594</ele>
        <time>2020-06-07T05:34:41Z</time>
      </trkpt>
      <trkpt lat="46.52144" lon="4.51363">
        <ele>269.594</ele>
        <time>2020-06-07T05:34:46Z</time>
      </trkpt>
      <trkpt lat="46.52139" lon="4.51353">
        <ele>272.594</ele>
        <time>2020-06-07T05:34:51Z</time>
      </trkpt>
      <trkpt lat="46.52135" lon="4.51345">
        <ele>273.594</ele>
        <time>2020-06-07T05:34:56Z</time>
      </trkpt>
      <trkpt lat="46.5213" lon="4.51337">
        <ele>271.594</ele>
        <time>2020-06-07T05:35:02Z</time>
      </trkpt>
      <trkpt lat="46.52124" lon="4.5133">
        <ele>272.594</ele>
        <time>2020-06-07T05:35:07Z</time>
      </trkpt>
      <trkpt lat="46.52119" lon="4.51321">
        <ele>274.594</ele>
        <time>2020-06-07T05:35:12Z</time>
      </trkpt>
      <trkpt lat="46.52114" lon="4.5131">
        <ele>274.594</ele>
        <time>2020-06-07T05:35:17Z</time>
      </trkpt>
      <trkpt lat="46.52111" lon="4.51301">
        <ele>274.594</ele>
        <time>2020-06-07T05:35:22Z</time>
      </trkpt>
      <trkpt lat="46.52107" lon="4.51292">
        <ele>273.594</ele>
        <time>2020-06-07T05:35:27Z</time>
      </trkpt>
      <trkpt lat="46.52102" lon="4.51283">
        <ele>275.594</ele>
        <time>2020-06-07T05:35:32Z</time>
      </trkpt>
      <trkpt lat="46.52097" lon="4.5127">
        <ele>275.594</ele>
        <time>2020-06-07T05:35:37Z</time>
      </trkpt>
      <trkpt lat="46.52093" lon="4.5126">
        <ele>277.594</ele>
        <time>2020-06-07T05:35:42Z</time>
      </trkpt>
      <trkpt lat="46.5209" lon="4.5125">
        <ele>278.594</ele>
        <time>2020-06-07T05:35:48Z</time>
      </trkpt>
      <trkpt lat="46.52084" lon="4.51243">
        <ele>268.594</ele>
        <time>2020-06-07T05:35:58Z</time>
      </trkpt>
      <trkpt lat="46.52079" lon="4.51233">
        <ele>269.594</ele>
        <time>2020-06-07T05:36:03Z</time>
      </trkpt>
      <trkpt lat="46.52074" lon="4.51222">
        <ele>268.594</ele>
        <time>2020-06-07T05:36:08Z</time>
      </trkpt>
      <trkpt lat="46.52071" lon="4.51212">
        <ele>267.594</ele>
        <time>2020-06-07T05:36:15Z</time>
      </trkpt>
      <trkpt lat="46.52067" lon="4.51204">
        <ele>268.594</ele>
        <time>2020-06-07T05:36:20Z</time>
      </trkpt>
      <trkpt lat="46.52063" lon="4.51193">
        <ele>268.594</ele>
        <time>2020-06-07T05:36:25Z</time>
      </trkpt>
      <trkpt lat="46.52057" lon="4.51185">
        <ele>269.594</ele>
        <time>2020-06-07T05:36:30Z</time>
      </trkpt>
      <trkpt lat="46.52052" lon="4.51177">
        <ele>269.594</ele>
        <time>2020-06-07T05:36:36Z</time>
      </trkpt>
      <trkpt lat="46.52046" lon="4.51169">
        <ele>268.594</ele>
        <time>2020-06-07T05:36:41Z</time>
      </trkpt>
      <trkpt lat="46.5204" lon="4.51161">
        <ele>267.594</ele>
        <time>2020-06-07T05:36:46Z</time>
      </trkpt>
      <trkpt lat="46.52035" lon="4.51153">
        <ele>268.594</ele>
        <time>2020-06-07T05:36:51Z</time>
      </trkpt>
      <trkpt lat="46.52029" lon="4.51142">
        <ele>270.594</ele>
        <time>2020-06-07T05:36:56Z</time>
      </trkpt>
      <trkpt lat="46.52024" lon="4.51136">
        <ele>269.594</ele>
        <time>2020-06-07T05:37:01Z</time>
      </trkpt>
      <trkpt lat="46.52017" lon="4.5113">
        <ele>267.594</ele>
        <time>2020-06-07T05:37:06Z</time>
      </trkpt>
      <trkpt lat="46.52011" lon="4.51125">
        <ele>265.594</ele>
        <time>2020-06-07T05:37:11Z</time>
      </trkpt>
      <trkpt lat="46.52004" lon="4.51119">
        <ele>264.594</ele>
        <time>2020-06-07T05:37:16Z</time>
      </trkpt>
      <trkpt lat="46.51998" lon="4.51114">
        <ele>266.594</ele>
        <time>2020-06-07T05:37:21Z</time>
      </trkpt>
      <trkpt lat="46.51991" lon="4.51108">
        <ele>267.594</ele>
        <time>2020-06-07T05:37:27Z</time>
      </trkpt>
      <trkpt lat="46.51984" lon="4.51105">
        <ele>263.594</ele>
        <time>2020-06-07T05:37:32Z</time>
      </trkpt>
      <trkpt lat="46.51977" lon="4.51098">
        <ele>262.594</ele>
        <time>2020-06-07T05:37:37Z</time>
      </trkpt>
      <trkpt lat="46.51971" lon="4.51093">
        <ele>267.594</ele>
        <time>2020-06-07T05:37:42Z</time>
      </trkpt>
      <trkpt lat="46.51963" lon="4.51086">
        <ele>266.594</ele>
        <time>2020-06-07T05:37:47Z</time>
      </trkpt>
      <trkpt lat="46.51958" lon="4.51081">
        <ele>262.594</ele>
        <time>2020-06-07T05:37:53Z</time>
      </trkpt>
      <trkpt lat="46.51951" lon="4.51072">
        <ele>263.594</ele>
        <time>2020-06-07T05:37:58Z</time>
      </trkpt>
      <trkpt lat="46.51944" lon="4.51068">
        <ele>264.594</ele>
        <time>2020-06-07T05:38:03Z</time>
      </trkpt>
      <trkpt lat="46.51938" lon="4.5106">
        <ele>263.594</ele>
        <time>2020-06-07T05:38:08Z</time>
      </trkpt>
      <trkpt lat="46.51933" lon="4.51053">
        <ele>262.594</ele>
        <time>2020-06-07T05:38:13Z</time>
      </trkpt>
      <trkpt lat="46.51927" lon="4.51046">
        <ele>260.594</ele>
        <time>2020-06-07T05:38:18Z</time>
      </trkpt>
      <trkpt lat="46.51921" lon="4.51037">
        <ele>261.594</ele>
        <time>2020-06-07T05:38:23Z</time>
      </trkpt>
      <trkpt lat="46.51916" lon="4.5103">
        <ele>259.594</ele>
        <time>2020-06-07T05:38:28Z</time>
      </trkpt>
      <trkpt lat="46.51911" lon="4.51019">
        <ele>260.594</ele>
        <time>2020-06-07T05:38:33Z</time>
      </trkpt>
      <trkpt lat="46.51906" lon="4.51014">
        <ele>259.593</ele>
        <time>2020-06-07T05:38:38Z</time>
      </trkpt>
      <trkpt lat="46.51901" lon="4.51004">
        <ele>260.593</ele>
        <time>2020-06-07T05:38:43Z</time>
      </trkpt>
      <trkpt lat="46.51894" lon="4.50995">
        <ele>263.593</ele>
        <time>2020-06-07T05:38:51Z</time>
      </trkpt>
      <trkpt lat="46.51887" lon="4.5099">
        <ele>262.593</ele>
        <time>2020-06-07T05:38:56Z</time>
      </trkpt>
      <trkpt lat="46.51878" lon="4.50984">
        <ele>261.593</ele>
        <time>2020-06-07T05:39:01Z</time>
      </trkpt>
      <trkpt lat="46.51871" lon="4.5098">
        <ele>259.593</ele>
        <time>2020-06-07T05:39:08Z</time>
      </trkpt>
      <trkpt lat="46.51864" lon="4.50975">
        <ele>259.593</ele>
        <time>2020-06-07T05:39:15Z</time>
      </trkpt>
      <trkpt lat="46.51857" lon="4.50971">
        <ele>261.593</ele>
        <time>2020-06-07T05:39:21Z</time>
      </trkpt>
      <trkpt lat="46.51849" lon="4.50968">
        <ele>260.593</ele>
        <time>2020-06-07T05:39:27Z</time>
      </trkpt>
      <trkpt lat="46.51842" lon="4.50962">
        <ele>259.593</ele>
        <time>2020-06-07T05:39:32Z</time>
      </trkpt>
      <trkpt lat="46.51835" lon="4.50959">
        <ele>260.593</ele>
        <time>2020-06-07T05:39:37Z</time>
      </trkpt>
      <trkpt lat="46.51828" lon="4.50954">
        <ele>261.593</ele>
        <time>2020-06-07T05:39:42Z</time>
      </trkpt>
      <trkpt lat="46.51822" lon="4.5095">
        <ele>262.593</ele>
        <time>2020-06-07T05:39:47Z</time>
      </trkpt>
      <trkpt lat="46.51815" lon="4.50945">
        <ele>262.593</ele>
        <time>2020-06-07T05:39:52Z</time>
      </trkpt>
      <trkpt lat="46.51808" lon="4.5094">
        <ele>263.593</ele>
        <time>2020-06-07T05:39:57Z</time>
      </trkpt>
      <trkpt lat="46.518" lon="4.50937">
        <ele>264.593</ele>
        <time>2020-06-07T05:40:05Z</time>
      </trkpt>
      <trkpt lat="46.51794" lon="4.50935">
        <ele>263.593</ele>
        <time>2020-06-07T05:40:10Z</time>
      </trkpt>
      <trkpt lat="46.51787" lon="4.50932">
        <ele>262.593</ele>
        <time>2020-06-07T05:40:15Z</time>
      </trkpt>
      <trkpt lat="46.51781" lon="4.50926">
        <ele>264.593</ele>
        <time>2020-06-07T05:40:20Z</time>
      </trkpt>
      <trkpt lat="46.51773" lon="4.50918">
        <ele>266.593</ele>
        <time>2020-06-07T05:40:25Z</time>
      </trkpt>
      <trkpt lat="46.51767" lon="4.50914">
        <ele>267.593</ele>
        <time>2020-06-07T05:40:31Z</time>
      </trkpt>
      <trkpt lat="46.51759" lon="4.5091">
        <ele>268.593</ele>
        <time>2020-06-07T05:40:36Z</time>
      </trkpt>
      <trkpt lat="46.51752" lon="4.50906">
        <ele>266.593</ele>
        <time>2020-06-07T05:40:41Z</time>
      </trkpt>
      <trkpt lat="46.51746" lon="4.50901">
        <ele>266.593</ele>
        <time>2020-06-07T05:40:47Z</time>
      </trkpt>
      <trkpt lat="46.51739" lon="4.50899">
        <ele>270.593</ele>
        <time>2020-06-07T05:40:53Z</time>
      </trkpt>
      <trkpt lat="46.51731" lon="4.50895">
        <ele>272.593</ele>
        <time>2020-06-07T05:40:58Z</time>
      </trkpt>
      <trkpt lat="46.51724" lon="4.5089">
        <ele>270.593</ele>
        <time>2020-06-07T05:41:04Z</time>
      </trkpt>
      <trkpt lat="46.51716" lon="4.50884">
        <ele>274.593</ele>
        <time>2020-06-07T05:41:09Z</time>
      </trkpt>
      <trkpt lat="46.51709" lon="4.50884">
        <ele>274.593</ele>
        <time>2020-06-07T05:41:19Z</time>
      </trkpt>
      <trkpt lat="46.51702" lon="4.5088">
        <ele>274.593</ele>
        <time>2020-06-07T05:41:26Z</time>
      </trkpt>
      <trkpt lat="46.51694" lon="4.50874">
        <ele>274.593</ele>
        <time>2020-06-07T05:41:31Z</time>
      </trkpt>
      <trkpt lat="46.51687" lon="4.50869">
        <ele>275.593</ele>
        <time>2020-06-07T05:41:37Z</time>
      </trkpt>
      <trkpt lat="46.5168" lon="4.50865">
        <ele>275.593</ele>
        <time>2020-06-07T05:41:42Z</time>
      </trkpt>
      <trkpt lat="46.51671" lon="4.50858">
        <ele>277.593</ele>
        <time>2020-06-07T05:41:47Z</time>
      </trkpt>
      <trkpt lat="46.51665" lon="4.50855">
        <ele>278.593</ele>
        <time>2020-06-07T05:41:52Z</time>
      </trkpt>
      <trkpt lat="46.51657" lon="4.5085">
        <ele>278.593</ele>
        <time>2020-06-07T05:41:57Z</time>
      </trkpt>
      <trkpt lat="46.5165" lon="4.50847">
        <ele>276.593</ele>
        <time>2020-06-07T05:42:04Z</time>
      </trkpt>
      <trkpt lat="46.51644" lon="4.50842">
        <ele>276.593</ele>
        <time>2020-06-07T05:42:09Z</time>
      </trkpt>
      <trkpt lat="46.51636" lon="4.50837">
        <ele>278.593</ele>
        <time>2020-06-07T05:42:14Z</time>
      </trkpt>
      <trkpt lat="46.51629" lon="4.50836">
        <ele>281.593</ele>
        <time>2020-06-07T05:42:19Z</time>
      </trkpt>
      <trkpt lat="46.51623" lon="4.50833">
        <ele>281.593</ele>
        <time>2020-06-07T05:42:24Z</time>
      </trkpt>
      <trkpt lat="46.51616" lon="4.50827">
        <ele>279.593</ele>
        <time>2020-06-07T05:42:29Z</time>
      </trkpt>
      <trkpt lat="46.51614" lon="4.50817">
        <ele>277.593</ele>
        <time>2020-06-07T05:42:36Z</time>
      </trkpt>
      <trkpt lat="46.51616" lon="4.50806">
        <ele>279.593</ele>
        <time>2020-06-07T05:42:41Z</time>
      </trkpt>
      <trkpt lat="46.51619" lon="4.50798">
        <ele>276.593</ele>
        <time>2020-06-07T05:42:46Z</time>
      </trkpt>
      <trkpt lat="46.51621" lon="4.50787">
        <ele>275.593</ele>
        <time>2020-06-07T05:42:52Z</time>
      </trkpt>
      <trkpt lat="46.51624" lon="4.50775">
        <ele>274.593</ele>
        <time>2020-06-07T05:42:58Z</time>
      </trkpt>
      <trkpt lat="46.51628" lon="4.50765">
        <ele>274.593</ele>
        <time>2020-06-07T05:43:03Z</time>
      </trkpt>
      <trkpt lat="46.51631" lon="4.50757">
        <ele>274.593</ele>
        <time>2020-06-07T05:43:08Z</time>
      </trkpt>
      <trkpt lat="46.51632" lon="4.50746">
        <ele>274.593</ele>
        <time>2020-06-07T05:43:13Z</time>
      </trkpt>
      <trkpt lat="46.51635" lon="4.50737">
        <ele>272.593</ele>
        <time>2020-06-07T05:43:18Z</time>
      </trkpt>
      <trkpt lat="46.5164" lon="4.50727">
        <ele>270.593</ele>
        <time>2020-06-07T05:43:24Z</time>
      </trkpt>
      <trkpt lat="46.51646" lon="4.50717">
        <ele>271.593</ele>
        <time>2020-06-07T05:43:29Z</time>
      </trkpt>
      <trkpt lat="46.51652" lon="4.5071">
        <ele>270.593</ele>
        <time>2020-06-07T05:43:34Z</time>
      </trkpt>
      <trkpt lat="46.51658" lon="4.50704">
        <ele>271.593</ele>
        <time>2020-06-07T05:43:39Z</time>
      </trkpt>
      <trkpt lat="46.51664" lon="4.50698">
        <ele>269.593</ele>
        <time>2020-06-07T05:43:44Z</time>
      </trkpt>
      <trkpt lat="46.51671" lon="4.50695">
        <ele>270.593</ele>
        <time>2020-06-07T05:43:49Z</time>
      </trkpt>
      <trkpt lat="46.51678" lon="4.5069">
        <ele>272.593</ele>
        <time>2020-06-07T05:43:54Z</time>
      </trkpt>
      <trkpt lat="46.51683" lon="4.50685">
        <ele>271.593</ele>
        <time>2020-06-07T05:43:59Z</time>
      </trkpt>
      <trkpt lat="46.51688" lon="4.50677">
        <ele>269.593</ele>
        <time>2020-06-07T05:44:05Z</time>
      </trkpt>
      <trkpt lat="46.51695" lon="4.50671">
        <ele>272.593</ele>
        <time>2020-06-07T05:44:11Z</time>
      </trkpt>
      <trkpt lat="46.51698" lon="4.50663">
        <ele>275.593</ele>
        <time>2020-06-07T05:44:18Z</time>
      </trkpt>
      <trkpt lat="46.51702" lon="4.50654">
        <ele>278.593</ele>
        <time>2020-06-07T05:44:24Z</time>
      </trkpt>
      <trkpt lat="46.51707" lon="4.50644">
        <ele>276.593</ele>
        <time>2020-06-07T05:44:30Z</time>
      </trkpt>
      <trkpt lat="46.51712" lon="4.50637">
        <ele>275.593</ele>
        <time>2020-06-07T05:44:35Z</time>
      </trkpt>
      <trkpt lat="46.5172" lon="4.50627">
        <ele>275.593</ele>
        <time>2020-06-07T05:44:40Z</time>
      </trkpt>
      <trkpt lat="46.51727" lon="4.50619">
        <ele>277.593</ele>
        <time>2020-06-07T05:44:45Z</time>
      </trkpt>
      <trkpt lat="46.51734" lon="4.50607">
        <ele>280.593</ele>
        <time>2020-06-07T05:44:50Z</time>
      </trkpt>
      <trkpt lat="46.51735" lon="4.50597">
        <ele>277.593</ele>
        <time>2020-06-07T05:44:56Z</time>
      </trkpt>
      <trkpt lat="46.51739" lon="4.50587">
        <ele>277.593</ele>
        <time>2020-06-07T05:45:04Z</time>
      </trkpt>
      <trkpt lat="46.5174" lon="4.50576">
        <ele>275.593</ele>
        <time>2020-06-07T05:45:12Z</time>
      </trkpt>
      <trkpt lat="46.51741" lon="4.50564">
        <ele>275.593</ele>
        <time>2020-06-07T05:45:17Z</time>
      </trkpt>
      <trkpt lat="46.51742" lon="4.50553">
        <ele>275.593</ele>
        <time>2020-06-07T05:45:22Z</time>
      </trkpt>
      <trkpt lat="46.51744" lon="4.50542">
        <ele>277.593</ele>
        <time>2020-06-07T05:45:28Z</time>
      </trkpt>
      <trkpt lat="46.51743" lon="4.50531">
        <ele>277.593</ele>
        <time>2020-06-07T05:45:34Z</time>
      </trkpt>
      <trkpt lat="46.51741" lon="4.50522">
        <ele>281.593</ele>
        <time>2020-06-07T05:45:40Z</time>
      </trkpt>
      <trkpt lat="46.51741" lon="4.5051">
        <ele>284.593</ele>
        <time>2020-06-07T05:45:45Z</time>
      </trkpt>
      <trkpt lat="46.51738" lon="4.50502">
        <ele>282.593</ele>
        <time>2020-06-07T05:45:50Z</time>
      </trkpt>
      <trkpt lat="46.51733" lon="4.50492">
        <ele>280.593</ele>
        <time>2020-06-07T05:45:56Z</time>
      </trkpt>
      <trkpt lat="46.51728" lon="4.50483">
        <ele>280.593</ele>
        <time>2020-06-07T05:46:01Z</time>
      </trkpt>
      <trkpt lat="46.51723" lon="4.50475">
        <ele>280.593</ele>
        <time>2020-06-07T05:46:06Z</time>
      </trkpt>
      <trkpt lat="46.51718" lon="4.50468">
        <ele>281.593</ele>
        <time>2020-06-07T05:46:11Z</time>
      </trkpt>
      <trkpt lat="46.51714" lon="4.50458">
        <ele>281.593</ele>
        <time>2020-06-07T05:46:16Z</time>
      </trkpt>
      <trkpt lat="46.51709" lon="4.5045">
        <ele>281.593</ele>
        <time>2020-06-07T05:46:21Z</time>
      </trkpt>
      <trkpt lat="46.51705" lon="4.5044">
        <ele>280.593</ele>
        <time>2020-06-07T05:46:26Z</time>
      </trkpt>
      <trkpt lat="46.51702" lon="4.50428">
        <ele>283.593</ele>
        <time>2020-06-07T05:46:31Z</time>
      </trkpt>
      <trkpt lat="46.51702" lon="4.50417">
        <ele>283.592</ele>
        <time>2020-06-07T05:46:36Z</time>
      </trkpt>
      <trkpt lat="46.517" lon="4.50408">
        <ele>282.592</ele>
        <time>2020-06-07T05:46:42Z</time>
      </trkpt>
      <trkpt lat="46.51698" lon="4.50398">
        <ele>284.592</ele>
        <time>2020-06-07T05:46:48Z</time>
      </trkpt>
      <trkpt lat="46.51697" lon="4.50384">
        <ele>285.592</ele>
        <time>2020-06-07T05:46:53Z</time>
      </trkpt>
      <trkpt lat="46.51697" lon="4.50375">
        <ele>287.592</ele>
        <time>2020-06-07T05:46:58Z</time>
      </trkpt>
      <trkpt lat="46.51699" lon="4.50365">
        <ele>290.592</ele>
        <time>2020-06-07T05:47:03Z</time>
      </trkpt>
      <trkpt lat="46.517" lon="4.50355">
        <ele>292.592</ele>
        <time>2020-06-07T05:47:09Z</time>
      </trkpt>
      <trkpt lat="46.51703" lon="4.50344">
        <ele>294.592</ele>
        <time>2020-06-07T05:47:14Z</time>
      </trkpt>
      <trkpt lat="46.51709" lon="4.50328">
        <ele>297.592</ele>
        <time>2020-06-07T05:47:19Z</time>
      </trkpt>
      <trkpt lat="46.51709" lon="4.50317">
        <ele>296.592</ele>
        <time>2020-06-07T05:47:24Z</time>
      </trkpt>
      <trkpt lat="46.51711" lon="4.50308">
        <ele>296.592</ele>
        <time>2020-06-07T05:47:30Z</time>
      </trkpt>
      <trkpt lat="46.51712" lon="4.50295">
        <ele>296.592</ele>
        <time>2020-06-07T05:47:36Z</time>
      </trkpt>
      <trkpt lat="46.51712" lon="4.50281">
        <ele>294.592</ele>
        <time>2020-06-07T05:47:41Z</time>
      </trkpt>
      <trkpt lat="46.51707" lon="4.50274">
        <ele>291.592</ele>
        <time>2020-06-07T05:47:48Z</time>
      </trkpt>
      <trkpt lat="46.51707" lon="4.50262">
        <ele>293.592</ele>
        <time>2020-06-07T05:47:53Z</time>
      </trkpt>
      <trkpt lat="46.51704" lon="4.50251">
        <ele>292.592</ele>
        <time>2020-06-07T05:47:58Z</time>
      </trkpt>
      <trkpt lat="46.51703" lon="4.5024">
        <ele>292.592</ele>
        <time>2020-06-07T05:48:03Z</time>
      </trkpt>
      <trkpt lat="46.517" lon="4.50231">
        <ele>290.592</ele>
        <time>2020-06-07T05:48:08Z</time>
      </trkpt>
      <trkpt lat="46.51697" lon="4.5022">
        <ele>290.592</ele>
        <time>2020-06-07T05:48:15Z</time>
      </trkpt>
      <trkpt lat="46.51693" lon="4.5021">
        <ele>291.592</ele>
        <time>2020-06-07T05:48:22Z</time>
      </trkpt>
      <trkpt lat="46.5169" lon="4.50201">
        <ele>289.592</ele>
        <time>2020-06-07T05:48:27Z</time>
      </trkpt>
      <trkpt lat="46.51687" lon="4.50191">
        <ele>289.592</ele>
        <time>2020-06-07T05:48:32Z</time>
      </trkpt>
      <trkpt lat="46.51685" lon="4.50182">
        <ele>288.592</ele>
        <time>2020-06-07T05:48:37Z</time>
      </trkpt>
      <trkpt lat="46.51682" lon="4.50173">
        <ele>287.592</ele>
        <time>2020-06-07T05:48:42Z</time>
      </trkpt>
      <trkpt lat="46.51679" lon="4.50163">
        <ele>289.592</ele>
        <time>2020-06-07T05:48:47Z</time>
      </trkpt>
      <trkpt lat="46.51678" lon="4.50151">
        <ele>290.592</ele>
        <time>2020-06-07T05:48:52Z</time>
      </trkpt>
      <trkpt lat="46.51674" lon="4.50142">
        <ele>286.592</ele>
        <time>2020-06-07T05:48:57Z</time>
      </trkpt>
      <trkpt lat="46.51673" lon="4.5013">
        <ele>285.592</ele>
        <time>2020-06-07T05:49:02Z</time>
      </trkpt>
      <trkpt lat="46.51671" lon="4.5012">
        <ele>285.592</ele>
        <time>2020-06-07T05:49:07Z</time>
      </trkpt>
      <trkpt lat="46.51667" lon="4.50109">
        <ele>285.592</ele>
        <time>2020-06-07T05:49:12Z</time>
      </trkpt>
      <trkpt lat="46.51666" lon="4.50096">
        <ele>284.592</ele>
        <time>2020-06-07T05:49:17Z</time>
      </trkpt>
      <trkpt lat="46.51665" lon="4.50085">
        <ele>284.592</ele>
        <time>2020-06-07T05:49:22Z</time>
      </trkpt>
      <trkpt lat="46.51664" lon="4.50073">
        <ele>283.592</ele>
        <time>2020-06-07T05:49:27Z</time>
      </trkpt>
      <trkpt lat="46.51664" lon="4.50062">
        <ele>283.592</ele>
        <time>2020-06-07T05:49:32Z</time>
      </trkpt>
      <trkpt lat="46.51664" lon="4.50051">
        <ele>282.592</ele>
        <time>2020-06-07T05:49:37Z</time>
      </trkpt>
      <trkpt lat="46.51667" lon="4.50039">
        <ele>284.592</ele>
        <time>2020-06-07T05:49:42Z</time>
      </trkpt>
      <trkpt lat="46.51673" lon="4.50027">
        <ele>284.592</ele>
        <time>2020-06-07T05:49:47Z</time>
      </trkpt>
      <trkpt lat="46.51678" lon="4.50017">
        <ele>285.592</ele>
        <time>2020-06-07T05:49:52Z</time>
      </trkpt>
      <trkpt lat="46.51682" lon="4.50007">
        <ele>287.592</ele>
        <time>2020-06-07T05:49:57Z</time>
      </trkpt>
      <trkpt lat="46.51687" lon="4.49996">
        <ele>291.592</ele>
        <time>2020-06-07T05:50:02Z</time>
      </trkpt>
      <trkpt lat="46.51688" lon="4.49985">
        <ele>287.592</ele>
        <time>2020-06-07T05:50:09Z</time>
      </trkpt>
      <trkpt lat="46.51684" lon="4.49978">
        <ele>280.592</ele>
        <time>2020-06-07T05:50:14Z</time>
      </trkpt>
      <trkpt lat="46.51681" lon="4.49969">
        <ele>279.592</ele>
        <time>2020-06-07T05:50:19Z</time>
      </trkpt>
      <trkpt lat="46.51677" lon="4.49961">
        <ele>275.592</ele>
        <time>2020-06-07T05:50:24Z</time>
      </trkpt>
      <trkpt lat="46.51674" lon="4.49951">
        <ele>278.592</ele>
        <time>2020-06-07T05:50:29Z</time>
      </trkpt>
      <trkpt lat="46.51672" lon="4.49942">
        <ele>277.592</ele>
        <time>2020-06-07T05:50:34Z</time>
      </trkpt>
      <trkpt lat="46.5167" lon="4.49931">
        <ele>278.592</ele>
        <time>2020-06-07T05:50:40Z</time>
      </trkpt>
      <trkpt lat="46.51667" lon="4.4992">
        <ele>278.592</ele>
        <time>2020-06-07T05:50:45Z</time>
      </trkpt>
      <trkpt lat="46.51664" lon="4.4991">
        <ele>275.592</ele>
        <time>2020-06-07T05:50:51Z</time>
      </trkpt>
      <trkpt lat="46.51662" lon="4.49897">
        <ele>277.592</ele>
        <time>2020-06-07T05:50:56Z</time>
      </trkpt>
      <trkpt lat="46.5166" lon="4.49886">
        <ele>277.592</ele>
        <time>2020-06-07T05:51:01Z</time>
      </trkpt>
      <trkpt lat="46.51657" lon="4.49877">
        <ele>278.592</ele>
        <time>2020-06-07T05:51:07Z</time>
      </trkpt>
      <trkpt lat="46.51655" lon="4.49865">
        <ele>277.592</ele>
        <time>2020-06-07T05:51:12Z</time>
      </trkpt>
      <trkpt lat="46.51653" lon="4.49856">
        <ele>275.592</ele>
        <time>2020-06-07T05:51:18Z</time>
      </trkpt>
      <trkpt lat="46.51653" lon="4.49845">
        <ele>276.592</ele>
        <time>2020-06-07T05:51:23Z</time>
      </trkpt>
      <trkpt lat="46.51652" lon="4.49835">
        <ele>277.592</ele>
        <time>2020-06-07T05:51:30Z</time>
      </trkpt>
      <trkpt lat="46.51656" lon="4.49826">
        <ele>277.592</ele>
        <time>2020-06-07T05:51:35Z</time>
      </trkpt>
      <trkpt lat="46.51658" lon="4.49813">
        <ele>280.592</ele>
        <time>2020-06-07T05:51:40Z</time>
      </trkpt>
      <trkpt lat="46.51657" lon="4.49802">
        <ele>278.592</ele>
        <time>2020-06-07T05:51:45Z</time>
      </trkpt>
      <trkpt lat="46.51656" lon="4.49791">
        <ele>279.592</ele>
        <time>2020-06-07T05:51:50Z</time>
      </trkpt>
      <trkpt lat="46.51655" lon="4.4978">
        <ele>279.592</ele>
        <time>2020-06-07T05:51:57Z</time>
      </trkpt>
      <trkpt lat="46.51653" lon="4.49769">
        <ele>277.592</ele>
        <time>2020-06-07T05:52:03Z</time>
      </trkpt>
      <trkpt lat="46.51654" lon="4.49758">
        <ele>276.592</ele>
        <time>2020-06-07T05:52:08Z</time>
      </trkpt>
      <trkpt lat="46.51655" lon="4.49747">
        <ele>277.592</ele>
        <time>2020-06-07T05:52:14Z</time>
      </trkpt>
      <trkpt lat="46.51656" lon="4.49734">
        <ele>275.592</ele>
        <time>2020-06-07T05:52:19Z</time>
      </trkpt>
      <trkpt lat="46.51661" lon="4.4972">
        <ele>278.592</ele>
        <time>2020-06-07T05:52:24Z</time>
      </trkpt>
      <trkpt lat="46.51663" lon="4.4971">
        <ele>281.592</ele>
        <time>2020-06-07T05:52:29Z</time>
      </trkpt>
      <trkpt lat="46.51666" lon="4.497">
        <ele>281.592</ele>
        <time>2020-06-07T05:52:34Z</time>
      </trkpt>
      <trkpt lat="46.5167" lon="4.4969">
        <ele>281.592</ele>
        <time>2020-06-07T05:52:40Z</time>
      </trkpt>
      <trkpt lat="46.51674" lon="4.49677">
        <ele>282.592</ele>
        <time>2020-06-07T05:52:45Z</time>
      </trkpt>
      <trkpt lat="46.5168" lon="4.49665">
        <ele>290.592</ele>
        <time>2020-06-07T05:52:50Z</time>
      </trkpt>
      <trkpt lat="46.51682" lon="4.49655">
        <ele>293.592</ele>
        <time>2020-06-07T05:52:55Z</time>
      </trkpt>
      <trkpt lat="46.51688" lon="4.49645">
        <ele>296.592</ele>
        <time>2020-06-07T05:53:00Z</time>
      </trkpt>
      <trkpt lat="46.51693" lon="4.49638">
        <ele>296.592</ele>
        <time>2020-06-07T05:53:05Z</time>
      </trkpt>
      <trkpt lat="46.51698" lon="4.4963">
        <ele>296.592</ele>
        <time>2020-06-07T05:53:10Z</time>
      </trkpt>
      <trkpt lat="46.51701" lon="4.49618">
        <ele>293.592</ele>
        <time>2020-06-07T05:53:16Z</time>
      </trkpt>
      <trkpt lat="46.51703" lon="4.49609">
        <ele>291.592</ele>
        <time>2020-06-07T05:53:21Z</time>
      </trkpt>
      <trkpt lat="46.51704" lon="4.496">
        <ele>292.592</ele>
        <time>2020-06-07T05:53:27Z</time>
      </trkpt>
      <trkpt lat="46.51709" lon="4.49592">
        <ele>290.592</ele>
        <time>2020-06-07T05:53:33Z</time>
      </trkpt>
      <trkpt lat="46.51711" lon="4.49582">
        <ele>289.592</ele>
        <time>2020-06-07T05:53:38Z</time>
      </trkpt>
      <trkpt lat="46.51714" lon="4.49571">
        <ele>289.592</ele>
        <time>2020-06-07T05:53:44Z</time>
      </trkpt>
      <trkpt lat="46.51718" lon="4.49562">
        <ele>287.592</ele>
        <time>2020-06-07T05:53:50Z</time>
      </trkpt>
      <trkpt lat="46.5172" lon="4.49551">
        <ele>285.592</ele>
        <time>2020-06-07T05:53:58Z</time>
      </trkpt>
      <trkpt lat="46.51718" lon="4.49541">
        <ele>283.592</ele>
        <time>2020-06-07T05:55:02Z</time>
      </trkpt>
      <trkpt lat="46.51716" lon="4.49532">
        <ele>282.592</ele>
        <time>2020-06-07T05:55:08Z</time>
      </trkpt>
      <trkpt lat="46.51713" lon="4.49519">
        <ele>281.592</ele>
        <time>2020-06-07T05:55:13Z</time>
      </trkpt>
      <trkpt lat="46.5171" lon="4.49507">
        <ele>284.592</ele>
        <time>2020-06-07T05:55:18Z</time>
      </trkpt>
      <trkpt lat="46.51708" lon="4.49498">
        <ele>282.592</ele>
        <time>2020-06-07T05:55:23Z</time>
      </trkpt>
      <trkpt lat="46.51705" lon="4.4949">
        <ele>282.592</ele>
        <time>2020-06-07T05:55:29Z</time>
      </trkpt>
      <trkpt lat="46.51702" lon="4.49481">
        <ele>283.592</ele>
        <time>2020-06-07T05:55:34Z</time>
      </trkpt>
      <trkpt lat="46.517" lon="4.4947">
        <ele>281.592</ele>
        <time>2020-06-07T05:55:40Z</time>
      </trkpt>
      <trkpt lat="46.51695" lon="4.49459">
        <ele>280.592</ele>
        <time>2020-06-07T05:55:47Z</time>
      </trkpt>
      <trkpt lat="46.5169" lon="4.49448">
        <ele>284.592</ele>
        <time>2020-06-07T05:55:52Z</time>
      </trkpt>
      <trkpt lat="46.51693" lon="4.49438">
        <ele>280.592</ele>
        <time>2020-06-07T05:56:01Z</time>
      </trkpt>
      <trkpt lat="46.51692" lon="4.49429">
        <ele>280.592</ele>
        <time>2020-06-07T05:56:07Z</time>
      </trkpt>
      <trkpt lat="46.51693" lon="4.49418">
        <ele>280.592</ele>
        <time>2020-06-07T05:56:12Z</time>
      </trkpt>
      <trkpt lat="46.51691" lon="4.49406">
        <ele>280.592</ele>
        <time>2020-06-07T05:56:17Z</time>
      </trkpt>
      <trkpt lat="46.51688" lon="4.49398">
        <ele>277.592</ele>
        <time>2020-06-07T05:56:23Z</time>
      </trkpt>
      <trkpt lat="46.51686" lon="4.49389">
        <ele>278.592</ele>
        <time>2020-06-07T05:56:28Z</time>
      </trkpt>
      <trkpt lat="46.51684" lon="4.49374">
        <ele>280.592</ele>
        <time>2020-06-07T05:56:33Z</time>
      </trkpt>
      <trkpt lat="46.51679" lon="4.49366">
        <ele>280.592</ele>
        <time>2020-06-07T05:56:39Z</time>
      </trkpt>
      <trkpt lat="46.51677" lon="4.49354">
        <ele>280.592</ele>
        <time>2020-06-07T05:56:44Z</time>
      </trkpt>
      <trkpt lat="46.51673" lon="4.49346">
        <ele>280.592</ele>
        <time>2020-06-07T05:56:49Z</time>
      </trkpt>
      <trkpt lat="46.51667" lon="4.49338">
        <ele>280.592</ele>
        <time>2020-06-07T05:56:55Z</time>
      </trkpt>
      <trkpt lat="46.51664" lon="4.4933">
        <ele>280.592</ele>
        <time>2020-06-07T05:57:01Z</time>
      </trkpt>
      <trkpt lat="46.5166" lon="4.49321">
        <ele>279.592</ele>
        <time>2020-06-07T05:57:06Z</time>
      </trkpt>
      <trkpt lat="46.51657" lon="4.49312">
        <ele>278.592</ele>
        <time>2020-06-07T05:57:12Z</time>
      </trkpt>
      <trkpt lat="46.51653" lon="4.49304">
        <ele>281.592</ele>
        <time>2020-06-07T05:57:22Z</time>
      </trkpt>
      <trkpt lat="46.51653" lon="4.49294">
        <ele>276.592</ele>
        <time>2020-06-07T05:57:29Z</time>
      </trkpt>
      <trkpt lat="46.51657" lon="4.49286">
        <ele>278.592</ele>
        <time>2020-06-07T05:57:35Z</time>
      </trkpt>
      <trkpt lat="46.51657" lon="4.49276">
        <ele>281.592</ele>
        <time>2020-06-07T05:57:40Z</time>
      </trkpt>
      <trkpt lat="46.51657" lon="4.49265">
        <ele>280.592</ele>
        <time>2020-06-07T05:57:45Z</time>
      </trkpt>
      <trkpt lat="46.51658" lon="4.49252">
        <ele>283.592</ele>
        <time>2020-06-07T05:57:50Z</time>
      </trkpt>
      <trkpt lat="46.5166" lon="4.49241">
        <ele>284.592</ele>
        <time>2020-06-07T05:57:56Z</time>
      </trkpt>
      <trkpt lat="46.51661" lon="4.49231">
        <ele>284.591</ele>
        <time>2020-06-07T05:58:01Z</time>
      </trkpt>
      <trkpt lat="46.51663" lon="4.49221">
        <ele>285.591</ele>
        <time>2020-06-07T05:58:06Z</time>
      </trkpt>
      <trkpt lat="46.51667" lon="4.49211">
        <ele>284.592</ele>
        <time>2020-06-07T05:58:12Z</time>
      </trkpt>
      <trkpt lat="46.51669" lon="4.49196">
        <ele>286.591</ele>
        <time>2020-06-07T05:58:17Z</time>
      </trkpt>
      <trkpt lat="46.51673" lon="4.49188">
        <ele>282.591</ele>
        <time>2020-06-07T05:58:25Z</time>
      </trkpt>
      <trkpt lat="46.51675" lon="4.49177">
        <ele>282.591</ele>
        <time>2020-06-07T05:58:31Z</time>
      </trkpt>
      <trkpt lat="46.51677" lon="4.49168">
        <ele>284.591</ele>
        <time>2020-06-07T05:58:36Z</time>
      </trkpt>
      <trkpt lat="46.5168" lon="4.49158">
        <ele>284.591</ele>
        <time>2020-06-07T05:58:41Z</time>
      </trkpt>
      <trkpt lat="46.51683" lon="4.49146">
        <ele>286.591</ele>
        <time>2020-06-07T05:58:48Z</time>
      </trkpt>
      <trkpt lat="46.51684" lon="4.49133">
        <ele>281.591</ele>
        <time>2020-06-07T05:58:53Z</time>
      </trkpt>
      <trkpt lat="46.51684" lon="4.49123">
        <ele>283.591</ele>
        <time>2020-06-07T05:58:58Z</time>
      </trkpt>
      <trkpt lat="46.51683" lon="4.49111">
        <ele>286.591</ele>
        <time>2020-06-07T05:59:03Z</time>
      </trkpt>
      <trkpt lat="46.51683" lon="4.49101">
        <ele>284.591</ele>
        <time>2020-06-07T05:59:09Z</time>
      </trkpt>
      <trkpt lat="46.51684" lon="4.4909">
        <ele>286.591</ele>
        <time>2020-06-07T05:59:17Z</time>
      </trkpt>
      <trkpt lat="46.51686" lon="4.49078">
        <ele>289.591</ele>
        <time>2020-06-07T05:59:22Z</time>
      </trkpt>
      <trkpt lat="46.51688" lon="4.49066">
        <ele>289.591</ele>
        <time>2020-06-07T05:59:28Z</time>
      </trkpt>
      <trkpt lat="46.51689" lon="4.49056">
        <ele>290.591</ele>
        <time>2020-06-07T05:59:33Z</time>
      </trkpt>
      <trkpt lat="46.51689" lon="4.49045">
        <ele>291.591</ele>
        <time>2020-06-07T05:59:38Z</time>
      </trkpt>
      <trkpt lat="46.51691" lon="4.49035">
        <ele>293.591</ele>
        <time>2020-06-07T05:59:43Z</time>
      </trkpt>
      <trkpt lat="46.51692" lon="4.49023">
        <ele>295.591</ele>
        <time>2020-06-07T05:59:48Z</time>
      </trkpt>
      <trkpt lat="46.51692" lon="4.49013">
        <ele>293.591</ele>
        <time>2020-06-07T05:59:54Z</time>
      </trkpt>
      <trkpt lat="46.51694" lon="4.49003">
        <ele>294.591</ele>
        <time>2020-06-07T06:00:00Z</time>
      </trkpt>
      <trkpt lat="46.51695" lon="4.48991">
        <ele>291.591</ele>
        <time>2020-06-07T06:00:06Z</time>
      </trkpt>
      <trkpt lat="46.51697" lon="4.48982">
        <ele>288.591</ele>
        <time>2020-06-07T06:00:13Z</time>
      </trkpt>
      <trkpt lat="46.51698" lon="4.4897">
        <ele>288.591</ele>
        <time>2020-06-07T06:00:19Z</time>
      </trkpt>
      <trkpt lat="46.51699" lon="4.48959">
        <ele>288.591</ele>
        <time>2020-06-07T06:00:24Z</time>
      </trkpt>
      <trkpt lat="46.51698" lon="4.48943">
        <ele>289.591</ele>
        <time>2020-06-07T06:00:29Z</time>
      </trkpt>
      <trkpt lat="46.51698" lon="4.48933">
        <ele>288.591</ele>
        <time>2020-06-07T06:00:34Z</time>
      </trkpt>
      <trkpt lat="46.51698" lon="4.48923">
        <ele>285.591</ele>
        <time>2020-06-07T06:00:39Z</time>
      </trkpt>
      <trkpt lat="46.51696" lon="4.48912">
        <ele>285.591</ele>
        <time>2020-06-07T06:00:44Z</time>
      </trkpt>
      <trkpt lat="46.5169" lon="4.48902">
        <ele>287.591</ele>
        <time>2020-06-07T06:00:49Z</time>
      </trkpt>
      <trkpt lat="46.51685" lon="4.48891">
        <ele>288.591</ele>
        <time>2020-06-07T06:00:54Z</time>
      </trkpt>
      <trkpt lat="46.51681" lon="4.48881">
        <ele>289.591</ele>
        <time>2020-06-07T06:00:59Z</time>
      </trkpt>
      <trkpt lat="46.51676" lon="4.48871">
        <ele>289.591</ele>
        <time>2020-06-07T06:01:04Z</time>
      </trkpt>
      <trkpt lat="46.51672" lon="4.48862">
        <ele>288.591</ele>
        <time>2020-06-07T06:01:09Z</time>
      </trkpt>
      <trkpt lat="46.51667" lon="4.48855">
        <ele>291.591</ele>
        <time>2020-06-07T06:01:14Z</time>
      </trkpt>
      <trkpt lat="46.51663" lon="4.48845">
        <ele>289.591</ele>
        <time>2020-06-07T06:01:20Z</time>
      </trkpt>
      <trkpt lat="46.5166" lon="4.48837">
        <ele>287.591</ele>
        <time>2020-06-07T06:01:26Z</time>
      </trkpt>
      <trkpt lat="46.51657" lon="4.48828">
        <ele>285.591</ele>
        <time>2020-06-07T06:01:31Z</time>
      </trkpt>
      <trkpt lat="46.5165" lon="4.48818">
        <ele>288.591</ele>
        <time>2020-06-07T06:01:36Z</time>
      </trkpt>
      <trkpt lat="46.51644" lon="4.48809">
        <ele>290.591</ele>
        <time>2020-06-07T06:01:41Z</time>
      </trkpt>
      <trkpt lat="46.5164" lon="4.488">
        <ele>290.591</ele>
        <time>2020-06-07T06:01:47Z</time>
      </trkpt>
      <trkpt lat="46.51636" lon="4.4879">
        <ele>291.591</ele>
        <time>2020-06-07T06:01:52Z</time>
      </trkpt>
      <trkpt lat="46.51631" lon="4.48782">
        <ele>292.591</ele>
        <time>2020-06-07T06:01:57Z</time>
      </trkpt>
      <trkpt lat="46.51629" lon="4.48773">
        <ele>290.591</ele>
        <time>2020-06-07T06:02:04Z</time>
      </trkpt>
      <trkpt lat="46.51626" lon="4.48762">
        <ele>291.591</ele>
        <time>2020-06-07T06:02:10Z</time>
      </trkpt>
      <trkpt lat="46.51622" lon="4.48754">
        <ele>294.591</ele>
        <time>2020-06-07T06:02:15Z</time>
      </trkpt>
      <trkpt lat="46.51621" lon="4.48743">
        <ele>294.591</ele>
        <time>2020-06-07T06:02:22Z</time>
      </trkpt>
      <trkpt lat="46.51623" lon="4.48732">
        <ele>289.591</ele>
        <time>2020-06-07T06:02:27Z</time>
      </trkpt>
      <trkpt lat="46.51624" lon="4.48722">
        <ele>288.591</ele>
        <time>2020-06-07T06:02:33Z</time>
      </trkpt>
      <trkpt lat="46.5162" lon="4.48715">
        <ele>288.591</ele>
        <time>2020-06-07T06:02:38Z</time>
      </trkpt>
      <trkpt lat="46.51621" lon="4.48705">
        <ele>281.591</ele>
        <time>2020-06-07T06:02:44Z</time>
      </trkpt>
      <trkpt lat="46.51623" lon="4.48695">
        <ele>281.591</ele>
        <time>2020-06-07T06:02:50Z</time>
      </trkpt>
      <trkpt lat="46.51622" lon="4.48684">
        <ele>290.591</ele>
        <time>2020-06-07T06:02:56Z</time>
      </trkpt>
      <trkpt lat="46.5162" lon="4.48671">
        <ele>290.591</ele>
        <time>2020-06-07T06:03:01Z</time>
      </trkpt>
      <trkpt lat="46.51621" lon="4.48662">
        <ele>291.591</ele>
        <time>2020-06-07T06:03:06Z</time>
      </trkpt>
      <trkpt lat="46.5162" lon="4.48651">
        <ele>290.591</ele>
        <time>2020-06-07T06:03:12Z</time>
      </trkpt>
      <trkpt lat="46.51621" lon="4.48638">
        <ele>292.591</ele>
        <time>2020-06-07T06:03:17Z</time>
      </trkpt>
      <trkpt lat="46.51617" lon="4.48627">
        <ele>294.591</ele>
        <time>2020-06-07T06:03:22Z</time>
      </trkpt>
      <trkpt lat="46.51615" lon="4.48616">
        <ele>294.591</ele>
        <time>2020-06-07T06:03:29Z</time>
      </trkpt>
      <trkpt lat="46.51613" lon="4.48605">
        <ele>295.591</ele>
        <time>2020-06-07T06:03:34Z</time>
      </trkpt>
      <trkpt lat="46.51614" lon="4.48595">
        <ele>293.591</ele>
        <time>2020-06-07T06:03:40Z</time>
      </trkpt>
      <trkpt lat="46.51611" lon="4.48585">
        <ele>294.591</ele>
        <time>2020-06-07T06:03:46Z</time>
      </trkpt>
      <trkpt lat="46.51609" lon="4.48576">
        <ele>292.591</ele>
        <time>2020-06-07T06:03:51Z</time>
      </trkpt>
      <trkpt lat="46.5161" lon="4.48566">
        <ele>291.591</ele>
        <time>2020-06-07T06:03:57Z</time>
      </trkpt>
      <trkpt lat="46.51604" lon="4.48556">
        <ele>293.591</ele>
        <time>2020-06-07T06:04:02Z</time>
      </trkpt>
      <trkpt lat="46.51599" lon="4.48548">
        <ele>296.591</ele>
        <time>2020-06-07T06:04:07Z</time>
      </trkpt>
      <trkpt lat="46.51595" lon="4.48539">
        <ele>298.591</ele>
        <time>2020-06-07T06:04:14Z</time>
      </trkpt>
      <trkpt lat="46.51592" lon="4.48531">
        <ele>297.591</ele>
        <time>2020-06-07T06:04:19Z</time>
      </trkpt>
      <trkpt lat="46.51587" lon="4.48522">
        <ele>297.591</ele>
        <time>2020-06-07T06:04:26Z</time>
      </trkpt>
      <trkpt lat="46.51581" lon="4.48514">
        <ele>296.591</ele>
        <time>2020-06-07T06:04:31Z</time>
      </trkpt>
      <trkpt lat="46.51575" lon="4.48507">
        <ele>297.591</ele>
        <time>2020-06-07T06:04:37Z</time>
      </trkpt>
      <trkpt lat="46.51571" lon="4.48497">
        <ele>293.591</ele>
        <time>2020-06-07T06:04:43Z</time>
      </trkpt>
      <trkpt lat="46.51563" lon="4.48488">
        <ele>297.591</ele>
        <time>2020-06-07T06:04:48Z</time>
      </trkpt>
      <trkpt lat="46.51558" lon="4.48482">
        <ele>297.591</ele>
        <time>2020-06-07T06:04:54Z</time>
      </trkpt>
      <trkpt lat="46.5155" lon="4.48476">
        <ele>298.591</ele>
        <time>2020-06-07T06:05:00Z</time>
      </trkpt>
      <trkpt lat="46.51543" lon="4.48471">
        <ele>299.591</ele>
        <time>2020-06-07T06:05:05Z</time>
      </trkpt>
      <trkpt lat="46.5154" lon="4.48462">
        <ele>300.591</ele>
        <time>2020-06-07T06:05:14Z</time>
      </trkpt>
      <trkpt lat="46.51536" lon="4.48455">
        <ele>301.591</ele>
        <time>2020-06-07T06:05:19Z</time>
      </trkpt>
      <trkpt lat="46.51529" lon="4.48451">
        <ele>299.591</ele>
        <time>2020-06-07T06:05:27Z</time>
      </trkpt>
      <trkpt lat="46.51523" lon="4.48449">
        <ele>300.591</ele>
        <time>2020-06-07T06:05:34Z</time>
      </trkpt>
      <trkpt lat="46.51516" lon="4.48444">
        <ele>301.591</ele>
        <time>2020-06-07T06:05:39Z</time>
      </trkpt>
      <trkpt lat="46.51506" lon="4.48434">
        <ele>303.59</ele>
        <time>2020-06-07T06:05:44Z</time>
      </trkpt>
      <trkpt lat="46.515" lon="4.48428">
        <ele>303.59</ele>
        <time>2020-06-07T06:05:49Z</time>
      </trkpt>
      <trkpt lat="46.5149" lon="4.48423">
        <ele>305.59</ele>
        <time>2020-06-07T06:05:54Z</time>
      </trkpt>
      <trkpt lat="46.51486" lon="4.48431">
        <ele>305.59</ele>
        <time>2020-06-07T06:06:00Z</time>
      </trkpt>
      <trkpt lat="46.5148" lon="4.48435">
        <ele>305.59</ele>
        <time>2020-06-07T06:06:05Z</time>
      </trkpt>
      <trkpt lat="46.51472" lon="4.48439">
        <ele>306.59</ele>
        <time>2020-06-07T06:06:13Z</time>
      </trkpt>
      <trkpt lat="46.51472" lon="4.48449">
        <ele>309.59</ele>
        <time>2020-06-07T06:06:18Z</time>
      </trkpt>
      <trkpt lat="46.51468" lon="4.48457">
        <ele>310.59</ele>
        <time>2020-06-07T06:06:24Z</time>
      </trkpt>
      <trkpt lat="46.51462" lon="4.48462">
        <ele>313.59</ele>
        <time>2020-06-07T06:06:31Z</time>
      </trkpt>
      <trkpt lat="46.51454" lon="4.48463">
        <ele>314.59</ele>
        <time>2020-06-07T06:06:40Z</time>
      </trkpt>
      <trkpt lat="46.51448" lon="4.48459">
        <ele>315.59</ele>
        <time>2020-06-07T06:06:46Z</time>
      </trkpt>
      <trkpt lat="46.51442" lon="4.48455">
        <ele>315.59</ele>
        <time>2020-06-07T06:06:52Z</time>
      </trkpt>
      <trkpt lat="46.51435" lon="4.48451">
        <ele>316.59</ele>
        <time>2020-06-07T06:06:59Z</time>
      </trkpt>
      <trkpt lat="46.51428" lon="4.4845">
        <ele>315.59</ele>
        <time>2020-06-07T06:07:05Z</time>
      </trkpt>
      <trkpt lat="46.51422" lon="4.48452">
        <ele>313.59</ele>
        <time>2020-06-07T06:07:11Z</time>
      </trkpt>
      <trkpt lat="46.51414" lon="4.48451">
        <ele>313.59</ele>
        <time>2020-06-07T06:07:18Z</time>
      </trkpt>
      <trkpt lat="46.51406" lon="4.48447">
        <ele>314.59</ele>
        <time>2020-06-07T06:07:23Z</time>
      </trkpt>
      <trkpt lat="46.51399" lon="4.48444">
        <ele>316.59</ele>
        <time>2020-06-07T06:07:29Z</time>
      </trkpt>
      <trkpt lat="46.51392" lon="4.48442">
        <ele>319.59</ele>
        <time>2020-06-07T06:07:38Z</time>
      </trkpt>
      <trkpt lat="46.51383" lon="4.48442">
        <ele>318.59</ele>
        <time>2020-06-07T06:07:43Z</time>
      </trkpt>
      <trkpt lat="46.51375" lon="4.48444">
        <ele>315.59</ele>
        <time>2020-06-07T06:07:54Z</time>
      </trkpt>
      <trkpt lat="46.51368" lon="4.48446">
        <ele>318.59</ele>
        <time>2020-06-07T06:08:04Z</time>
      </trkpt>
      <trkpt lat="46.51362" lon="4.48444">
        <ele>322.59</ele>
        <time>2020-06-07T06:08:09Z</time>
      </trkpt>
      <trkpt lat="46.51355" lon="4.48445">
        <ele>322.59</ele>
        <time>2020-06-07T06:08:14Z</time>
      </trkpt>
      <trkpt lat="46.5135" lon="4.48451">
        <ele>325.59</ele>
        <time>2020-06-07T06:08:21Z</time>
      </trkpt>
      <trkpt lat="46.51342" lon="4.4845">
        <ele>326.59</ele>
        <time>2020-06-07T06:08:27Z</time>
      </trkpt>
      <trkpt lat="46.51335" lon="4.48451">
        <ele>325.59</ele>
        <time>2020-06-07T06:08:33Z</time>
      </trkpt>
      <trkpt lat="46.51328" lon="4.48451">
        <ele>323.59</ele>
        <time>2020-06-07T06:08:38Z</time>
      </trkpt>
      <trkpt lat="46.51322" lon="4.48447">
        <ele>324.59</ele>
        <time>2020-06-07T06:08:43Z</time>
      </trkpt>
      <trkpt lat="46.51315" lon="4.48448">
        <ele>323.59</ele>
        <time>2020-06-07T06:08:49Z</time>
      </trkpt>
      <trkpt lat="46.51308" lon="4.48444">
        <ele>321.59</ele>
        <time>2020-06-07T06:08:57Z</time>
      </trkpt>
      <trkpt lat="46.51302" lon="4.48439">
        <ele>323.59</ele>
        <time>2020-06-07T06:09:02Z</time>
      </trkpt>
      <trkpt lat="46.51295" lon="4.48435">
        <ele>324.59</ele>
        <time>2020-06-07T06:09:07Z</time>
      </trkpt>
      <trkpt lat="46.51288" lon="4.48432">
        <ele>327.59</ele>
        <time>2020-06-07T06:09:13Z</time>
      </trkpt>
      <trkpt lat="46.51282" lon="4.48427">
        <ele>329.59</ele>
        <time>2020-06-07T06:09:18Z</time>
      </trkpt>
      <trkpt lat="46.51275" lon="4.48425">
        <ele>332.59</ele>
        <time>2020-06-07T06:09:24Z</time>
      </trkpt>
      <trkpt lat="46.51268" lon="4.48421">
        <ele>332.59</ele>
        <time>2020-06-07T06:09:30Z</time>
      </trkpt>
      <trkpt lat="46.51262" lon="4.48418">
        <ele>333.59</ele>
        <time>2020-06-07T06:09:37Z</time>
      </trkpt>
      <trkpt lat="46.51256" lon="4.48412">
        <ele>335.59</ele>
        <time>2020-06-07T06:09:43Z</time>
      </trkpt>
      <trkpt lat="46.51251" lon="4.48407">
        <ele>336.59</ele>
        <time>2020-06-07T06:09:50Z</time>
      </trkpt>
      <trkpt lat="46.51246" lon="4.48399">
        <ele>335.59</ele>
        <time>2020-06-07T06:09:55Z</time>
      </trkpt>
      <trkpt lat="46.51241" lon="4.48391">
        <ele>336.59</ele>
        <time>2020-06-07T06:10:00Z</time>
      </trkpt>
      <trkpt lat="46.51236" lon="4.48384">
        <ele>335.59</ele>
        <time>2020-06-07T06:10:05Z</time>
      </trkpt>
      <trkpt lat="46.51231" lon="4.48377">
        <ele>335.59</ele>
        <time>2020-06-07T06:10:11Z</time>
      </trkpt>
      <trkpt lat="46.51225" lon="4.48373">
        <ele>335.59</ele>
        <time>2020-06-07T06:10:17Z</time>
      </trkpt>
      <trkpt lat="46.51218" lon="4.48369">
        <ele>335.59</ele>
        <time>2020-06-07T06:10:24Z</time>
      </trkpt>
      <trkpt lat="46.51212" lon="4.48365">
        <ele>334.59</ele>
        <time>2020-06-07T06:10:29Z</time>
      </trkpt>
      <trkpt lat="46.51205" lon="4.48363">
        <ele>335.59</ele>
        <time>2020-06-07T06:10:37Z</time>
      </trkpt>
      <trkpt lat="46.51198" lon="4.4836">
        <ele>333.59</ele>
        <time>2020-06-07T06:10:43Z</time>
      </trkpt>
      <trkpt lat="46.51191" lon="4.48358">
        <ele>332.59</ele>
        <time>2020-06-07T06:10:48Z</time>
      </trkpt>
      <trkpt lat="46.51184" lon="4.48357">
        <ele>334.59</ele>
        <time>2020-06-07T06:10:58Z</time>
      </trkpt>
      <trkpt lat="46.51177" lon="4.48355">
        <ele>331.59</ele>
        <time>2020-06-07T06:11:08Z</time>
      </trkpt>
      <trkpt lat="46.5117" lon="4.4835">
        <ele>330.589</ele>
        <time>2020-06-07T06:11:14Z</time>
      </trkpt>
      <trkpt lat="46.51163" lon="4.48346">
        <ele>332.589</ele>
        <time>2020-06-07T06:11:23Z</time>
      </trkpt>
      <trkpt lat="46.51158" lon="4.48336">
        <ele>329.589</ele>
        <time>2020-06-07T06:11:33Z</time>
      </trkpt>
      <trkpt lat="46.51153" lon="4.4833">
        <ele>329.589</ele>
        <time>2020-06-07T06:11:38Z</time>
      </trkpt>
      <trkpt lat="46.51146" lon="4.48318">
        <ele>333.589</ele>
        <time>2020-06-07T06:11:43Z</time>
      </trkpt>
      <trkpt lat="46.51141" lon="4.48309">
        <ele>336.589</ele>
        <time>2020-06-07T06:11:48Z</time>
      </trkpt>
      <trkpt lat="46.51136" lon="4.483">
        <ele>340.589</ele>
        <time>2020-06-07T06:11:53Z</time>
      </trkpt>
      <trkpt lat="46.51134" lon="4.48291">
        <ele>343.589</ele>
        <time>2020-06-07T06:12:06Z</time>
      </trkpt>
      <trkpt lat="46.51129" lon="4.48283">
        <ele>348.589</ele>
        <time>2020-06-07T06:12:13Z</time>
      </trkpt>
      <trkpt lat="46.51123" lon="4.48278">
        <ele>350.589</ele>
        <time>2020-06-07T06:12:18Z</time>
      </trkpt>
      <trkpt lat="46.5112" lon="4.48269">
        <ele>352.589</ele>
        <time>2020-06-07T06:12:25Z</time>
      </trkpt>
      <trkpt lat="46.51116" lon="4.48257">
        <ele>346.589</ele>
        <time>2020-06-07T06:12:30Z</time>
      </trkpt>
      <trkpt lat="46.51116" lon="4.48247">
        <ele>347.589</ele>
        <time>2020-06-07T06:12:41Z</time>
      </trkpt>
      <trkpt lat="46.51114" lon="4.48237">
        <ele>345.589</ele>
        <time>2020-06-07T06:12:47Z</time>
      </trkpt>
      <trkpt lat="46.51109" lon="4.48228">
        <ele>345.589</ele>
        <time>2020-06-07T06:12:54Z</time>
      </trkpt>
      <trkpt lat="46.51107" lon="4.48218">
        <ele>347.589</ele>
        <time>2020-06-07T06:13:00Z</time>
      </trkpt>
      <trkpt lat="46.51104" lon="4.4821">
        <ele>346.589</ele>
        <time>2020-06-07T06:13:06Z</time>
      </trkpt>
      <trkpt lat="46.51103" lon="4.482">
        <ele>354.589</ele>
        <time>2020-06-07T06:13:11Z</time>
      </trkpt>
      <trkpt lat="46.51101" lon="4.4819">
        <ele>356.589</ele>
        <time>2020-06-07T06:13:20Z</time>
      </trkpt>
      <trkpt lat="46.51101" lon="4.4818">
        <ele>359.589</ele>
        <time>2020-06-07T06:13:31Z</time>
      </trkpt>
      <trkpt lat="46.51102" lon="4.48169">
        <ele>362.589</ele>
        <time>2020-06-07T06:13:36Z</time>
      </trkpt>
      <trkpt lat="46.51104" lon="4.48159">
        <ele>364.589</ele>
        <time>2020-06-07T06:13:42Z</time>
      </trkpt>
      <trkpt lat="46.51108" lon="4.48146">
        <ele>369.589</ele>
        <time>2020-06-07T06:13:47Z</time>
      </trkpt>
      <trkpt lat="46.51108" lon="4.48135">
        <ele>371.589</ele>
        <time>2020-06-07T06:13:54Z</time>
      </trkpt>
      <trkpt lat="46.51104" lon="4.48126">
        <ele>364.589</ele>
        <time>2020-06-07T06:14:02Z</time>
      </trkpt>
      <trkpt lat="46.51103" lon="4.48116">
        <ele>363.589</ele>
        <time>2020-06-07T06:14:08Z</time>
      </trkpt>
      <trkpt lat="46.511" lon="4.48107">
        <ele>364.589</ele>
        <time>2020-06-07T06:14:13Z</time>
      </trkpt>
      <trkpt lat="46.51097" lon="4.48098">
        <ele>366.589</ele>
        <time>2020-06-07T06:14:21Z</time>
      </trkpt>
      <trkpt lat="46.51091" lon="4.48089">
        <ele>366.589</ele>
        <time>2020-06-07T06:14:26Z</time>
      </trkpt>
      <trkpt lat="46.51085" lon="4.48082">
        <ele>367.589</ele>
        <time>2020-06-07T06:14:32Z</time>
      </trkpt>
      <trkpt lat="46.51081" lon="4.48074">
        <ele>366.589</ele>
        <time>2020-06-07T06:14:39Z</time>
      </trkpt>
      <trkpt lat="46.51076" lon="4.48068">
        <ele>368.589</ele>
        <time>2020-06-07T06:14:46Z</time>
      </trkpt>
      <trkpt lat="46.5107" lon="4.4806">
        <ele>369.589</ele>
        <time>2020-06-07T06:14:51Z</time>
      </trkpt>
      <trkpt lat="46.51064" lon="4.48055">
        <ele>369.589</ele>
        <time>2020-06-07T06:14:56Z</time>
      </trkpt>
      <trkpt lat="46.51059" lon="4.48047">
        <ele>369.589</ele>
        <time>2020-06-07T06:15:01Z</time>
      </trkpt>
      <trkpt lat="46.51053" lon="4.48041">
        <ele>370.589</ele>
        <time>2020-06-07T06:15:06Z</time>
      </trkpt>
      <trkpt lat="46.51047" lon="4.48032">
        <ele>368.589</ele>
        <time>2020-06-07T06:15:11Z</time>
      </trkpt>
      <trkpt lat="46.51041" lon="4.48025">
        <ele>368.589</ele>
        <time>2020-06-07T06:15:16Z</time>
      </trkpt>
      <trkpt lat="46.51035" lon="4.48021">
        <ele>369.589</ele>
        <time>2020-06-07T06:15:22Z</time>
      </trkpt>
      <trkpt lat="46.5103" lon="4.48014">
        <ele>368.589</ele>
        <time>2020-06-07T06:15:27Z</time>
      </trkpt>
      <trkpt lat="46.51024" lon="4.48008">
        <ele>370.589</ele>
        <time>2020-06-07T06:15:32Z</time>
      </trkpt>
      <trkpt lat="46.51018" lon="4.48001">
        <ele>369.589</ele>
        <time>2020-06-07T06:15:37Z</time>
      </trkpt>
      <trkpt lat="46.51012" lon="4.47995">
        <ele>369.589</ele>
        <time>2020-06-07T06:15:42Z</time>
      </trkpt>
      <trkpt lat="46.51007" lon="4.47989">
        <ele>370.589</ele>
        <time>2020-06-07T06:15:47Z</time>
      </trkpt>
      <trkpt lat="46.51002" lon="4.47982">
        <ele>369.589</ele>
        <time>2020-06-07T06:15:52Z</time>
      </trkpt>
      <trkpt lat="46.50996" lon="4.47976">
        <ele>368.589</ele>
        <time>2020-06-07T06:15:57Z</time>
      </trkpt>
      <trkpt lat="46.50991" lon="4.4797">
        <ele>368.589</ele>
        <time>2020-06-07T06:16:03Z</time>
      </trkpt>
      <trkpt lat="46.50985" lon="4.47965">
        <ele>370.589</ele>
        <time>2020-06-07T06:16:08Z</time>
      </trkpt>
      <trkpt lat="46.50979" lon="4.4796">
        <ele>372.589</ele>
        <time>2020-06-07T06:16:13Z</time>
      </trkpt>
      <trkpt lat="46.50974" lon="4.47955">
        <ele>374.589</ele>
        <time>2020-06-07T06:16:19Z</time>
      </trkpt>
      <trkpt lat="46.50968" lon="4.47946">
        <ele>373.589</ele>
        <time>2020-06-07T06:16:25Z</time>
      </trkpt>
      <trkpt lat="46.50962" lon="4.47941">
        <ele>376.589</ele>
        <time>2020-06-07T06:16:30Z</time>
      </trkpt>
      <trkpt lat="46.50956" lon="4.47934">
        <ele>373.589</ele>
        <time>2020-06-07T06:16:36Z</time>
      </trkpt>
      <trkpt lat="46.50951" lon="4.47929">
        <ele>373.589</ele>
        <time>2020-06-07T06:16:41Z</time>
      </trkpt>
      <trkpt lat="46.50944" lon="4.47923">
        <ele>372.589</ele>
        <time>2020-06-07T06:16:47Z</time>
      </trkpt>
      <trkpt lat="46.50939" lon="4.47916">
        <ele>373.589</ele>
        <time>2020-06-07T06:16:52Z</time>
      </trkpt>
      <trkpt lat="46.50933" lon="4.47912">
        <ele>374.589</ele>
        <time>2020-06-07T06:16:58Z</time>
      </trkpt>
      <trkpt lat="46.50927" lon="4.47908">
        <ele>373.588</ele>
        <time>2020-06-07T06:17:04Z</time>
      </trkpt>
      <trkpt lat="46.50922" lon="4.47901">
        <ele>371.588</ele>
        <time>2020-06-07T06:17:11Z</time>
      </trkpt>
      <trkpt lat="46.50918" lon="4.47894">
        <ele>372.588</ele>
        <time>2020-06-07T06:17:17Z</time>
      </trkpt>
      <trkpt lat="46.50911" lon="4.47889">
        <ele>371.588</ele>
        <time>2020-06-07T06:17:24Z</time>
      </trkpt>
      <trkpt lat="46.50905" lon="4.47882">
        <ele>372.588</ele>
        <time>2020-06-07T06:17:29Z</time>
      </trkpt>
      <trkpt lat="46.509" lon="4.47875">
        <ele>372.588</ele>
        <time>2020-06-07T06:17:34Z</time>
      </trkpt>
      <trkpt lat="46.50895" lon="4.47869">
        <ele>372.588</ele>
        <time>2020-06-07T06:17:39Z</time>
      </trkpt>
      <trkpt lat="46.50889" lon="4.47862">
        <ele>372.588</ele>
        <time>2020-06-07T06:17:44Z</time>
      </trkpt>
      <trkpt lat="46.50884" lon="4.47856">
        <ele>370.588</ele>
        <time>2020-06-07T06:17:51Z</time>
      </trkpt>
      <trkpt lat="46.50878" lon="4.47851">
        <ele>370.588</ele>
        <time>2020-06-07T06:17:56Z</time>
      </trkpt>
      <trkpt lat="46.50872" lon="4.47845">
        <ele>368.588</ele>
        <time>2020-06-07T06:18:03Z</time>
      </trkpt>
      <trkpt lat="46.50865" lon="4.47841">
        <ele>369.588</ele>
        <time>2020-06-07T06:18:09Z</time>
      </trkpt>
      <trkpt lat="46.5086" lon="4.47832">
        <ele>369.588</ele>
        <time>2020-06-07T06:18:14Z</time>
      </trkpt>
      <trkpt lat="46.50852" lon="4.47826">
        <ele>370.588</ele>
        <time>2020-06-07T06:18:19Z</time>
      </trkpt>
      <trkpt lat="46.50845" lon="4.47819">
        <ele>374.588</ele>
        <time>2020-06-07T06:18:24Z</time>
      </trkpt>
      <trkpt lat="46.5084" lon="4.47812">
        <ele>375.588</ele>
        <time>2020-06-07T06:18:30Z</time>
      </trkpt>
      <trkpt lat="46.50834" lon="4.47803">
        <ele>377.588</ele>
        <time>2020-06-07T06:18:35Z</time>
      </trkpt>
      <trkpt lat="46.50827" lon="4.478">
        <ele>380.588</ele>
        <time>2020-06-07T06:18:40Z</time>
      </trkpt>
      <trkpt lat="46.5082" lon="4.47794">
        <ele>378.588</ele>
        <time>2020-06-07T06:18:46Z</time>
      </trkpt>
      <trkpt lat="46.50814" lon="4.4779">
        <ele>378.588</ele>
        <time>2020-06-07T06:18:52Z</time>
      </trkpt>
      <trkpt lat="46.50807" lon="4.4779">
        <ele>377.588</ele>
        <time>2020-06-07T06:18:59Z</time>
      </trkpt>
      <trkpt lat="46.50801" lon="4.47787">
        <ele>375.588</ele>
        <time>2020-06-07T06:19:04Z</time>
      </trkpt>
      <trkpt lat="46.50794" lon="4.47785">
        <ele>376.588</ele>
        <time>2020-06-07T06:19:09Z</time>
      </trkpt>
      <trkpt lat="46.50787" lon="4.47784">
        <ele>376.588</ele>
        <time>2020-06-07T06:19:15Z</time>
      </trkpt>
      <trkpt lat="46.5078" lon="4.47783">
        <ele>377.588</ele>
        <time>2020-06-07T06:19:21Z</time>
      </trkpt>
      <trkpt lat="46.50774" lon="4.47779">
        <ele>379.588</ele>
        <time>2020-06-07T06:19:26Z</time>
      </trkpt>
      <trkpt lat="46.50768" lon="4.47772">
        <ele>379.588</ele>
        <time>2020-06-07T06:19:39Z</time>
      </trkpt>
      <trkpt lat="46.50755" lon="4.4777">
        <ele>378.588</ele>
        <time>2020-06-07T06:19:44Z</time>
      </trkpt>
      <trkpt lat="46.50748" lon="4.47769">
        <ele>378.588</ele>
        <time>2020-06-07T06:19:49Z</time>
      </trkpt>
      <trkpt lat="46.50741" lon="4.47765">
        <ele>377.588</ele>
        <time>2020-06-07T06:19:54Z</time>
      </trkpt>
      <trkpt lat="46.50734" lon="4.47761">
        <ele>376.588</ele>
        <time>2020-06-07T06:19:59Z</time>
      </trkpt>
      <trkpt lat="46.50725" lon="4.47756">
        <ele>378.588</ele>
        <time>2020-06-07T06:20:04Z</time>
      </trkpt>
      <trkpt lat="46.50719" lon="4.47754">
        <ele>374.588</ele>
        <time>2020-06-07T06:20:09Z</time>
      </trkpt>
      <trkpt lat="46.50712" lon="4.47749">
        <ele>375.588</ele>
        <time>2020-06-07T06:20:14Z</time>
      </trkpt>
      <trkpt lat="46.50707" lon="4.47736">
        <ele>379.588</ele>
        <time>2020-06-07T06:20:19Z</time>
      </trkpt>
      <trkpt lat="46.50699" lon="4.47731">
        <ele>376.588</ele>
        <time>2020-06-07T06:20:24Z</time>
      </trkpt>
      <trkpt lat="46.50695" lon="4.47723">
        <ele>373.588</ele>
        <time>2020-06-07T06:20:30Z</time>
      </trkpt>
      <trkpt lat="46.50688" lon="4.47723">
        <ele>369.588</ele>
        <time>2020-06-07T06:20:35Z</time>
      </trkpt>
      <trkpt lat="46.50681" lon="4.47721">
        <ele>368.588</ele>
        <time>2020-06-07T06:20:42Z</time>
      </trkpt>
      <trkpt lat="46.50675" lon="4.47707">
        <ele>373.588</ele>
        <time>2020-06-07T06:20:47Z</time>
      </trkpt>
      <trkpt lat="46.50668" lon="4.47693">
        <ele>372.588</ele>
        <time>2020-06-07T06:20:52Z</time>
      </trkpt>
      <trkpt lat="46.50663" lon="4.47683">
        <ele>374.588</ele>
        <time>2020-06-07T06:20:58Z</time>
      </trkpt>
      <trkpt lat="46.50658" lon="4.47672">
        <ele>376.588</ele>
        <time>2020-06-07T06:21:03Z</time>
      </trkpt>
      <trkpt lat="46.50658" lon="4.4766">
        <ele>380.588</ele>
        <time>2020-06-07T06:21:08Z</time>
      </trkpt>
      <trkpt lat="46.50655" lon="4.47649">
        <ele>380.588</ele>
        <time>2020-06-07T06:21:15Z</time>
      </trkpt>
      <trkpt lat="46.50656" lon="4.47637">
        <ele>383.588</ele>
        <time>2020-06-07T06:21:22Z</time>
      </trkpt>
      <trkpt lat="46.50659" lon="4.47624">
        <ele>385.588</ele>
        <time>2020-06-07T06:21:27Z</time>
      </trkpt>
      <trkpt lat="46.50664" lon="4.47616">
        <ele>383.588</ele>
        <time>2020-06-07T06:21:32Z</time>
      </trkpt>
      <trkpt lat="46.50671" lon="4.47609">
        <ele>384.588</ele>
        <time>2020-06-07T06:21:37Z</time>
      </trkpt>
      <trkpt lat="46.50679" lon="4.47606">
        <ele>383.588</ele>
        <time>2020-06-07T06:21:43Z</time>
      </trkpt>
      <trkpt lat="46.50684" lon="4.476">
        <ele>383.588</ele>
        <time>2020-06-07T06:21:50Z</time>
      </trkpt>
      <trkpt lat="46.50691" lon="4.47599">
        <ele>381.588</ele>
        <time>2020-06-07T06:21:57Z</time>
      </trkpt>
      <trkpt lat="46.50697" lon="4.47592">
        <ele>379.588</ele>
        <time>2020-06-07T06:22:04Z</time>
      </trkpt>
      <trkpt lat="46.50702" lon="4.47587">
        <ele>380.588</ele>
        <time>2020-06-07T06:22:09Z</time>
      </trkpt>
      <trkpt lat="46.50709" lon="4.47581">
        <ele>383.588</ele>
        <time>2020-06-07T06:22:14Z</time>
      </trkpt>
      <trkpt lat="46.50716" lon="4.47575">
        <ele>384.588</ele>
        <time>2020-06-07T06:22:19Z</time>
      </trkpt>
      <trkpt lat="46.50721" lon="4.47567">
        <ele>379.588</ele>
        <time>2020-06-07T06:22:28Z</time>
      </trkpt>
      <trkpt lat="46.50728" lon="4.4756">
        <ele>380.588</ele>
        <time>2020-06-07T06:22:33Z</time>
      </trkpt>
      <trkpt lat="46.50734" lon="4.47553">
        <ele>380.588</ele>
        <time>2020-06-07T06:22:38Z</time>
      </trkpt>
      <trkpt lat="46.50739" lon="4.47546">
        <ele>381.588</ele>
        <time>2020-06-07T06:22:44Z</time>
      </trkpt>
      <trkpt lat="46.50745" lon="4.47539">
        <ele>381.588</ele>
        <time>2020-06-07T06:22:52Z</time>
      </trkpt>
      <trkpt lat="46.50751" lon="4.47532">
        <ele>382.588</ele>
        <time>2020-06-07T06:22:58Z</time>
      </trkpt>
      <trkpt lat="46.50759" lon="4.47525">
        <ele>387.588</ele>
        <time>2020-06-07T06:23:03Z</time>
      </trkpt>
      <trkpt lat="46.50762" lon="4.47514">
        <ele>388.588</ele>
        <time>2020-06-07T06:23:10Z</time>
      </trkpt>
      <trkpt lat="46.50762" lon="4.47505">
        <ele>387.588</ele>
        <time>2020-06-07T06:23:15Z</time>
      </trkpt>
      <trkpt lat="46.50764" lon="4.47495">
        <ele>387.588</ele>
        <time>2020-06-07T06:23:20Z</time>
      </trkpt>
      <trkpt lat="46.5076" lon="4.47486">
        <ele>386.588</ele>
        <time>2020-06-07T06:23:26Z</time>
      </trkpt>
      <trkpt lat="46.50756" lon="4.47478">
        <ele>384.588</ele>
        <time>2020-06-07T06:23:31Z</time>
      </trkpt>
      <trkpt lat="46.50754" lon="4.47469">
        <ele>385.588</ele>
        <time>2020-06-07T06:23:36Z</time>
      </trkpt>
      <trkpt lat="46.50747" lon="4.47462">
        <ele>383.588</ele>
        <time>2020-06-07T06:23:43Z</time>
      </trkpt>
      <trkpt lat="46.50742" lon="4.47453">
        <ele>385.588</ele>
        <time>2020-06-07T06:23:50Z</time>
      </trkpt>
      <trkpt lat="46.5074" lon="4.47442">
        <ele>386.588</ele>
        <time>2020-06-07T06:23:55Z</time>
      </trkpt>
      <trkpt lat="46.50736" lon="4.47433">
        <ele>388.588</ele>
        <time>2020-06-07T06:24:01Z</time>
      </trkpt>
      <trkpt lat="46.50731" lon="4.47425">
        <ele>385.588</ele>
        <time>2020-06-07T06:24:07Z</time>
      </trkpt>
      <trkpt lat="46.50727" lon="4.47418">
        <ele>385.588</ele>
        <time>2020-06-07T06:24:12Z</time>
      </trkpt>
      <trkpt lat="46.50723" lon="4.47409">
        <ele>385.588</ele>
        <time>2020-06-07T06:24:18Z</time>
      </trkpt>
      <trkpt lat="46.50721" lon="4.474">
        <ele>390.588</ele>
        <time>2020-06-07T06:24:25Z</time>
      </trkpt>
      <trkpt lat="46.50716" lon="4.47394">
        <ele>390.588</ele>
        <time>2020-06-07T06:24:31Z</time>
      </trkpt>
      <trkpt lat="46.50711" lon="4.47386">
        <ele>390.588</ele>
        <time>2020-06-07T06:24:38Z</time>
      </trkpt>
      <trkpt lat="46.50706" lon="4.47379">
        <ele>391.587</ele>
        <time>2020-06-07T06:24:44Z</time>
      </trkpt>
      <trkpt lat="46.50701" lon="4.47371">
        <ele>391.587</ele>
        <time>2020-06-07T06:24:52Z</time>
      </trkpt>
      <trkpt lat="46.50698" lon="4.47361">
        <ele>393.587</ele>
        <time>2020-06-07T06:24:59Z</time>
      </trkpt>
      <trkpt lat="46.50693" lon="4.47354">
        <ele>395.587</ele>
        <time>2020-06-07T06:25:06Z</time>
      </trkpt>
      <trkpt lat="46.5069" lon="4.47345">
        <ele>397.587</ele>
        <time>2020-06-07T06:25:13Z</time>
      </trkpt>
      <trkpt lat="46.50687" lon="4.47335">
        <ele>397.587</ele>
        <time>2020-06-07T06:25:21Z</time>
      </trkpt>
      <trkpt lat="46.50687" lon="4.47325">
        <ele>400.587</ele>
        <time>2020-06-07T06:25:29Z</time>
      </trkpt>
      <trkpt lat="46.50687" lon="4.47316">
        <ele>400.587</ele>
        <time>2020-06-07T06:25:34Z</time>
      </trkpt>
      <trkpt lat="46.50688" lon="4.47305">
        <ele>401.587</ele>
        <time>2020-06-07T06:25:39Z</time>
      </trkpt>
      <trkpt lat="46.50689" lon="4.47295">
        <ele>405.587</ele>
        <time>2020-06-07T06:25:44Z</time>
      </trkpt>
      <trkpt lat="46.50692" lon="4.47286">
        <ele>407.587</ele>
        <time>2020-06-07T06:25:49Z</time>
      </trkpt>
      <trkpt lat="46.50697" lon="4.47275">
        <ele>406.587</ele>
        <time>2020-06-07T06:25:54Z</time>
      </trkpt>
      <trkpt lat="46.50701" lon="4.47267">
        <ele>407.587</ele>
        <time>2020-06-07T06:25:59Z</time>
      </trkpt>
      <trkpt lat="46.50705" lon="4.47259">
        <ele>407.587</ele>
        <time>2020-06-07T06:26:04Z</time>
      </trkpt>
      <trkpt lat="46.5071" lon="4.47252">
        <ele>404.587</ele>
        <time>2020-06-07T06:26:11Z</time>
      </trkpt>
      <trkpt lat="46.50715" lon="4.47244">
        <ele>404.587</ele>
        <time>2020-06-07T06:26:16Z</time>
      </trkpt>
      <trkpt lat="46.50718" lon="4.47234">
        <ele>403.587</ele>
        <time>2020-06-07T06:26:23Z</time>
      </trkpt>
      <trkpt lat="46.50722" lon="4.47225">
        <ele>402.587</ele>
        <time>2020-06-07T06:26:28Z</time>
      </trkpt>
      <trkpt lat="46.50727" lon="4.47217">
        <ele>399.587</ele>
        <time>2020-06-07T06:26:35Z</time>
      </trkpt>
      <trkpt lat="46.50733" lon="4.47213">
        <ele>399.587</ele>
        <time>2020-06-07T06:26:40Z</time>
      </trkpt>
      <trkpt lat="46.50739" lon="4.47207">
        <ele>399.587</ele>
        <time>2020-06-07T06:26:45Z</time>
      </trkpt>
      <trkpt lat="46.50744" lon="4.472">
        <ele>401.587</ele>
        <time>2020-06-07T06:26:50Z</time>
      </trkpt>
      <trkpt lat="46.50745" lon="4.4719">
        <ele>405.587</ele>
        <time>2020-06-07T06:26:56Z</time>
      </trkpt>
      <trkpt lat="46.50745" lon="4.4718">
        <ele>403.587</ele>
        <time>2020-06-07T06:27:02Z</time>
      </trkpt>
      <trkpt lat="46.50743" lon="4.47169">
        <ele>404.587</ele>
        <time>2020-06-07T06:27:08Z</time>
      </trkpt>
      <trkpt lat="46.50741" lon="4.4716">
        <ele>406.587</ele>
        <time>2020-06-07T06:27:13Z</time>
      </trkpt>
      <trkpt lat="46.50739" lon="4.47149">
        <ele>405.587</ele>
        <time>2020-06-07T06:27:18Z</time>
      </trkpt>
      <trkpt lat="46.50734" lon="4.4714">
        <ele>404.587</ele>
        <time>2020-06-07T06:27:23Z</time>
      </trkpt>
      <trkpt lat="46.50729" lon="4.47133">
        <ele>404.587</ele>
        <time>2020-06-07T06:27:29Z</time>
      </trkpt>
      <trkpt lat="46.50724" lon="4.47123">
        <ele>403.587</ele>
        <time>2020-06-07T06:27:35Z</time>
      </trkpt>
      <trkpt lat="46.50713" lon="4.47119">
        <ele>398.587</ele>
        <time>2020-06-07T06:27:40Z</time>
      </trkpt>
      <trkpt lat="46.50709" lon="4.47109">
        <ele>399.587</ele>
        <time>2020-06-07T06:27:46Z</time>
      </trkpt>
      <trkpt lat="46.50703" lon="4.47103">
        <ele>398.587</ele>
        <time>2020-06-07T06:27:51Z</time>
      </trkpt>
      <trkpt lat="46.50697" lon="4.47096">
        <ele>397.587</ele>
        <time>2020-06-07T06:27:56Z</time>
      </trkpt>
      <trkpt lat="46.50693" lon="4.47089">
        <ele>396.587</ele>
        <time>2020-06-07T06:28:02Z</time>
      </trkpt>
      <trkpt lat="46.5069" lon="4.4708">
        <ele>395.587</ele>
        <time>2020-06-07T06:28:08Z</time>
      </trkpt>
      <trkpt lat="46.50685" lon="4.47071">
        <ele>396.587</ele>
        <time>2020-06-07T06:28:13Z</time>
      </trkpt>
      <trkpt lat="46.5068" lon="4.47062">
        <ele>396.587</ele>
        <time>2020-06-07T06:28:19Z</time>
      </trkpt>
      <trkpt lat="46.50674" lon="4.47056">
        <ele>395.587</ele>
        <time>2020-06-07T06:28:24Z</time>
      </trkpt>
      <trkpt lat="46.50669" lon="4.47046">
        <ele>394.587</ele>
        <time>2020-06-07T06:28:29Z</time>
      </trkpt>
      <trkpt lat="46.50666" lon="4.47034">
        <ele>395.587</ele>
        <time>2020-06-07T06:28:34Z</time>
      </trkpt>
      <trkpt lat="46.50661" lon="4.47027">
        <ele>393.587</ele>
        <time>2020-06-07T06:28:41Z</time>
      </trkpt>
      <trkpt lat="46.50655" lon="4.47021">
        <ele>391.587</ele>
        <time>2020-06-07T06:28:46Z</time>
      </trkpt>
      <trkpt lat="46.5065" lon="4.47013">
        <ele>392.587</ele>
        <time>2020-06-07T06:28:51Z</time>
      </trkpt>
      <trkpt lat="46.50645" lon="4.47006">
        <ele>391.587</ele>
        <time>2020-06-07T06:28:57Z</time>
      </trkpt>
      <trkpt lat="46.50641" lon="4.46995">
        <ele>392.587</ele>
        <time>2020-06-07T06:29:02Z</time>
      </trkpt>
      <trkpt lat="46.50636" lon="4.46985">
        <ele>391.587</ele>
        <time>2020-06-07T06:29:07Z</time>
      </trkpt>
      <trkpt lat="46.50632" lon="4.46977">
        <ele>390.587</ele>
        <time>2020-06-07T06:29:13Z</time>
      </trkpt>
      <trkpt lat="46.50626" lon="4.46968">
        <ele>388.587</ele>
        <time>2020-06-07T06:29:19Z</time>
      </trkpt>
      <trkpt lat="46.50624" lon="4.46958">
        <ele>389.587</ele>
        <time>2020-06-07T06:29:24Z</time>
      </trkpt>
      <trkpt lat="46.50616" lon="4.46943">
        <ele>389.587</ele>
        <time>2020-06-07T06:29:29Z</time>
      </trkpt>
      <trkpt lat="46.50613" lon="4.46933">
        <ele>388.587</ele>
        <time>2020-06-07T06:29:34Z</time>
      </trkpt>
      <trkpt lat="46.5061" lon="4.46922">
        <ele>388.587</ele>
        <time>2020-06-07T06:29:39Z</time>
      </trkpt>
      <trkpt lat="46.50607" lon="4.46913">
        <ele>388.587</ele>
        <time>2020-06-07T06:29:44Z</time>
      </trkpt>
      <trkpt lat="46.50605" lon="4.46901">
        <ele>387.587</ele>
        <time>2020-06-07T06:29:49Z</time>
      </trkpt>
      <trkpt lat="46.50606" lon="4.46888">
        <ele>388.587</ele>
        <time>2020-06-07T06:29:54Z</time>
      </trkpt>
      <trkpt lat="46.50607" lon="4.46878">
        <ele>390.587</ele>
        <time>2020-06-07T06:29:59Z</time>
      </trkpt>
      <trkpt lat="46.50606" lon="4.46869">
        <ele>386.587</ele>
        <time>2020-06-07T06:30:05Z</time>
      </trkpt>
      <trkpt lat="46.50606" lon="4.46855">
        <ele>387.587</ele>
        <time>2020-06-07T06:30:10Z</time>
      </trkpt>
      <trkpt lat="46.50605" lon="4.46844">
        <ele>388.587</ele>
        <time>2020-06-07T06:30:15Z</time>
      </trkpt>
      <trkpt lat="46.50604" lon="4.46833">
        <ele>389.587</ele>
        <time>2020-06-07T06:30:20Z</time>
      </trkpt>
      <trkpt lat="46.50601" lon="4.46823">
        <ele>390.587</ele>
        <time>2020-06-07T06:30:26Z</time>
      </trkpt>
      <trkpt lat="46.50599" lon="4.4681">
        <ele>391.587</ele>
        <time>2020-06-07T06:30:31Z</time>
      </trkpt>
      <trkpt lat="46.50598" lon="4.46799">
        <ele>394.587</ele>
        <time>2020-06-07T06:30:36Z</time>
      </trkpt>
      <trkpt lat="46.50595" lon="4.4679">
        <ele>394.587</ele>
        <time>2020-06-07T06:30:41Z</time>
      </trkpt>
      <trkpt lat="46.50594" lon="4.46778">
        <ele>392.587</ele>
        <time>2020-06-07T06:30:46Z</time>
      </trkpt>
      <trkpt lat="46.50588" lon="4.46771">
        <ele>394.587</ele>
        <time>2020-06-07T06:30:55Z</time>
      </trkpt>
      <trkpt lat="46.50581" lon="4.46772">
        <ele>393.587</ele>
        <time>2020-06-07T06:31:00Z</time>
      </trkpt>
      <trkpt lat="46.50575" lon="4.46767">
        <ele>394.587</ele>
        <time>2020-06-07T06:31:08Z</time>
      </trkpt>
      <trkpt lat="46.5057" lon="4.46761">
        <ele>389.587</ele>
        <time>2020-06-07T06:31:13Z</time>
      </trkpt>
      <trkpt lat="46.50562" lon="4.4676">
        <ele>386.587</ele>
        <time>2020-06-07T06:31:18Z</time>
      </trkpt>
      <trkpt lat="46.50556" lon="4.46756">
        <ele>387.587</ele>
        <time>2020-06-07T06:31:23Z</time>
      </trkpt>
      <trkpt lat="46.50551" lon="4.46744">
        <ele>386.587</ele>
        <time>2020-06-07T06:31:28Z</time>
      </trkpt>
      <trkpt lat="46.50545" lon="4.46738">
        <ele>387.587</ele>
        <time>2020-06-07T06:31:36Z</time>
      </trkpt>
      <trkpt lat="46.5054" lon="4.46726">
        <ele>392.587</ele>
        <time>2020-06-07T06:31:41Z</time>
      </trkpt>
      <trkpt lat="46.50536" lon="4.46718">
        <ele>395.587</ele>
        <time>2020-06-07T06:31:47Z</time>
      </trkpt>
      <trkpt lat="46.50529" lon="4.46709">
        <ele>399.586</ele>
        <time>2020-06-07T06:31:54Z</time>
      </trkpt>
      <trkpt lat="46.50522" lon="4.46704">
        <ele>400.586</ele>
        <time>2020-06-07T06:31:59Z</time>
      </trkpt>
      <trkpt lat="46.50516" lon="4.46699">
        <ele>398.586</ele>
        <time>2020-06-07T06:32:04Z</time>
      </trkpt>
      <trkpt lat="46.50508" lon="4.46694">
        <ele>398.586</ele>
        <time>2020-06-07T06:32:09Z</time>
      </trkpt>
      <trkpt lat="46.50501" lon="4.46691">
        <ele>400.586</ele>
        <time>2020-06-07T06:32:16Z</time>
      </trkpt>
      <trkpt lat="46.50496" lon="4.46686">
        <ele>400.586</ele>
        <time>2020-06-07T06:32:22Z</time>
      </trkpt>
      <trkpt lat="46.50489" lon="4.4668">
        <ele>400.586</ele>
        <time>2020-06-07T06:32:30Z</time>
      </trkpt>
      <trkpt lat="46.50481" lon="4.46673">
        <ele>399.586</ele>
        <time>2020-06-07T06:32:35Z</time>
      </trkpt>
      <trkpt lat="46.50476" lon="4.46666">
        <ele>402.586</ele>
        <time>2020-06-07T06:32:40Z</time>
      </trkpt>
      <trkpt lat="46.50468" lon="4.46662">
        <ele>400.586</ele>
        <time>2020-06-07T06:32:45Z</time>
      </trkpt>
      <trkpt lat="46.50463" lon="4.46654">
        <ele>402.586</ele>
        <time>2020-06-07T06:32:51Z</time>
      </trkpt>
      <trkpt lat="46.50458" lon="4.46646">
        <ele>400.586</ele>
        <time>2020-06-07T06:32:56Z</time>
      </trkpt>
      <trkpt lat="46.50453" lon="4.46638">
        <ele>399.586</ele>
        <time>2020-06-07T06:33:01Z</time>
      </trkpt>
      <trkpt lat="46.50447" lon="4.46631">
        <ele>398.586</ele>
        <time>2020-06-07T06:33:06Z</time>
      </trkpt>
      <trkpt lat="46.50442" lon="4.46625">
        <ele>399.586</ele>
        <time>2020-06-07T06:33:12Z</time>
      </trkpt>
      <trkpt lat="46.50436" lon="4.46619">
        <ele>396.586</ele>
        <time>2020-06-07T06:33:19Z</time>
      </trkpt>
      <trkpt lat="46.50433" lon="4.4661">
        <ele>397.586</ele>
        <time>2020-06-07T06:33:25Z</time>
      </trkpt>
      <trkpt lat="46.50427" lon="4.46605">
        <ele>396.586</ele>
        <time>2020-06-07T06:33:30Z</time>
      </trkpt>
      <trkpt lat="46.50421" lon="4.46601">
        <ele>395.586</ele>
        <time>2020-06-07T06:33:35Z</time>
      </trkpt>
      <trkpt lat="46.50416" lon="4.46595">
        <ele>394.586</ele>
        <time>2020-06-07T06:33:40Z</time>
      </trkpt>
      <trkpt lat="46.50409" lon="4.46598">
        <ele>392.586</ele>
        <time>2020-06-07T06:33:46Z</time>
      </trkpt>
      <trkpt lat="46.50404" lon="4.46604">
        <ele>393.586</ele>
        <time>2020-06-07T06:33:51Z</time>
      </trkpt>
      <trkpt lat="46.50398" lon="4.4661">
        <ele>393.586</ele>
        <time>2020-06-07T06:33:57Z</time>
      </trkpt>
      <trkpt lat="46.50392" lon="4.46616">
        <ele>393.586</ele>
        <time>2020-06-07T06:34:03Z</time>
      </trkpt>
      <trkpt lat="46.50386" lon="4.46621">
        <ele>390.586</ele>
        <time>2020-06-07T06:34:08Z</time>
      </trkpt>
      <trkpt lat="46.50379" lon="4.46628">
        <ele>391.586</ele>
        <time>2020-06-07T06:34:13Z</time>
      </trkpt>
      <trkpt lat="46.50373" lon="4.46634">
        <ele>391.586</ele>
        <time>2020-06-07T06:34:20Z</time>
      </trkpt>
      <trkpt lat="46.50366" lon="4.46638">
        <ele>390.586</ele>
        <time>2020-06-07T06:34:26Z</time>
      </trkpt>
      <trkpt lat="46.50359" lon="4.46646">
        <ele>394.586</ele>
        <time>2020-06-07T06:34:31Z</time>
      </trkpt>
      <trkpt lat="46.50353" lon="4.46653">
        <ele>393.586</ele>
        <time>2020-06-07T06:34:36Z</time>
      </trkpt>
      <trkpt lat="46.50345" lon="4.46653">
        <ele>395.586</ele>
        <time>2020-06-07T06:34:41Z</time>
      </trkpt>
      <trkpt lat="46.50339" lon="4.46658">
        <ele>393.586</ele>
        <time>2020-06-07T06:34:47Z</time>
      </trkpt>
      <trkpt lat="46.50334" lon="4.46667">
        <ele>394.586</ele>
        <time>2020-06-07T06:34:52Z</time>
      </trkpt>
      <trkpt lat="46.5033" lon="4.46673">
        <ele>395.586</ele>
        <time>2020-06-07T06:34:57Z</time>
      </trkpt>
      <trkpt lat="46.50322" lon="4.46679">
        <ele>399.586</ele>
        <time>2020-06-07T06:35:02Z</time>
      </trkpt>
      <trkpt lat="46.50317" lon="4.46686">
        <ele>398.586</ele>
        <time>2020-06-07T06:35:07Z</time>
      </trkpt>
      <trkpt lat="46.50311" lon="4.46694">
        <ele>400.586</ele>
        <time>2020-06-07T06:35:12Z</time>
      </trkpt>
      <trkpt lat="46.50305" lon="4.46699">
        <ele>399.586</ele>
        <time>2020-06-07T06:35:19Z</time>
      </trkpt>
      <trkpt lat="46.50299" lon="4.46695">
        <ele>397.586</ele>
        <time>2020-06-07T06:35:24Z</time>
      </trkpt>
      <trkpt lat="46.50292" lon="4.46688">
        <ele>399.586</ele>
        <time>2020-06-07T06:35:31Z</time>
      </trkpt>
      <trkpt lat="46.50285" lon="4.46683">
        <ele>400.586</ele>
        <time>2020-06-07T06:35:36Z</time>
      </trkpt>
      <trkpt lat="46.50279" lon="4.46675">
        <ele>401.586</ele>
        <time>2020-06-07T06:35:42Z</time>
      </trkpt>
      <trkpt lat="46.50272" lon="4.46673">
        <ele>401.586</ele>
        <time>2020-06-07T06:35:48Z</time>
      </trkpt>
      <trkpt lat="46.50266" lon="4.46665">
        <ele>402.586</ele>
        <time>2020-06-07T06:35:54Z</time>
      </trkpt>
      <trkpt lat="46.50259" lon="4.46657">
        <ele>400.586</ele>
        <time>2020-06-07T06:35:59Z</time>
      </trkpt>
      <trkpt lat="46.50253" lon="4.46652">
        <ele>400.586</ele>
        <time>2020-06-07T06:36:04Z</time>
      </trkpt>
      <trkpt lat="46.50247" lon="4.46646">
        <ele>403.586</ele>
        <time>2020-06-07T06:36:12Z</time>
      </trkpt>
      <trkpt lat="46.5024" lon="4.46637">
        <ele>403.586</ele>
        <time>2020-06-07T06:36:17Z</time>
      </trkpt>
      <trkpt lat="46.50236" lon="4.46628">
        <ele>403.586</ele>
        <time>2020-06-07T06:36:22Z</time>
      </trkpt>
      <trkpt lat="46.50229" lon="4.46626">
        <ele>404.586</ele>
        <time>2020-06-07T06:36:27Z</time>
      </trkpt>
      <trkpt lat="46.50223" lon="4.46619">
        <ele>405.586</ele>
        <time>2020-06-07T06:36:33Z</time>
      </trkpt>
      <trkpt lat="46.50219" lon="4.46612">
        <ele>405.586</ele>
        <time>2020-06-07T06:36:38Z</time>
      </trkpt>
      <trkpt lat="46.50212" lon="4.46608">
        <ele>404.586</ele>
        <time>2020-06-07T06:36:44Z</time>
      </trkpt>
      <trkpt lat="46.50206" lon="4.46604">
        <ele>406.586</ele>
        <time>2020-06-07T06:36:50Z</time>
      </trkpt>
      <trkpt lat="46.50201" lon="4.46597">
        <ele>407.586</ele>
        <time>2020-06-07T06:36:55Z</time>
      </trkpt>
      <trkpt lat="46.50195" lon="4.46591">
        <ele>407.585</ele>
        <time>2020-06-07T06:37:00Z</time>
      </trkpt>
      <trkpt lat="46.50189" lon="4.46591">
        <ele>408.585</ele>
        <time>2020-06-07T06:37:06Z</time>
      </trkpt>
      <trkpt lat="46.50181" lon="4.46588">
        <ele>408.585</ele>
        <time>2020-06-07T06:37:11Z</time>
      </trkpt>
      <trkpt lat="46.50174" lon="4.46585">
        <ele>408.585</ele>
        <time>2020-06-07T06:37:16Z</time>
      </trkpt>
      <trkpt lat="46.50167" lon="4.46583">
        <ele>409.585</ele>
        <time>2020-06-07T06:37:21Z</time>
      </trkpt>
      <trkpt lat="46.50159" lon="4.46584">
        <ele>411.585</ele>
        <time>2020-06-07T06:37:27Z</time>
      </trkpt>
      <trkpt lat="46.50152" lon="4.46582">
        <ele>409.585</ele>
        <time>2020-06-07T06:37:32Z</time>
      </trkpt>
      <trkpt lat="46.50144" lon="4.46583">
        <ele>410.585</ele>
        <time>2020-06-07T06:37:38Z</time>
      </trkpt>
      <trkpt lat="46.50138" lon="4.46586">
        <ele>410.585</ele>
        <time>2020-06-07T06:37:44Z</time>
      </trkpt>
      <trkpt lat="46.50129" lon="4.46586">
        <ele>412.585</ele>
        <time>2020-06-07T06:37:49Z</time>
      </trkpt>
      <trkpt lat="46.50123" lon="4.46587">
        <ele>412.585</ele>
        <time>2020-06-07T06:37:54Z</time>
      </trkpt>
      <trkpt lat="46.50115" lon="4.46586">
        <ele>413.585</ele>
        <time>2020-06-07T06:37:59Z</time>
      </trkpt>
      <trkpt lat="46.50107" lon="4.46586">
        <ele>411.585</ele>
        <time>2020-06-07T06:38:04Z</time>
      </trkpt>
      <trkpt lat="46.50098" lon="4.46587">
        <ele>413.585</ele>
        <time>2020-06-07T06:38:09Z</time>
      </trkpt>
      <trkpt lat="46.50088" lon="4.46583">
        <ele>411.585</ele>
        <time>2020-06-07T06:38:14Z</time>
      </trkpt>
      <trkpt lat="46.50082" lon="4.46583">
        <ele>406.585</ele>
        <time>2020-06-07T06:38:21Z</time>
      </trkpt>
      <trkpt lat="46.50076" lon="4.46579">
        <ele>404.585</ele>
        <time>2020-06-07T06:38:26Z</time>
      </trkpt>
      <trkpt lat="46.50068" lon="4.46577">
        <ele>404.585</ele>
        <time>2020-06-07T06:38:31Z</time>
      </trkpt>
      <trkpt lat="46.5006" lon="4.46574">
        <ele>403.585</ele>
        <time>2020-06-07T06:38:36Z</time>
      </trkpt>
      <trkpt lat="46.50053" lon="4.4657">
        <ele>401.585</ele>
        <time>2020-06-07T06:38:41Z</time>
      </trkpt>
      <trkpt lat="46.50044" lon="4.46569">
        <ele>403.585</ele>
        <time>2020-06-07T06:38:46Z</time>
      </trkpt>
      <trkpt lat="46.50037" lon="4.46565">
        <ele>404.585</ele>
        <time>2020-06-07T06:38:51Z</time>
      </trkpt>
      <trkpt lat="46.50031" lon="4.46566">
        <ele>398.585</ele>
        <time>2020-06-07T06:38:58Z</time>
      </trkpt>
      <trkpt lat="46.50024" lon="4.4656">
        <ele>401.585</ele>
        <time>2020-06-07T06:39:03Z</time>
      </trkpt>
      <trkpt lat="46.50017" lon="4.46553">
        <ele>399.585</ele>
        <time>2020-06-07T06:39:08Z</time>
      </trkpt>
      <trkpt lat="46.5001" lon="4.46548">
        <ele>400.585</ele>
        <time>2020-06-07T06:39:13Z</time>
      </trkpt>
      <trkpt lat="46.50004" lon="4.46543">
        <ele>399.585</ele>
        <time>2020-06-07T06:39:18Z</time>
      </trkpt>
      <trkpt lat="46.5" lon="4.46534">
        <ele>398.585</ele>
        <time>2020-06-07T06:39:23Z</time>
      </trkpt>
      <trkpt lat="46.49995" lon="4.46528">
        <ele>400.585</ele>
        <time>2020-06-07T06:39:28Z</time>
      </trkpt>
      <trkpt lat="46.49989" lon="4.46521">
        <ele>400.585</ele>
        <time>2020-06-07T06:39:34Z</time>
      </trkpt>
      <trkpt lat="46.49986" lon="4.46512">
        <ele>401.585</ele>
        <time>2020-06-07T06:39:39Z</time>
      </trkpt>
      <trkpt lat="46.49981" lon="4.46505">
        <ele>399.585</ele>
        <time>2020-06-07T06:39:44Z</time>
      </trkpt>
      <trkpt lat="46.49974" lon="4.46496">
        <ele>398.585</ele>
        <time>2020-06-07T06:39:49Z</time>
      </trkpt>
      <trkpt lat="46.49967" lon="4.46493">
        <ele>398.585</ele>
        <time>2020-06-07T06:39:54Z</time>
      </trkpt>
      <trkpt lat="46.49961" lon="4.46489">
        <ele>398.585</ele>
        <time>2020-06-07T06:39:59Z</time>
      </trkpt>
      <trkpt lat="46.49954" lon="4.46487">
        <ele>400.585</ele>
        <time>2020-06-07T06:40:04Z</time>
      </trkpt>
      <trkpt lat="46.49947" lon="4.46486">
        <ele>396.585</ele>
        <time>2020-06-07T06:40:10Z</time>
      </trkpt>
      <trkpt lat="46.4994" lon="4.46486">
        <ele>394.585</ele>
        <time>2020-06-07T06:40:16Z</time>
      </trkpt>
      <trkpt lat="46.49931" lon="4.4648">
        <ele>394.585</ele>
        <time>2020-06-07T06:40:21Z</time>
      </trkpt>
      <trkpt lat="46.49924" lon="4.46478">
        <ele>394.585</ele>
        <time>2020-06-07T06:40:26Z</time>
      </trkpt>
      <trkpt lat="46.49916" lon="4.46472">
        <ele>394.585</ele>
        <time>2020-06-07T06:40:31Z</time>
      </trkpt>
      <trkpt lat="46.49909" lon="4.46468">
        <ele>394.585</ele>
        <time>2020-06-07T06:40:37Z</time>
      </trkpt>
      <trkpt lat="46.49903" lon="4.46464">
        <ele>392.585</ele>
        <time>2020-06-07T06:40:43Z</time>
      </trkpt>
      <trkpt lat="46.49895" lon="4.46462">
        <ele>392.585</ele>
        <time>2020-06-07T06:40:48Z</time>
      </trkpt>
      <trkpt lat="46.49886" lon="4.46456">
        <ele>391.585</ele>
        <time>2020-06-07T06:40:53Z</time>
      </trkpt>
      <trkpt lat="46.4988" lon="4.46458">
        <ele>393.585</ele>
        <time>2020-06-07T06:40:58Z</time>
      </trkpt>
      <trkpt lat="46.49871" lon="4.46455">
        <ele>392.584</ele>
        <time>2020-06-07T06:41:03Z</time>
      </trkpt>
      <trkpt lat="46.49864" lon="4.46453">
        <ele>389.584</ele>
        <time>2020-06-07T06:41:08Z</time>
      </trkpt>
      <trkpt lat="46.49857" lon="4.46453">
        <ele>388.584</ele>
        <time>2020-06-07T06:41:13Z</time>
      </trkpt>
      <trkpt lat="46.4985" lon="4.46456">
        <ele>388.584</ele>
        <time>2020-06-07T06:41:18Z</time>
      </trkpt>
      <trkpt lat="46.49842" lon="4.46447">
        <ele>388.584</ele>
        <time>2020-06-07T06:41:23Z</time>
      </trkpt>
      <trkpt lat="46.49835" lon="4.46441">
        <ele>388.584</ele>
        <time>2020-06-07T06:41:28Z</time>
      </trkpt>
      <trkpt lat="46.49828" lon="4.46437">
        <ele>386.584</ele>
        <time>2020-06-07T06:41:34Z</time>
      </trkpt>
      <trkpt lat="46.49822" lon="4.46433">
        <ele>388.584</ele>
        <time>2020-06-07T06:41:39Z</time>
      </trkpt>
      <trkpt lat="46.49815" lon="4.46431">
        <ele>387.584</ele>
        <time>2020-06-07T06:41:44Z</time>
      </trkpt>
      <trkpt lat="46.49807" lon="4.46425">
        <ele>387.584</ele>
        <time>2020-06-07T06:41:49Z</time>
      </trkpt>
      <trkpt lat="46.498" lon="4.4642">
        <ele>389.584</ele>
        <time>2020-06-07T06:41:54Z</time>
      </trkpt>
      <trkpt lat="46.49792" lon="4.46416">
        <ele>388.584</ele>
        <time>2020-06-07T06:41:59Z</time>
      </trkpt>
      <trkpt lat="46.49785" lon="4.4641">
        <ele>389.584</ele>
        <time>2020-06-07T06:42:04Z</time>
      </trkpt>
      <trkpt lat="46.49777" lon="4.46404">
        <ele>388.584</ele>
        <time>2020-06-07T06:42:09Z</time>
      </trkpt>
      <trkpt lat="46.4977" lon="4.46401">
        <ele>386.584</ele>
        <time>2020-06-07T06:42:14Z</time>
      </trkpt>
      <trkpt lat="46.49762" lon="4.46397">
        <ele>387.584</ele>
        <time>2020-06-07T06:42:19Z</time>
      </trkpt>
      <trkpt lat="46.49755" lon="4.46393">
        <ele>387.584</ele>
        <time>2020-06-07T06:42:24Z</time>
      </trkpt>
      <trkpt lat="46.49749" lon="4.46389">
        <ele>388.584</ele>
        <time>2020-06-07T06:42:29Z</time>
      </trkpt>
      <trkpt lat="46.49744" lon="4.46381">
        <ele>389.584</ele>
        <time>2020-06-07T06:42:34Z</time>
      </trkpt>
      <trkpt lat="46.49739" lon="4.46371">
        <ele>387.584</ele>
        <time>2020-06-07T06:42:39Z</time>
      </trkpt>
      <trkpt lat="46.49737" lon="4.4636">
        <ele>386.584</ele>
        <time>2020-06-07T06:42:44Z</time>
      </trkpt>
      <trkpt lat="46.49736" lon="4.46349">
        <ele>385.584</ele>
        <time>2020-06-07T06:42:49Z</time>
      </trkpt>
      <trkpt lat="46.49735" lon="4.46339">
        <ele>385.584</ele>
        <time>2020-06-07T06:42:54Z</time>
      </trkpt>
      <trkpt lat="46.49733" lon="4.46329">
        <ele>381.584</ele>
        <time>2020-06-07T06:42:59Z</time>
      </trkpt>
      <trkpt lat="46.49732" lon="4.46319">
        <ele>383.584</ele>
        <time>2020-06-07T06:43:06Z</time>
      </trkpt>
      <trkpt lat="46.4973" lon="4.4631">
        <ele>379.584</ele>
        <time>2020-06-07T06:43:11Z</time>
      </trkpt>
      <trkpt lat="46.49726" lon="4.463">
        <ele>378.584</ele>
        <time>2020-06-07T06:43:19Z</time>
      </trkpt>
      <trkpt lat="46.49721" lon="4.46289">
        <ele>375.584</ele>
        <time>2020-06-07T06:43:24Z</time>
      </trkpt>
      <trkpt lat="46.49717" lon="4.46281">
        <ele>376.584</ele>
        <time>2020-06-07T06:43:35Z</time>
      </trkpt>
      <trkpt lat="46.49713" lon="4.4627">
        <ele>372.584</ele>
        <time>2020-06-07T06:43:41Z</time>
      </trkpt>
      <trkpt lat="46.4971" lon="4.4626">
        <ele>368.584</ele>
        <time>2020-06-07T06:43:49Z</time>
      </trkpt>
      <trkpt lat="46.49708" lon="4.4625">
        <ele>366.584</ele>
        <time>2020-06-07T06:43:54Z</time>
      </trkpt>
      <trkpt lat="46.49703" lon="4.46241">
        <ele>364.584</ele>
        <time>2020-06-07T06:43:59Z</time>
      </trkpt>
      <trkpt lat="46.49699" lon="4.46233">
        <ele>365.584</ele>
        <time>2020-06-07T06:44:04Z</time>
      </trkpt>
      <trkpt lat="46.49693" lon="4.46225">
        <ele>366.584</ele>
        <time>2020-06-07T06:44:09Z</time>
      </trkpt>
      <trkpt lat="46.49688" lon="4.46217">
        <ele>367.584</ele>
        <time>2020-06-07T06:44:14Z</time>
      </trkpt>
      <trkpt lat="46.49682" lon="4.46209">
        <ele>365.584</ele>
        <time>2020-06-07T06:44:19Z</time>
      </trkpt>
      <trkpt lat="46.49674" lon="4.46201">
        <ele>363.584</ele>
        <time>2020-06-07T06:44:24Z</time>
      </trkpt>
      <trkpt lat="46.49668" lon="4.46197">
        <ele>363.584</ele>
        <time>2020-06-07T06:44:29Z</time>
      </trkpt>
      <trkpt lat="46.4966" lon="4.46192">
        <ele>363.584</ele>
        <time>2020-06-07T06:44:34Z</time>
      </trkpt>
      <trkpt lat="46.49653" lon="4.46187">
        <ele>362.584</ele>
        <time>2020-06-07T06:44:39Z</time>
      </trkpt>
      <trkpt lat="46.49646" lon="4.46188">
        <ele>361.584</ele>
        <time>2020-06-07T06:44:44Z</time>
      </trkpt>
      <trkpt lat="46.49639" lon="4.4619">
        <ele>362.584</ele>
        <time>2020-06-07T06:44:49Z</time>
      </trkpt>
      <trkpt lat="46.4963" lon="4.46191">
        <ele>366.584</ele>
        <time>2020-06-07T06:44:54Z</time>
      </trkpt>
      <trkpt lat="46.49622" lon="4.46194">
        <ele>367.584</ele>
        <time>2020-06-07T06:44:59Z</time>
      </trkpt>
      <trkpt lat="46.49615" lon="4.462">
        <ele>366.584</ele>
        <time>2020-06-07T06:45:04Z</time>
      </trkpt>
      <trkpt lat="46.49606" lon="4.46206">
        <ele>365.584</ele>
        <time>2020-06-07T06:45:09Z</time>
      </trkpt>
      <trkpt lat="46.49598" lon="4.4621">
        <ele>367.584</ele>
        <time>2020-06-07T06:45:14Z</time>
      </trkpt>
      <trkpt lat="46.49592" lon="4.46216">
        <ele>367.584</ele>
        <time>2020-06-07T06:45:20Z</time>
      </trkpt>
      <trkpt lat="46.49586" lon="4.46223">
        <ele>368.584</ele>
        <time>2020-06-07T06:45:25Z</time>
      </trkpt>
      <trkpt lat="46.49577" lon="4.46226">
        <ele>370.584</ele>
        <time>2020-06-07T06:45:30Z</time>
      </trkpt>
      <trkpt lat="46.49572" lon="4.46234">
        <ele>368.583</ele>
        <time>2020-06-07T06:45:36Z</time>
      </trkpt>
      <trkpt lat="46.49564" lon="4.46237">
        <ele>373.583</ele>
        <time>2020-06-07T06:45:41Z</time>
      </trkpt>
      <trkpt lat="46.49558" lon="4.46238">
        <ele>372.583</ele>
        <time>2020-06-07T06:45:46Z</time>
      </trkpt>
      <trkpt lat="46.49552" lon="4.46243">
        <ele>368.583</ele>
        <time>2020-06-07T06:45:54Z</time>
      </trkpt>
      <trkpt lat="46.49546" lon="4.4625">
        <ele>364.583</ele>
        <time>2020-06-07T06:46:01Z</time>
      </trkpt>
      <trkpt lat="46.49541" lon="4.46258">
        <ele>359.583</ele>
        <time>2020-06-07T06:46:09Z</time>
      </trkpt>
      <trkpt lat="46.49534" lon="4.46262">
        <ele>360.583</ele>
        <time>2020-06-07T06:46:17Z</time>
      </trkpt>
      <trkpt lat="46.49528" lon="4.46269">
        <ele>363.583</ele>
        <time>2020-06-07T06:46:23Z</time>
      </trkpt>
      <trkpt lat="46.49524" lon="4.46277">
        <ele>363.583</ele>
        <time>2020-06-07T06:46:30Z</time>
      </trkpt>
      <trkpt lat="46.49518" lon="4.46284">
        <ele>363.583</ele>
        <time>2020-06-07T06:46:37Z</time>
      </trkpt>
      <trkpt lat="46.49508" lon="4.46287">
        <ele>367.583</ele>
        <time>2020-06-07T06:46:42Z</time>
      </trkpt>
      <trkpt lat="46.49501" lon="4.46292">
        <ele>371.583</ele>
        <time>2020-06-07T06:46:47Z</time>
      </trkpt>
      <trkpt lat="46.49495" lon="4.46297">
        <ele>373.583</ele>
        <time>2020-06-07T06:46:52Z</time>
      </trkpt>
      <trkpt lat="46.49485" lon="4.463">
        <ele>376.583</ele>
        <time>2020-06-07T06:46:57Z</time>
      </trkpt>
      <trkpt lat="46.49478" lon="4.46303">
        <ele>374.583</ele>
        <time>2020-06-07T06:47:05Z</time>
      </trkpt>
      <trkpt lat="46.49469" lon="4.46309">
        <ele>373.583</ele>
        <time>2020-06-07T06:47:10Z</time>
      </trkpt>
      <trkpt lat="46.49462" lon="4.46313">
        <ele>375.583</ele>
        <time>2020-06-07T06:47:15Z</time>
      </trkpt>
      <trkpt lat="46.49456" lon="4.46318">
        <ele>375.583</ele>
        <time>2020-06-07T06:47:21Z</time>
      </trkpt>
      <trkpt lat="46.49449" lon="4.46322">
        <ele>375.583</ele>
        <time>2020-06-07T06:47:26Z</time>
      </trkpt>
      <trkpt lat="46.49443" lon="4.46328">
        <ele>378.583</ele>
        <time>2020-06-07T06:47:32Z</time>
      </trkpt>
      <trkpt lat="46.49436" lon="4.46332">
        <ele>382.583</ele>
        <time>2020-06-07T06:47:38Z</time>
      </trkpt>
      <trkpt lat="46.4943" lon="4.46338">
        <ele>385.583</ele>
        <time>2020-06-07T06:47:43Z</time>
      </trkpt>
      <trkpt lat="46.49423" lon="4.4634">
        <ele>383.583</ele>
        <time>2020-06-07T06:47:49Z</time>
      </trkpt>
      <trkpt lat="46.49418" lon="4.46346">
        <ele>383.583</ele>
        <time>2020-06-07T06:47:55Z</time>
      </trkpt>
      <trkpt lat="46.49414" lon="4.46354">
        <ele>388.583</ele>
        <time>2020-06-07T06:48:03Z</time>
      </trkpt>
      <trkpt lat="46.49408" lon="4.46359">
        <ele>389.583</ele>
        <time>2020-06-07T06:48:09Z</time>
      </trkpt>
      <trkpt lat="46.49402" lon="4.46363">
        <ele>390.583</ele>
        <time>2020-06-07T06:48:14Z</time>
      </trkpt>
      <trkpt lat="46.49396" lon="4.46368">
        <ele>390.583</ele>
        <time>2020-06-07T06:48:21Z</time>
      </trkpt>
      <trkpt lat="46.49389" lon="4.46371">
        <ele>392.583</ele>
        <time>2020-06-07T06:48:26Z</time>
      </trkpt>
      <trkpt lat="46.49382" lon="4.46376">
        <ele>391.583</ele>
        <time>2020-06-07T06:48:32Z</time>
      </trkpt>
      <trkpt lat="46.49377" lon="4.46381">
        <ele>392.583</ele>
        <time>2020-06-07T06:48:38Z</time>
      </trkpt>
      <trkpt lat="46.4937" lon="4.46387">
        <ele>391.583</ele>
        <time>2020-06-07T06:48:45Z</time>
      </trkpt>
      <trkpt lat="46.49363" lon="4.4639">
        <ele>388.583</ele>
        <time>2020-06-07T06:48:51Z</time>
      </trkpt>
      <trkpt lat="46.49357" lon="4.46396">
        <ele>391.583</ele>
        <time>2020-06-07T06:48:59Z</time>
      </trkpt>
      <trkpt lat="46.49349" lon="4.46398">
        <ele>393.583</ele>
        <time>2020-06-07T06:49:04Z</time>
      </trkpt>
      <trkpt lat="46.49341" lon="4.46402">
        <ele>395.583</ele>
        <time>2020-06-07T06:49:09Z</time>
      </trkpt>
      <trkpt lat="46.49334" lon="4.46402">
        <ele>395.583</ele>
        <time>2020-06-07T06:49:14Z</time>
      </trkpt>
      <trkpt lat="46.49328" lon="4.46404">
        <ele>396.583</ele>
        <time>2020-06-07T06:49:19Z</time>
      </trkpt>
      <trkpt lat="46.4932" lon="4.46406">
        <ele>394.583</ele>
        <time>2020-06-07T06:49:25Z</time>
      </trkpt>
      <trkpt lat="46.49312" lon="4.46408">
        <ele>392.583</ele>
        <time>2020-06-07T06:49:30Z</time>
      </trkpt>
      <trkpt lat="46.49305" lon="4.4641">
        <ele>390.583</ele>
        <time>2020-06-07T06:49:36Z</time>
      </trkpt>
      <trkpt lat="46.49297" lon="4.46412">
        <ele>391.583</ele>
        <time>2020-06-07T06:49:42Z</time>
      </trkpt>
      <trkpt lat="46.4929" lon="4.46412">
        <ele>392.583</ele>
        <time>2020-06-07T06:49:48Z</time>
      </trkpt>
      <trkpt lat="46.49283" lon="4.46414">
        <ele>391.583</ele>
        <time>2020-06-07T06:49:53Z</time>
      </trkpt>
      <trkpt lat="46.49276" lon="4.46414">
        <ele>389.583</ele>
        <time>2020-06-07T06:49:58Z</time>
      </trkpt>
      <trkpt lat="46.49267" lon="4.46416">
        <ele>390.583</ele>
        <time>2020-06-07T06:50:03Z</time>
      </trkpt>
      <trkpt lat="46.49259" lon="4.46418">
        <ele>392.583</ele>
        <time>2020-06-07T06:50:08Z</time>
      </trkpt>
      <trkpt lat="46.49252" lon="4.46421">
        <ele>391.583</ele>
        <time>2020-06-07T06:50:13Z</time>
      </trkpt>
      <trkpt lat="46.49246" lon="4.46427">
        <ele>392.583</ele>
        <time>2020-06-07T06:50:18Z</time>
      </trkpt>
      <trkpt lat="46.49239" lon="4.46435">
        <ele>391.583</ele>
        <time>2020-06-07T06:50:23Z</time>
      </trkpt>
      <trkpt lat="46.49233" lon="4.46442">
        <ele>390.583</ele>
        <time>2020-06-07T06:50:28Z</time>
      </trkpt>
      <trkpt lat="46.49227" lon="4.46449">
        <ele>388.583</ele>
        <time>2020-06-07T06:50:36Z</time>
      </trkpt>
      <trkpt lat="46.49219" lon="4.46453">
        <ele>391.583</ele>
        <time>2020-06-07T06:50:41Z</time>
      </trkpt>
      <trkpt lat="46.49212" lon="4.46457">
        <ele>391.583</ele>
        <time>2020-06-07T06:50:47Z</time>
      </trkpt>
      <trkpt lat="46.49206" lon="4.46459">
        <ele>389.583</ele>
        <time>2020-06-07T06:50:53Z</time>
      </trkpt>
      <trkpt lat="46.49199" lon="4.46465">
        <ele>388.583</ele>
        <time>2020-06-07T06:50:58Z</time>
      </trkpt>
      <trkpt lat="46.49192" lon="4.46466">
        <ele>389.583</ele>
        <time>2020-06-07T06:51:04Z</time>
      </trkpt>
      <trkpt lat="46.49185" lon="4.46463">
        <ele>388.583</ele>
        <time>2020-06-07T06:51:25Z</time>
      </trkpt>
      <trkpt lat="46.49178" lon="4.46463">
        <ele>386.583</ele>
        <time>2020-06-07T06:51:30Z</time>
      </trkpt>
      <trkpt lat="46.49171" lon="4.4646">
        <ele>384.583</ele>
        <time>2020-06-07T06:51:35Z</time>
      </trkpt>
      <trkpt lat="46.49163" lon="4.46459">
        <ele>381.583</ele>
        <time>2020-06-07T06:51:40Z</time>
      </trkpt>
      <trkpt lat="46.49156" lon="4.46456">
        <ele>380.583</ele>
        <time>2020-06-07T06:51:45Z</time>
      </trkpt>
      <trkpt lat="46.49149" lon="4.46454">
        <ele>378.582</ele>
        <time>2020-06-07T06:51:51Z</time>
      </trkpt>
      <trkpt lat="46.4914" lon="4.46456">
        <ele>375.582</ele>
        <time>2020-06-07T06:51:56Z</time>
      </trkpt>
      <trkpt lat="46.49132" lon="4.46455">
        <ele>373.582</ele>
        <time>2020-06-07T06:52:01Z</time>
      </trkpt>
      <trkpt lat="46.49124" lon="4.46457">
        <ele>373.582</ele>
        <time>2020-06-07T06:52:06Z</time>
      </trkpt>
      <trkpt lat="46.49116" lon="4.46463">
        <ele>372.582</ele>
        <time>2020-06-07T06:52:11Z</time>
      </trkpt>
      <trkpt lat="46.4911" lon="4.46469">
        <ele>374.582</ele>
        <time>2020-06-07T06:52:20Z</time>
      </trkpt>
      <trkpt lat="46.49104" lon="4.46479">
        <ele>376.582</ele>
        <time>2020-06-07T06:52:25Z</time>
      </trkpt>
      <trkpt lat="46.491" lon="4.46491">
        <ele>380.582</ele>
        <time>2020-06-07T06:52:30Z</time>
      </trkpt>
      <trkpt lat="46.49097" lon="4.46503">
        <ele>381.582</ele>
        <time>2020-06-07T06:52:35Z</time>
      </trkpt>
      <trkpt lat="46.49096" lon="4.46514">
        <ele>383.582</ele>
        <time>2020-06-07T06:52:40Z</time>
      </trkpt>
      <trkpt lat="46.49094" lon="4.46526">
        <ele>383.582</ele>
        <time>2020-06-07T06:52:45Z</time>
      </trkpt>
      <trkpt lat="46.49094" lon="4.46536">
        <ele>380.582</ele>
        <time>2020-06-07T06:52:50Z</time>
      </trkpt>
      <trkpt lat="46.49091" lon="4.46546">
        <ele>381.582</ele>
        <time>2020-06-07T06:52:56Z</time>
      </trkpt>
      <trkpt lat="46.49088" lon="4.46562">
        <ele>377.582</ele>
        <time>2020-06-07T06:53:01Z</time>
      </trkpt>
      <trkpt lat="46.49091" lon="4.46572">
        <ele>374.582</ele>
        <time>2020-06-07T06:53:08Z</time>
      </trkpt>
      <trkpt lat="46.49093" lon="4.46563">
        <ele>374.582</ele>
        <time>2020-06-07T06:53:13Z</time>
      </trkpt>
      <trkpt lat="46.49091" lon="4.46577">
        <ele>375.582</ele>
        <time>2020-06-07T06:53:18Z</time>
      </trkpt>
      <trkpt lat="46.49094" lon="4.46553">
        <ele>375.582</ele>
        <time>2020-06-07T06:53:23Z</time>
      </trkpt>
      <trkpt lat="46.49093" lon="4.46565">
        <ele>377.582</ele>
        <time>2020-06-07T06:53:32Z</time>
      </trkpt>
      <trkpt lat="46.49085" lon="4.46585">
        <ele>380.582</ele>
        <time>2020-06-07T06:53:37Z</time>
      </trkpt>
      <trkpt lat="46.49089" lon="4.46562">
        <ele>378.582</ele>
        <time>2020-06-07T06:53:42Z</time>
      </trkpt>
      <trkpt lat="46.49092" lon="4.46552">
        <ele>375.582</ele>
        <time>2020-06-07T06:53:47Z</time>
      </trkpt>
      <trkpt lat="46.49093" lon="4.46564">
        <ele>380.582</ele>
        <time>2020-06-07T06:53:52Z</time>
      </trkpt>
      <trkpt lat="46.49089" lon="4.46556">
        <ele>383.582</ele>
        <time>2020-06-07T06:53:57Z</time>
      </trkpt>
      <trkpt lat="46.49089" lon="4.46573">
        <ele>380.582</ele>
        <time>2020-06-07T06:54:02Z</time>
      </trkpt>
      <trkpt lat="46.49083" lon="4.46573">
        <ele>382.582</ele>
        <time>2020-06-07T06:54:07Z</time>
      </trkpt>
      <trkpt lat="46.49078" lon="4.46581">
        <ele>383.582</ele>
        <time>2020-06-07T06:54:12Z</time>
      </trkpt>
      <trkpt lat="46.49073" lon="4.4659">
        <ele>385.582</ele>
        <time>2020-06-07T06:54:17Z</time>
      </trkpt>
      <trkpt lat="46.49074" lon="4.466">
        <ele>383.582</ele>
        <time>2020-06-07T06:54:25Z</time>
      </trkpt>
      <trkpt lat="46.4907" lon="4.46609">
        <ele>385.582</ele>
        <time>2020-06-07T06:54:31Z</time>
      </trkpt>
      <trkpt lat="46.49067" lon="4.4662">
        <ele>385.582</ele>
        <time>2020-06-07T06:54:36Z</time>
      </trkpt>
      <trkpt lat="46.49065" lon="4.4663">
        <ele>384.582</ele>
        <time>2020-06-07T06:54:41Z</time>
      </trkpt>
      <trkpt lat="46.49059" lon="4.46641">
        <ele>384.582</ele>
        <time>2020-06-07T06:54:46Z</time>
      </trkpt>
      <trkpt lat="46.49053" lon="4.46653">
        <ele>384.582</ele>
        <time>2020-06-07T06:54:51Z</time>
      </trkpt>
      <trkpt lat="46.4905" lon="4.46663">
        <ele>383.582</ele>
        <time>2020-06-07T06:54:56Z</time>
      </trkpt>
      <trkpt lat="46.49047" lon="4.46673">
        <ele>385.582</ele>
        <time>2020-06-07T06:55:02Z</time>
      </trkpt>
      <trkpt lat="46.49042" lon="4.46685">
        <ele>387.582</ele>
        <time>2020-06-07T06:55:07Z</time>
      </trkpt>
      <trkpt lat="46.4904" lon="4.46696">
        <ele>387.582</ele>
        <time>2020-06-07T06:55:13Z</time>
      </trkpt>
      <trkpt lat="46.49038" lon="4.46705">
        <ele>386.582</ele>
        <time>2020-06-07T06:55:18Z</time>
      </trkpt>
      <trkpt lat="46.49035" lon="4.46716">
        <ele>385.582</ele>
        <time>2020-06-07T06:55:23Z</time>
      </trkpt>
      <trkpt lat="46.49033" lon="4.46725">
        <ele>385.582</ele>
        <time>2020-06-07T06:55:28Z</time>
      </trkpt>
      <trkpt lat="46.49031" lon="4.46734">
        <ele>385.582</ele>
        <time>2020-06-07T06:55:33Z</time>
      </trkpt>
      <trkpt lat="46.49031" lon="4.46744">
        <ele>386.582</ele>
        <time>2020-06-07T06:55:40Z</time>
      </trkpt>
      <trkpt lat="46.49029" lon="4.46755">
        <ele>388.582</ele>
        <time>2020-06-07T06:55:45Z</time>
      </trkpt>
      <trkpt lat="46.49029" lon="4.46767">
        <ele>388.582</ele>
        <time>2020-06-07T06:55:50Z</time>
      </trkpt>
      <trkpt lat="46.49029" lon="4.46779">
        <ele>389.582</ele>
        <time>2020-06-07T06:55:55Z</time>
      </trkpt>
      <trkpt lat="46.49029" lon="4.4679">
        <ele>392.582</ele>
        <time>2020-06-07T06:56:01Z</time>
      </trkpt>
      <trkpt lat="46.49029" lon="4.46801">
        <ele>391.582</ele>
        <time>2020-06-07T06:56:06Z</time>
      </trkpt>
      <trkpt lat="46.49027" lon="4.46812">
        <ele>391.582</ele>
        <time>2020-06-07T06:56:13Z</time>
      </trkpt>
      <trkpt lat="46.49024" lon="4.46822">
        <ele>389.582</ele>
        <time>2020-06-07T06:56:19Z</time>
      </trkpt>
      <trkpt lat="46.4902" lon="4.4683">
        <ele>388.582</ele>
        <time>2020-06-07T06:56:25Z</time>
      </trkpt>
      <trkpt lat="46.49014" lon="4.46838">
        <ele>388.582</ele>
        <time>2020-06-07T06:56:30Z</time>
      </trkpt>
      <trkpt lat="46.49008" lon="4.46845">
        <ele>388.582</ele>
        <time>2020-06-07T06:56:35Z</time>
      </trkpt>
      <trkpt lat="46.49002" lon="4.46853">
        <ele>386.582</ele>
        <time>2020-06-07T06:56:41Z</time>
      </trkpt>
      <trkpt lat="46.48997" lon="4.46858">
        <ele>387.582</ele>
        <time>2020-06-07T06:56:47Z</time>
      </trkpt>
      <trkpt lat="46.48991" lon="4.46865">
        <ele>387.582</ele>
        <time>2020-06-07T06:56:53Z</time>
      </trkpt>
      <trkpt lat="46.48984" lon="4.46871">
        <ele>388.582</ele>
        <time>2020-06-07T06:56:58Z</time>
      </trkpt>
      <trkpt lat="46.48976" lon="4.46877">
        <ele>391.582</ele>
        <time>2020-06-07T06:57:03Z</time>
      </trkpt>
      <trkpt lat="46.48971" lon="4.46885">
        <ele>391.582</ele>
        <time>2020-06-07T06:57:08Z</time>
      </trkpt>
      <trkpt lat="46.48963" lon="4.46893">
        <ele>394.582</ele>
        <time>2020-06-07T06:57:13Z</time>
      </trkpt>
      <trkpt lat="46.48958" lon="4.46901">
        <ele>391.582</ele>
        <time>2020-06-07T06:57:23Z</time>
      </trkpt>
      <trkpt lat="46.4895" lon="4.46908">
        <ele>390.582</ele>
        <time>2020-06-07T06:57:28Z</time>
      </trkpt>
      <trkpt lat="46.48942" lon="4.46916">
        <ele>392.582</ele>
        <time>2020-06-07T06:57:33Z</time>
      </trkpt>
      <trkpt lat="46.48937" lon="4.46924">
        <ele>391.582</ele>
        <time>2020-06-07T06:57:42Z</time>
      </trkpt>
      <trkpt lat="46.48929" lon="4.46928">
        <ele>394.582</ele>
        <time>2020-06-07T06:57:47Z</time>
      </trkpt>
      <trkpt lat="46.48923" lon="4.4693">
        <ele>394.582</ele>
        <time>2020-06-07T06:57:52Z</time>
      </trkpt>
      <trkpt lat="46.48915" lon="4.46931">
        <ele>393.582</ele>
        <time>2020-06-07T06:57:57Z</time>
      </trkpt>
      <trkpt lat="46.48909" lon="4.46936">
        <ele>391.582</ele>
        <time>2020-06-07T06:58:03Z</time>
      </trkpt>
      <trkpt lat="46.48901" lon="4.46937">
        <ele>390.582</ele>
        <time>2020-06-07T06:58:08Z</time>
      </trkpt>
      <trkpt lat="46.48895" lon="4.46943">
        <ele>388.582</ele>
        <time>2020-06-07T06:58:13Z</time>
      </trkpt>
      <trkpt lat="46.48888" lon="4.4695">
        <ele>387.582</ele>
        <time>2020-06-07T06:58:18Z</time>
      </trkpt>
      <trkpt lat="46.48882" lon="4.46953">
        <ele>386.582</ele>
        <time>2020-06-07T06:58:23Z</time>
      </trkpt>
      <trkpt lat="46.48876" lon="4.46957">
        <ele>384.582</ele>
        <time>2020-06-07T06:58:30Z</time>
      </trkpt>
      <trkpt lat="46.4887" lon="4.46966">
        <ele>385.582</ele>
        <time>2020-06-07T06:58:35Z</time>
      </trkpt>
      <trkpt lat="46.48864" lon="4.46972">
        <ele>385.582</ele>
        <time>2020-06-07T06:58:40Z</time>
      </trkpt>
      <trkpt lat="46.48858" lon="4.46979">
        <ele>385.582</ele>
        <time>2020-06-07T06:58:46Z</time>
      </trkpt>
      <trkpt lat="46.48852" lon="4.46985">
        <ele>389.582</ele>
        <time>2020-06-07T06:58:51Z</time>
      </trkpt>
      <trkpt lat="46.48847" lon="4.46993">
        <ele>389.582</ele>
        <time>2020-06-07T06:58:57Z</time>
      </trkpt>
      <trkpt lat="46.4884" lon="4.46998">
        <ele>389.582</ele>
        <time>2020-06-07T06:59:03Z</time>
      </trkpt>
      <trkpt lat="46.48833" lon="4.47004">
        <ele>392.582</ele>
        <time>2020-06-07T06:59:08Z</time>
      </trkpt>
      <trkpt lat="46.48827" lon="4.4701">
        <ele>388.582</ele>
        <time>2020-06-07T06:59:14Z</time>
      </trkpt>
      <trkpt lat="46.48821" lon="4.47016">
        <ele>389.582</ele>
        <time>2020-06-07T06:59:20Z</time>
      </trkpt>
      <trkpt lat="46.48815" lon="4.47023">
        <ele>388.582</ele>
        <time>2020-06-07T06:59:32Z</time>
      </trkpt>
      <trkpt lat="46.48808" lon="4.47024">
        <ele>392.582</ele>
        <time>2020-06-07T06:59:39Z</time>
      </trkpt>
      <trkpt lat="46.48801" lon="4.47028">
        <ele>387.582</ele>
        <time>2020-06-07T06:59:49Z</time>
      </trkpt>
      <trkpt lat="46.48794" lon="4.47028">
        <ele>388.582</ele>
        <time>2020-06-07T06:59:55Z</time>
      </trkpt>
      <trkpt lat="46.48787" lon="4.47031">
        <ele>387.582</ele>
        <time>2020-06-07T07:00:00Z</time>
      </trkpt>
      <trkpt lat="46.4878" lon="4.47035">
        <ele>388.582</ele>
        <time>2020-06-07T07:00:06Z</time>
      </trkpt>
      <trkpt lat="46.48775" lon="4.47041">
        <ele>389.582</ele>
        <time>2020-06-07T07:00:11Z</time>
      </trkpt>
      <trkpt lat="46.48767" lon="4.47044">
        <ele>391.582</ele>
        <time>2020-06-07T07:00:17Z</time>
      </trkpt>
      <trkpt lat="46.4876" lon="4.47045">
        <ele>394.582</ele>
        <time>2020-06-07T07:00:22Z</time>
      </trkpt>
      <trkpt lat="46.48754" lon="4.4705">
        <ele>396.582</ele>
        <time>2020-06-07T07:00:27Z</time>
      </trkpt>
      <trkpt lat="46.48748" lon="4.47055">
        <ele>398.582</ele>
        <time>2020-06-07T07:00:32Z</time>
      </trkpt>
      <trkpt lat="46.48743" lon="4.47062">
        <ele>398.582</ele>
        <time>2020-06-07T07:00:40Z</time>
      </trkpt>
      <trkpt lat="46.48738" lon="4.47069">
        <ele>402.582</ele>
        <time>2020-06-07T07:00:47Z</time>
      </trkpt>
      <trkpt lat="46.48732" lon="4.47075">
        <ele>402.582</ele>
        <time>2020-06-07T07:00:53Z</time>
      </trkpt>
      <trkpt lat="46.48726" lon="4.47082">
        <ele>407.582</ele>
        <time>2020-06-07T07:01:01Z</time>
      </trkpt>
      <trkpt lat="46.48721" lon="4.47088">
        <ele>410.582</ele>
        <time>2020-06-07T07:01:06Z</time>
      </trkpt>
      <trkpt lat="46.48717" lon="4.47096">
        <ele>406.582</ele>
        <time>2020-06-07T07:01:13Z</time>
      </trkpt>
      <trkpt lat="46.48712" lon="4.47102">
        <ele>409.582</ele>
        <time>2020-06-07T07:01:18Z</time>
      </trkpt>
      <trkpt lat="46.48705" lon="4.47108">
        <ele>413.582</ele>
        <time>2020-06-07T07:01:23Z</time>
      </trkpt>
      <trkpt lat="46.48699" lon="4.47115">
        <ele>413.582</ele>
        <time>2020-06-07T07:01:30Z</time>
      </trkpt>
      <trkpt lat="46.48693" lon="4.47121">
        <ele>413.582</ele>
        <time>2020-06-07T07:01:37Z</time>
      </trkpt>
      <trkpt lat="46.48689" lon="4.47129">
        <ele>412.582</ele>
        <time>2020-06-07T07:01:44Z</time>
      </trkpt>
      <trkpt lat="46.48683" lon="4.47135">
        <ele>411.582</ele>
        <time>2020-06-07T07:01:50Z</time>
      </trkpt>
      <trkpt lat="46.48677" lon="4.47142">
        <ele>414.582</ele>
        <time>2020-06-07T07:01:55Z</time>
      </trkpt>
      <trkpt lat="46.48671" lon="4.47147">
        <ele>416.582</ele>
        <time>2020-06-07T07:02:01Z</time>
      </trkpt>
      <trkpt lat="46.48665" lon="4.47153">
        <ele>413.582</ele>
        <time>2020-06-07T07:02:08Z</time>
      </trkpt>
      <trkpt lat="46.48658" lon="4.47153">
        <ele>416.582</ele>
        <time>2020-06-07T07:02:15Z</time>
      </trkpt>
      <trkpt lat="46.48652" lon="4.47151">
        <ele>416.582</ele>
        <time>2020-06-07T07:02:21Z</time>
      </trkpt>
      <trkpt lat="46.48645" lon="4.47153">
        <ele>416.582</ele>
        <time>2020-06-07T07:02:26Z</time>
      </trkpt>
      <trkpt lat="46.48638" lon="4.4715">
        <ele>417.582</ele>
        <time>2020-06-07T07:02:31Z</time>
      </trkpt>
      <trkpt lat="46.4863" lon="4.47134">
        <ele>414.582</ele>
        <time>2020-06-07T07:02:36Z</time>
      </trkpt>
      <trkpt lat="46.48623" lon="4.47125">
        <ele>412.582</ele>
        <time>2020-06-07T07:02:41Z</time>
      </trkpt>
      <trkpt lat="46.48616" lon="4.47129">
        <ele>415.582</ele>
        <time>2020-06-07T07:02:47Z</time>
      </trkpt>
      <trkpt lat="46.48609" lon="4.47128">
        <ele>416.582</ele>
        <time>2020-06-07T07:02:53Z</time>
      </trkpt>
      <trkpt lat="46.48602" lon="4.47127">
        <ele>417.581</ele>
        <time>2020-06-07T07:02:59Z</time>
      </trkpt>
      <trkpt lat="46.48594" lon="4.47119">
        <ele>418.581</ele>
        <time>2020-06-07T07:03:04Z</time>
      </trkpt>
      <trkpt lat="46.48587" lon="4.47111">
        <ele>417.581</ele>
        <time>2020-06-07T07:03:09Z</time>
      </trkpt>
      <trkpt lat="46.48579" lon="4.47092">
        <ele>414.581</ele>
        <time>2020-06-07T07:03:14Z</time>
      </trkpt>
      <trkpt lat="46.48572" lon="4.47082">
        <ele>413.581</ele>
        <time>2020-06-07T07:03:19Z</time>
      </trkpt>
      <trkpt lat="46.48565" lon="4.47083">
        <ele>413.581</ele>
        <time>2020-06-07T07:03:25Z</time>
      </trkpt>
      <trkpt lat="46.48562" lon="4.47093">
        <ele>416.581</ele>
        <time>2020-06-07T07:03:30Z</time>
      </trkpt>
      <trkpt lat="46.48555" lon="4.47084">
        <ele>417.581</ele>
        <time>2020-06-07T07:03:35Z</time>
      </trkpt>
      <trkpt lat="46.48549" lon="4.47079">
        <ele>416.581</ele>
        <time>2020-06-07T07:03:40Z</time>
      </trkpt>
      <trkpt lat="46.4854" lon="4.47069">
        <ele>417.581</ele>
        <time>2020-06-07T07:03:45Z</time>
      </trkpt>
      <trkpt lat="46.48533" lon="4.47071">
        <ele>416.581</ele>
        <time>2020-06-07T07:03:51Z</time>
      </trkpt>
      <trkpt lat="46.48525" lon="4.47064">
        <ele>418.581</ele>
        <time>2020-06-07T07:03:58Z</time>
      </trkpt>
      <trkpt lat="46.48517" lon="4.47049">
        <ele>415.581</ele>
        <time>2020-06-07T07:04:03Z</time>
      </trkpt>
      <trkpt lat="46.48509" lon="4.47032">
        <ele>414.581</ele>
        <time>2020-06-07T07:04:08Z</time>
      </trkpt>
      <trkpt lat="46.48502" lon="4.47031">
        <ele>416.581</ele>
        <time>2020-06-07T07:04:15Z</time>
      </trkpt>
      <trkpt lat="46.48495" lon="4.47034">
        <ele>417.581</ele>
        <time>2020-06-07T07:04:22Z</time>
      </trkpt>
      <trkpt lat="46.48489" lon="4.47031">
        <ele>417.581</ele>
        <time>2020-06-07T07:04:27Z</time>
      </trkpt>
      <trkpt lat="46.48483" lon="4.47022">
        <ele>417.581</ele>
        <time>2020-06-07T07:04:32Z</time>
      </trkpt>
      <trkpt lat="46.48475" lon="4.47015">
        <ele>416.581</ele>
        <time>2020-06-07T07:04:37Z</time>
      </trkpt>
      <trkpt lat="46.48468" lon="4.47013">
        <ele>413.581</ele>
        <time>2020-06-07T07:04:42Z</time>
      </trkpt>
      <trkpt lat="46.48461" lon="4.47012">
        <ele>412.581</ele>
        <time>2020-06-07T07:04:47Z</time>
      </trkpt>
      <trkpt lat="46.48454" lon="4.47006">
        <ele>414.581</ele>
        <time>2020-06-07T07:04:52Z</time>
      </trkpt>
      <trkpt lat="46.48448" lon="4.46999">
        <ele>416.581</ele>
        <time>2020-06-07T07:04:59Z</time>
      </trkpt>
      <trkpt lat="46.48442" lon="4.46995">
        <ele>416.581</ele>
        <time>2020-06-07T07:05:04Z</time>
      </trkpt>
      <trkpt lat="46.48436" lon="4.46991">
        <ele>414.581</ele>
        <time>2020-06-07T07:05:09Z</time>
      </trkpt>
      <trkpt lat="46.48428" lon="4.46991">
        <ele>410.581</ele>
        <time>2020-06-07T07:05:14Z</time>
      </trkpt>
      <trkpt lat="46.48422" lon="4.46983">
        <ele>413.581</ele>
        <time>2020-06-07T07:05:19Z</time>
      </trkpt>
      <trkpt lat="46.48415" lon="4.46976">
        <ele>414.581</ele>
        <time>2020-06-07T07:05:24Z</time>
      </trkpt>
      <trkpt lat="46.48409" lon="4.46972">
        <ele>412.581</ele>
        <time>2020-06-07T07:05:29Z</time>
      </trkpt>
      <trkpt lat="46.48404" lon="4.46965">
        <ele>412.581</ele>
        <time>2020-06-07T07:05:34Z</time>
      </trkpt>
      <trkpt lat="46.48398" lon="4.46952">
        <ele>413.581</ele>
        <time>2020-06-07T07:05:39Z</time>
      </trkpt>
      <trkpt lat="46.48392" lon="4.46944">
        <ele>414.581</ele>
        <time>2020-06-07T07:05:45Z</time>
      </trkpt>
      <trkpt lat="46.48387" lon="4.46938">
        <ele>415.581</ele>
        <time>2020-06-07T07:05:50Z</time>
      </trkpt>
      <trkpt lat="46.4838" lon="4.46921">
        <ele>416.581</ele>
        <time>2020-06-07T07:05:55Z</time>
      </trkpt>
      <trkpt lat="46.48373" lon="4.46912">
        <ele>417.581</ele>
        <time>2020-06-07T07:06:00Z</time>
      </trkpt>
      <trkpt lat="46.48368" lon="4.46903">
        <ele>414.581</ele>
        <time>2020-06-07T07:06:05Z</time>
      </trkpt>
      <trkpt lat="46.4836" lon="4.46898">
        <ele>419.581</ele>
        <time>2020-06-07T07:06:14Z</time>
      </trkpt>
      <trkpt lat="46.48355" lon="4.4689">
        <ele>420.581</ele>
        <time>2020-06-07T07:06:19Z</time>
      </trkpt>
      <trkpt lat="46.48348" lon="4.46878">
        <ele>419.581</ele>
        <time>2020-06-07T07:06:24Z</time>
      </trkpt>
      <trkpt lat="46.48342" lon="4.46872">
        <ele>419.581</ele>
        <time>2020-06-07T07:06:29Z</time>
      </trkpt>
      <trkpt lat="46.48335" lon="4.46873">
        <ele>423.581</ele>
        <time>2020-06-07T07:06:38Z</time>
      </trkpt>
      <trkpt lat="46.4833" lon="4.46857">
        <ele>422.581</ele>
        <time>2020-06-07T07:06:43Z</time>
      </trkpt>
      <trkpt lat="46.48324" lon="4.46845">
        <ele>422.58</ele>
        <time>2020-06-07T07:06:48Z</time>
      </trkpt>
      <trkpt lat="46.48317" lon="4.46844">
        <ele>422.58</ele>
        <time>2020-06-07T07:06:55Z</time>
      </trkpt>
      <trkpt lat="46.48311" lon="4.46837">
        <ele>422.58</ele>
        <time>2020-06-07T07:07:01Z</time>
      </trkpt>
      <trkpt lat="46.48306" lon="4.46826">
        <ele>422.58</ele>
        <time>2020-06-07T07:07:06Z</time>
      </trkpt>
      <trkpt lat="46.48301" lon="4.46819">
        <ele>423.58</ele>
        <time>2020-06-07T07:07:11Z</time>
      </trkpt>
      <trkpt lat="46.48296" lon="4.46812">
        <ele>425.58</ele>
        <time>2020-06-07T07:07:17Z</time>
      </trkpt>
      <trkpt lat="46.48291" lon="4.46804">
        <ele>425.58</ele>
        <time>2020-06-07T07:07:22Z</time>
      </trkpt>
      <trkpt lat="46.48285" lon="4.46797">
        <ele>425.58</ele>
        <time>2020-06-07T07:07:27Z</time>
      </trkpt>
      <trkpt lat="46.48281" lon="4.46789">
        <ele>426.58</ele>
        <time>2020-06-07T07:07:33Z</time>
      </trkpt>
      <trkpt lat="46.48275" lon="4.46779">
        <ele>426.58</ele>
        <time>2020-06-07T07:07:38Z</time>
      </trkpt>
      <trkpt lat="46.48269" lon="4.46767">
        <ele>426.58</ele>
        <time>2020-06-07T07:07:43Z</time>
      </trkpt>
      <trkpt lat="46.48263" lon="4.46759">
        <ele>425.58</ele>
        <time>2020-06-07T07:07:48Z</time>
      </trkpt>
      <trkpt lat="46.48257" lon="4.46753">
        <ele>425.58</ele>
        <time>2020-06-07T07:07:55Z</time>
      </trkpt>
      <trkpt lat="46.48251" lon="4.46749">
        <ele>426.58</ele>
        <time>2020-06-07T07:08:01Z</time>
      </trkpt>
      <trkpt lat="46.48247" lon="4.4674">
        <ele>427.58</ele>
        <time>2020-06-07T07:08:06Z</time>
      </trkpt>
      <trkpt lat="46.48241" lon="4.46729">
        <ele>427.58</ele>
        <time>2020-06-07T07:08:11Z</time>
      </trkpt>
      <trkpt lat="46.48237" lon="4.4672">
        <ele>432.58</ele>
        <time>2020-06-07T07:08:18Z</time>
      </trkpt>
      <trkpt lat="46.48232" lon="4.46712">
        <ele>432.58</ele>
        <time>2020-06-07T07:08:23Z</time>
      </trkpt>
      <trkpt lat="46.48226" lon="4.46705">
        <ele>431.58</ele>
        <time>2020-06-07T07:08:31Z</time>
      </trkpt>
      <trkpt lat="46.48224" lon="4.46694">
        <ele>432.58</ele>
        <time>2020-06-07T07:08:36Z</time>
      </trkpt>
      <trkpt lat="46.48224" lon="4.46683">
        <ele>432.58</ele>
        <time>2020-06-07T07:08:46Z</time>
      </trkpt>
      <trkpt lat="46.4822" lon="4.4667">
        <ele>432.58</ele>
        <time>2020-06-07T07:08:51Z</time>
      </trkpt>
      <trkpt lat="46.48214" lon="4.46666">
        <ele>430.58</ele>
        <time>2020-06-07T07:08:59Z</time>
      </trkpt>
      <trkpt lat="46.48208" lon="4.4666">
        <ele>432.58</ele>
        <time>2020-06-07T07:09:04Z</time>
      </trkpt>
      <trkpt lat="46.48202" lon="4.46653">
        <ele>432.58</ele>
        <time>2020-06-07T07:09:09Z</time>
      </trkpt>
      <trkpt lat="46.48195" lon="4.46648">
        <ele>429.58</ele>
        <time>2020-06-07T07:09:16Z</time>
      </trkpt>
      <trkpt lat="46.48188" lon="4.46641">
        <ele>428.58</ele>
        <time>2020-06-07T07:09:22Z</time>
      </trkpt>
      <trkpt lat="46.48182" lon="4.46635">
        <ele>429.58</ele>
        <time>2020-06-07T07:09:27Z</time>
      </trkpt>
      <trkpt lat="46.48176" lon="4.4663">
        <ele>429.58</ele>
        <time>2020-06-07T07:09:32Z</time>
      </trkpt>
      <trkpt lat="46.4817" lon="4.46624">
        <ele>430.58</ele>
        <time>2020-06-07T07:09:38Z</time>
      </trkpt>
      <trkpt lat="46.48164" lon="4.46611">
        <ele>432.58</ele>
        <time>2020-06-07T07:09:43Z</time>
      </trkpt>
      <trkpt lat="46.48158" lon="4.46605">
        <ele>434.58</ele>
        <time>2020-06-07T07:09:48Z</time>
      </trkpt>
      <trkpt lat="46.48152" lon="4.46597">
        <ele>437.58</ele>
        <time>2020-06-07T07:09:55Z</time>
      </trkpt>
      <trkpt lat="46.48147" lon="4.46589">
        <ele>438.58</ele>
        <time>2020-06-07T07:10:01Z</time>
      </trkpt>
      <trkpt lat="46.48142" lon="4.46579">
        <ele>438.58</ele>
        <time>2020-06-07T07:10:06Z</time>
      </trkpt>
      <trkpt lat="46.48137" lon="4.46568">
        <ele>439.58</ele>
        <time>2020-06-07T07:10:11Z</time>
      </trkpt>
      <trkpt lat="46.48132" lon="4.46559">
        <ele>437.58</ele>
        <time>2020-06-07T07:10:16Z</time>
      </trkpt>
      <trkpt lat="46.48125" lon="4.46545">
        <ele>438.58</ele>
        <time>2020-06-07T07:10:21Z</time>
      </trkpt>
      <trkpt lat="46.48121" lon="4.46534">
        <ele>439.58</ele>
        <time>2020-06-07T07:10:26Z</time>
      </trkpt>
      <trkpt lat="46.48118" lon="4.46525">
        <ele>436.58</ele>
        <time>2020-06-07T07:10:31Z</time>
      </trkpt>
      <trkpt lat="46.48113" lon="4.46517">
        <ele>435.58</ele>
        <time>2020-06-07T07:10:40Z</time>
      </trkpt>
      <trkpt lat="46.48109" lon="4.46508">
        <ele>435.58</ele>
        <time>2020-06-07T07:10:45Z</time>
      </trkpt>
      <trkpt lat="46.48102" lon="4.46494">
        <ele>437.58</ele>
        <time>2020-06-07T07:10:50Z</time>
      </trkpt>
      <trkpt lat="46.48099" lon="4.46485">
        <ele>438.58</ele>
        <time>2020-06-07T07:10:55Z</time>
      </trkpt>
      <trkpt lat="46.48094" lon="4.46477">
        <ele>438.58</ele>
        <time>2020-06-07T07:11:01Z</time>
      </trkpt>
      <trkpt lat="46.48091" lon="4.46469">
        <ele>438.58</ele>
        <time>2020-06-07T07:11:08Z</time>
      </trkpt>
      <trkpt lat="46.48087" lon="4.46459">
        <ele>439.58</ele>
        <time>2020-06-07T07:11:13Z</time>
      </trkpt>
      <trkpt lat="46.48084" lon="4.46445">
        <ele>440.58</ele>
        <time>2020-06-07T07:11:18Z</time>
      </trkpt>
      <trkpt lat="46.4808" lon="4.46436">
        <ele>440.58</ele>
        <time>2020-06-07T07:11:23Z</time>
      </trkpt>
      <trkpt lat="46.48075" lon="4.46425">
        <ele>438.579</ele>
        <time>2020-06-07T07:11:29Z</time>
      </trkpt>
      <trkpt lat="46.48071" lon="4.46414">
        <ele>439.579</ele>
        <time>2020-06-07T07:11:36Z</time>
      </trkpt>
      <trkpt lat="46.48068" lon="4.46404">
        <ele>436.579</ele>
        <time>2020-06-07T07:11:41Z</time>
      </trkpt>
      <trkpt lat="46.48065" lon="4.46395">
        <ele>436.579</ele>
        <time>2020-06-07T07:11:46Z</time>
      </trkpt>
      <trkpt lat="46.48061" lon="4.46387">
        <ele>434.579</ele>
        <time>2020-06-07T07:11:51Z</time>
      </trkpt>
      <trkpt lat="46.48057" lon="4.46377">
        <ele>431.579</ele>
        <time>2020-06-07T07:11:56Z</time>
      </trkpt>
      <trkpt lat="46.48053" lon="4.46369">
        <ele>434.579</ele>
        <time>2020-06-07T07:12:02Z</time>
      </trkpt>
      <trkpt lat="46.48049" lon="4.46359">
        <ele>434.579</ele>
        <time>2020-06-07T07:12:07Z</time>
      </trkpt>
      <trkpt lat="46.48044" lon="4.4635">
        <ele>435.579</ele>
        <time>2020-06-07T07:12:13Z</time>
      </trkpt>
      <trkpt lat="46.4804" lon="4.46337">
        <ele>432.579</ele>
        <time>2020-06-07T07:12:18Z</time>
      </trkpt>
      <trkpt lat="46.48035" lon="4.4633">
        <ele>430.579</ele>
        <time>2020-06-07T07:12:25Z</time>
      </trkpt>
      <trkpt lat="46.48031" lon="4.46317">
        <ele>428.579</ele>
        <time>2020-06-07T07:12:30Z</time>
      </trkpt>
      <trkpt lat="46.48026" lon="4.46306">
        <ele>427.579</ele>
        <time>2020-06-07T07:12:35Z</time>
      </trkpt>
      <trkpt lat="46.48022" lon="4.46297">
        <ele>428.579</ele>
        <time>2020-06-07T07:12:41Z</time>
      </trkpt>
      <trkpt lat="46.48018" lon="4.46289">
        <ele>430.579</ele>
        <time>2020-06-07T07:12:46Z</time>
      </trkpt>
      <trkpt lat="46.48012" lon="4.46281">
        <ele>431.579</ele>
        <time>2020-06-07T07:12:51Z</time>
      </trkpt>
      <trkpt lat="46.48006" lon="4.46272">
        <ele>431.579</ele>
        <time>2020-06-07T07:12:56Z</time>
      </trkpt>
      <trkpt lat="46.48" lon="4.46264">
        <ele>431.579</ele>
        <time>2020-06-07T07:13:01Z</time>
      </trkpt>
      <trkpt lat="46.47994" lon="4.4626">
        <ele>429.579</ele>
        <time>2020-06-07T07:13:06Z</time>
      </trkpt>
      <trkpt lat="46.4799" lon="4.46253">
        <ele>428.579</ele>
        <time>2020-06-07T07:13:11Z</time>
      </trkpt>
      <trkpt lat="46.47984" lon="4.46246">
        <ele>426.579</ele>
        <time>2020-06-07T07:13:18Z</time>
      </trkpt>
      <trkpt lat="46.47977" lon="4.46232">
        <ele>426.579</ele>
        <time>2020-06-07T07:13:23Z</time>
      </trkpt>
      <trkpt lat="46.47971" lon="4.46225">
        <ele>425.579</ele>
        <time>2020-06-07T07:13:32Z</time>
      </trkpt>
      <trkpt lat="46.47964" lon="4.46217">
        <ele>423.579</ele>
        <time>2020-06-07T07:13:39Z</time>
      </trkpt>
      <trkpt lat="46.47955" lon="4.462">
        <ele>425.579</ele>
        <time>2020-06-07T07:13:44Z</time>
      </trkpt>
      <trkpt lat="46.4795" lon="4.46194">
        <ele>429.579</ele>
        <time>2020-06-07T07:13:52Z</time>
      </trkpt>
      <trkpt lat="46.47945" lon="4.46187">
        <ele>429.579</ele>
        <time>2020-06-07T07:13:57Z</time>
      </trkpt>
      <trkpt lat="46.4794" lon="4.46178">
        <ele>429.579</ele>
        <time>2020-06-07T07:14:02Z</time>
      </trkpt>
      <trkpt lat="46.47933" lon="4.46171">
        <ele>429.579</ele>
        <time>2020-06-07T07:14:09Z</time>
      </trkpt>
      <trkpt lat="46.47928" lon="4.46165">
        <ele>432.579</ele>
        <time>2020-06-07T07:14:16Z</time>
      </trkpt>
      <trkpt lat="46.47922" lon="4.46152">
        <ele>432.579</ele>
        <time>2020-06-07T07:14:21Z</time>
      </trkpt>
      <trkpt lat="46.47916" lon="4.46141">
        <ele>432.579</ele>
        <time>2020-06-07T07:14:26Z</time>
      </trkpt>
      <trkpt lat="46.47909" lon="4.46126">
        <ele>431.579</ele>
        <time>2020-06-07T07:14:31Z</time>
      </trkpt>
      <trkpt lat="46.47904" lon="4.46117">
        <ele>430.579</ele>
        <time>2020-06-07T07:14:36Z</time>
      </trkpt>
      <trkpt lat="46.47898" lon="4.4611">
        <ele>429.579</ele>
        <time>2020-06-07T07:14:41Z</time>
      </trkpt>
      <trkpt lat="46.47894" lon="4.46101">
        <ele>428.579</ele>
        <time>2020-06-07T07:14:47Z</time>
      </trkpt>
      <trkpt lat="46.47888" lon="4.46092">
        <ele>432.579</ele>
        <time>2020-06-07T07:14:52Z</time>
      </trkpt>
      <trkpt lat="46.47882" lon="4.46082">
        <ele>431.579</ele>
        <time>2020-06-07T07:14:57Z</time>
      </trkpt>
      <trkpt lat="46.47878" lon="4.46074">
        <ele>431.579</ele>
        <time>2020-06-07T07:15:02Z</time>
      </trkpt>
      <trkpt lat="46.47872" lon="4.46066">
        <ele>429.579</ele>
        <time>2020-06-07T07:15:09Z</time>
      </trkpt>
      <trkpt lat="46.47867" lon="4.46057">
        <ele>428.579</ele>
        <time>2020-06-07T07:15:14Z</time>
      </trkpt>
      <trkpt lat="46.47861" lon="4.46048">
        <ele>428.579</ele>
        <time>2020-06-07T07:15:19Z</time>
      </trkpt>
      <trkpt lat="46.47857" lon="4.46039">
        <ele>428.579</ele>
        <time>2020-06-07T07:15:25Z</time>
      </trkpt>
      <trkpt lat="46.47851" lon="4.46034">
        <ele>429.579</ele>
        <time>2020-06-07T07:15:32Z</time>
      </trkpt>
      <trkpt lat="46.47844" lon="4.46029">
        <ele>431.579</ele>
        <time>2020-06-07T07:15:37Z</time>
      </trkpt>
      <trkpt lat="46.47837" lon="4.46027">
        <ele>432.579</ele>
        <time>2020-06-07T07:15:42Z</time>
      </trkpt>
      <trkpt lat="46.47831" lon="4.46024">
        <ele>431.579</ele>
        <time>2020-06-07T07:15:47Z</time>
      </trkpt>
      <trkpt lat="46.47824" lon="4.46021">
        <ele>431.578</ele>
        <time>2020-06-07T07:15:52Z</time>
      </trkpt>
      <trkpt lat="46.47817" lon="4.4602">
        <ele>431.578</ele>
        <time>2020-06-07T07:15:57Z</time>
      </trkpt>
      <trkpt lat="46.4781" lon="4.46019">
        <ele>430.578</ele>
        <time>2020-06-07T07:16:02Z</time>
      </trkpt>
      <trkpt lat="46.47803" lon="4.46016">
        <ele>426.578</ele>
        <time>2020-06-07T07:16:07Z</time>
      </trkpt>
      <trkpt lat="46.47796" lon="4.46016">
        <ele>426.578</ele>
        <time>2020-06-07T07:16:12Z</time>
      </trkpt>
      <trkpt lat="46.4779" lon="4.46017">
        <ele>426.578</ele>
        <time>2020-06-07T07:16:17Z</time>
      </trkpt>
      <trkpt lat="46.47782" lon="4.46013">
        <ele>425.578</ele>
        <time>2020-06-07T07:16:22Z</time>
      </trkpt>
      <trkpt lat="46.47773" lon="4.46012">
        <ele>424.578</ele>
        <time>2020-06-07T07:16:27Z</time>
      </trkpt>
      <trkpt lat="46.47766" lon="4.46013">
        <ele>426.578</ele>
        <time>2020-06-07T07:16:32Z</time>
      </trkpt>
      <trkpt lat="46.47759" lon="4.46012">
        <ele>425.578</ele>
        <time>2020-06-07T07:16:37Z</time>
      </trkpt>
      <trkpt lat="46.47753" lon="4.46016">
        <ele>422.578</ele>
        <time>2020-06-07T07:16:42Z</time>
      </trkpt>
      <trkpt lat="46.47746" lon="4.46022">
        <ele>417.578</ele>
        <time>2020-06-07T07:16:51Z</time>
      </trkpt>
      <trkpt lat="46.4774" lon="4.46029">
        <ele>418.578</ele>
        <time>2020-06-07T07:16:58Z</time>
      </trkpt>
      <trkpt lat="46.47733" lon="4.46034">
        <ele>419.578</ele>
        <time>2020-06-07T07:17:09Z</time>
      </trkpt>
      <trkpt lat="46.47727" lon="4.46041">
        <ele>418.578</ele>
        <time>2020-06-07T07:17:14Z</time>
      </trkpt>
      <trkpt lat="46.47718" lon="4.46046">
        <ele>416.578</ele>
        <time>2020-06-07T07:17:19Z</time>
      </trkpt>
      <trkpt lat="46.47707" lon="4.46055">
        <ele>416.578</ele>
        <time>2020-06-07T07:17:24Z</time>
      </trkpt>
      <trkpt lat="46.47699" lon="4.46063">
        <ele>416.578</ele>
        <time>2020-06-07T07:17:29Z</time>
      </trkpt>
      <trkpt lat="46.47691" lon="4.46068">
        <ele>415.578</ele>
        <time>2020-06-07T07:17:34Z</time>
      </trkpt>
      <trkpt lat="46.47685" lon="4.46076">
        <ele>414.578</ele>
        <time>2020-06-07T07:17:39Z</time>
      </trkpt>
      <trkpt lat="46.47679" lon="4.46083">
        <ele>414.578</ele>
        <time>2020-06-07T07:17:44Z</time>
      </trkpt>
      <trkpt lat="46.47671" lon="4.46088">
        <ele>415.578</ele>
        <time>2020-06-07T07:17:49Z</time>
      </trkpt>
      <trkpt lat="46.47665" lon="4.46094">
        <ele>416.578</ele>
        <time>2020-06-07T07:17:54Z</time>
      </trkpt>
      <trkpt lat="46.47658" lon="4.46101">
        <ele>417.578</ele>
        <time>2020-06-07T07:17:59Z</time>
      </trkpt>
      <trkpt lat="46.47651" lon="4.46107">
        <ele>418.578</ele>
        <time>2020-06-07T07:18:04Z</time>
      </trkpt>
      <trkpt lat="46.47644" lon="4.46112">
        <ele>416.578</ele>
        <time>2020-06-07T07:18:10Z</time>
      </trkpt>
      <trkpt lat="46.47637" lon="4.46118">
        <ele>417.578</ele>
        <time>2020-06-07T07:18:15Z</time>
      </trkpt>
      <trkpt lat="46.47629" lon="4.46125">
        <ele>415.578</ele>
        <time>2020-06-07T07:18:20Z</time>
      </trkpt>
      <trkpt lat="46.47624" lon="4.46132">
        <ele>414.578</ele>
        <time>2020-06-07T07:18:25Z</time>
      </trkpt>
      <trkpt lat="46.47618" lon="4.46138">
        <ele>410.578</ele>
        <time>2020-06-07T07:18:31Z</time>
      </trkpt>
      <trkpt lat="46.4761" lon="4.46142">
        <ele>408.578</ele>
        <time>2020-06-07T07:18:36Z</time>
      </trkpt>
      <trkpt lat="46.47603" lon="4.46149">
        <ele>411.578</ele>
        <time>2020-06-07T07:18:41Z</time>
      </trkpt>
      <trkpt lat="46.47596" lon="4.46152">
        <ele>413.578</ele>
        <time>2020-06-07T07:18:46Z</time>
      </trkpt>
      <trkpt lat="46.47589" lon="4.46159">
        <ele>407.578</ele>
        <time>2020-06-07T07:18:52Z</time>
      </trkpt>
      <trkpt lat="46.47583" lon="4.46164">
        <ele>403.578</ele>
        <time>2020-06-07T07:18:58Z</time>
      </trkpt>
      <trkpt lat="46.47577" lon="4.46167">
        <ele>405.578</ele>
        <time>2020-06-07T07:19:03Z</time>
      </trkpt>
      <trkpt lat="46.47571" lon="4.46173">
        <ele>406.578</ele>
        <time>2020-06-07T07:19:08Z</time>
      </trkpt>
      <trkpt lat="46.47564" lon="4.46181">
        <ele>407.578</ele>
        <time>2020-06-07T07:19:13Z</time>
      </trkpt>
      <trkpt lat="46.47559" lon="4.46187">
        <ele>409.578</ele>
        <time>2020-06-07T07:19:19Z</time>
      </trkpt>
      <trkpt lat="46.47554" lon="4.46194">
        <ele>409.578</ele>
        <time>2020-06-07T07:19:24Z</time>
      </trkpt>
      <trkpt lat="46.4755" lon="4.46204">
        <ele>406.578</ele>
        <time>2020-06-07T07:19:29Z</time>
      </trkpt>
      <trkpt lat="46.47548" lon="4.46214">
        <ele>406.578</ele>
        <time>2020-06-07T07:19:34Z</time>
      </trkpt>
      <trkpt lat="46.47543" lon="4.4622">
        <ele>406.578</ele>
        <time>2020-06-07T07:19:39Z</time>
      </trkpt>
      <trkpt lat="46.47538" lon="4.46229">
        <ele>408.578</ele>
        <time>2020-06-07T07:19:45Z</time>
      </trkpt>
      <trkpt lat="46.47531" lon="4.46238">
        <ele>407.578</ele>
        <time>2020-06-07T07:19:50Z</time>
      </trkpt>
      <trkpt lat="46.47524" lon="4.46245">
        <ele>411.578</ele>
        <time>2020-06-07T07:19:55Z</time>
      </trkpt>
      <trkpt lat="46.4752" lon="4.46253">
        <ele>410.578</ele>
        <time>2020-06-07T07:20:00Z</time>
      </trkpt>
      <trkpt lat="46.47514" lon="4.46261">
        <ele>411.578</ele>
        <time>2020-06-07T07:20:05Z</time>
      </trkpt>
      <trkpt lat="46.47509" lon="4.46267">
        <ele>410.578</ele>
        <time>2020-06-07T07:20:10Z</time>
      </trkpt>
      <trkpt lat="46.47502" lon="4.46274">
        <ele>412.578</ele>
        <time>2020-06-07T07:20:15Z</time>
      </trkpt>
      <trkpt lat="46.47498" lon="4.46283">
        <ele>410.578</ele>
        <time>2020-06-07T07:20:20Z</time>
      </trkpt>
      <trkpt lat="46.47492" lon="4.4629">
        <ele>408.578</ele>
        <time>2020-06-07T07:20:25Z</time>
      </trkpt>
      <trkpt lat="46.47485" lon="4.46297">
        <ele>409.578</ele>
        <time>2020-06-07T07:20:31Z</time>
      </trkpt>
      <trkpt lat="46.47481" lon="4.46306">
        <ele>407.578</ele>
        <time>2020-06-07T07:20:37Z</time>
      </trkpt>
      <trkpt lat="46.47476" lon="4.46315">
        <ele>406.578</ele>
        <time>2020-06-07T07:20:43Z</time>
      </trkpt>
      <trkpt lat="46.4747" lon="4.46323">
        <ele>406.578</ele>
        <time>2020-06-07T07:20:48Z</time>
      </trkpt>
      <trkpt lat="46.47464" lon="4.46328">
        <ele>407.578</ele>
        <time>2020-06-07T07:20:53Z</time>
      </trkpt>
      <trkpt lat="46.47458" lon="4.46335">
        <ele>408.578</ele>
        <time>2020-06-07T07:20:59Z</time>
      </trkpt>
      <trkpt lat="46.47451" lon="4.46343">
        <ele>409.578</ele>
        <time>2020-06-07T07:21:04Z</time>
      </trkpt>
      <trkpt lat="46.47443" lon="4.46352">
        <ele>410.578</ele>
        <time>2020-06-07T07:21:09Z</time>
      </trkpt>
      <trkpt lat="46.47436" lon="4.46362">
        <ele>412.578</ele>
        <time>2020-06-07T07:21:14Z</time>
      </trkpt>
      <trkpt lat="46.4743" lon="4.46369">
        <ele>412.578</ele>
        <time>2020-06-07T07:21:19Z</time>
      </trkpt>
      <trkpt lat="46.47425" lon="4.46376">
        <ele>409.578</ele>
        <time>2020-06-07T07:21:24Z</time>
      </trkpt>
      <trkpt lat="46.4742" lon="4.46385">
        <ele>411.578</ele>
        <time>2020-06-07T07:21:30Z</time>
      </trkpt>
      <trkpt lat="46.47414" lon="4.46393">
        <ele>411.578</ele>
        <time>2020-06-07T07:21:35Z</time>
      </trkpt>
      <trkpt lat="46.47409" lon="4.46401">
        <ele>411.578</ele>
        <time>2020-06-07T07:21:40Z</time>
      </trkpt>
      <trkpt lat="46.47404" lon="4.46408">
        <ele>412.578</ele>
        <time>2020-06-07T07:21:45Z</time>
      </trkpt>
      <trkpt lat="46.47398" lon="4.46415">
        <ele>414.578</ele>
        <time>2020-06-07T07:21:50Z</time>
      </trkpt>
      <trkpt lat="46.47395" lon="4.46425">
        <ele>410.578</ele>
        <time>2020-06-07T07:21:56Z</time>
      </trkpt>
      <trkpt lat="46.4739" lon="4.46432">
        <ele>410.578</ele>
        <time>2020-06-07T07:22:01Z</time>
      </trkpt>
      <trkpt lat="46.47385" lon="4.46439">
        <ele>410.578</ele>
        <time>2020-06-07T07:22:06Z</time>
      </trkpt>
      <trkpt lat="46.47377" lon="4.46444">
        <ele>410.578</ele>
        <time>2020-06-07T07:22:11Z</time>
      </trkpt>
      <trkpt lat="46.47371" lon="4.46451">
        <ele>410.578</ele>
        <time>2020-06-07T07:22:16Z</time>
      </trkpt>
      <trkpt lat="46.47367" lon="4.46459">
        <ele>409.578</ele>
        <time>2020-06-07T07:22:21Z</time>
      </trkpt>
      <trkpt lat="46.47359" lon="4.46468">
        <ele>408.578</ele>
        <time>2020-06-07T07:22:26Z</time>
      </trkpt>
      <trkpt lat="46.47355" lon="4.46478">
        <ele>409.578</ele>
        <time>2020-06-07T07:22:31Z</time>
      </trkpt>
      <trkpt lat="46.47352" lon="4.46488">
        <ele>410.578</ele>
        <time>2020-06-07T07:22:36Z</time>
      </trkpt>
      <trkpt lat="46.47346" lon="4.46498">
        <ele>411.578</ele>
        <time>2020-06-07T07:22:41Z</time>
      </trkpt>
      <trkpt lat="46.47344" lon="4.46508">
        <ele>409.578</ele>
        <time>2020-06-07T07:22:46Z</time>
      </trkpt>
      <trkpt lat="46.47342" lon="4.46519">
        <ele>411.578</ele>
        <time>2020-06-07T07:22:52Z</time>
      </trkpt>
      <trkpt lat="46.47339" lon="4.4653">
        <ele>411.578</ele>
        <time>2020-06-07T07:22:57Z</time>
      </trkpt>
      <trkpt lat="46.47334" lon="4.46542">
        <ele>410.578</ele>
        <time>2020-06-07T07:23:02Z</time>
      </trkpt>
      <trkpt lat="46.47331" lon="4.46552">
        <ele>413.578</ele>
        <time>2020-06-07T07:23:09Z</time>
      </trkpt>
      <trkpt lat="46.47325" lon="4.4656">
        <ele>411.578</ele>
        <time>2020-06-07T07:23:14Z</time>
      </trkpt>
      <trkpt lat="46.47319" lon="4.46571">
        <ele>407.578</ele>
        <time>2020-06-07T07:23:19Z</time>
      </trkpt>
      <trkpt lat="46.47313" lon="4.4658">
        <ele>411.578</ele>
        <time>2020-06-07T07:23:24Z</time>
      </trkpt>
      <trkpt lat="46.47305" lon="4.46588">
        <ele>411.577</ele>
        <time>2020-06-07T07:23:29Z</time>
      </trkpt>
      <trkpt lat="46.47299" lon="4.46596">
        <ele>409.577</ele>
        <time>2020-06-07T07:23:34Z</time>
      </trkpt>
      <trkpt lat="46.47293" lon="4.46602">
        <ele>408.577</ele>
        <time>2020-06-07T07:23:39Z</time>
      </trkpt>
      <trkpt lat="46.47287" lon="4.46609">
        <ele>408.577</ele>
        <time>2020-06-07T07:23:44Z</time>
      </trkpt>
      <trkpt lat="46.47281" lon="4.46615">
        <ele>408.577</ele>
        <time>2020-06-07T07:23:50Z</time>
      </trkpt>
      <trkpt lat="46.47277" lon="4.46623">
        <ele>406.577</ele>
        <time>2020-06-07T07:23:56Z</time>
      </trkpt>
      <trkpt lat="46.47271" lon="4.46632">
        <ele>406.577</ele>
        <time>2020-06-07T07:24:01Z</time>
      </trkpt>
      <trkpt lat="46.47265" lon="4.46639">
        <ele>405.577</ele>
        <time>2020-06-07T07:24:07Z</time>
      </trkpt>
      <trkpt lat="46.47259" lon="4.46647">
        <ele>407.577</ele>
        <time>2020-06-07T07:24:12Z</time>
      </trkpt>
      <trkpt lat="46.47252" lon="4.46654">
        <ele>412.577</ele>
        <time>2020-06-07T07:24:17Z</time>
      </trkpt>
      <trkpt lat="46.47248" lon="4.46662">
        <ele>411.577</ele>
        <time>2020-06-07T07:24:22Z</time>
      </trkpt>
      <trkpt lat="46.47242" lon="4.4667">
        <ele>410.577</ele>
        <time>2020-06-07T07:24:27Z</time>
      </trkpt>
      <trkpt lat="46.47235" lon="4.46675">
        <ele>408.577</ele>
        <time>2020-06-07T07:24:32Z</time>
      </trkpt>
      <trkpt lat="46.4723" lon="4.4668">
        <ele>411.577</ele>
        <time>2020-06-07T07:24:37Z</time>
      </trkpt>
      <trkpt lat="46.47223" lon="4.46686">
        <ele>410.577</ele>
        <time>2020-06-07T07:24:42Z</time>
      </trkpt>
      <trkpt lat="46.47216" lon="4.46691">
        <ele>410.577</ele>
        <time>2020-06-07T07:24:48Z</time>
      </trkpt>
      <trkpt lat="46.4721" lon="4.46696">
        <ele>410.577</ele>
        <time>2020-06-07T07:24:53Z</time>
      </trkpt>
      <trkpt lat="46.47204" lon="4.467">
        <ele>413.577</ele>
        <time>2020-06-07T07:24:58Z</time>
      </trkpt>
      <trkpt lat="46.47197" lon="4.46706">
        <ele>411.577</ele>
        <time>2020-06-07T07:25:04Z</time>
      </trkpt>
      <trkpt lat="46.47191" lon="4.4671">
        <ele>411.577</ele>
        <time>2020-06-07T07:25:09Z</time>
      </trkpt>
      <trkpt lat="46.47185" lon="4.46714">
        <ele>410.577</ele>
        <time>2020-06-07T07:25:14Z</time>
      </trkpt>
      <trkpt lat="46.47179" lon="4.46719">
        <ele>410.577</ele>
        <time>2020-06-07T07:25:20Z</time>
      </trkpt>
      <trkpt lat="46.47173" lon="4.46723">
        <ele>412.577</ele>
        <time>2020-06-07T07:25:25Z</time>
      </trkpt>
      <trkpt lat="46.47164" lon="4.4673">
        <ele>411.577</ele>
        <time>2020-06-07T07:25:30Z</time>
      </trkpt>
      <trkpt lat="46.47158" lon="4.46736">
        <ele>408.577</ele>
        <time>2020-06-07T07:25:35Z</time>
      </trkpt>
      <trkpt lat="46.47151" lon="4.46742">
        <ele>408.577</ele>
        <time>2020-06-07T07:25:40Z</time>
      </trkpt>
      <trkpt lat="46.47146" lon="4.4675">
        <ele>408.577</ele>
        <time>2020-06-07T07:25:47Z</time>
      </trkpt>
      <trkpt lat="46.47139" lon="4.46757">
        <ele>409.577</ele>
        <time>2020-06-07T07:25:52Z</time>
      </trkpt>
      <trkpt lat="46.47133" lon="4.46763">
        <ele>410.577</ele>
        <time>2020-06-07T07:25:57Z</time>
      </trkpt>
      <trkpt lat="46.47126" lon="4.46769">
        <ele>411.577</ele>
        <time>2020-06-07T07:26:02Z</time>
      </trkpt>
      <trkpt lat="46.4712" lon="4.46776">
        <ele>410.577</ele>
        <time>2020-06-07T07:26:07Z</time>
      </trkpt>
      <trkpt lat="46.47114" lon="4.46782">
        <ele>411.577</ele>
        <time>2020-06-07T07:26:12Z</time>
      </trkpt>
      <trkpt lat="46.47107" lon="4.46789">
        <ele>412.577</ele>
        <time>2020-06-07T07:26:17Z</time>
      </trkpt>
      <trkpt lat="46.47101" lon="4.46796">
        <ele>414.577</ele>
        <time>2020-06-07T07:26:22Z</time>
      </trkpt>
      <trkpt lat="46.47096" lon="4.46802">
        <ele>411.577</ele>
        <time>2020-06-07T07:26:27Z</time>
      </trkpt>
      <trkpt lat="46.4709" lon="4.46807">
        <ele>411.577</ele>
        <time>2020-06-07T07:26:32Z</time>
      </trkpt>
      <trkpt lat="46.47084" lon="4.46814">
        <ele>409.577</ele>
        <time>2020-06-07T07:26:37Z</time>
      </trkpt>
      <trkpt lat="46.47077" lon="4.46818">
        <ele>411.577</ele>
        <time>2020-06-07T07:26:43Z</time>
      </trkpt>
      <trkpt lat="46.4707" lon="4.46825">
        <ele>412.577</ele>
        <time>2020-06-07T07:26:48Z</time>
      </trkpt>
      <trkpt lat="46.47063" lon="4.46831">
        <ele>410.577</ele>
        <time>2020-06-07T07:26:54Z</time>
      </trkpt>
      <trkpt lat="46.47057" lon="4.46836">
        <ele>409.577</ele>
        <time>2020-06-07T07:26:59Z</time>
      </trkpt>
      <trkpt lat="46.47049" lon="4.46839">
        <ele>410.577</ele>
        <time>2020-06-07T07:27:05Z</time>
      </trkpt>
      <trkpt lat="46.47042" lon="4.46844">
        <ele>409.577</ele>
        <time>2020-06-07T07:27:10Z</time>
      </trkpt>
      <trkpt lat="46.47034" lon="4.46846">
        <ele>409.577</ele>
        <time>2020-06-07T07:27:15Z</time>
      </trkpt>
      <trkpt lat="46.47026" lon="4.46851">
        <ele>408.577</ele>
        <time>2020-06-07T07:27:20Z</time>
      </trkpt>
      <trkpt lat="46.47019" lon="4.46855">
        <ele>406.577</ele>
        <time>2020-06-07T07:27:25Z</time>
      </trkpt>
      <trkpt lat="46.47012" lon="4.46859">
        <ele>408.577</ele>
        <time>2020-06-07T07:27:30Z</time>
      </trkpt>
      <trkpt lat="46.47005" lon="4.46863">
        <ele>406.577</ele>
        <time>2020-06-07T07:27:36Z</time>
      </trkpt>
      <trkpt lat="46.46998" lon="4.46866">
        <ele>403.577</ele>
        <time>2020-06-07T07:27:41Z</time>
      </trkpt>
      <trkpt lat="46.46992" lon="4.4687">
        <ele>405.577</ele>
        <time>2020-06-07T07:27:46Z</time>
      </trkpt>
      <trkpt lat="46.46986" lon="4.46874">
        <ele>404.577</ele>
        <time>2020-06-07T07:27:51Z</time>
      </trkpt>
      <trkpt lat="46.46979" lon="4.46879">
        <ele>403.577</ele>
        <time>2020-06-07T07:27:56Z</time>
      </trkpt>
      <trkpt lat="46.46971" lon="4.46883">
        <ele>402.577</ele>
        <time>2020-06-07T07:28:01Z</time>
      </trkpt>
      <trkpt lat="46.46965" lon="4.46888">
        <ele>402.577</ele>
        <time>2020-06-07T07:28:06Z</time>
      </trkpt>
      <trkpt lat="46.46958" lon="4.46894">
        <ele>400.577</ele>
        <time>2020-06-07T07:28:11Z</time>
      </trkpt>
      <trkpt lat="46.4695" lon="4.46899">
        <ele>398.577</ele>
        <time>2020-06-07T07:28:16Z</time>
      </trkpt>
      <trkpt lat="46.46943" lon="4.46904">
        <ele>399.577</ele>
        <time>2020-06-07T07:28:21Z</time>
      </trkpt>
      <trkpt lat="46.46937" lon="4.46909">
        <ele>398.577</ele>
        <time>2020-06-07T07:28:26Z</time>
      </trkpt>
      <trkpt lat="46.4693" lon="4.46917">
        <ele>397.577</ele>
        <time>2020-06-07T07:28:31Z</time>
      </trkpt>
      <trkpt lat="46.46926" lon="4.46925">
        <ele>395.577</ele>
        <time>2020-06-07T07:28:37Z</time>
      </trkpt>
      <trkpt lat="46.46922" lon="4.46935">
        <ele>395.577</ele>
        <time>2020-06-07T07:28:43Z</time>
      </trkpt>
      <trkpt lat="46.46917" lon="4.46943">
        <ele>393.577</ele>
        <time>2020-06-07T07:28:51Z</time>
      </trkpt>
      <trkpt lat="46.46913" lon="4.46951">
        <ele>395.577</ele>
        <time>2020-06-07T07:28:57Z</time>
      </trkpt>
      <trkpt lat="46.46907" lon="4.46958">
        <ele>397.577</ele>
        <time>2020-06-07T07:29:02Z</time>
      </trkpt>
      <trkpt lat="46.46902" lon="4.46965">
        <ele>397.577</ele>
        <time>2020-06-07T07:29:07Z</time>
      </trkpt>
      <trkpt lat="46.46895" lon="4.46976">
        <ele>395.577</ele>
        <time>2020-06-07T07:29:12Z</time>
      </trkpt>
      <trkpt lat="46.46891" lon="4.46984">
        <ele>397.577</ele>
        <time>2020-06-07T07:29:17Z</time>
      </trkpt>
      <trkpt lat="46.46885" lon="4.46992">
        <ele>398.577</ele>
        <time>2020-06-07T07:29:22Z</time>
      </trkpt>
      <trkpt lat="46.46879" lon="4.46998">
        <ele>397.577</ele>
        <time>2020-06-07T07:29:27Z</time>
      </trkpt>
      <trkpt lat="46.46874" lon="4.47005">
        <ele>399.577</ele>
        <time>2020-06-07T07:29:32Z</time>
      </trkpt>
      <trkpt lat="46.46868" lon="4.47012">
        <ele>400.577</ele>
        <time>2020-06-07T07:29:37Z</time>
      </trkpt>
      <trkpt lat="46.46862" lon="4.47019">
        <ele>400.577</ele>
        <time>2020-06-07T07:29:42Z</time>
      </trkpt>
      <trkpt lat="46.46857" lon="4.47026">
        <ele>399.577</ele>
        <time>2020-06-07T07:29:47Z</time>
      </trkpt>
      <trkpt lat="46.46848" lon="4.47035">
        <ele>399.577</ele>
        <time>2020-06-07T07:29:52Z</time>
      </trkpt>
      <trkpt lat="46.46843" lon="4.47041">
        <ele>400.577</ele>
        <time>2020-06-07T07:29:58Z</time>
      </trkpt>
      <trkpt lat="46.46838" lon="4.47047">
        <ele>401.577</ele>
        <time>2020-06-07T07:30:03Z</time>
      </trkpt>
      <trkpt lat="46.46833" lon="4.47053">
        <ele>401.577</ele>
        <time>2020-06-07T07:30:09Z</time>
      </trkpt>
      <trkpt lat="46.46826" lon="4.4706">
        <ele>398.577</ele>
        <time>2020-06-07T07:30:14Z</time>
      </trkpt>
      <trkpt lat="46.46818" lon="4.47067">
        <ele>398.577</ele>
        <time>2020-06-07T07:30:19Z</time>
      </trkpt>
      <trkpt lat="46.46813" lon="4.47073">
        <ele>397.576</ele>
        <time>2020-06-07T07:30:24Z</time>
      </trkpt>
      <trkpt lat="46.46806" lon="4.4708">
        <ele>402.576</ele>
        <time>2020-06-07T07:30:29Z</time>
      </trkpt>
      <trkpt lat="46.46801" lon="4.47086">
        <ele>399.576</ele>
        <time>2020-06-07T07:30:34Z</time>
      </trkpt>
      <trkpt lat="46.46796" lon="4.47092">
        <ele>401.576</ele>
        <time>2020-06-07T07:30:40Z</time>
      </trkpt>
      <trkpt lat="46.46791" lon="4.471">
        <ele>401.576</ele>
        <time>2020-06-07T07:30:45Z</time>
      </trkpt>
      <trkpt lat="46.46786" lon="4.47107">
        <ele>403.576</ele>
        <time>2020-06-07T07:30:50Z</time>
      </trkpt>
      <trkpt lat="46.4678" lon="4.47115">
        <ele>402.576</ele>
        <time>2020-06-07T07:30:55Z</time>
      </trkpt>
      <trkpt lat="46.46775" lon="4.47122">
        <ele>401.576</ele>
        <time>2020-06-07T07:31:00Z</time>
      </trkpt>
      <trkpt lat="46.4677" lon="4.4713">
        <ele>402.576</ele>
        <time>2020-06-07T07:31:05Z</time>
      </trkpt>
      <trkpt lat="46.46764" lon="4.47138">
        <ele>402.576</ele>
        <time>2020-06-07T07:31:11Z</time>
      </trkpt>
      <trkpt lat="46.46758" lon="4.47147">
        <ele>403.576</ele>
        <time>2020-06-07T07:31:16Z</time>
      </trkpt>
      <trkpt lat="46.46753" lon="4.47154">
        <ele>402.576</ele>
        <time>2020-06-07T07:31:21Z</time>
      </trkpt>
      <trkpt lat="46.46748" lon="4.47161">
        <ele>402.576</ele>
        <time>2020-06-07T07:31:27Z</time>
      </trkpt>
      <trkpt lat="46.46743" lon="4.47168">
        <ele>406.576</ele>
        <time>2020-06-07T07:31:33Z</time>
      </trkpt>
      <trkpt lat="46.46736" lon="4.47177">
        <ele>408.576</ele>
        <time>2020-06-07T07:31:38Z</time>
      </trkpt>
      <trkpt lat="46.46729" lon="4.47184">
        <ele>407.576</ele>
        <time>2020-06-07T07:31:43Z</time>
      </trkpt>
      <trkpt lat="46.46723" lon="4.47189">
        <ele>412.576</ele>
        <time>2020-06-07T07:31:48Z</time>
      </trkpt>
      <trkpt lat="46.46716" lon="4.47195">
        <ele>410.576</ele>
        <time>2020-06-07T07:31:53Z</time>
      </trkpt>
      <trkpt lat="46.4671" lon="4.472">
        <ele>412.576</ele>
        <time>2020-06-07T07:31:58Z</time>
      </trkpt>
      <trkpt lat="46.46705" lon="4.47205">
        <ele>414.576</ele>
        <time>2020-06-07T07:32:03Z</time>
      </trkpt>
      <trkpt lat="46.46699" lon="4.47211">
        <ele>411.576</ele>
        <time>2020-06-07T07:32:08Z</time>
      </trkpt>
      <trkpt lat="46.46693" lon="4.47219">
        <ele>409.576</ele>
        <time>2020-06-07T07:32:13Z</time>
      </trkpt>
      <trkpt lat="46.46685" lon="4.47229">
        <ele>409.576</ele>
        <time>2020-06-07T07:32:18Z</time>
      </trkpt>
      <trkpt lat="46.46679" lon="4.47237">
        <ele>407.576</ele>
        <time>2020-06-07T07:32:23Z</time>
      </trkpt>
      <trkpt lat="46.46675" lon="4.47245">
        <ele>411.576</ele>
        <time>2020-06-07T07:32:29Z</time>
      </trkpt>
      <trkpt lat="46.46671" lon="4.47255">
        <ele>409.576</ele>
        <time>2020-06-07T07:32:34Z</time>
      </trkpt>
      <trkpt lat="46.46668" lon="4.47264">
        <ele>409.576</ele>
        <time>2020-06-07T07:32:39Z</time>
      </trkpt>
      <trkpt lat="46.46662" lon="4.47274">
        <ele>408.576</ele>
        <time>2020-06-07T07:32:44Z</time>
      </trkpt>
      <trkpt lat="46.46658" lon="4.47281">
        <ele>409.576</ele>
        <time>2020-06-07T07:32:50Z</time>
      </trkpt>
      <trkpt lat="46.46655" lon="4.4729">
        <ele>409.576</ele>
        <time>2020-06-07T07:32:55Z</time>
      </trkpt>
      <trkpt lat="46.46651" lon="4.47299">
        <ele>408.576</ele>
        <time>2020-06-07T07:33:00Z</time>
      </trkpt>
      <trkpt lat="46.46646" lon="4.47306">
        <ele>409.576</ele>
        <time>2020-06-07T07:33:05Z</time>
      </trkpt>
      <trkpt lat="46.46642" lon="4.47314">
        <ele>409.576</ele>
        <time>2020-06-07T07:33:10Z</time>
      </trkpt>
      <trkpt lat="46.46636" lon="4.47322">
        <ele>411.576</ele>
        <time>2020-06-07T07:33:15Z</time>
      </trkpt>
      <trkpt lat="46.46632" lon="4.47332">
        <ele>412.576</ele>
        <time>2020-06-07T07:33:20Z</time>
      </trkpt>
      <trkpt lat="46.46628" lon="4.47341">
        <ele>409.576</ele>
        <time>2020-06-07T07:33:26Z</time>
      </trkpt>
      <trkpt lat="46.46624" lon="4.4735">
        <ele>408.576</ele>
        <time>2020-06-07T07:33:31Z</time>
      </trkpt>
      <trkpt lat="46.4662" lon="4.47359">
        <ele>410.576</ele>
        <time>2020-06-07T07:33:37Z</time>
      </trkpt>
      <trkpt lat="46.46617" lon="4.47368">
        <ele>410.576</ele>
        <time>2020-06-07T07:33:42Z</time>
      </trkpt>
      <trkpt lat="46.46614" lon="4.47377">
        <ele>409.576</ele>
        <time>2020-06-07T07:33:47Z</time>
      </trkpt>
      <trkpt lat="46.46609" lon="4.47386">
        <ele>410.576</ele>
        <time>2020-06-07T07:33:52Z</time>
      </trkpt>
      <trkpt lat="46.46605" lon="4.47397">
        <ele>411.576</ele>
        <time>2020-06-07T07:33:58Z</time>
      </trkpt>
      <trkpt lat="46.466" lon="4.47406">
        <ele>408.576</ele>
        <time>2020-06-07T07:34:03Z</time>
      </trkpt>
      <trkpt lat="46.46597" lon="4.47414">
        <ele>408.576</ele>
        <time>2020-06-07T07:34:08Z</time>
      </trkpt>
      <trkpt lat="46.46592" lon="4.47423">
        <ele>409.576</ele>
        <time>2020-06-07T07:34:14Z</time>
      </trkpt>
      <trkpt lat="46.46587" lon="4.4743">
        <ele>408.576</ele>
        <time>2020-06-07T07:34:20Z</time>
      </trkpt>
      <trkpt lat="46.46583" lon="4.47439">
        <ele>410.576</ele>
        <time>2020-06-07T07:34:25Z</time>
      </trkpt>
      <trkpt lat="46.46578" lon="4.47447">
        <ele>409.576</ele>
        <time>2020-06-07T07:34:30Z</time>
      </trkpt>
      <trkpt lat="46.46574" lon="4.47457">
        <ele>410.576</ele>
        <time>2020-06-07T07:34:36Z</time>
      </trkpt>
      <trkpt lat="46.46568" lon="4.47464">
        <ele>409.576</ele>
        <time>2020-06-07T07:34:41Z</time>
      </trkpt>
      <trkpt lat="46.46564" lon="4.47473">
        <ele>409.576</ele>
        <time>2020-06-07T07:34:46Z</time>
      </trkpt>
      <trkpt lat="46.46559" lon="4.4748">
        <ele>408.576</ele>
        <time>2020-06-07T07:34:52Z</time>
      </trkpt>
      <trkpt lat="46.46554" lon="4.47487">
        <ele>410.576</ele>
        <time>2020-06-07T07:34:57Z</time>
      </trkpt>
      <trkpt lat="46.46549" lon="4.47494">
        <ele>411.576</ele>
        <time>2020-06-07T07:35:02Z</time>
      </trkpt>
      <trkpt lat="46.46544" lon="4.47502">
        <ele>412.576</ele>
        <time>2020-06-07T07:35:07Z</time>
      </trkpt>
      <trkpt lat="46.4654" lon="4.47512">
        <ele>412.576</ele>
        <time>2020-06-07T07:35:12Z</time>
      </trkpt>
      <trkpt lat="46.46534" lon="4.47517">
        <ele>414.576</ele>
        <time>2020-06-07T07:35:17Z</time>
      </trkpt>
      <trkpt lat="46.46533" lon="4.47528">
        <ele>413.576</ele>
        <time>2020-06-07T07:35:22Z</time>
      </trkpt>
      <trkpt lat="46.4653" lon="4.47537">
        <ele>412.576</ele>
        <time>2020-06-07T07:35:27Z</time>
      </trkpt>
      <trkpt lat="46.46526" lon="4.47548">
        <ele>410.576</ele>
        <time>2020-06-07T07:35:33Z</time>
      </trkpt>
      <trkpt lat="46.4652" lon="4.47555">
        <ele>412.576</ele>
        <time>2020-06-07T07:35:40Z</time>
      </trkpt>
      <trkpt lat="46.46514" lon="4.47563">
        <ele>413.576</ele>
        <time>2020-06-07T07:35:45Z</time>
      </trkpt>
      <trkpt lat="46.46507" lon="4.4757">
        <ele>415.576</ele>
        <time>2020-06-07T07:35:51Z</time>
      </trkpt>
      <trkpt lat="46.465" lon="4.47572">
        <ele>412.576</ele>
        <time>2020-06-07T07:35:57Z</time>
      </trkpt>
      <trkpt lat="46.46493" lon="4.47575">
        <ele>411.576</ele>
        <time>2020-06-07T07:36:02Z</time>
      </trkpt>
      <trkpt lat="46.46487" lon="4.4758">
        <ele>408.576</ele>
        <time>2020-06-07T07:36:07Z</time>
      </trkpt>
      <trkpt lat="46.46479" lon="4.47584">
        <ele>411.576</ele>
        <time>2020-06-07T07:36:13Z</time>
      </trkpt>
      <trkpt lat="46.46473" lon="4.47587">
        <ele>412.576</ele>
        <time>2020-06-07T07:36:18Z</time>
      </trkpt>
      <trkpt lat="46.46464" lon="4.47588">
        <ele>412.576</ele>
        <time>2020-06-07T07:36:23Z</time>
      </trkpt>
      <trkpt lat="46.46458" lon="4.47593">
        <ele>414.576</ele>
        <time>2020-06-07T07:36:28Z</time>
      </trkpt>
      <trkpt lat="46.46451" lon="4.47598">
        <ele>414.576</ele>
        <time>2020-06-07T07:36:35Z</time>
      </trkpt>
      <trkpt lat="46.46445" lon="4.47602">
        <ele>415.576</ele>
        <time>2020-06-07T07:36:40Z</time>
      </trkpt>
      <trkpt lat="46.46439" lon="4.47607">
        <ele>414.576</ele>
        <time>2020-06-07T07:36:45Z</time>
      </trkpt>
      <trkpt lat="46.46432" lon="4.47611">
        <ele>413.576</ele>
        <time>2020-06-07T07:36:50Z</time>
      </trkpt>
      <trkpt lat="46.46426" lon="4.47616">
        <ele>414.576</ele>
        <time>2020-06-07T07:36:55Z</time>
      </trkpt>
      <trkpt lat="46.46419" lon="4.47621">
        <ele>417.576</ele>
        <time>2020-06-07T07:37:01Z</time>
      </trkpt>
      <trkpt lat="46.46411" lon="4.47624">
        <ele>417.576</ele>
        <time>2020-06-07T07:37:06Z</time>
      </trkpt>
      <trkpt lat="46.46404" lon="4.47626">
        <ele>417.576</ele>
        <time>2020-06-07T07:37:11Z</time>
      </trkpt>
      <trkpt lat="46.46397" lon="4.47632">
        <ele>416.576</ele>
        <time>2020-06-07T07:37:16Z</time>
      </trkpt>
      <trkpt lat="46.4639" lon="4.47635">
        <ele>415.576</ele>
        <time>2020-06-07T07:37:22Z</time>
      </trkpt>
      <trkpt lat="46.46382" lon="4.47638">
        <ele>414.576</ele>
        <time>2020-06-07T07:37:27Z</time>
      </trkpt>
      <trkpt lat="46.46374" lon="4.47641">
        <ele>416.576</ele>
        <time>2020-06-07T07:37:32Z</time>
      </trkpt>
      <trkpt lat="46.46367" lon="4.47644">
        <ele>417.576</ele>
        <time>2020-06-07T07:37:38Z</time>
      </trkpt>
      <trkpt lat="46.46359" lon="4.47649">
        <ele>417.576</ele>
        <time>2020-06-07T07:37:43Z</time>
      </trkpt>
      <trkpt lat="46.46353" lon="4.47654">
        <ele>415.576</ele>
        <time>2020-06-07T07:37:48Z</time>
      </trkpt>
      <trkpt lat="46.46345" lon="4.47657">
        <ele>416.576</ele>
        <time>2020-06-07T07:37:53Z</time>
      </trkpt>
      <trkpt lat="46.46337" lon="4.47658">
        <ele>418.576</ele>
        <time>2020-06-07T07:37:58Z</time>
      </trkpt>
      <trkpt lat="46.4633" lon="4.47661">
        <ele>417.576</ele>
        <time>2020-06-07T07:38:04Z</time>
      </trkpt>
      <trkpt lat="46.46322" lon="4.47662">
        <ele>416.576</ele>
        <time>2020-06-07T07:38:09Z</time>
      </trkpt>
      <trkpt lat="46.46315" lon="4.47665">
        <ele>414.576</ele>
        <time>2020-06-07T07:38:14Z</time>
      </trkpt>
      <trkpt lat="46.46307" lon="4.47668">
        <ele>411.576</ele>
        <time>2020-06-07T07:38:19Z</time>
      </trkpt>
      <trkpt lat="46.463" lon="4.47671">
        <ele>411.576</ele>
        <time>2020-06-07T07:38:24Z</time>
      </trkpt>
      <trkpt lat="46.46294" lon="4.47675">
        <ele>412.576</ele>
        <time>2020-06-07T07:38:30Z</time>
      </trkpt>
      <trkpt lat="46.46288" lon="4.4768">
        <ele>413.576</ele>
        <time>2020-06-07T07:38:35Z</time>
      </trkpt>
      <trkpt lat="46.46281" lon="4.47683">
        <ele>413.575</ele>
        <time>2020-06-07T07:38:40Z</time>
      </trkpt>
      <trkpt lat="46.46273" lon="4.47687">
        <ele>413.575</ele>
        <time>2020-06-07T07:38:45Z</time>
      </trkpt>
      <trkpt lat="46.46266" lon="4.47692">
        <ele>412.575</ele>
        <time>2020-06-07T07:38:50Z</time>
      </trkpt>
      <trkpt lat="46.46258" lon="4.47694">
        <ele>415.575</ele>
        <time>2020-06-07T07:38:55Z</time>
      </trkpt>
      <trkpt lat="46.46251" lon="4.47698">
        <ele>413.575</ele>
        <time>2020-06-07T07:39:00Z</time>
      </trkpt>
      <trkpt lat="46.46244" lon="4.477">
        <ele>413.575</ele>
        <time>2020-06-07T07:39:05Z</time>
      </trkpt>
      <trkpt lat="46.46237" lon="4.47699">
        <ele>414.575</ele>
        <time>2020-06-07T07:39:10Z</time>
      </trkpt>
      <trkpt lat="46.46229" lon="4.47698">
        <ele>415.575</ele>
        <time>2020-06-07T07:39:15Z</time>
      </trkpt>
      <trkpt lat="46.46223" lon="4.47701">
        <ele>415.575</ele>
        <time>2020-06-07T07:39:20Z</time>
      </trkpt>
      <trkpt lat="46.46216" lon="4.47703">
        <ele>416.575</ele>
        <time>2020-06-07T07:39:25Z</time>
      </trkpt>
      <trkpt lat="46.46208" lon="4.47704">
        <ele>415.575</ele>
        <time>2020-06-07T07:39:30Z</time>
      </trkpt>
      <trkpt lat="46.46202" lon="4.47706">
        <ele>417.575</ele>
        <time>2020-06-07T07:39:35Z</time>
      </trkpt>
      <trkpt lat="46.46193" lon="4.47703">
        <ele>416.575</ele>
        <time>2020-06-07T07:39:40Z</time>
      </trkpt>
      <trkpt lat="46.46185" lon="4.47702">
        <ele>415.575</ele>
        <time>2020-06-07T07:39:46Z</time>
      </trkpt>
      <trkpt lat="46.46178" lon="4.47704">
        <ele>412.575</ele>
        <time>2020-06-07T07:39:52Z</time>
      </trkpt>
      <trkpt lat="46.46171" lon="4.47706">
        <ele>408.575</ele>
        <time>2020-06-07T07:39:57Z</time>
      </trkpt>
      <trkpt lat="46.46163" lon="4.47703">
        <ele>409.575</ele>
        <time>2020-06-07T07:40:03Z</time>
      </trkpt>
      <trkpt lat="46.46154" lon="4.47701">
        <ele>407.575</ele>
        <time>2020-06-07T07:40:08Z</time>
      </trkpt>
      <trkpt lat="46.46147" lon="4.477">
        <ele>407.575</ele>
        <time>2020-06-07T07:40:13Z</time>
      </trkpt>
      <trkpt lat="46.46141" lon="4.47702">
        <ele>409.575</ele>
        <time>2020-06-07T07:40:19Z</time>
      </trkpt>
      <trkpt lat="46.46134" lon="4.47704">
        <ele>408.575</ele>
        <time>2020-06-07T07:40:24Z</time>
      </trkpt>
      <trkpt lat="46.46126" lon="4.47705">
        <ele>407.575</ele>
        <time>2020-06-07T07:40:29Z</time>
      </trkpt>
      <trkpt lat="46.46119" lon="4.47708">
        <ele>409.575</ele>
        <time>2020-06-07T07:40:34Z</time>
      </trkpt>
      <trkpt lat="46.4611" lon="4.47712">
        <ele>410.575</ele>
        <time>2020-06-07T07:40:39Z</time>
      </trkpt>
      <trkpt lat="46.46103" lon="4.47714">
        <ele>414.575</ele>
        <time>2020-06-07T07:40:44Z</time>
      </trkpt>
      <trkpt lat="46.46096" lon="4.47718">
        <ele>412.575</ele>
        <time>2020-06-07T07:40:50Z</time>
      </trkpt>
      <trkpt lat="46.46089" lon="4.47721">
        <ele>413.575</ele>
        <time>2020-06-07T07:40:55Z</time>
      </trkpt>
      <trkpt lat="46.46082" lon="4.47726">
        <ele>413.575</ele>
        <time>2020-06-07T07:41:00Z</time>
      </trkpt>
      <trkpt lat="46.46074" lon="4.47726">
        <ele>414.575</ele>
        <time>2020-06-07T07:41:05Z</time>
      </trkpt>
      <trkpt lat="46.46066" lon="4.47726">
        <ele>412.575</ele>
        <time>2020-06-07T07:41:10Z</time>
      </trkpt>
      <trkpt lat="46.46059" lon="4.47726">
        <ele>412.575</ele>
        <time>2020-06-07T07:41:15Z</time>
      </trkpt>
      <trkpt lat="46.46052" lon="4.4773">
        <ele>412.575</ele>
        <time>2020-06-07T07:41:20Z</time>
      </trkpt>
      <trkpt lat="46.46043" lon="4.47733">
        <ele>414.575</ele>
        <time>2020-06-07T07:41:26Z</time>
      </trkpt>
      <trkpt lat="46.46035" lon="4.47736">
        <ele>415.575</ele>
        <time>2020-06-07T07:41:31Z</time>
      </trkpt>
      <trkpt lat="46.46029" lon="4.4774">
        <ele>415.575</ele>
        <time>2020-06-07T07:41:36Z</time>
      </trkpt>
      <trkpt lat="46.46022" lon="4.47743">
        <ele>414.575</ele>
        <time>2020-06-07T07:41:41Z</time>
      </trkpt>
      <trkpt lat="46.46015" lon="4.47747">
        <ele>415.575</ele>
        <time>2020-06-07T07:41:46Z</time>
      </trkpt>
      <trkpt lat="46.46008" lon="4.47751">
        <ele>414.575</ele>
        <time>2020-06-07T07:41:51Z</time>
      </trkpt>
      <trkpt lat="46.46001" lon="4.47754">
        <ele>415.575</ele>
        <time>2020-06-07T07:41:56Z</time>
      </trkpt>
      <trkpt lat="46.45995" lon="4.47758">
        <ele>415.575</ele>
        <time>2020-06-07T07:42:01Z</time>
      </trkpt>
      <trkpt lat="46.45987" lon="4.47761">
        <ele>415.575</ele>
        <time>2020-06-07T07:42:06Z</time>
      </trkpt>
      <trkpt lat="46.45981" lon="4.47765">
        <ele>416.575</ele>
        <time>2020-06-07T07:42:11Z</time>
      </trkpt>
      <trkpt lat="46.45973" lon="4.47768">
        <ele>419.575</ele>
        <time>2020-06-07T07:42:16Z</time>
      </trkpt>
      <trkpt lat="46.45966" lon="4.47772">
        <ele>421.575</ele>
        <time>2020-06-07T07:42:21Z</time>
      </trkpt>
      <trkpt lat="46.4596" lon="4.47778">
        <ele>422.575</ele>
        <time>2020-06-07T07:42:27Z</time>
      </trkpt>
      <trkpt lat="46.45953" lon="4.4778">
        <ele>421.575</ele>
        <time>2020-06-07T07:43:28Z</time>
      </trkpt>
      <trkpt lat="46.45945" lon="4.47783">
        <ele>422.575</ele>
        <time>2020-06-07T07:43:33Z</time>
      </trkpt>
      <trkpt lat="46.45938" lon="4.47785">
        <ele>419.575</ele>
        <time>2020-06-07T07:43:39Z</time>
      </trkpt>
      <trkpt lat="46.45931" lon="4.47789">
        <ele>419.575</ele>
        <time>2020-06-07T07:43:44Z</time>
      </trkpt>
      <trkpt lat="46.45924" lon="4.47793">
        <ele>419.575</ele>
        <time>2020-06-07T07:43:50Z</time>
      </trkpt>
      <trkpt lat="46.45917" lon="4.47798">
        <ele>419.575</ele>
        <time>2020-06-07T07:43:55Z</time>
      </trkpt>
      <trkpt lat="46.45911" lon="4.47802">
        <ele>420.575</ele>
        <time>2020-06-07T07:44:00Z</time>
      </trkpt>
      <trkpt lat="46.45904" lon="4.47806">
        <ele>420.575</ele>
        <time>2020-06-07T07:44:05Z</time>
      </trkpt>
      <trkpt lat="46.45897" lon="4.4781">
        <ele>421.575</ele>
        <time>2020-06-07T07:44:10Z</time>
      </trkpt>
      <trkpt lat="46.4589" lon="4.47813">
        <ele>422.575</ele>
        <time>2020-06-07T07:44:15Z</time>
      </trkpt>
      <trkpt lat="46.45883" lon="4.47816">
        <ele>423.574</ele>
        <time>2020-06-07T07:44:20Z</time>
      </trkpt>
      <trkpt lat="46.45876" lon="4.4782">
        <ele>422.574</ele>
        <time>2020-06-07T07:44:25Z</time>
      </trkpt>
      <trkpt lat="46.45869" lon="4.47822">
        <ele>424.574</ele>
        <time>2020-06-07T07:44:31Z</time>
      </trkpt>
      <trkpt lat="46.45862" lon="4.47825">
        <ele>420.574</ele>
        <time>2020-06-07T07:44:37Z</time>
      </trkpt>
      <trkpt lat="46.45854" lon="4.47826">
        <ele>421.574</ele>
        <time>2020-06-07T07:44:42Z</time>
      </trkpt>
      <trkpt lat="46.45847" lon="4.47825">
        <ele>419.574</ele>
        <time>2020-06-07T07:44:47Z</time>
      </trkpt>
      <trkpt lat="46.45839" lon="4.47824">
        <ele>417.574</ele>
        <time>2020-06-07T07:44:52Z</time>
      </trkpt>
      <trkpt lat="46.45832" lon="4.47826">
        <ele>419.574</ele>
        <time>2020-06-07T07:44:59Z</time>
      </trkpt>
      <trkpt lat="46.45824" lon="4.47826">
        <ele>422.574</ele>
        <time>2020-06-07T07:45:05Z</time>
      </trkpt>
      <trkpt lat="46.45816" lon="4.47823">
        <ele>425.574</ele>
        <time>2020-06-07T07:45:10Z</time>
      </trkpt>
      <trkpt lat="46.45808" lon="4.47821">
        <ele>424.574</ele>
        <time>2020-06-07T07:45:17Z</time>
      </trkpt>
      <trkpt lat="46.45802" lon="4.47819">
        <ele>426.574</ele>
        <time>2020-06-07T07:45:22Z</time>
      </trkpt>
      <trkpt lat="46.45795" lon="4.47816">
        <ele>425.574</ele>
        <time>2020-06-07T07:45:28Z</time>
      </trkpt>
      <trkpt lat="46.45788" lon="4.47815">
        <ele>423.574</ele>
        <time>2020-06-07T07:45:33Z</time>
      </trkpt>
      <trkpt lat="46.4578" lon="4.47813">
        <ele>423.574</ele>
        <time>2020-06-07T07:45:39Z</time>
      </trkpt>
      <trkpt lat="46.45773" lon="4.47812">
        <ele>422.574</ele>
        <time>2020-06-07T07:45:45Z</time>
      </trkpt>
      <trkpt lat="46.45766" lon="4.47806">
        <ele>423.574</ele>
        <time>2020-06-07T07:45:50Z</time>
      </trkpt>
      <trkpt lat="46.45758" lon="4.47801">
        <ele>423.574</ele>
        <time>2020-06-07T07:45:55Z</time>
      </trkpt>
      <trkpt lat="46.45753" lon="4.47796">
        <ele>423.574</ele>
        <time>2020-06-07T07:46:00Z</time>
      </trkpt>
      <trkpt lat="46.45747" lon="4.47791">
        <ele>422.574</ele>
        <time>2020-06-07T07:46:05Z</time>
      </trkpt>
      <trkpt lat="46.4574" lon="4.47784">
        <ele>422.574</ele>
        <time>2020-06-07T07:46:11Z</time>
      </trkpt>
      <trkpt lat="46.45734" lon="4.47778">
        <ele>422.574</ele>
        <time>2020-06-07T07:46:16Z</time>
      </trkpt>
      <trkpt lat="46.45728" lon="4.47774">
        <ele>421.574</ele>
        <time>2020-06-07T07:46:21Z</time>
      </trkpt>
      <trkpt lat="46.45721" lon="4.47769">
        <ele>422.574</ele>
        <time>2020-06-07T07:46:28Z</time>
      </trkpt>
      <trkpt lat="46.45714" lon="4.47764">
        <ele>420.574</ele>
        <time>2020-06-07T07:46:33Z</time>
      </trkpt>
      <trkpt lat="46.45707" lon="4.47763">
        <ele>419.574</ele>
        <time>2020-06-07T07:46:39Z</time>
      </trkpt>
      <trkpt lat="46.457" lon="4.4776">
        <ele>421.574</ele>
        <time>2020-06-07T07:46:44Z</time>
      </trkpt>
      <trkpt lat="46.45693" lon="4.47758">
        <ele>420.574</ele>
        <time>2020-06-07T07:46:49Z</time>
      </trkpt>
      <trkpt lat="46.45686" lon="4.47756">
        <ele>420.574</ele>
        <time>2020-06-07T07:46:55Z</time>
      </trkpt>
      <trkpt lat="46.45679" lon="4.47759">
        <ele>420.574</ele>
        <time>2020-06-07T07:47:03Z</time>
      </trkpt>
      <trkpt lat="46.45672" lon="4.47757">
        <ele>419.574</ele>
        <time>2020-06-07T07:47:10Z</time>
      </trkpt>
      <trkpt lat="46.45665" lon="4.47759">
        <ele>419.574</ele>
        <time>2020-06-07T07:47:17Z</time>
      </trkpt>
      <trkpt lat="46.45659" lon="4.47758">
        <ele>419.574</ele>
        <time>2020-06-07T07:47:25Z</time>
      </trkpt>
      <trkpt lat="46.45651" lon="4.47756">
        <ele>420.574</ele>
        <time>2020-06-07T07:47:31Z</time>
      </trkpt>
      <trkpt lat="46.45644" lon="4.47758">
        <ele>423.574</ele>
        <time>2020-06-07T07:47:37Z</time>
      </trkpt>
      <trkpt lat="46.45637" lon="4.4776">
        <ele>423.574</ele>
        <time>2020-06-07T07:47:43Z</time>
      </trkpt>
      <trkpt lat="46.4563" lon="4.4776">
        <ele>418.574</ele>
        <time>2020-06-07T07:47:48Z</time>
      </trkpt>
      <trkpt lat="46.45624" lon="4.47761">
        <ele>422.574</ele>
        <time>2020-06-07T07:47:56Z</time>
      </trkpt>
      <trkpt lat="46.45615" lon="4.47757">
        <ele>424.574</ele>
        <time>2020-06-07T07:48:02Z</time>
      </trkpt>
      <trkpt lat="46.45609" lon="4.4776">
        <ele>418.574</ele>
        <time>2020-06-07T07:48:08Z</time>
      </trkpt>
      <trkpt lat="46.45602" lon="4.47756">
        <ele>420.574</ele>
        <time>2020-06-07T07:48:16Z</time>
      </trkpt>
      <trkpt lat="46.45598" lon="4.47747">
        <ele>422.574</ele>
        <time>2020-06-07T07:48:23Z</time>
      </trkpt>
      <trkpt lat="46.45594" lon="4.47738">
        <ele>426.574</ele>
        <time>2020-06-07T07:48:28Z</time>
      </trkpt>
      <trkpt lat="46.4559" lon="4.4773">
        <ele>431.574</ele>
        <time>2020-06-07T07:48:35Z</time>
      </trkpt>
      <trkpt lat="46.45586" lon="4.47721">
        <ele>434.574</ele>
        <time>2020-06-07T07:48:40Z</time>
      </trkpt>
      <trkpt lat="46.4558" lon="4.47712">
        <ele>430.574</ele>
        <time>2020-06-07T07:48:50Z</time>
      </trkpt>
      <trkpt lat="46.45575" lon="4.47705">
        <ele>432.574</ele>
        <time>2020-06-07T07:48:57Z</time>
      </trkpt>
      <trkpt lat="46.4557" lon="4.47697">
        <ele>434.574</ele>
        <time>2020-06-07T07:49:02Z</time>
      </trkpt>
      <trkpt lat="46.45565" lon="4.47689">
        <ele>434.574</ele>
        <time>2020-06-07T07:49:10Z</time>
      </trkpt>
      <trkpt lat="46.45559" lon="4.4768">
        <ele>434.573</ele>
        <time>2020-06-07T07:49:15Z</time>
      </trkpt>
      <trkpt lat="46.45554" lon="4.47673">
        <ele>437.573</ele>
        <time>2020-06-07T07:49:22Z</time>
      </trkpt>
      <trkpt lat="46.4555" lon="4.47665">
        <ele>438.573</ele>
        <time>2020-06-07T07:49:28Z</time>
      </trkpt>
      <trkpt lat="46.45543" lon="4.47657">
        <ele>435.573</ele>
        <time>2020-06-07T07:49:33Z</time>
      </trkpt>
      <trkpt lat="46.45537" lon="4.4765">
        <ele>434.573</ele>
        <time>2020-06-07T07:49:41Z</time>
      </trkpt>
      <trkpt lat="46.4553" lon="4.47646">
        <ele>433.573</ele>
        <time>2020-06-07T07:49:47Z</time>
      </trkpt>
      <trkpt lat="46.45525" lon="4.47637">
        <ele>433.573</ele>
        <time>2020-06-07T07:49:53Z</time>
      </trkpt>
      <trkpt lat="46.45521" lon="4.47629">
        <ele>436.573</ele>
        <time>2020-06-07T07:49:58Z</time>
      </trkpt>
      <trkpt lat="46.45516" lon="4.47623">
        <ele>433.573</ele>
        <time>2020-06-07T07:50:04Z</time>
      </trkpt>
      <trkpt lat="46.45512" lon="4.47614">
        <ele>434.573</ele>
        <time>2020-06-07T07:50:11Z</time>
      </trkpt>
      <trkpt lat="46.45507" lon="4.47608">
        <ele>436.573</ele>
        <time>2020-06-07T07:50:20Z</time>
      </trkpt>
      <trkpt lat="46.45502" lon="4.47601">
        <ele>436.573</ele>
        <time>2020-06-07T07:50:26Z</time>
      </trkpt>
      <trkpt lat="46.45496" lon="4.47594">
        <ele>438.573</ele>
        <time>2020-06-07T07:50:34Z</time>
      </trkpt>
      <trkpt lat="46.45491" lon="4.47587">
        <ele>439.573</ele>
        <time>2020-06-07T07:50:39Z</time>
      </trkpt>
      <trkpt lat="46.45486" lon="4.47581">
        <ele>437.573</ele>
        <time>2020-06-07T07:50:45Z</time>
      </trkpt>
      <trkpt lat="46.45479" lon="4.47576">
        <ele>438.573</ele>
        <time>2020-06-07T07:50:51Z</time>
      </trkpt>
      <trkpt lat="46.45473" lon="4.47569">
        <ele>440.573</ele>
        <time>2020-06-07T07:50:57Z</time>
      </trkpt>
      <trkpt lat="46.45468" lon="4.47565">
        <ele>441.573</ele>
        <time>2020-06-07T07:51:03Z</time>
      </trkpt>
      <trkpt lat="46.45462" lon="4.47558">
        <ele>441.573</ele>
        <time>2020-06-07T07:51:12Z</time>
      </trkpt>
      <trkpt lat="46.45456" lon="4.47551">
        <ele>444.573</ele>
        <time>2020-06-07T07:51:19Z</time>
      </trkpt>
      <trkpt lat="46.45449" lon="4.47546">
        <ele>445.573</ele>
        <time>2020-06-07T07:51:25Z</time>
      </trkpt>
      <trkpt lat="46.45442" lon="4.47541">
        <ele>444.573</ele>
        <time>2020-06-07T07:51:34Z</time>
      </trkpt>
      <trkpt lat="46.45435" lon="4.4754">
        <ele>443.573</ele>
        <time>2020-06-07T07:51:41Z</time>
      </trkpt>
      <trkpt lat="46.45429" lon="4.47536">
        <ele>445.573</ele>
        <time>2020-06-07T07:51:48Z</time>
      </trkpt>
      <trkpt lat="46.45421" lon="4.47533">
        <ele>448.573</ele>
        <time>2020-06-07T07:51:55Z</time>
      </trkpt>
      <trkpt lat="46.45414" lon="4.47534">
        <ele>442.573</ele>
        <time>2020-06-07T07:52:01Z</time>
      </trkpt>
      <trkpt lat="46.45406" lon="4.47535">
        <ele>442.573</ele>
        <time>2020-06-07T07:52:09Z</time>
      </trkpt>
      <trkpt lat="46.454" lon="4.47532">
        <ele>443.573</ele>
        <time>2020-06-07T07:52:14Z</time>
      </trkpt>
      <trkpt lat="46.45393" lon="4.47529">
        <ele>444.573</ele>
        <time>2020-06-07T07:52:19Z</time>
      </trkpt>
      <trkpt lat="46.45386" lon="4.47533">
        <ele>444.573</ele>
        <time>2020-06-07T07:52:26Z</time>
      </trkpt>
      <trkpt lat="46.45379" lon="4.47534">
        <ele>446.573</ele>
        <time>2020-06-07T07:52:33Z</time>
      </trkpt>
      <trkpt lat="46.45372" lon="4.47536">
        <ele>446.573</ele>
        <time>2020-06-07T07:52:42Z</time>
      </trkpt>
      <trkpt lat="46.45364" lon="4.47536">
        <ele>450.573</ele>
        <time>2020-06-07T07:52:52Z</time>
      </trkpt>
      <trkpt lat="46.45358" lon="4.47538">
        <ele>453.573</ele>
        <time>2020-06-07T07:53:00Z</time>
      </trkpt>
      <trkpt lat="46.45349" lon="4.47536">
        <ele>451.573</ele>
        <time>2020-06-07T07:53:08Z</time>
      </trkpt>
      <trkpt lat="46.45342" lon="4.47534">
        <ele>451.573</ele>
        <time>2020-06-07T07:53:14Z</time>
      </trkpt>
      <trkpt lat="46.45336" lon="4.4754">
        <ele>457.573</ele>
        <time>2020-06-07T07:53:25Z</time>
      </trkpt>
      <trkpt lat="46.4533" lon="4.47536">
        <ele>455.573</ele>
        <time>2020-06-07T07:53:32Z</time>
      </trkpt>
      <trkpt lat="46.45323" lon="4.47531">
        <ele>457.573</ele>
        <time>2020-06-07T07:53:39Z</time>
      </trkpt>
      <trkpt lat="46.45317" lon="4.47527">
        <ele>456.573</ele>
        <time>2020-06-07T07:53:44Z</time>
      </trkpt>
      <trkpt lat="46.4531" lon="4.47525">
        <ele>458.573</ele>
        <time>2020-06-07T07:53:51Z</time>
      </trkpt>
      <trkpt lat="46.45303" lon="4.47527">
        <ele>457.573</ele>
        <time>2020-06-07T07:53:58Z</time>
      </trkpt>
      <trkpt lat="46.45299" lon="4.47535">
        <ele>460.573</ele>
        <time>2020-06-07T07:54:05Z</time>
      </trkpt>
      <trkpt lat="46.45292" lon="4.47535">
        <ele>460.573</ele>
        <time>2020-06-07T07:54:12Z</time>
      </trkpt>
      <trkpt lat="46.45287" lon="4.47526">
        <ele>461.573</ele>
        <time>2020-06-07T07:54:20Z</time>
      </trkpt>
      <trkpt lat="46.45281" lon="4.47521">
        <ele>463.573</ele>
        <time>2020-06-07T07:54:26Z</time>
      </trkpt>
      <trkpt lat="46.45276" lon="4.47516">
        <ele>461.573</ele>
        <time>2020-06-07T07:54:35Z</time>
      </trkpt>
      <trkpt lat="46.4527" lon="4.47512">
        <ele>463.573</ele>
        <time>2020-06-07T07:54:50Z</time>
      </trkpt>
      <trkpt lat="46.45268" lon="4.47501">
        <ele>469.573</ele>
        <time>2020-06-07T07:55:01Z</time>
      </trkpt>
      <trkpt lat="46.45269" lon="4.47492">
        <ele>475.573</ele>
        <time>2020-06-07T07:55:06Z</time>
      </trkpt>
      <trkpt lat="46.45265" lon="4.47483">
        <ele>478.573</ele>
        <time>2020-06-07T07:55:18Z</time>
      </trkpt>
      <trkpt lat="46.4526" lon="4.47476">
        <ele>478.573</ele>
        <time>2020-06-07T07:55:26Z</time>
      </trkpt>
      <trkpt lat="46.45256" lon="4.47468">
        <ele>480.572</ele>
        <time>2020-06-07T07:55:33Z</time>
      </trkpt>
      <trkpt lat="46.45251" lon="4.47461">
        <ele>480.572</ele>
        <time>2020-06-07T07:55:39Z</time>
      </trkpt>
      <trkpt lat="46.45245" lon="4.47456">
        <ele>482.572</ele>
        <time>2020-06-07T07:55:47Z</time>
      </trkpt>
      <trkpt lat="46.45239" lon="4.47449">
        <ele>484.572</ele>
        <time>2020-06-07T07:55:54Z</time>
      </trkpt>
      <trkpt lat="46.45233" lon="4.47446">
        <ele>486.572</ele>
        <time>2020-06-07T07:56:04Z</time>
      </trkpt>
      <trkpt lat="46.45226" lon="4.47447">
        <ele>487.572</ele>
        <time>2020-06-07T07:56:13Z</time>
      </trkpt>
      <trkpt lat="46.4522" lon="4.47444">
        <ele>488.572</ele>
        <time>2020-06-07T07:56:18Z</time>
      </trkpt>
      <trkpt lat="46.45213" lon="4.47441">
        <ele>484.572</ele>
        <time>2020-06-07T07:56:23Z</time>
      </trkpt>
      <trkpt lat="46.45206" lon="4.47438">
        <ele>484.572</ele>
        <time>2020-06-07T07:56:29Z</time>
      </trkpt>
      <trkpt lat="46.45199" lon="4.47436">
        <ele>484.572</ele>
        <time>2020-06-07T07:56:35Z</time>
      </trkpt>
      <trkpt lat="46.45192" lon="4.47433">
        <ele>483.572</ele>
        <time>2020-06-07T07:56:40Z</time>
      </trkpt>
      <trkpt lat="46.45184" lon="4.47427">
        <ele>485.572</ele>
        <time>2020-06-07T07:56:47Z</time>
      </trkpt>
      <trkpt lat="46.45177" lon="4.47425">
        <ele>483.572</ele>
        <time>2020-06-07T07:56:52Z</time>
      </trkpt>
      <trkpt lat="46.4517" lon="4.47423">
        <ele>482.572</ele>
        <time>2020-06-07T07:56:57Z</time>
      </trkpt>
      <trkpt lat="46.45163" lon="4.47422">
        <ele>481.572</ele>
        <time>2020-06-07T07:57:03Z</time>
      </trkpt>
      <trkpt lat="46.45156" lon="4.47422">
        <ele>480.572</ele>
        <time>2020-06-07T07:57:10Z</time>
      </trkpt>
      <trkpt lat="46.45149" lon="4.47417">
        <ele>480.572</ele>
        <time>2020-06-07T07:57:16Z</time>
      </trkpt>
      <trkpt lat="46.45142" lon="4.47416">
        <ele>480.572</ele>
        <time>2020-06-07T07:57:21Z</time>
      </trkpt>
      <trkpt lat="46.45136" lon="4.47415">
        <ele>479.572</ele>
        <time>2020-06-07T07:57:26Z</time>
      </trkpt>
      <trkpt lat="46.45129" lon="4.47416">
        <ele>477.572</ele>
        <time>2020-06-07T07:57:31Z</time>
      </trkpt>
      <trkpt lat="46.45121" lon="4.47412">
        <ele>475.572</ele>
        <time>2020-06-07T07:57:36Z</time>
      </trkpt>
      <trkpt lat="46.45114" lon="4.47414">
        <ele>475.572</ele>
        <time>2020-06-07T07:57:42Z</time>
      </trkpt>
      <trkpt lat="46.45107" lon="4.47416">
        <ele>475.572</ele>
        <time>2020-06-07T07:57:48Z</time>
      </trkpt>
      <trkpt lat="46.45102" lon="4.47422">
        <ele>478.572</ele>
        <time>2020-06-07T07:57:54Z</time>
      </trkpt>
      <trkpt lat="46.45095" lon="4.47422">
        <ele>476.572</ele>
        <time>2020-06-07T07:57:59Z</time>
      </trkpt>
      <trkpt lat="46.45087" lon="4.47422">
        <ele>474.572</ele>
        <time>2020-06-07T07:58:04Z</time>
      </trkpt>
      <trkpt lat="46.45081" lon="4.47429">
        <ele>475.572</ele>
        <time>2020-06-07T07:58:10Z</time>
      </trkpt>
      <trkpt lat="46.45071" lon="4.47426">
        <ele>475.572</ele>
        <time>2020-06-07T07:58:15Z</time>
      </trkpt>
      <trkpt lat="46.45062" lon="4.47425">
        <ele>475.572</ele>
        <time>2020-06-07T07:58:20Z</time>
      </trkpt>
      <trkpt lat="46.45055" lon="4.47428">
        <ele>473.572</ele>
        <time>2020-06-07T07:58:26Z</time>
      </trkpt>
      <trkpt lat="46.4505" lon="4.47435">
        <ele>470.572</ele>
        <time>2020-06-07T07:58:31Z</time>
      </trkpt>
      <trkpt lat="46.45043" lon="4.47441">
        <ele>474.572</ele>
        <time>2020-06-07T07:58:36Z</time>
      </trkpt>
      <trkpt lat="46.45038" lon="4.47446">
        <ele>473.572</ele>
        <time>2020-06-07T07:58:41Z</time>
      </trkpt>
      <trkpt lat="46.45031" lon="4.47452">
        <ele>474.572</ele>
        <time>2020-06-07T07:58:47Z</time>
      </trkpt>
      <trkpt lat="46.45025" lon="4.47456">
        <ele>474.572</ele>
        <time>2020-06-07T07:58:54Z</time>
      </trkpt>
      <trkpt lat="46.45018" lon="4.47463">
        <ele>475.572</ele>
        <time>2020-06-07T07:58:59Z</time>
      </trkpt>
      <trkpt lat="46.45013" lon="4.47469">
        <ele>476.572</ele>
        <time>2020-06-07T07:59:04Z</time>
      </trkpt>
      <trkpt lat="46.45006" lon="4.47473">
        <ele>477.572</ele>
        <time>2020-06-07T07:59:09Z</time>
      </trkpt>
      <trkpt lat="46.45" lon="4.47476">
        <ele>477.572</ele>
        <time>2020-06-07T07:59:14Z</time>
      </trkpt>
      <trkpt lat="46.44992" lon="4.47478">
        <ele>478.572</ele>
        <time>2020-06-07T07:59:20Z</time>
      </trkpt>
      <trkpt lat="46.44985" lon="4.47482">
        <ele>477.572</ele>
        <time>2020-06-07T07:59:25Z</time>
      </trkpt>
      <trkpt lat="46.44978" lon="4.47484">
        <ele>477.572</ele>
        <time>2020-06-07T07:59:30Z</time>
      </trkpt>
      <trkpt lat="46.44971" lon="4.47486">
        <ele>475.572</ele>
        <time>2020-06-07T07:59:35Z</time>
      </trkpt>
      <trkpt lat="46.44964" lon="4.47489">
        <ele>477.572</ele>
        <time>2020-06-07T07:59:40Z</time>
      </trkpt>
      <trkpt lat="46.44958" lon="4.47493">
        <ele>479.572</ele>
        <time>2020-06-07T07:59:46Z</time>
      </trkpt>
      <trkpt lat="46.44951" lon="4.47497">
        <ele>477.572</ele>
        <time>2020-06-07T07:59:52Z</time>
      </trkpt>
      <trkpt lat="46.44944" lon="4.47499">
        <ele>475.572</ele>
        <time>2020-06-07T08:00:01Z</time>
      </trkpt>
      <trkpt lat="46.44938" lon="4.47502">
        <ele>474.572</ele>
        <time>2020-06-07T08:00:06Z</time>
      </trkpt>
      <trkpt lat="46.4493" lon="4.47505">
        <ele>474.572</ele>
        <time>2020-06-07T08:00:13Z</time>
      </trkpt>
      <trkpt lat="46.44925" lon="4.47512">
        <ele>478.572</ele>
        <time>2020-06-07T08:00:19Z</time>
      </trkpt>
      <trkpt lat="46.44917" lon="4.47516">
        <ele>477.572</ele>
        <time>2020-06-07T08:00:24Z</time>
      </trkpt>
      <trkpt lat="46.4491" lon="4.47521">
        <ele>473.572</ele>
        <time>2020-06-07T08:00:29Z</time>
      </trkpt>
      <trkpt lat="46.44903" lon="4.47523">
        <ele>475.572</ele>
        <time>2020-06-07T08:00:34Z</time>
      </trkpt>
      <trkpt lat="46.44896" lon="4.47527">
        <ele>473.572</ele>
        <time>2020-06-07T08:00:39Z</time>
      </trkpt>
      <trkpt lat="46.44889" lon="4.47528">
        <ele>475.572</ele>
        <time>2020-06-07T08:00:45Z</time>
      </trkpt>
      <trkpt lat="46.44881" lon="4.47529">
        <ele>474.572</ele>
        <time>2020-06-07T08:00:50Z</time>
      </trkpt>
      <trkpt lat="46.44874" lon="4.47531">
        <ele>473.571</ele>
        <time>2020-06-07T08:00:55Z</time>
      </trkpt>
      <trkpt lat="46.44867" lon="4.47532">
        <ele>474.571</ele>
        <time>2020-06-07T08:01:00Z</time>
      </trkpt>
      <trkpt lat="46.4486" lon="4.47534">
        <ele>471.571</ele>
        <time>2020-06-07T08:01:05Z</time>
      </trkpt>
      <trkpt lat="46.44852" lon="4.47534">
        <ele>471.571</ele>
        <time>2020-06-07T08:01:10Z</time>
      </trkpt>
      <trkpt lat="46.44845" lon="4.47537">
        <ele>470.571</ele>
        <time>2020-06-07T08:01:16Z</time>
      </trkpt>
      <trkpt lat="46.44837" lon="4.47536">
        <ele>476.571</ele>
        <time>2020-06-07T08:01:22Z</time>
      </trkpt>
      <trkpt lat="46.44831" lon="4.47539">
        <ele>480.571</ele>
        <time>2020-06-07T08:01:28Z</time>
      </trkpt>
      <trkpt lat="46.44823" lon="4.4754">
        <ele>482.571</ele>
        <time>2020-06-07T08:01:33Z</time>
      </trkpt>
      <trkpt lat="46.44817" lon="4.47539">
        <ele>479.571</ele>
        <time>2020-06-07T08:01:38Z</time>
      </trkpt>
      <trkpt lat="46.44809" lon="4.47538">
        <ele>477.571</ele>
        <time>2020-06-07T08:01:43Z</time>
      </trkpt>
      <trkpt lat="46.44801" lon="4.47535">
        <ele>482.571</ele>
        <time>2020-06-07T08:01:48Z</time>
      </trkpt>
      <trkpt lat="46.44793" lon="4.47532">
        <ele>486.571</ele>
        <time>2020-06-07T08:01:53Z</time>
      </trkpt>
      <trkpt lat="46.44786" lon="4.47532">
        <ele>489.571</ele>
        <time>2020-06-07T08:02:00Z</time>
      </trkpt>
      <trkpt lat="46.44779" lon="4.47532">
        <ele>494.571</ele>
        <time>2020-06-07T08:02:06Z</time>
      </trkpt>
      <trkpt lat="46.44771" lon="4.47532">
        <ele>492.571</ele>
        <time>2020-06-07T08:02:11Z</time>
      </trkpt>
      <trkpt lat="46.44764" lon="4.47531">
        <ele>491.571</ele>
        <time>2020-06-07T08:02:16Z</time>
      </trkpt>
      <trkpt lat="46.44757" lon="4.4753">
        <ele>492.571</ele>
        <time>2020-06-07T08:02:23Z</time>
      </trkpt>
      <trkpt lat="46.44749" lon="4.47526">
        <ele>493.571</ele>
        <time>2020-06-07T08:02:29Z</time>
      </trkpt>
      <trkpt lat="46.44742" lon="4.47523">
        <ele>494.571</ele>
        <time>2020-06-07T08:02:36Z</time>
      </trkpt>
      <trkpt lat="46.44735" lon="4.47519">
        <ele>493.571</ele>
        <time>2020-06-07T08:02:41Z</time>
      </trkpt>
      <trkpt lat="46.44729" lon="4.47516">
        <ele>497.571</ele>
        <time>2020-06-07T08:02:48Z</time>
      </trkpt>
      <trkpt lat="46.44722" lon="4.47511">
        <ele>496.571</ele>
        <time>2020-06-07T08:02:53Z</time>
      </trkpt>
      <trkpt lat="46.44716" lon="4.47508">
        <ele>496.571</ele>
        <time>2020-06-07T08:02:58Z</time>
      </trkpt>
      <trkpt lat="46.4471" lon="4.47501">
        <ele>496.571</ele>
        <time>2020-06-07T08:03:03Z</time>
      </trkpt>
      <trkpt lat="46.44703" lon="4.47496">
        <ele>496.571</ele>
        <time>2020-06-07T08:03:10Z</time>
      </trkpt>
      <trkpt lat="46.44696" lon="4.47493">
        <ele>495.571</ele>
        <time>2020-06-07T08:03:15Z</time>
      </trkpt>
      <trkpt lat="46.44689" lon="4.47488">
        <ele>494.571</ele>
        <time>2020-06-07T08:03:20Z</time>
      </trkpt>
      <trkpt lat="46.44682" lon="4.47486">
        <ele>494.571</ele>
        <time>2020-06-07T08:03:26Z</time>
      </trkpt>
      <trkpt lat="46.44677" lon="4.4748">
        <ele>491.571</ele>
        <time>2020-06-07T08:03:31Z</time>
      </trkpt>
      <trkpt lat="46.4467" lon="4.47475">
        <ele>490.571</ele>
        <time>2020-06-07T08:03:37Z</time>
      </trkpt>
      <trkpt lat="46.44664" lon="4.47468">
        <ele>489.571</ele>
        <time>2020-06-07T08:03:42Z</time>
      </trkpt>
      <trkpt lat="46.44658" lon="4.47463">
        <ele>489.571</ele>
        <time>2020-06-07T08:03:47Z</time>
      </trkpt>
      <trkpt lat="46.44652" lon="4.47458">
        <ele>488.571</ele>
        <time>2020-06-07T08:03:52Z</time>
      </trkpt>
      <trkpt lat="46.44645" lon="4.47455">
        <ele>488.571</ele>
        <time>2020-06-07T08:03:58Z</time>
      </trkpt>
      <trkpt lat="46.44638" lon="4.4745">
        <ele>487.571</ele>
        <time>2020-06-07T08:04:03Z</time>
      </trkpt>
      <trkpt lat="46.44631" lon="4.47445">
        <ele>487.571</ele>
        <time>2020-06-07T08:04:09Z</time>
      </trkpt>
      <trkpt lat="46.44625" lon="4.47441">
        <ele>490.571</ele>
        <time>2020-06-07T08:04:16Z</time>
      </trkpt>
      <trkpt lat="46.44618" lon="4.47438">
        <ele>490.571</ele>
        <time>2020-06-07T08:04:21Z</time>
      </trkpt>
      <trkpt lat="46.44611" lon="4.47436">
        <ele>486.571</ele>
        <time>2020-06-07T08:04:26Z</time>
      </trkpt>
      <trkpt lat="46.44602" lon="4.47437">
        <ele>486.571</ele>
        <time>2020-06-07T08:04:31Z</time>
      </trkpt>
      <trkpt lat="46.44595" lon="4.47431">
        <ele>487.571</ele>
        <time>2020-06-07T08:04:36Z</time>
      </trkpt>
      <trkpt lat="46.44587" lon="4.47427">
        <ele>490.571</ele>
        <time>2020-06-07T08:04:41Z</time>
      </trkpt>
      <trkpt lat="46.44579" lon="4.47426">
        <ele>492.571</ele>
        <time>2020-06-07T08:04:46Z</time>
      </trkpt>
      <trkpt lat="46.44572" lon="4.47425">
        <ele>492.571</ele>
        <time>2020-06-07T08:04:51Z</time>
      </trkpt>
      <trkpt lat="46.44565" lon="4.47424">
        <ele>494.571</ele>
        <time>2020-06-07T08:04:57Z</time>
      </trkpt>
      <trkpt lat="46.44557" lon="4.47422">
        <ele>493.571</ele>
        <time>2020-06-07T08:05:02Z</time>
      </trkpt>
      <trkpt lat="46.44549" lon="4.47418">
        <ele>495.571</ele>
        <time>2020-06-07T08:05:07Z</time>
      </trkpt>
      <trkpt lat="46.44541" lon="4.47419">
        <ele>495.57</ele>
        <time>2020-06-07T08:05:12Z</time>
      </trkpt>
      <trkpt lat="46.44534" lon="4.4742">
        <ele>497.57</ele>
        <time>2020-06-07T08:05:18Z</time>
      </trkpt>
      <trkpt lat="46.44528" lon="4.47417">
        <ele>495.57</ele>
        <time>2020-06-07T08:05:24Z</time>
      </trkpt>
      <trkpt lat="46.44521" lon="4.47413">
        <ele>489.57</ele>
        <time>2020-06-07T08:06:22Z</time>
      </trkpt>
      <trkpt lat="46.44515" lon="4.47415">
        <ele>492.57</ele>
        <time>2020-06-07T08:06:28Z</time>
      </trkpt>
      <trkpt lat="46.44505" lon="4.47416">
        <ele>491.57</ele>
        <time>2020-06-07T08:06:33Z</time>
      </trkpt>
      <trkpt lat="46.44499" lon="4.47416">
        <ele>491.57</ele>
        <time>2020-06-07T08:06:38Z</time>
      </trkpt>
      <trkpt lat="46.44491" lon="4.47418">
        <ele>491.57</ele>
        <time>2020-06-07T08:06:44Z</time>
      </trkpt>
      <trkpt lat="46.44481" lon="4.47421">
        <ele>491.57</ele>
        <time>2020-06-07T08:06:49Z</time>
      </trkpt>
      <trkpt lat="46.44473" lon="4.47422">
        <ele>490.57</ele>
        <time>2020-06-07T08:06:54Z</time>
      </trkpt>
      <trkpt lat="46.44466" lon="4.47425">
        <ele>493.57</ele>
        <time>2020-06-07T08:07:02Z</time>
      </trkpt>
      <trkpt lat="46.44457" lon="4.47429">
        <ele>493.57</ele>
        <time>2020-06-07T08:07:07Z</time>
      </trkpt>
      <trkpt lat="46.4445" lon="4.47426">
        <ele>493.57</ele>
        <time>2020-06-07T08:07:12Z</time>
      </trkpt>
      <trkpt lat="46.44443" lon="4.47429">
        <ele>494.57</ele>
        <time>2020-06-07T08:07:17Z</time>
      </trkpt>
      <trkpt lat="46.44437" lon="4.47429">
        <ele>494.57</ele>
        <time>2020-06-07T08:07:22Z</time>
      </trkpt>
      <trkpt lat="46.44427" lon="4.47429">
        <ele>491.57</ele>
        <time>2020-06-07T08:07:27Z</time>
      </trkpt>
      <trkpt lat="46.4442" lon="4.47431">
        <ele>493.57</ele>
        <time>2020-06-07T08:07:32Z</time>
      </trkpt>
      <trkpt lat="46.44413" lon="4.47433">
        <ele>493.57</ele>
        <time>2020-06-07T08:07:37Z</time>
      </trkpt>
      <trkpt lat="46.44406" lon="4.47434">
        <ele>492.57</ele>
        <time>2020-06-07T08:07:43Z</time>
      </trkpt>
      <trkpt lat="46.44398" lon="4.47435">
        <ele>489.57</ele>
        <time>2020-06-07T08:07:48Z</time>
      </trkpt>
      <trkpt lat="46.44391" lon="4.47439">
        <ele>488.57</ele>
        <time>2020-06-07T08:07:53Z</time>
      </trkpt>
      <trkpt lat="46.44385" lon="4.47441">
        <ele>488.57</ele>
        <time>2020-06-07T08:07:58Z</time>
      </trkpt>
      <trkpt lat="46.44376" lon="4.47441">
        <ele>491.57</ele>
        <time>2020-06-07T08:08:03Z</time>
      </trkpt>
      <trkpt lat="46.44368" lon="4.47443">
        <ele>494.57</ele>
        <time>2020-06-07T08:08:08Z</time>
      </trkpt>
      <trkpt lat="46.44361" lon="4.47446">
        <ele>495.57</ele>
        <time>2020-06-07T08:08:14Z</time>
      </trkpt>
      <trkpt lat="46.44353" lon="4.47447">
        <ele>495.57</ele>
        <time>2020-06-07T08:08:19Z</time>
      </trkpt>
      <trkpt lat="46.44344" lon="4.47447">
        <ele>497.57</ele>
        <time>2020-06-07T08:08:25Z</time>
      </trkpt>
      <trkpt lat="46.44336" lon="4.47448">
        <ele>497.57</ele>
        <time>2020-06-07T08:08:30Z</time>
      </trkpt>
      <trkpt lat="46.4433" lon="4.47449">
        <ele>497.57</ele>
        <time>2020-06-07T08:08:35Z</time>
      </trkpt>
      <trkpt lat="46.44321" lon="4.47448">
        <ele>499.57</ele>
        <time>2020-06-07T08:08:40Z</time>
      </trkpt>
      <trkpt lat="46.44313" lon="4.47448">
        <ele>499.57</ele>
        <time>2020-06-07T08:08:45Z</time>
      </trkpt>
      <trkpt lat="46.44306" lon="4.47448">
        <ele>499.57</ele>
        <time>2020-06-07T08:08:51Z</time>
      </trkpt>
      <trkpt lat="46.44297" lon="4.47447">
        <ele>501.57</ele>
        <time>2020-06-07T08:08:56Z</time>
      </trkpt>
      <trkpt lat="46.44289" lon="4.47447">
        <ele>500.57</ele>
        <time>2020-06-07T08:09:01Z</time>
      </trkpt>
      <trkpt lat="46.44282" lon="4.47448">
        <ele>500.57</ele>
        <time>2020-06-07T08:09:06Z</time>
      </trkpt>
      <trkpt lat="46.44272" lon="4.47446">
        <ele>499.57</ele>
        <time>2020-06-07T08:09:11Z</time>
      </trkpt>
      <trkpt lat="46.44265" lon="4.47448">
        <ele>498.57</ele>
        <time>2020-06-07T08:09:16Z</time>
      </trkpt>
      <trkpt lat="46.44258" lon="4.47451">
        <ele>497.57</ele>
        <time>2020-06-07T08:09:22Z</time>
      </trkpt>
      <trkpt lat="46.4425" lon="4.47453">
        <ele>497.57</ele>
        <time>2020-06-07T08:09:27Z</time>
      </trkpt>
      <trkpt lat="46.44243" lon="4.47453">
        <ele>498.57</ele>
        <time>2020-06-07T08:09:32Z</time>
      </trkpt>
      <trkpt lat="46.44235" lon="4.47454">
        <ele>498.57</ele>
        <time>2020-06-07T08:09:37Z</time>
      </trkpt>
      <trkpt lat="46.44227" lon="4.47458">
        <ele>497.57</ele>
        <time>2020-06-07T08:09:42Z</time>
      </trkpt>
      <trkpt lat="46.44221" lon="4.4746">
        <ele>497.57</ele>
        <time>2020-06-07T08:09:47Z</time>
      </trkpt>
      <trkpt lat="46.44214" lon="4.47465">
        <ele>496.57</ele>
        <time>2020-06-07T08:09:52Z</time>
      </trkpt>
      <trkpt lat="46.44207" lon="4.47468">
        <ele>495.57</ele>
        <time>2020-06-07T08:09:58Z</time>
      </trkpt>
      <trkpt lat="46.442" lon="4.47469">
        <ele>500.57</ele>
        <time>2020-06-07T08:10:03Z</time>
      </trkpt>
      <trkpt lat="46.44191" lon="4.4747">
        <ele>499.57</ele>
        <time>2020-06-07T08:10:08Z</time>
      </trkpt>
      <trkpt lat="46.44184" lon="4.47472">
        <ele>501.57</ele>
        <time>2020-06-07T08:10:14Z</time>
      </trkpt>
      <trkpt lat="46.44176" lon="4.47475">
        <ele>501.57</ele>
        <time>2020-06-07T08:10:19Z</time>
      </trkpt>
      <trkpt lat="46.44169" lon="4.47477">
        <ele>501.569</ele>
        <time>2020-06-07T08:10:24Z</time>
      </trkpt>
      <trkpt lat="46.44162" lon="4.47478">
        <ele>501.569</ele>
        <time>2020-06-07T08:10:29Z</time>
      </trkpt>
      <trkpt lat="46.44153" lon="4.47478">
        <ele>501.569</ele>
        <time>2020-06-07T08:10:34Z</time>
      </trkpt>
      <trkpt lat="46.44145" lon="4.47479">
        <ele>502.569</ele>
        <time>2020-06-07T08:10:40Z</time>
      </trkpt>
      <trkpt lat="46.44138" lon="4.4748">
        <ele>502.569</ele>
        <time>2020-06-07T08:10:46Z</time>
      </trkpt>
      <trkpt lat="46.44131" lon="4.47479">
        <ele>502.569</ele>
        <time>2020-06-07T08:10:52Z</time>
      </trkpt>
      <trkpt lat="46.44124" lon="4.47479">
        <ele>500.569</ele>
        <time>2020-06-07T08:10:58Z</time>
      </trkpt>
      <trkpt lat="46.44115" lon="4.47479">
        <ele>501.569</ele>
        <time>2020-06-07T08:11:03Z</time>
      </trkpt>
      <trkpt lat="46.44109" lon="4.47475">
        <ele>498.569</ele>
        <time>2020-06-07T08:11:09Z</time>
      </trkpt>
      <trkpt lat="46.44101" lon="4.47474">
        <ele>499.569</ele>
        <time>2020-06-07T08:11:14Z</time>
      </trkpt>
      <trkpt lat="46.44093" lon="4.47475">
        <ele>502.569</ele>
        <time>2020-06-07T08:11:22Z</time>
      </trkpt>
      <trkpt lat="46.44084" lon="4.47469">
        <ele>502.569</ele>
        <time>2020-06-07T08:11:27Z</time>
      </trkpt>
      <trkpt lat="46.44074" lon="4.4747">
        <ele>498.569</ele>
        <time>2020-06-07T08:11:37Z</time>
      </trkpt>
      <trkpt lat="46.44064" lon="4.4747">
        <ele>497.569</ele>
        <time>2020-06-07T08:11:42Z</time>
      </trkpt>
      <trkpt lat="46.44057" lon="4.47472">
        <ele>499.569</ele>
        <time>2020-06-07T08:11:51Z</time>
      </trkpt>
      <trkpt lat="46.44049" lon="4.47481">
        <ele>502.569</ele>
        <time>2020-06-07T08:11:59Z</time>
      </trkpt>
      <trkpt lat="46.44039" lon="4.47476">
        <ele>502.569</ele>
        <time>2020-06-07T08:12:04Z</time>
      </trkpt>
      <trkpt lat="46.44022" lon="4.47472">
        <ele>505.569</ele>
        <time>2020-06-07T08:12:09Z</time>
      </trkpt>
      <trkpt lat="46.44016" lon="4.47469">
        <ele>508.569</ele>
        <time>2020-06-07T08:12:14Z</time>
      </trkpt>
      <trkpt lat="46.44009" lon="4.47465">
        <ele>504.569</ele>
        <time>2020-06-07T08:12:19Z</time>
      </trkpt>
      <trkpt lat="46.44002" lon="4.47464">
        <ele>505.569</ele>
        <time>2020-06-07T08:12:25Z</time>
      </trkpt>
      <trkpt lat="46.43995" lon="4.47464">
        <ele>507.569</ele>
        <time>2020-06-07T08:12:33Z</time>
      </trkpt>
      <trkpt lat="46.43988" lon="4.47463">
        <ele>511.569</ele>
        <time>2020-06-07T08:12:40Z</time>
      </trkpt>
      <trkpt lat="46.43981" lon="4.47461">
        <ele>511.569</ele>
        <time>2020-06-07T08:12:46Z</time>
      </trkpt>
      <trkpt lat="46.43975" lon="4.47456">
        <ele>515.569</ele>
        <time>2020-06-07T08:12:52Z</time>
      </trkpt>
      <trkpt lat="46.43966" lon="4.47451">
        <ele>515.569</ele>
        <time>2020-06-07T08:12:59Z</time>
      </trkpt>
      <trkpt lat="46.4396" lon="4.47448">
        <ele>513.569</ele>
        <time>2020-06-07T08:13:12Z</time>
      </trkpt>
      <trkpt lat="46.43951" lon="4.47443">
        <ele>512.569</ele>
        <time>2020-06-07T08:13:17Z</time>
      </trkpt>
      <trkpt lat="46.43944" lon="4.47438">
        <ele>515.569</ele>
        <time>2020-06-07T08:13:22Z</time>
      </trkpt>
      <trkpt lat="46.43937" lon="4.47441">
        <ele>519.569</ele>
        <time>2020-06-07T08:13:29Z</time>
      </trkpt>
      <trkpt lat="46.4393" lon="4.47441">
        <ele>521.569</ele>
        <time>2020-06-07T08:13:34Z</time>
      </trkpt>
      <trkpt lat="46.43922" lon="4.47442">
        <ele>521.569</ele>
        <time>2020-06-07T08:13:40Z</time>
      </trkpt>
      <trkpt lat="46.43915" lon="4.47442">
        <ele>523.569</ele>
        <time>2020-06-07T08:13:46Z</time>
      </trkpt>
      <trkpt lat="46.43908" lon="4.4744">
        <ele>525.569</ele>
        <time>2020-06-07T08:13:53Z</time>
      </trkpt>
      <trkpt lat="46.43901" lon="4.47439">
        <ele>524.569</ele>
        <time>2020-06-07T08:13:59Z</time>
      </trkpt>
      <trkpt lat="46.43894" lon="4.47437">
        <ele>525.569</ele>
        <time>2020-06-07T08:14:07Z</time>
      </trkpt>
      <trkpt lat="46.43887" lon="4.47434">
        <ele>526.569</ele>
        <time>2020-06-07T08:14:13Z</time>
      </trkpt>
      <trkpt lat="46.43879" lon="4.47432">
        <ele>530.569</ele>
        <time>2020-06-07T08:14:20Z</time>
      </trkpt>
      <trkpt lat="46.43873" lon="4.47432">
        <ele>526.569</ele>
        <time>2020-06-07T08:14:26Z</time>
      </trkpt>
      <trkpt lat="46.43866" lon="4.47429">
        <ele>525.569</ele>
        <time>2020-06-07T08:14:32Z</time>
      </trkpt>
      <trkpt lat="46.4386" lon="4.47425">
        <ele>527.569</ele>
        <time>2020-06-07T08:14:37Z</time>
      </trkpt>
      <trkpt lat="46.43853" lon="4.47422">
        <ele>527.569</ele>
        <time>2020-06-07T08:14:42Z</time>
      </trkpt>
      <trkpt lat="46.43847" lon="4.47418">
        <ele>528.569</ele>
        <time>2020-06-07T08:14:48Z</time>
      </trkpt>
      <trkpt lat="46.4384" lon="4.47415">
        <ele>531.569</ele>
        <time>2020-06-07T08:14:54Z</time>
      </trkpt>
      <trkpt lat="46.43832" lon="4.4741">
        <ele>529.569</ele>
        <time>2020-06-07T08:14:59Z</time>
      </trkpt>
      <trkpt lat="46.43825" lon="4.4741">
        <ele>526.568</ele>
        <time>2020-06-07T08:15:05Z</time>
      </trkpt>
      <trkpt lat="46.43818" lon="4.47409">
        <ele>531.568</ele>
        <time>2020-06-07T08:15:14Z</time>
      </trkpt>
      <trkpt lat="46.43811" lon="4.47406">
        <ele>527.568</ele>
        <time>2020-06-07T08:15:21Z</time>
      </trkpt>
      <trkpt lat="46.43804" lon="4.47401">
        <ele>527.568</ele>
        <time>2020-06-07T08:15:29Z</time>
      </trkpt>
      <trkpt lat="46.438" lon="4.47394">
        <ele>532.568</ele>
        <time>2020-06-07T08:15:37Z</time>
      </trkpt>
      <trkpt lat="46.43795" lon="4.47387">
        <ele>535.568</ele>
        <time>2020-06-07T08:15:44Z</time>
      </trkpt>
      <trkpt lat="46.43788" lon="4.47382">
        <ele>539.568</ele>
        <time>2020-06-07T08:15:52Z</time>
      </trkpt>
      <trkpt lat="46.43781" lon="4.47379">
        <ele>540.568</ele>
        <time>2020-06-07T08:15:58Z</time>
      </trkpt>
      <trkpt lat="46.43774" lon="4.47378">
        <ele>540.568</ele>
        <time>2020-06-07T08:16:04Z</time>
      </trkpt>
      <trkpt lat="46.43767" lon="4.47378">
        <ele>540.568</ele>
        <time>2020-06-07T08:16:11Z</time>
      </trkpt>
      <trkpt lat="46.43761" lon="4.47375">
        <ele>540.568</ele>
        <time>2020-06-07T08:16:16Z</time>
      </trkpt>
      <trkpt lat="46.43751" lon="4.4737">
        <ele>540.568</ele>
        <time>2020-06-07T08:16:21Z</time>
      </trkpt>
      <trkpt lat="46.43743" lon="4.47367">
        <ele>541.568</ele>
        <time>2020-06-07T08:16:26Z</time>
      </trkpt>
      <trkpt lat="46.43736" lon="4.47366">
        <ele>541.568</ele>
        <time>2020-06-07T08:16:32Z</time>
      </trkpt>
      <trkpt lat="46.43728" lon="4.47366">
        <ele>543.568</ele>
        <time>2020-06-07T08:16:39Z</time>
      </trkpt>
      <trkpt lat="46.43721" lon="4.47364">
        <ele>544.568</ele>
        <time>2020-06-07T08:16:47Z</time>
      </trkpt>
      <trkpt lat="46.43714" lon="4.47362">
        <ele>543.568</ele>
        <time>2020-06-07T08:16:53Z</time>
      </trkpt>
      <trkpt lat="46.43707" lon="4.47358">
        <ele>544.568</ele>
        <time>2020-06-07T08:16:58Z</time>
      </trkpt>
      <trkpt lat="46.437" lon="4.47358">
        <ele>543.568</ele>
        <time>2020-06-07T08:17:03Z</time>
      </trkpt>
      <trkpt lat="46.43694" lon="4.47358">
        <ele>544.568</ele>
        <time>2020-06-07T08:17:09Z</time>
      </trkpt>
      <trkpt lat="46.43687" lon="4.47359">
        <ele>544.568</ele>
        <time>2020-06-07T08:17:14Z</time>
      </trkpt>
      <trkpt lat="46.43681" lon="4.47362">
        <ele>546.568</ele>
        <time>2020-06-07T08:17:20Z</time>
      </trkpt>
      <trkpt lat="46.43673" lon="4.47363">
        <ele>546.568</ele>
        <time>2020-06-07T08:17:27Z</time>
      </trkpt>
      <trkpt lat="46.43666" lon="4.47364">
        <ele>549.568</ele>
        <time>2020-06-07T08:17:34Z</time>
      </trkpt>
      <trkpt lat="46.4366" lon="4.47367">
        <ele>549.568</ele>
        <time>2020-06-07T08:17:41Z</time>
      </trkpt>
      <trkpt lat="46.43653" lon="4.47366">
        <ele>548.568</ele>
        <time>2020-06-07T08:17:46Z</time>
      </trkpt>
      <trkpt lat="46.43646" lon="4.47366">
        <ele>549.568</ele>
        <time>2020-06-07T08:17:52Z</time>
      </trkpt>
      <trkpt lat="46.43639" lon="4.47368">
        <ele>548.568</ele>
        <time>2020-06-07T08:17:58Z</time>
      </trkpt>
      <trkpt lat="46.43632" lon="4.47371">
        <ele>548.568</ele>
        <time>2020-06-07T08:18:05Z</time>
      </trkpt>
      <trkpt lat="46.43626" lon="4.47374">
        <ele>548.568</ele>
        <time>2020-06-07T08:18:12Z</time>
      </trkpt>
      <trkpt lat="46.43619" lon="4.47376">
        <ele>549.568</ele>
        <time>2020-06-07T08:18:19Z</time>
      </trkpt>
      <trkpt lat="46.43612" lon="4.47378">
        <ele>551.568</ele>
        <time>2020-06-07T08:18:26Z</time>
      </trkpt>
      <trkpt lat="46.43606" lon="4.47378">
        <ele>552.568</ele>
        <time>2020-06-07T08:18:33Z</time>
      </trkpt>
      <trkpt lat="46.43599" lon="4.47377">
        <ele>556.568</ele>
        <time>2020-06-07T08:18:40Z</time>
      </trkpt>
      <trkpt lat="46.43592" lon="4.47377">
        <ele>560.568</ele>
        <time>2020-06-07T08:18:49Z</time>
      </trkpt>
      <trkpt lat="46.43585" lon="4.47379">
        <ele>563.568</ele>
        <time>2020-06-07T08:18:57Z</time>
      </trkpt>
      <trkpt lat="46.43578" lon="4.47381">
        <ele>564.568</ele>
        <time>2020-06-07T08:19:05Z</time>
      </trkpt>
      <trkpt lat="46.4357" lon="4.47382">
        <ele>567.568</ele>
        <time>2020-06-07T08:19:14Z</time>
      </trkpt>
      <trkpt lat="46.43563" lon="4.47379">
        <ele>567.568</ele>
        <time>2020-06-07T08:19:19Z</time>
      </trkpt>
      <trkpt lat="46.43556" lon="4.47379">
        <ele>569.568</ele>
        <time>2020-06-07T08:19:27Z</time>
      </trkpt>
      <trkpt lat="46.4355" lon="4.47376">
        <ele>571.568</ele>
        <time>2020-06-07T08:19:32Z</time>
      </trkpt>
      <trkpt lat="46.43543" lon="4.4738">
        <ele>569.568</ele>
        <time>2020-06-07T08:19:41Z</time>
      </trkpt>
      <trkpt lat="46.43535" lon="4.47382">
        <ele>570.568</ele>
        <time>2020-06-07T08:19:50Z</time>
      </trkpt>
      <trkpt lat="46.43529" lon="4.47386">
        <ele>571.568</ele>
        <time>2020-06-07T08:19:59Z</time>
      </trkpt>
      <trkpt lat="46.43524" lon="4.47392">
        <ele>573.568</ele>
        <time>2020-06-07T08:20:05Z</time>
      </trkpt>
      <trkpt lat="46.43518" lon="4.47397">
        <ele>572.568</ele>
        <time>2020-06-07T08:20:13Z</time>
      </trkpt>
      <trkpt lat="46.43513" lon="4.47404">
        <ele>569.568</ele>
        <time>2020-06-07T08:20:23Z</time>
      </trkpt>
      <trkpt lat="46.43507" lon="4.4741">
        <ele>567.568</ele>
        <time>2020-06-07T08:20:31Z</time>
      </trkpt>
      <trkpt lat="46.43502" lon="4.47417">
        <ele>572.568</ele>
        <time>2020-06-07T08:20:36Z</time>
      </trkpt>
      <trkpt lat="46.43497" lon="4.47425">
        <ele>574.568</ele>
        <time>2020-06-07T08:20:42Z</time>
      </trkpt>
      <trkpt lat="46.43492" lon="4.4743">
        <ele>574.568</ele>
        <time>2020-06-07T08:20:48Z</time>
      </trkpt>
      <trkpt lat="46.43486" lon="4.47438">
        <ele>576.568</ele>
        <time>2020-06-07T08:20:54Z</time>
      </trkpt>
      <trkpt lat="46.4348" lon="4.47445">
        <ele>577.568</ele>
        <time>2020-06-07T08:21:01Z</time>
      </trkpt>
      <trkpt lat="46.43474" lon="4.4745">
        <ele>577.568</ele>
        <time>2020-06-07T08:21:07Z</time>
      </trkpt>
      <trkpt lat="46.43469" lon="4.47456">
        <ele>577.568</ele>
        <time>2020-06-07T08:21:15Z</time>
      </trkpt>
      <trkpt lat="46.43463" lon="4.47462">
        <ele>580.568</ele>
        <time>2020-06-07T08:21:23Z</time>
      </trkpt>
      <trkpt lat="46.43456" lon="4.4746">
        <ele>583.568</ele>
        <time>2020-06-07T08:21:37Z</time>
      </trkpt>
      <trkpt lat="46.43451" lon="4.47453">
        <ele>584.567</ele>
        <time>2020-06-07T08:21:44Z</time>
      </trkpt>
      <trkpt lat="46.43446" lon="4.47447">
        <ele>586.567</ele>
        <time>2020-06-07T08:21:49Z</time>
      </trkpt>
      <trkpt lat="46.43441" lon="4.47439">
        <ele>587.567</ele>
        <time>2020-06-07T08:21:55Z</time>
      </trkpt>
      <trkpt lat="46.43435" lon="4.47432">
        <ele>588.567</ele>
        <time>2020-06-07T08:22:01Z</time>
      </trkpt>
      <trkpt lat="46.43429" lon="4.47428">
        <ele>588.567</ele>
        <time>2020-06-07T08:22:07Z</time>
      </trkpt>
      <trkpt lat="46.43426" lon="4.47437">
        <ele>589.567</ele>
        <time>2020-06-07T08:22:14Z</time>
      </trkpt>
      <trkpt lat="46.43425" lon="4.47448">
        <ele>589.567</ele>
        <time>2020-06-07T08:22:21Z</time>
      </trkpt>
      <trkpt lat="46.43424" lon="4.47458">
        <ele>588.567</ele>
        <time>2020-06-07T08:22:26Z</time>
      </trkpt>
      <trkpt lat="46.43421" lon="4.47469">
        <ele>592.567</ele>
        <time>2020-06-07T08:22:31Z</time>
      </trkpt>
      <trkpt lat="46.43417" lon="4.47477">
        <ele>592.567</ele>
        <time>2020-06-07T08:22:36Z</time>
      </trkpt>
      <trkpt lat="46.43416" lon="4.47488">
        <ele>594.567</ele>
        <time>2020-06-07T08:22:43Z</time>
      </trkpt>
      <trkpt lat="46.43417" lon="4.47499">
        <ele>594.567</ele>
        <time>2020-06-07T08:22:49Z</time>
      </trkpt>
      <trkpt lat="46.43416" lon="4.47509">
        <ele>594.567</ele>
        <time>2020-06-07T08:22:54Z</time>
      </trkpt>
      <trkpt lat="46.43416" lon="4.47519">
        <ele>595.567</ele>
        <time>2020-06-07T08:22:59Z</time>
      </trkpt>
      <trkpt lat="46.43414" lon="4.47529">
        <ele>596.567</ele>
        <time>2020-06-07T08:23:05Z</time>
      </trkpt>
      <trkpt lat="46.43413" lon="4.47539">
        <ele>597.567</ele>
        <time>2020-06-07T08:23:11Z</time>
      </trkpt>
      <trkpt lat="46.43411" lon="4.47549">
        <ele>596.567</ele>
        <time>2020-06-07T08:23:19Z</time>
      </trkpt>
      <trkpt lat="46.43409" lon="4.47558">
        <ele>595.567</ele>
        <time>2020-06-07T08:23:36Z</time>
      </trkpt>
      <trkpt lat="46.43405" lon="4.47567">
        <ele>595.567</ele>
        <time>2020-06-07T08:23:42Z</time>
      </trkpt>
      <trkpt lat="46.434" lon="4.47574">
        <ele>595.567</ele>
        <time>2020-06-07T08:23:54Z</time>
      </trkpt>
      <trkpt lat="46.43394" lon="4.47577">
        <ele>596.567</ele>
        <time>2020-06-07T08:24:02Z</time>
      </trkpt>
      <trkpt lat="46.43393" lon="4.47586">
        <ele>597.567</ele>
        <time>2020-06-07T08:24:15Z</time>
      </trkpt>
      <trkpt lat="46.43386" lon="4.47585">
        <ele>597.567</ele>
        <time>2020-06-07T08:24:20Z</time>
      </trkpt>
      <trkpt lat="46.4338" lon="4.4759">
        <ele>592.567</ele>
        <time>2020-06-07T08:25:18Z</time>
      </trkpt>
      <trkpt lat="46.43373" lon="4.47593">
        <ele>588.567</ele>
        <time>2020-06-07T08:25:25Z</time>
      </trkpt>
      <trkpt lat="46.43368" lon="4.47585">
        <ele>595.567</ele>
        <time>2020-06-07T08:26:55Z</time>
      </trkpt>
      <trkpt lat="46.43362" lon="4.4758">
        <ele>596.567</ele>
        <time>2020-06-07T08:27:02Z</time>
      </trkpt>
      <trkpt lat="46.43356" lon="4.47574">
        <ele>597.567</ele>
        <time>2020-06-07T08:27:09Z</time>
      </trkpt>
      <trkpt lat="46.43349" lon="4.47571">
        <ele>594.567</ele>
        <time>2020-06-07T08:27:16Z</time>
      </trkpt>
      <trkpt lat="46.43345" lon="4.47563">
        <ele>597.567</ele>
        <time>2020-06-07T08:27:21Z</time>
      </trkpt>
      <trkpt lat="46.43339" lon="4.47558">
        <ele>598.567</ele>
        <time>2020-06-07T08:27:28Z</time>
      </trkpt>
      <trkpt lat="46.43333" lon="4.47553">
        <ele>597.567</ele>
        <time>2020-06-07T08:27:35Z</time>
      </trkpt>
      <trkpt lat="46.43326" lon="4.47549">
        <ele>600.567</ele>
        <time>2020-06-07T08:27:45Z</time>
      </trkpt>
      <trkpt lat="46.43321" lon="4.47556">
        <ele>598.567</ele>
        <time>2020-06-07T08:27:52Z</time>
      </trkpt>
      <trkpt lat="46.43322" lon="4.47545">
        <ele>602.567</ele>
        <time>2020-06-07T08:35:39Z</time>
      </trkpt>
      <trkpt lat="46.43329" lon="4.47541">
        <ele>603.567</ele>
        <time>2020-06-07T08:53:31Z</time>
      </trkpt>
      <trkpt lat="46.43334" lon="4.47548">
        <ele>600.567</ele>
        <time>2020-06-07T08:54:45Z</time>
      </trkpt>
      <trkpt lat="46.4334" lon="4.47555">
        <ele>602.567</ele>
        <time>2020-06-07T08:54:51Z</time>
      </trkpt>
      <trkpt lat="46.43346" lon="4.47561">
        <ele>603.567</ele>
        <time>2020-06-07T08:54:59Z</time>
      </trkpt>
      <trkpt lat="46.43353" lon="4.47565">
        <ele>603.567</ele>
        <time>2020-06-07T08:55:05Z</time>
      </trkpt>
      <trkpt lat="46.4336" lon="4.47568">
        <ele>604.567</ele>
        <time>2020-06-07T08:55:11Z</time>
      </trkpt>
      <trkpt lat="46.43358" lon="4.47578">
        <ele>600.567</ele>
        <time>2020-06-07T08:55:27Z</time>
      </trkpt>
      <trkpt lat="46.43356" lon="4.47587">
        <ele>595.567</ele>
        <time>2020-06-07T08:56:42Z</time>
      </trkpt>
      <trkpt lat="46.43349" lon="4.47586">
        <ele>591.567</ele>
        <time>2020-06-07T08:56:51Z</time>
      </trkpt>
      <trkpt lat="46.43342" lon="4.47589">
        <ele>595.567</ele>
        <time>2020-06-07T08:56:58Z</time>
      </trkpt>
      <trkpt lat="46.43342" lon="4.476">
        <ele>592.567</ele>
        <time>2020-06-07T08:57:20Z</time>
      </trkpt>
      <trkpt lat="46.4334" lon="4.47609">
        <ele>593.567</ele>
        <time>2020-06-07T08:57:29Z</time>
      </trkpt>
      <trkpt lat="46.43341" lon="4.47618">
        <ele>591.567</ele>
        <time>2020-06-07T08:57:35Z</time>
      </trkpt>
      <trkpt lat="46.43336" lon="4.47624">
        <ele>587.567</ele>
        <time>2020-06-07T08:57:46Z</time>
      </trkpt>
      <trkpt lat="46.43332" lon="4.47632">
        <ele>586.567</ele>
        <time>2020-06-07T08:58:03Z</time>
      </trkpt>
      <trkpt lat="46.43328" lon="4.47642">
        <ele>585.567</ele>
        <time>2020-06-07T08:58:13Z</time>
      </trkpt>
      <trkpt lat="46.43328" lon="4.47653">
        <ele>587.567</ele>
        <time>2020-06-07T08:58:18Z</time>
      </trkpt>
      <trkpt lat="46.43331" lon="4.47661">
        <ele>588.567</ele>
        <time>2020-06-07T08:58:25Z</time>
      </trkpt>
      <trkpt lat="46.43336" lon="4.47667">
        <ele>582.567</ele>
        <time>2020-06-07T08:58:34Z</time>
      </trkpt>
      <trkpt lat="46.43338" lon="4.47677">
        <ele>581.567</ele>
        <time>2020-06-07T08:58:49Z</time>
      </trkpt>
      <trkpt lat="46.43334" lon="4.47687">
        <ele>575.567</ele>
        <time>2020-06-07T08:58:59Z</time>
      </trkpt>
      <trkpt lat="46.43329" lon="4.47697">
        <ele>575.567</ele>
        <time>2020-06-07T08:59:07Z</time>
      </trkpt>
      <trkpt lat="46.43328" lon="4.47706">
        <ele>569.567</ele>
        <time>2020-06-07T08:59:16Z</time>
      </trkpt>
      <trkpt lat="46.43323" lon="4.47714">
        <ele>562.567</ele>
        <time>2020-06-07T08:59:27Z</time>
      </trkpt>
      <trkpt lat="46.43322" lon="4.47725">
        <ele>561.567</ele>
        <time>2020-06-07T08:59:34Z</time>
      </trkpt>
      <trkpt lat="46.43315" lon="4.47725">
        <ele>559.567</ele>
        <time>2020-06-07T08:59:43Z</time>
      </trkpt>
      <trkpt lat="46.43304" lon="4.47718">
        <ele>560.567</ele>
        <time>2020-06-07T08:59:52Z</time>
      </trkpt>
      <trkpt lat="46.43297" lon="4.47717">
        <ele>563.567</ele>
        <time>2020-06-07T08:59:58Z</time>
      </trkpt>
      <trkpt lat="46.4329" lon="4.47714">
        <ele>561.567</ele>
        <time>2020-06-07T09:00:03Z</time>
      </trkpt>
      <trkpt lat="46.43283" lon="4.47712">
        <ele>564.567</ele>
        <time>2020-06-07T09:00:46Z</time>
      </trkpt>
      <trkpt lat="46.43277" lon="4.47718">
        <ele>566.567</ele>
        <time>2020-06-07T09:00:52Z</time>
      </trkpt>
      <trkpt lat="46.43275" lon="4.47728">
        <ele>566.567</ele>
        <time>2020-06-07T09:01:03Z</time>
      </trkpt>
      <trkpt lat="46.43271" lon="4.47734">
        <ele>562.567</ele>
        <time>2020-06-07T09:01:30Z</time>
      </trkpt>
      <trkpt lat="46.43267" lon="4.47743">
        <ele>557.567</ele>
        <time>2020-06-07T09:01:37Z</time>
      </trkpt>
      <trkpt lat="46.43265" lon="4.47752">
        <ele>554.567</ele>
        <time>2020-06-07T09:01:45Z</time>
      </trkpt>
      <trkpt lat="46.43264" lon="4.47761">
        <ele>552.567</ele>
        <time>2020-06-07T09:01:50Z</time>
      </trkpt>
      <trkpt lat="46.43261" lon="4.4777">
        <ele>553.567</ele>
        <time>2020-06-07T09:02:01Z</time>
      </trkpt>
      <trkpt lat="46.4326" lon="4.4778">
        <ele>554.567</ele>
        <time>2020-06-07T09:02:08Z</time>
      </trkpt>
      <trkpt lat="46.43259" lon="4.4779">
        <ele>551.567</ele>
        <time>2020-06-07T09:02:23Z</time>
      </trkpt>
      <trkpt lat="46.43254" lon="4.47799">
        <ele>547.567</ele>
        <time>2020-06-07T09:02:38Z</time>
      </trkpt>
      <trkpt lat="46.43252" lon="4.47808">
        <ele>547.567</ele>
        <time>2020-06-07T09:02:43Z</time>
      </trkpt>
      <trkpt lat="46.43255" lon="4.47816">
        <ele>543.567</ele>
        <time>2020-06-07T09:02:53Z</time>
      </trkpt>
      <trkpt lat="46.43259" lon="4.47824">
        <ele>543.567</ele>
        <time>2020-06-07T09:03:01Z</time>
      </trkpt>
      <trkpt lat="46.43263" lon="4.47832">
        <ele>546.567</ele>
        <time>2020-06-07T09:03:07Z</time>
      </trkpt>
      <trkpt lat="46.4327" lon="4.47834">
        <ele>547.567</ele>
        <time>2020-06-07T09:03:12Z</time>
      </trkpt>
      <trkpt lat="46.43274" lon="4.47842">
        <ele>544.567</ele>
        <time>2020-06-07T09:03:19Z</time>
      </trkpt>
      <trkpt lat="46.43278" lon="4.47852">
        <ele>542.567</ele>
        <time>2020-06-07T09:03:27Z</time>
      </trkpt>
      <trkpt lat="46.43284" lon="4.47859">
        <ele>540.567</ele>
        <time>2020-06-07T09:03:33Z</time>
      </trkpt>
      <trkpt lat="46.4329" lon="4.47863">
        <ele>538.567</ele>
        <time>2020-06-07T09:03:41Z</time>
      </trkpt>
      <trkpt lat="46.43295" lon="4.47869">
        <ele>538.567</ele>
        <time>2020-06-07T09:03:47Z</time>
      </trkpt>
      <trkpt lat="46.433" lon="4.47883">
        <ele>538.567</ele>
        <time>2020-06-07T09:03:52Z</time>
      </trkpt>
      <trkpt lat="46.43301" lon="4.47893">
        <ele>539.567</ele>
        <time>2020-06-07T09:04:02Z</time>
      </trkpt>
      <trkpt lat="46.43308" lon="4.47892">
        <ele>539.567</ele>
        <time>2020-06-07T09:04:16Z</time>
      </trkpt>
      <trkpt lat="46.43305" lon="4.47905">
        <ele>539.567</ele>
        <time>2020-06-07T09:04:22Z</time>
      </trkpt>
      <trkpt lat="46.43314" lon="4.479">
        <ele>535.567</ele>
        <time>2020-06-07T09:04:27Z</time>
      </trkpt>
      <trkpt lat="46.43324" lon="4.47898">
        <ele>542.567</ele>
        <time>2020-06-07T09:04:32Z</time>
      </trkpt>
      <trkpt lat="46.43331" lon="4.47897">
        <ele>540.568</ele>
        <time>2020-06-07T09:04:38Z</time>
      </trkpt>
      <trkpt lat="46.43338" lon="4.479">
        <ele>536.568</ele>
        <time>2020-06-07T09:04:44Z</time>
      </trkpt>
      <trkpt lat="46.43346" lon="4.479">
        <ele>536.568</ele>
        <time>2020-06-07T09:04:49Z</time>
      </trkpt>
      <trkpt lat="46.43355" lon="4.47899">
        <ele>539.568</ele>
        <time>2020-06-07T09:04:54Z</time>
      </trkpt>
      <trkpt lat="46.43363" lon="4.47893">
        <ele>539.568</ele>
        <time>2020-06-07T09:04:59Z</time>
      </trkpt>
      <trkpt lat="46.4337" lon="4.47893">
        <ele>542.568</ele>
        <time>2020-06-07T09:05:05Z</time>
      </trkpt>
      <trkpt lat="46.43377" lon="4.47893">
        <ele>540.568</ele>
        <time>2020-06-07T09:05:12Z</time>
      </trkpt>
      <trkpt lat="46.43385" lon="4.47894">
        <ele>540.568</ele>
        <time>2020-06-07T09:05:17Z</time>
      </trkpt>
      <trkpt lat="46.43388" lon="4.47903">
        <ele>535.568</ele>
        <time>2020-06-07T09:05:30Z</time>
      </trkpt>
      <trkpt lat="46.4338" lon="4.47909">
        <ele>534.568</ele>
        <time>2020-06-07T09:05:35Z</time>
      </trkpt>
      <trkpt lat="46.43375" lon="4.47917">
        <ele>533.568</ele>
        <time>2020-06-07T09:05:46Z</time>
      </trkpt>
      <trkpt lat="46.43369" lon="4.47923">
        <ele>535.568</ele>
        <time>2020-06-07T09:05:53Z</time>
      </trkpt>
      <trkpt lat="46.43363" lon="4.47931">
        <ele>537.568</ele>
        <time>2020-06-07T09:05:58Z</time>
      </trkpt>
      <trkpt lat="46.43355" lon="4.4793">
        <ele>530.568</ele>
        <time>2020-06-07T09:06:03Z</time>
      </trkpt>
      <trkpt lat="46.43349" lon="4.47933">
        <ele>531.568</ele>
        <time>2020-06-07T09:06:11Z</time>
      </trkpt>
      <trkpt lat="46.43344" lon="4.47941">
        <ele>529.568</ele>
        <time>2020-06-07T09:06:21Z</time>
      </trkpt>
      <trkpt lat="46.43339" lon="4.47947">
        <ele>524.568</ele>
        <time>2020-06-07T09:06:28Z</time>
      </trkpt>
      <trkpt lat="46.43333" lon="4.47954">
        <ele>522.568</ele>
        <time>2020-06-07T09:06:42Z</time>
      </trkpt>
      <trkpt lat="46.43325" lon="4.47958">
        <ele>519.568</ele>
        <time>2020-06-07T09:06:47Z</time>
      </trkpt>
      <trkpt lat="46.43316" lon="4.47962">
        <ele>519.568</ele>
        <time>2020-06-07T09:06:52Z</time>
      </trkpt>
      <trkpt lat="46.43308" lon="4.47969">
        <ele>521.568</ele>
        <time>2020-06-07T09:06:57Z</time>
      </trkpt>
      <trkpt lat="46.43301" lon="4.47973">
        <ele>520.567</ele>
        <time>2020-06-07T09:07:02Z</time>
      </trkpt>
      <trkpt lat="46.43292" lon="4.47977">
        <ele>519.567</ele>
        <time>2020-06-07T09:07:07Z</time>
      </trkpt>
      <trkpt lat="46.43285" lon="4.47978">
        <ele>516.567</ele>
        <time>2020-06-07T09:07:12Z</time>
      </trkpt>
      <trkpt lat="46.43279" lon="4.4798">
        <ele>514.567</ele>
        <time>2020-06-07T09:07:17Z</time>
      </trkpt>
      <trkpt lat="46.4327" lon="4.47981">
        <ele>518.567</ele>
        <time>2020-06-07T09:07:23Z</time>
      </trkpt>
      <trkpt lat="46.43263" lon="4.47982">
        <ele>519.567</ele>
        <time>2020-06-07T09:07:31Z</time>
      </trkpt>
      <trkpt lat="46.43256" lon="4.47983">
        <ele>519.567</ele>
        <time>2020-06-07T09:07:38Z</time>
      </trkpt>
      <trkpt lat="46.43245" lon="4.47981">
        <ele>519.567</ele>
        <time>2020-06-07T09:07:43Z</time>
      </trkpt>
      <trkpt lat="46.43237" lon="4.47983">
        <ele>517.567</ele>
        <time>2020-06-07T09:07:48Z</time>
      </trkpt>
      <trkpt lat="46.43229" lon="4.47982">
        <ele>517.567</ele>
        <time>2020-06-07T09:07:53Z</time>
      </trkpt>
      <trkpt lat="46.4322" lon="4.47982">
        <ele>513.567</ele>
        <time>2020-06-07T09:08:00Z</time>
      </trkpt>
      <trkpt lat="46.43211" lon="4.47985">
        <ele>515.567</ele>
        <time>2020-06-07T09:08:05Z</time>
      </trkpt>
      <trkpt lat="46.43201" lon="4.47983">
        <ele>516.567</ele>
        <time>2020-06-07T09:08:10Z</time>
      </trkpt>
      <trkpt lat="46.43192" lon="4.47982">
        <ele>517.567</ele>
        <time>2020-06-07T09:08:15Z</time>
      </trkpt>
      <trkpt lat="46.43184" lon="4.47981">
        <ele>516.567</ele>
        <time>2020-06-07T09:08:20Z</time>
      </trkpt>
      <trkpt lat="46.43177" lon="4.47982">
        <ele>513.567</ele>
        <time>2020-06-07T09:08:26Z</time>
      </trkpt>
      <trkpt lat="46.43169" lon="4.47982">
        <ele>512.567</ele>
        <time>2020-06-07T09:08:32Z</time>
      </trkpt>
      <trkpt lat="46.43162" lon="4.4798">
        <ele>509.567</ele>
        <time>2020-06-07T09:08:37Z</time>
      </trkpt>
      <trkpt lat="46.43154" lon="4.47976">
        <ele>507.567</ele>
        <time>2020-06-07T09:08:42Z</time>
      </trkpt>
      <trkpt lat="46.43147" lon="4.47975">
        <ele>504.567</ele>
        <time>2020-06-07T09:08:49Z</time>
      </trkpt>
      <trkpt lat="46.43136" lon="4.4797">
        <ele>509.567</ele>
        <time>2020-06-07T09:08:54Z</time>
      </trkpt>
      <trkpt lat="46.43129" lon="4.4797">
        <ele>510.567</ele>
        <time>2020-06-07T09:09:00Z</time>
      </trkpt>
      <trkpt lat="46.43123" lon="4.47974">
        <ele>505.567</ele>
        <time>2020-06-07T09:09:08Z</time>
      </trkpt>
      <trkpt lat="46.43116" lon="4.47971">
        <ele>503.567</ele>
        <time>2020-06-07T09:09:14Z</time>
      </trkpt>
      <trkpt lat="46.43109" lon="4.47968">
        <ele>504.567</ele>
        <time>2020-06-07T09:09:20Z</time>
      </trkpt>
      <trkpt lat="46.43103" lon="4.47968">
        <ele>504.567</ele>
        <time>2020-06-07T09:09:25Z</time>
      </trkpt>
      <trkpt lat="46.43096" lon="4.47967">
        <ele>504.567</ele>
        <time>2020-06-07T09:09:30Z</time>
      </trkpt>
      <trkpt lat="46.43089" lon="4.47966">
        <ele>503.567</ele>
        <time>2020-06-07T09:09:36Z</time>
      </trkpt>
      <trkpt lat="46.43083" lon="4.47962">
        <ele>500.567</ele>
        <time>2020-06-07T09:09:44Z</time>
      </trkpt>
      <trkpt lat="46.43079" lon="4.47952">
        <ele>497.567</ele>
        <time>2020-06-07T09:09:49Z</time>
      </trkpt>
      <trkpt lat="46.43062" lon="4.47958">
        <ele>494.567</ele>
        <time>2020-06-07T09:09:54Z</time>
      </trkpt>
      <trkpt lat="46.43054" lon="4.47957">
        <ele>494.567</ele>
        <time>2020-06-07T09:10:03Z</time>
      </trkpt>
      <trkpt lat="46.43048" lon="4.47965">
        <ele>495.567</ele>
        <time>2020-06-07T09:10:08Z</time>
      </trkpt>
      <trkpt lat="46.43044" lon="4.4795">
        <ele>494.567</ele>
        <time>2020-06-07T09:10:13Z</time>
      </trkpt>
      <trkpt lat="46.43036" lon="4.47949">
        <ele>497.567</ele>
        <time>2020-06-07T09:10:20Z</time>
      </trkpt>
      <trkpt lat="46.4303" lon="4.47943">
        <ele>494.567</ele>
        <time>2020-06-07T09:10:27Z</time>
      </trkpt>
      <trkpt lat="46.4302" lon="4.47942">
        <ele>492.567</ele>
        <time>2020-06-07T09:10:34Z</time>
      </trkpt>
      <trkpt lat="46.43013" lon="4.47941">
        <ele>486.567</ele>
        <time>2020-06-07T09:10:40Z</time>
      </trkpt>
      <trkpt lat="46.43005" lon="4.47943">
        <ele>485.567</ele>
        <time>2020-06-07T09:10:45Z</time>
      </trkpt>
      <trkpt lat="46.42998" lon="4.47943">
        <ele>482.567</ele>
        <time>2020-06-07T09:10:50Z</time>
      </trkpt>
      <trkpt lat="46.42992" lon="4.47943">
        <ele>480.567</ele>
        <time>2020-06-07T09:10:55Z</time>
      </trkpt>
      <trkpt lat="46.42984" lon="4.47943">
        <ele>481.567</ele>
        <time>2020-06-07T09:11:00Z</time>
      </trkpt>
      <trkpt lat="46.42976" lon="4.47939">
        <ele>483.567</ele>
        <time>2020-06-07T09:11:05Z</time>
      </trkpt>
      <trkpt lat="46.4297" lon="4.47938">
        <ele>481.567</ele>
        <time>2020-06-07T09:11:11Z</time>
      </trkpt>
      <trkpt lat="46.42959" lon="4.47934">
        <ele>484.567</ele>
        <time>2020-06-07T09:11:18Z</time>
      </trkpt>
      <trkpt lat="46.42953" lon="4.47937">
        <ele>483.567</ele>
        <time>2020-06-07T09:11:23Z</time>
      </trkpt>
      <trkpt lat="46.42947" lon="4.4794">
        <ele>485.566</ele>
        <time>2020-06-07T09:11:29Z</time>
      </trkpt>
      <trkpt lat="46.4294" lon="4.47947">
        <ele>486.566</ele>
        <time>2020-06-07T09:11:35Z</time>
      </trkpt>
      <trkpt lat="46.42933" lon="4.47951">
        <ele>482.566</ele>
        <time>2020-06-07T09:11:41Z</time>
      </trkpt>
      <trkpt lat="46.42927" lon="4.47958">
        <ele>478.566</ele>
        <time>2020-06-07T09:11:47Z</time>
      </trkpt>
      <trkpt lat="46.42919" lon="4.47961">
        <ele>478.566</ele>
        <time>2020-06-07T09:11:52Z</time>
      </trkpt>
      <trkpt lat="46.42912" lon="4.4796">
        <ele>481.566</ele>
        <time>2020-06-07T09:12:01Z</time>
      </trkpt>
      <trkpt lat="46.42906" lon="4.47955">
        <ele>478.566</ele>
        <time>2020-06-07T09:12:06Z</time>
      </trkpt>
      <trkpt lat="46.42899" lon="4.4795">
        <ele>475.566</ele>
        <time>2020-06-07T09:12:12Z</time>
      </trkpt>
      <trkpt lat="46.4289" lon="4.47945">
        <ele>476.566</ele>
        <time>2020-06-07T09:12:17Z</time>
      </trkpt>
      <trkpt lat="46.42884" lon="4.47947">
        <ele>474.566</ele>
        <time>2020-06-07T09:12:22Z</time>
      </trkpt>
      <trkpt lat="46.42877" lon="4.47953">
        <ele>470.566</ele>
        <time>2020-06-07T09:12:30Z</time>
      </trkpt>
      <trkpt lat="46.42875" lon="4.47964">
        <ele>471.566</ele>
        <time>2020-06-07T09:12:35Z</time>
      </trkpt>
      <trkpt lat="46.42869" lon="4.47977">
        <ele>474.566</ele>
        <time>2020-06-07T09:12:41Z</time>
      </trkpt>
      <trkpt lat="46.42864" lon="4.47991">
        <ele>473.566</ele>
        <time>2020-06-07T09:12:46Z</time>
      </trkpt>
      <trkpt lat="46.42862" lon="4.48005">
        <ele>476.566</ele>
        <time>2020-06-07T09:13:21Z</time>
      </trkpt>
      <trkpt lat="46.4286" lon="4.4802">
        <ele>474.566</ele>
        <time>2020-06-07T09:13:26Z</time>
      </trkpt>
      <trkpt lat="46.42861" lon="4.48031">
        <ele>470.566</ele>
        <time>2020-06-07T09:13:31Z</time>
      </trkpt>
      <trkpt lat="46.42859" lon="4.48042">
        <ele>469.566</ele>
        <time>2020-06-07T09:13:36Z</time>
      </trkpt>
      <trkpt lat="46.42856" lon="4.48054">
        <ele>469.566</ele>
        <time>2020-06-07T09:13:41Z</time>
      </trkpt>
      <trkpt lat="46.42855" lon="4.48065">
        <ele>469.566</ele>
        <time>2020-06-07T09:13:46Z</time>
      </trkpt>
      <trkpt lat="46.42853" lon="4.48074">
        <ele>463.566</ele>
        <time>2020-06-07T09:13:54Z</time>
      </trkpt>
      <trkpt lat="46.42846" lon="4.48084">
        <ele>464.566</ele>
        <time>2020-06-07T09:13:59Z</time>
      </trkpt>
      <trkpt lat="46.42838" lon="4.48093">
        <ele>464.566</ele>
        <time>2020-06-07T09:14:04Z</time>
      </trkpt>
      <trkpt lat="46.42833" lon="4.48098">
        <ele>464.566</ele>
        <time>2020-06-07T09:14:09Z</time>
      </trkpt>
      <trkpt lat="46.42825" lon="4.48101">
        <ele>464.566</ele>
        <time>2020-06-07T09:14:15Z</time>
      </trkpt>
      <trkpt lat="46.42819" lon="4.48106">
        <ele>461.566</ele>
        <time>2020-06-07T09:14:20Z</time>
      </trkpt>
      <trkpt lat="46.42813" lon="4.48112">
        <ele>457.566</ele>
        <time>2020-06-07T09:14:30Z</time>
      </trkpt>
      <trkpt lat="46.42806" lon="4.48121">
        <ele>455.566</ele>
        <time>2020-06-07T09:14:35Z</time>
      </trkpt>
      <trkpt lat="46.42799" lon="4.48124">
        <ele>457.566</ele>
        <time>2020-06-07T09:14:40Z</time>
      </trkpt>
      <trkpt lat="46.42795" lon="4.48133">
        <ele>457.566</ele>
        <time>2020-06-07T09:14:47Z</time>
      </trkpt>
      <trkpt lat="46.42787" lon="4.48138">
        <ele>456.566</ele>
        <time>2020-06-07T09:14:54Z</time>
      </trkpt>
      <trkpt lat="46.42781" lon="4.48144">
        <ele>457.566</ele>
        <time>2020-06-07T09:14:59Z</time>
      </trkpt>
      <trkpt lat="46.42774" lon="4.48145">
        <ele>458.566</ele>
        <time>2020-06-07T09:15:05Z</time>
      </trkpt>
      <trkpt lat="46.42767" lon="4.48148">
        <ele>457.566</ele>
        <time>2020-06-07T09:15:10Z</time>
      </trkpt>
      <trkpt lat="46.42755" lon="4.48154">
        <ele>459.566</ele>
        <time>2020-06-07T09:15:15Z</time>
      </trkpt>
      <trkpt lat="46.42749" lon="4.48158">
        <ele>456.566</ele>
        <time>2020-06-07T09:15:22Z</time>
      </trkpt>
      <trkpt lat="46.42742" lon="4.48162">
        <ele>455.566</ele>
        <time>2020-06-07T09:15:27Z</time>
      </trkpt>
      <trkpt lat="46.42733" lon="4.48171">
        <ele>456.566</ele>
        <time>2020-06-07T09:15:32Z</time>
      </trkpt>
      <trkpt lat="46.42727" lon="4.48176">
        <ele>456.566</ele>
        <time>2020-06-07T09:15:39Z</time>
      </trkpt>
      <trkpt lat="46.42722" lon="4.48182">
        <ele>455.566</ele>
        <time>2020-06-07T09:15:45Z</time>
      </trkpt>
      <trkpt lat="46.42713" lon="4.48187">
        <ele>458.566</ele>
        <time>2020-06-07T09:15:50Z</time>
      </trkpt>
      <trkpt lat="46.42707" lon="4.48191">
        <ele>457.566</ele>
        <time>2020-06-07T09:15:55Z</time>
      </trkpt>
      <trkpt lat="46.42701" lon="4.48196">
        <ele>456.566</ele>
        <time>2020-06-07T09:16:02Z</time>
      </trkpt>
      <trkpt lat="46.42695" lon="4.48205">
        <ele>455.566</ele>
        <time>2020-06-07T09:16:07Z</time>
      </trkpt>
      <trkpt lat="46.42686" lon="4.48211">
        <ele>455.566</ele>
        <time>2020-06-07T09:16:12Z</time>
      </trkpt>
      <trkpt lat="46.4268" lon="4.48217">
        <ele>454.566</ele>
        <time>2020-06-07T09:16:19Z</time>
      </trkpt>
      <trkpt lat="46.42675" lon="4.48224">
        <ele>454.566</ele>
        <time>2020-06-07T09:16:25Z</time>
      </trkpt>
      <trkpt lat="46.42668" lon="4.48229">
        <ele>456.566</ele>
        <time>2020-06-07T09:16:30Z</time>
      </trkpt>
      <trkpt lat="46.42662" lon="4.48232">
        <ele>457.566</ele>
        <time>2020-06-07T09:16:35Z</time>
      </trkpt>
      <trkpt lat="46.42657" lon="4.48239">
        <ele>455.566</ele>
        <time>2020-06-07T09:16:40Z</time>
      </trkpt>
      <trkpt lat="46.4265" lon="4.48241">
        <ele>457.566</ele>
        <time>2020-06-07T09:16:45Z</time>
      </trkpt>
      <trkpt lat="46.42644" lon="4.48246">
        <ele>455.566</ele>
        <time>2020-06-07T09:16:57Z</time>
      </trkpt>
      <trkpt lat="46.4265" lon="4.48251">
        <ele>453.566</ele>
        <time>2020-06-07T09:17:04Z</time>
      </trkpt>
      <trkpt lat="46.42645" lon="4.48261">
        <ele>451.566</ele>
        <time>2020-06-07T09:17:09Z</time>
      </trkpt>
      <trkpt lat="46.42651" lon="4.48266">
        <ele>453.566</ele>
        <time>2020-06-07T09:17:43Z</time>
      </trkpt>
      <trkpt lat="46.42657" lon="4.48271">
        <ele>457.566</ele>
        <time>2020-06-07T09:17:58Z</time>
      </trkpt>
      <trkpt lat="46.42661" lon="4.48279">
        <ele>457.566</ele>
        <time>2020-06-07T09:18:12Z</time>
      </trkpt>
      <trkpt lat="46.42669" lon="4.48285">
        <ele>456.566</ele>
        <time>2020-06-07T09:18:24Z</time>
      </trkpt>
      <trkpt lat="46.42676" lon="4.48287">
        <ele>457.566</ele>
        <time>2020-06-07T09:18:33Z</time>
      </trkpt>
      <trkpt lat="46.42681" lon="4.48295">
        <ele>457.566</ele>
        <time>2020-06-07T09:18:39Z</time>
      </trkpt>
      <trkpt lat="46.42685" lon="4.48303">
        <ele>456.566</ele>
        <time>2020-06-07T09:18:46Z</time>
      </trkpt>
      <trkpt lat="46.42689" lon="4.48313">
        <ele>454.566</ele>
        <time>2020-06-07T09:18:53Z</time>
      </trkpt>
      <trkpt lat="46.42694" lon="4.48321">
        <ele>453.566</ele>
        <time>2020-06-07T09:18:59Z</time>
      </trkpt>
      <trkpt lat="46.42699" lon="4.48328">
        <ele>455.566</ele>
        <time>2020-06-07T09:19:05Z</time>
      </trkpt>
      <trkpt lat="46.42705" lon="4.48335">
        <ele>453.566</ele>
        <time>2020-06-07T09:19:11Z</time>
      </trkpt>
      <trkpt lat="46.4271" lon="4.48342">
        <ele>452.566</ele>
        <time>2020-06-07T09:19:16Z</time>
      </trkpt>
      <trkpt lat="46.42715" lon="4.48351">
        <ele>451.566</ele>
        <time>2020-06-07T09:19:22Z</time>
      </trkpt>
      <trkpt lat="46.42721" lon="4.4836">
        <ele>452.566</ele>
        <time>2020-06-07T09:19:27Z</time>
      </trkpt>
      <trkpt lat="46.42723" lon="4.48372">
        <ele>452.566</ele>
        <time>2020-06-07T09:19:32Z</time>
      </trkpt>
      <trkpt lat="46.42725" lon="4.48384">
        <ele>446.566</ele>
        <time>2020-06-07T09:19:40Z</time>
      </trkpt>
      <trkpt lat="46.42731" lon="4.4839">
        <ele>446.566</ele>
        <time>2020-06-07T09:19:46Z</time>
      </trkpt>
      <trkpt lat="46.42735" lon="4.48397">
        <ele>445.566</ele>
        <time>2020-06-07T09:19:51Z</time>
      </trkpt>
      <trkpt lat="46.42741" lon="4.48401">
        <ele>443.566</ele>
        <time>2020-06-07T09:19:56Z</time>
      </trkpt>
      <trkpt lat="46.42748" lon="4.48404">
        <ele>442.566</ele>
        <time>2020-06-07T09:20:01Z</time>
      </trkpt>
      <trkpt lat="46.42754" lon="4.48411">
        <ele>437.566</ele>
        <time>2020-06-07T09:20:08Z</time>
      </trkpt>
      <trkpt lat="46.42762" lon="4.48417">
        <ele>440.566</ele>
        <time>2020-06-07T09:20:14Z</time>
      </trkpt>
      <trkpt lat="46.42769" lon="4.48421">
        <ele>438.566</ele>
        <time>2020-06-07T09:20:20Z</time>
      </trkpt>
      <trkpt lat="46.42776" lon="4.48421">
        <ele>435.566</ele>
        <time>2020-06-07T09:20:28Z</time>
      </trkpt>
      <trkpt lat="46.42783" lon="4.48424">
        <ele>433.566</ele>
        <time>2020-06-07T09:20:33Z</time>
      </trkpt>
      <trkpt lat="46.42791" lon="4.48429">
        <ele>435.566</ele>
        <time>2020-06-07T09:20:38Z</time>
      </trkpt>
      <trkpt lat="46.428" lon="4.4843">
        <ele>437.566</ele>
        <time>2020-06-07T09:20:43Z</time>
      </trkpt>
      <trkpt lat="46.42808" lon="4.48431">
        <ele>438.566</ele>
        <time>2020-06-07T09:20:48Z</time>
      </trkpt>
      <trkpt lat="46.42815" lon="4.48434">
        <ele>437.567</ele>
        <time>2020-06-07T09:20:53Z</time>
      </trkpt>
      <trkpt lat="46.42822" lon="4.48435">
        <ele>437.567</ele>
        <time>2020-06-07T09:20:58Z</time>
      </trkpt>
      <trkpt lat="46.4283" lon="4.48438">
        <ele>438.567</ele>
        <time>2020-06-07T09:21:03Z</time>
      </trkpt>
      <trkpt lat="46.42838" lon="4.48441">
        <ele>438.567</ele>
        <time>2020-06-07T09:21:08Z</time>
      </trkpt>
      <trkpt lat="46.42845" lon="4.48442">
        <ele>436.567</ele>
        <time>2020-06-07T09:21:13Z</time>
      </trkpt>
      <trkpt lat="46.42853" lon="4.48446">
        <ele>434.567</ele>
        <time>2020-06-07T09:21:19Z</time>
      </trkpt>
      <trkpt lat="46.42859" lon="4.48453">
        <ele>437.567</ele>
        <time>2020-06-07T09:21:24Z</time>
      </trkpt>
      <trkpt lat="46.42866" lon="4.48456">
        <ele>436.567</ele>
        <time>2020-06-07T09:21:31Z</time>
      </trkpt>
      <trkpt lat="46.42874" lon="4.48459">
        <ele>433.567</ele>
        <time>2020-06-07T09:21:36Z</time>
      </trkpt>
      <trkpt lat="46.42882" lon="4.48462">
        <ele>433.567</ele>
        <time>2020-06-07T09:21:41Z</time>
      </trkpt>
      <trkpt lat="46.42889" lon="4.48466">
        <ele>433.567</ele>
        <time>2020-06-07T09:21:48Z</time>
      </trkpt>
      <trkpt lat="46.42896" lon="4.48467">
        <ele>432.567</ele>
        <time>2020-06-07T09:21:53Z</time>
      </trkpt>
      <trkpt lat="46.42904" lon="4.48469">
        <ele>432.567</ele>
        <time>2020-06-07T09:21:58Z</time>
      </trkpt>
      <trkpt lat="46.42914" lon="4.48469">
        <ele>433.567</ele>
        <time>2020-06-07T09:22:03Z</time>
      </trkpt>
      <trkpt lat="46.42921" lon="4.48467">
        <ele>430.567</ele>
        <time>2020-06-07T09:22:11Z</time>
      </trkpt>
      <trkpt lat="46.42929" lon="4.48462">
        <ele>433.567</ele>
        <time>2020-06-07T09:22:16Z</time>
      </trkpt>
      <trkpt lat="46.42936" lon="4.48458">
        <ele>432.567</ele>
        <time>2020-06-07T09:22:23Z</time>
      </trkpt>
      <trkpt lat="46.42945" lon="4.48456">
        <ele>429.567</ele>
        <time>2020-06-07T09:22:29Z</time>
      </trkpt>
      <trkpt lat="46.42953" lon="4.48453">
        <ele>430.567</ele>
        <time>2020-06-07T09:22:34Z</time>
      </trkpt>
      <trkpt lat="46.4296" lon="4.48456">
        <ele>430.567</ele>
        <time>2020-06-07T09:22:42Z</time>
      </trkpt>
      <trkpt lat="46.42966" lon="4.4846">
        <ele>430.567</ele>
        <time>2020-06-07T09:22:47Z</time>
      </trkpt>
      <trkpt lat="46.42971" lon="4.48468">
        <ele>429.567</ele>
        <time>2020-06-07T09:22:52Z</time>
      </trkpt>
      <trkpt lat="46.42977" lon="4.48474">
        <ele>428.567</ele>
        <time>2020-06-07T09:22:59Z</time>
      </trkpt>
      <trkpt lat="46.42983" lon="4.48483">
        <ele>426.567</ele>
        <time>2020-06-07T09:23:04Z</time>
      </trkpt>
      <trkpt lat="46.42988" lon="4.48491">
        <ele>425.567</ele>
        <time>2020-06-07T09:23:10Z</time>
      </trkpt>
      <trkpt lat="46.42993" lon="4.48499">
        <ele>425.567</ele>
        <time>2020-06-07T09:23:15Z</time>
      </trkpt>
      <trkpt lat="46.42999" lon="4.48505">
        <ele>424.567</ele>
        <time>2020-06-07T09:23:20Z</time>
      </trkpt>
      <trkpt lat="46.43004" lon="4.48513">
        <ele>424.567</ele>
        <time>2020-06-07T09:23:25Z</time>
      </trkpt>
      <trkpt lat="46.43009" lon="4.48521">
        <ele>423.567</ele>
        <time>2020-06-07T09:23:30Z</time>
      </trkpt>
      <trkpt lat="46.43013" lon="4.48529">
        <ele>419.567</ele>
        <time>2020-06-07T09:23:40Z</time>
      </trkpt>
      <trkpt lat="46.43015" lon="4.48539">
        <ele>420.567</ele>
        <time>2020-06-07T09:23:45Z</time>
      </trkpt>
      <trkpt lat="46.43014" lon="4.48549">
        <ele>417.567</ele>
        <time>2020-06-07T09:23:52Z</time>
      </trkpt>
      <trkpt lat="46.4301" lon="4.48563">
        <ele>422.567</ele>
        <time>2020-06-07T09:23:57Z</time>
      </trkpt>
      <trkpt lat="46.43014" lon="4.48573">
        <ele>417.567</ele>
        <time>2020-06-07T09:24:05Z</time>
      </trkpt>
      <trkpt lat="46.43017" lon="4.48586">
        <ele>416.567</ele>
        <time>2020-06-07T09:24:10Z</time>
      </trkpt>
      <trkpt lat="46.43023" lon="4.48593">
        <ele>415.567</ele>
        <time>2020-06-07T09:24:16Z</time>
      </trkpt>
      <trkpt lat="46.43026" lon="4.48603">
        <ele>415.567</ele>
        <time>2020-06-07T09:24:22Z</time>
      </trkpt>
      <trkpt lat="46.43032" lon="4.48609">
        <ele>415.567</ele>
        <time>2020-06-07T09:24:27Z</time>
      </trkpt>
      <trkpt lat="46.43036" lon="4.48619">
        <ele>414.567</ele>
        <time>2020-06-07T09:24:33Z</time>
      </trkpt>
      <trkpt lat="46.43039" lon="4.48627">
        <ele>417.567</ele>
        <time>2020-06-07T09:24:39Z</time>
      </trkpt>
      <trkpt lat="46.43046" lon="4.48637">
        <ele>418.567</ele>
        <time>2020-06-07T09:24:44Z</time>
      </trkpt>
      <trkpt lat="46.43052" lon="4.48642">
        <ele>415.567</ele>
        <time>2020-06-07T09:24:51Z</time>
      </trkpt>
      <trkpt lat="46.43056" lon="4.48653">
        <ele>413.567</ele>
        <time>2020-06-07T09:24:56Z</time>
      </trkpt>
      <trkpt lat="46.43062" lon="4.48663">
        <ele>414.567</ele>
        <time>2020-06-07T09:25:01Z</time>
      </trkpt>
      <trkpt lat="46.43068" lon="4.48671">
        <ele>411.567</ele>
        <time>2020-06-07T09:25:10Z</time>
      </trkpt>
      <trkpt lat="46.43077" lon="4.48681">
        <ele>414.567</ele>
        <time>2020-06-07T09:25:15Z</time>
      </trkpt>
      <trkpt lat="46.43082" lon="4.48688">
        <ele>414.567</ele>
        <time>2020-06-07T09:25:22Z</time>
      </trkpt>
      <trkpt lat="46.43088" lon="4.48694">
        <ele>412.567</ele>
        <time>2020-06-07T09:25:27Z</time>
      </trkpt>
      <trkpt lat="46.43096" lon="4.48704">
        <ele>413.567</ele>
        <time>2020-06-07T09:25:32Z</time>
      </trkpt>
      <trkpt lat="46.43101" lon="4.4871">
        <ele>414.568</ele>
        <time>2020-06-07T09:25:40Z</time>
      </trkpt>
      <trkpt lat="46.43108" lon="4.48719">
        <ele>416.568</ele>
        <time>2020-06-07T09:25:45Z</time>
      </trkpt>
      <trkpt lat="46.43114" lon="4.48726">
        <ele>414.568</ele>
        <time>2020-06-07T09:25:52Z</time>
      </trkpt>
      <trkpt lat="46.43119" lon="4.48734">
        <ele>416.568</ele>
        <time>2020-06-07T09:25:57Z</time>
      </trkpt>
      <trkpt lat="46.43125" lon="4.48741">
        <ele>413.568</ele>
        <time>2020-06-07T09:26:02Z</time>
      </trkpt>
      <trkpt lat="46.43131" lon="4.48748">
        <ele>413.568</ele>
        <time>2020-06-07T09:26:08Z</time>
      </trkpt>
      <trkpt lat="46.43137" lon="4.48756">
        <ele>412.568</ele>
        <time>2020-06-07T09:26:13Z</time>
      </trkpt>
      <trkpt lat="46.43141" lon="4.48764">
        <ele>410.568</ele>
        <time>2020-06-07T09:26:20Z</time>
      </trkpt>
      <trkpt lat="46.43146" lon="4.48774">
        <ele>411.568</ele>
        <time>2020-06-07T09:26:25Z</time>
      </trkpt>
      <trkpt lat="46.43152" lon="4.4878">
        <ele>413.568</ele>
        <time>2020-06-07T09:26:33Z</time>
      </trkpt>
      <trkpt lat="46.43158" lon="4.48788">
        <ele>414.568</ele>
        <time>2020-06-07T09:26:38Z</time>
      </trkpt>
      <trkpt lat="46.43159" lon="4.488">
        <ele>411.568</ele>
        <time>2020-06-07T09:26:46Z</time>
      </trkpt>
      <trkpt lat="46.43166" lon="4.4881">
        <ele>409.568</ele>
        <time>2020-06-07T09:26:51Z</time>
      </trkpt>
      <trkpt lat="46.43173" lon="4.48815">
        <ele>407.568</ele>
        <time>2020-06-07T09:26:58Z</time>
      </trkpt>
      <trkpt lat="46.43178" lon="4.48825">
        <ele>405.568</ele>
        <time>2020-06-07T09:27:03Z</time>
      </trkpt>
      <trkpt lat="46.43185" lon="4.48834">
        <ele>397.568</ele>
        <time>2020-06-07T09:27:12Z</time>
      </trkpt>
      <trkpt lat="46.43192" lon="4.48843">
        <ele>397.568</ele>
        <time>2020-06-07T09:27:17Z</time>
      </trkpt>
      <trkpt lat="46.43198" lon="4.4885">
        <ele>398.568</ele>
        <time>2020-06-07T09:27:23Z</time>
      </trkpt>
      <trkpt lat="46.43205" lon="4.48856">
        <ele>395.568</ele>
        <time>2020-06-07T09:27:28Z</time>
      </trkpt>
      <trkpt lat="46.43212" lon="4.48856">
        <ele>395.568</ele>
        <time>2020-06-07T09:27:35Z</time>
      </trkpt>
      <trkpt lat="46.43218" lon="4.48867">
        <ele>395.568</ele>
        <time>2020-06-07T09:27:40Z</time>
      </trkpt>
      <trkpt lat="46.43223" lon="4.48873">
        <ele>397.568</ele>
        <time>2020-06-07T09:27:45Z</time>
      </trkpt>
      <trkpt lat="46.43227" lon="4.4888">
        <ele>396.568</ele>
        <time>2020-06-07T09:27:50Z</time>
      </trkpt>
      <trkpt lat="46.43234" lon="4.48889">
        <ele>400.568</ele>
        <time>2020-06-07T09:27:55Z</time>
      </trkpt>
      <trkpt lat="46.43239" lon="4.48896">
        <ele>396.568</ele>
        <time>2020-06-07T09:28:02Z</time>
      </trkpt>
      <trkpt lat="46.43248" lon="4.48904">
        <ele>396.568</ele>
        <time>2020-06-07T09:28:07Z</time>
      </trkpt>
      <trkpt lat="46.43254" lon="4.4891">
        <ele>396.568</ele>
        <time>2020-06-07T09:28:13Z</time>
      </trkpt>
      <trkpt lat="46.43264" lon="4.48916">
        <ele>399.568</ele>
        <time>2020-06-07T09:28:18Z</time>
      </trkpt>
      <trkpt lat="46.43261" lon="4.48929">
        <ele>390.568</ele>
        <time>2020-06-07T09:28:25Z</time>
      </trkpt>
      <trkpt lat="46.43266" lon="4.48936">
        <ele>387.568</ele>
        <time>2020-06-07T09:28:31Z</time>
      </trkpt>
      <trkpt lat="46.43269" lon="4.48945">
        <ele>383.568</ele>
        <time>2020-06-07T09:28:38Z</time>
      </trkpt>
      <trkpt lat="46.43277" lon="4.48953">
        <ele>383.568</ele>
        <time>2020-06-07T09:28:43Z</time>
      </trkpt>
      <trkpt lat="46.43284" lon="4.48958">
        <ele>383.568</ele>
        <time>2020-06-07T09:28:48Z</time>
      </trkpt>
      <trkpt lat="46.4329" lon="4.48964">
        <ele>386.568</ele>
        <time>2020-06-07T09:28:53Z</time>
      </trkpt>
      <trkpt lat="46.43295" lon="4.48973">
        <ele>385.568</ele>
        <time>2020-06-07T09:28:59Z</time>
      </trkpt>
      <trkpt lat="46.433" lon="4.48983">
        <ele>387.568</ele>
        <time>2020-06-07T09:29:04Z</time>
      </trkpt>
      <trkpt lat="46.43302" lon="4.48993">
        <ele>384.568</ele>
        <time>2020-06-07T09:29:09Z</time>
      </trkpt>
      <trkpt lat="46.43307" lon="4.49">
        <ele>385.568</ele>
        <time>2020-06-07T09:29:14Z</time>
      </trkpt>
      <trkpt lat="46.43313" lon="4.49006">
        <ele>383.568</ele>
        <time>2020-06-07T09:29:19Z</time>
      </trkpt>
      <trkpt lat="46.43318" lon="4.49014">
        <ele>384.568</ele>
        <time>2020-06-07T09:29:24Z</time>
      </trkpt>
      <trkpt lat="46.43324" lon="4.49011">
        <ele>386.568</ele>
        <time>2020-06-07T09:29:48Z</time>
      </trkpt>
      <trkpt lat="46.43328" lon="4.49023">
        <ele>380.568</ele>
        <time>2020-06-07T09:31:31Z</time>
      </trkpt>
      <trkpt lat="46.43333" lon="4.4903">
        <ele>377.568</ele>
        <time>2020-06-07T09:31:36Z</time>
      </trkpt>
      <trkpt lat="46.43337" lon="4.49049">
        <ele>373.568</ele>
        <time>2020-06-07T09:31:41Z</time>
      </trkpt>
      <trkpt lat="46.43338" lon="4.49059">
        <ele>368.568</ele>
        <time>2020-06-07T09:31:46Z</time>
      </trkpt>
      <trkpt lat="46.43344" lon="4.49067">
        <ele>372.568</ele>
        <time>2020-06-07T09:31:51Z</time>
      </trkpt>
      <trkpt lat="46.43345" lon="4.49076">
        <ele>371.568</ele>
        <time>2020-06-07T09:31:56Z</time>
      </trkpt>
      <trkpt lat="46.43346" lon="4.49088">
        <ele>371.568</ele>
        <time>2020-06-07T09:32:01Z</time>
      </trkpt>
      <trkpt lat="46.43348" lon="4.49098">
        <ele>369.569</ele>
        <time>2020-06-07T09:32:07Z</time>
      </trkpt>
      <trkpt lat="46.43349" lon="4.49108">
        <ele>369.569</ele>
        <time>2020-06-07T09:32:12Z</time>
      </trkpt>
      <trkpt lat="46.4335" lon="4.49119">
        <ele>374.569</ele>
        <time>2020-06-07T09:32:18Z</time>
      </trkpt>
      <trkpt lat="46.4335" lon="4.49128">
        <ele>376.569</ele>
        <time>2020-06-07T09:32:23Z</time>
      </trkpt>
      <trkpt lat="46.43351" lon="4.4914">
        <ele>375.569</ele>
        <time>2020-06-07T09:32:30Z</time>
      </trkpt>
      <trkpt lat="46.43356" lon="4.49147">
        <ele>373.569</ele>
        <time>2020-06-07T09:32:35Z</time>
      </trkpt>
      <trkpt lat="46.43363" lon="4.49156">
        <ele>370.569</ele>
        <time>2020-06-07T09:32:40Z</time>
      </trkpt>
      <trkpt lat="46.43367" lon="4.49165">
        <ele>369.569</ele>
        <time>2020-06-07T09:32:45Z</time>
      </trkpt>
      <trkpt lat="46.43371" lon="4.49174">
        <ele>368.569</ele>
        <time>2020-06-07T09:32:51Z</time>
      </trkpt>
      <trkpt lat="46.43376" lon="4.49184">
        <ele>368.569</ele>
        <time>2020-06-07T09:32:57Z</time>
      </trkpt>
      <trkpt lat="46.43381" lon="4.49193">
        <ele>367.569</ele>
        <time>2020-06-07T09:33:02Z</time>
      </trkpt>
      <trkpt lat="46.43385" lon="4.49205">
        <ele>363.569</ele>
        <time>2020-06-07T09:33:07Z</time>
      </trkpt>
      <trkpt lat="46.4339" lon="4.49213">
        <ele>358.569</ele>
        <time>2020-06-07T09:33:13Z</time>
      </trkpt>
      <trkpt lat="46.43395" lon="4.49219">
        <ele>354.569</ele>
        <time>2020-06-07T09:33:18Z</time>
      </trkpt>
      <trkpt lat="46.43401" lon="4.49228">
        <ele>352.569</ele>
        <time>2020-06-07T09:33:23Z</time>
      </trkpt>
      <trkpt lat="46.43409" lon="4.49231">
        <ele>351.569</ele>
        <time>2020-06-07T09:33:28Z</time>
      </trkpt>
      <trkpt lat="46.43412" lon="4.49242">
        <ele>347.569</ele>
        <time>2020-06-07T09:33:33Z</time>
      </trkpt>
      <trkpt lat="46.4342" lon="4.49247">
        <ele>346.569</ele>
        <time>2020-06-07T09:33:38Z</time>
      </trkpt>
      <trkpt lat="46.43427" lon="4.49255">
        <ele>347.569</ele>
        <time>2020-06-07T09:33:43Z</time>
      </trkpt>
      <trkpt lat="46.43433" lon="4.49258">
        <ele>345.569</ele>
        <time>2020-06-07T09:33:50Z</time>
      </trkpt>
      <trkpt lat="46.43438" lon="4.49266">
        <ele>346.569</ele>
        <time>2020-06-07T09:33:55Z</time>
      </trkpt>
      <trkpt lat="46.43446" lon="4.4927">
        <ele>345.569</ele>
        <time>2020-06-07T09:34:01Z</time>
      </trkpt>
      <trkpt lat="46.43453" lon="4.49275">
        <ele>346.569</ele>
        <time>2020-06-07T09:34:06Z</time>
      </trkpt>
      <trkpt lat="46.43459" lon="4.49281">
        <ele>345.569</ele>
        <time>2020-06-07T09:34:16Z</time>
      </trkpt>
      <trkpt lat="46.43465" lon="4.49282">
        <ele>345.569</ele>
        <time>2020-06-07T09:34:45Z</time>
      </trkpt>
      <trkpt lat="46.43476" lon="4.49288">
        <ele>342.569</ele>
        <time>2020-06-07T09:34:50Z</time>
      </trkpt>
      <trkpt lat="46.43486" lon="4.49292">
        <ele>345.569</ele>
        <time>2020-06-07T09:34:55Z</time>
      </trkpt>
      <trkpt lat="46.43493" lon="4.49295">
        <ele>344.569</ele>
        <time>2020-06-07T09:35:00Z</time>
      </trkpt>
      <trkpt lat="46.43495" lon="4.49304">
        <ele>338.569</ele>
        <time>2020-06-07T09:35:07Z</time>
      </trkpt>
      <trkpt lat="46.43501" lon="4.49311">
        <ele>337.569</ele>
        <time>2020-06-07T09:35:12Z</time>
      </trkpt>
      <trkpt lat="46.43506" lon="4.4932">
        <ele>337.569</ele>
        <time>2020-06-07T09:35:17Z</time>
      </trkpt>
      <trkpt lat="46.43511" lon="4.49329">
        <ele>333.569</ele>
        <time>2020-06-07T09:35:22Z</time>
      </trkpt>
      <trkpt lat="46.43518" lon="4.4933">
        <ele>334.569</ele>
        <time>2020-06-07T09:35:27Z</time>
      </trkpt>
      <trkpt lat="46.43524" lon="4.49324">
        <ele>332.569</ele>
        <time>2020-06-07T09:35:35Z</time>
      </trkpt>
      <trkpt lat="46.43528" lon="4.49316">
        <ele>332.569</ele>
        <time>2020-06-07T09:35:40Z</time>
      </trkpt>
      <trkpt lat="46.43531" lon="4.49306">
        <ele>332.569</ele>
        <time>2020-06-07T09:35:45Z</time>
      </trkpt>
      <trkpt lat="46.43533" lon="4.49296">
        <ele>332.569</ele>
        <time>2020-06-07T09:35:50Z</time>
      </trkpt>
      <trkpt lat="46.43532" lon="4.49285">
        <ele>331.569</ele>
        <time>2020-06-07T09:35:55Z</time>
      </trkpt>
      <trkpt lat="46.43535" lon="4.49276">
        <ele>332.569</ele>
        <time>2020-06-07T09:36:00Z</time>
      </trkpt>
      <trkpt lat="46.43536" lon="4.49266">
        <ele>332.569</ele>
        <time>2020-06-07T09:36:05Z</time>
      </trkpt>
      <trkpt lat="46.43537" lon="4.49256">
        <ele>334.569</ele>
        <time>2020-06-07T09:36:13Z</time>
      </trkpt>
      <trkpt lat="46.43537" lon="4.49245">
        <ele>332.569</ele>
        <time>2020-06-07T09:36:20Z</time>
      </trkpt>
      <trkpt lat="46.43539" lon="4.49235">
        <ele>330.569</ele>
        <time>2020-06-07T09:36:26Z</time>
      </trkpt>
      <trkpt lat="46.43539" lon="4.49223">
        <ele>329.569</ele>
        <time>2020-06-07T09:36:31Z</time>
      </trkpt>
      <trkpt lat="46.43539" lon="4.49212">
        <ele>329.569</ele>
        <time>2020-06-07T09:36:36Z</time>
      </trkpt>
      <trkpt lat="46.43537" lon="4.492">
        <ele>328.569</ele>
        <time>2020-06-07T09:36:42Z</time>
      </trkpt>
      <trkpt lat="46.43538" lon="4.49189">
        <ele>331.569</ele>
        <time>2020-06-07T09:36:47Z</time>
      </trkpt>
      <trkpt lat="46.43543" lon="4.49178">
        <ele>332.569</ele>
        <time>2020-06-07T09:36:57Z</time>
      </trkpt>
      <trkpt lat="46.43539" lon="4.49165">
        <ele>329.569</ele>
        <time>2020-06-07T09:37:02Z</time>
      </trkpt>
      <trkpt lat="46.43541" lon="4.49156">
        <ele>322.569</ele>
        <time>2020-06-07T09:37:08Z</time>
      </trkpt>
      <trkpt lat="46.43542" lon="4.49146">
        <ele>315.569</ele>
        <time>2020-06-07T09:37:14Z</time>
      </trkpt>
      <trkpt lat="46.43548" lon="4.49138">
        <ele>316.569</ele>
        <time>2020-06-07T09:37:19Z</time>
      </trkpt>
      <trkpt lat="46.43551" lon="4.4913">
        <ele>315.569</ele>
        <time>2020-06-07T09:37:24Z</time>
      </trkpt>
      <trkpt lat="46.43557" lon="4.49123">
        <ele>315.569</ele>
        <time>2020-06-07T09:37:29Z</time>
      </trkpt>
      <trkpt lat="46.43562" lon="4.49116">
        <ele>315.569</ele>
        <time>2020-06-07T09:37:34Z</time>
      </trkpt>
      <trkpt lat="46.43566" lon="4.49107">
        <ele>313.569</ele>
        <time>2020-06-07T09:37:40Z</time>
      </trkpt>
      <trkpt lat="46.43572" lon="4.491">
        <ele>313.569</ele>
        <time>2020-06-07T09:37:45Z</time>
      </trkpt>
      <trkpt lat="46.43579" lon="4.49089">
        <ele>311.569</ele>
        <time>2020-06-07T09:37:51Z</time>
      </trkpt>
      <trkpt lat="46.43588" lon="4.49085">
        <ele>310.569</ele>
        <time>2020-06-07T09:37:56Z</time>
      </trkpt>
      <trkpt lat="46.43591" lon="4.49076">
        <ele>307.569</ele>
        <time>2020-06-07T09:38:28Z</time>
      </trkpt>
      <trkpt lat="46.436" lon="4.49074">
        <ele>309.569</ele>
        <time>2020-06-07T09:38:33Z</time>
      </trkpt>
      <trkpt lat="46.43608" lon="4.49072">
        <ele>308.569</ele>
        <time>2020-06-07T09:38:43Z</time>
      </trkpt>
      <trkpt lat="46.43616" lon="4.49073">
        <ele>309.569</ele>
        <time>2020-06-07T09:38:48Z</time>
      </trkpt>
      <trkpt lat="46.43623" lon="4.49076">
        <ele>310.569</ele>
        <time>2020-06-07T09:38:53Z</time>
      </trkpt>
      <trkpt lat="46.4363" lon="4.49073">
        <ele>306.569</ele>
        <time>2020-06-07T09:39:00Z</time>
      </trkpt>
      <trkpt lat="46.43637" lon="4.49078">
        <ele>307.569</ele>
        <time>2020-06-07T09:39:06Z</time>
      </trkpt>
      <trkpt lat="46.4364" lon="4.49086">
        <ele>307.569</ele>
        <time>2020-06-07T09:39:11Z</time>
      </trkpt>
      <trkpt lat="46.43645" lon="4.49095">
        <ele>308.569</ele>
        <time>2020-06-07T09:39:16Z</time>
      </trkpt>
      <trkpt lat="46.43649" lon="4.49103">
        <ele>309.569</ele>
        <time>2020-06-07T09:39:21Z</time>
      </trkpt>
      <trkpt lat="46.43654" lon="4.4911">
        <ele>310.569</ele>
        <time>2020-06-07T09:39:26Z</time>
      </trkpt>
      <trkpt lat="46.43659" lon="4.49119">
        <ele>310.569</ele>
        <time>2020-06-07T09:40:39Z</time>
      </trkpt>
      <trkpt lat="46.43662" lon="4.49129">
        <ele>311.569</ele>
        <time>2020-06-07T09:40:46Z</time>
      </trkpt>
      <trkpt lat="46.43665" lon="4.49141">
        <ele>310.569</ele>
        <time>2020-06-07T09:40:51Z</time>
      </trkpt>
      <trkpt lat="46.43667" lon="4.49152">
        <ele>311.569</ele>
        <time>2020-06-07T09:40:56Z</time>
      </trkpt>
      <trkpt lat="46.43672" lon="4.49162">
        <ele>310.569</ele>
        <time>2020-06-07T09:41:01Z</time>
      </trkpt>
      <trkpt lat="46.43673" lon="4.49173">
        <ele>310.569</ele>
        <time>2020-06-07T09:41:07Z</time>
      </trkpt>
      <trkpt lat="46.43675" lon="4.49183">
        <ele>313.569</ele>
        <time>2020-06-07T09:41:13Z</time>
      </trkpt>
      <trkpt lat="46.43679" lon="4.49192">
        <ele>311.569</ele>
        <time>2020-06-07T09:41:18Z</time>
      </trkpt>
      <trkpt lat="46.43682" lon="4.49201">
        <ele>308.57</ele>
        <time>2020-06-07T09:41:24Z</time>
      </trkpt>
      <trkpt lat="46.4369" lon="4.49217">
        <ele>308.57</ele>
        <time>2020-06-07T09:41:34Z</time>
      </trkpt>
      <trkpt lat="46.43683" lon="4.49222">
        <ele>310.57</ele>
        <time>2020-06-07T09:41:41Z</time>
      </trkpt>
      <trkpt lat="46.43678" lon="4.49245">
        <ele>313.57</ele>
        <time>2020-06-07T09:41:46Z</time>
      </trkpt>
      <trkpt lat="46.43691" lon="4.49252">
        <ele>307.57</ele>
        <time>2020-06-07T09:41:51Z</time>
      </trkpt>
      <trkpt lat="46.43693" lon="4.49264">
        <ele>307.57</ele>
        <time>2020-06-07T09:41:56Z</time>
      </trkpt>
      <trkpt lat="46.43691" lon="4.49275">
        <ele>308.57</ele>
        <time>2020-06-07T09:42:01Z</time>
      </trkpt>
      <trkpt lat="46.43694" lon="4.49285">
        <ele>310.57</ele>
        <time>2020-06-07T09:42:06Z</time>
      </trkpt>
      <trkpt lat="46.43697" lon="4.49294">
        <ele>309.57</ele>
        <time>2020-06-07T09:42:11Z</time>
      </trkpt>
      <trkpt lat="46.43699" lon="4.49304">
        <ele>309.57</ele>
        <time>2020-06-07T09:42:16Z</time>
      </trkpt>
      <trkpt lat="46.437" lon="4.49317">
        <ele>308.57</ele>
        <time>2020-06-07T09:42:21Z</time>
      </trkpt>
      <trkpt lat="46.43702" lon="4.49328">
        <ele>310.57</ele>
        <time>2020-06-07T09:42:27Z</time>
      </trkpt>
      <trkpt lat="46.43704" lon="4.49338">
        <ele>309.57</ele>
        <time>2020-06-07T09:42:32Z</time>
      </trkpt>
      <trkpt lat="46.43705" lon="4.49348">
        <ele>309.57</ele>
        <time>2020-06-07T09:42:37Z</time>
      </trkpt>
      <trkpt lat="46.43706" lon="4.4936">
        <ele>311.57</ele>
        <time>2020-06-07T09:42:42Z</time>
      </trkpt>
      <trkpt lat="46.43708" lon="4.49369">
        <ele>313.57</ele>
        <time>2020-06-07T09:42:47Z</time>
      </trkpt>
      <trkpt lat="46.43711" lon="4.49379">
        <ele>311.57</ele>
        <time>2020-06-07T09:42:52Z</time>
      </trkpt>
      <trkpt lat="46.43713" lon="4.49389">
        <ele>312.57</ele>
        <time>2020-06-07T09:42:57Z</time>
      </trkpt>
      <trkpt lat="46.43714" lon="4.49399">
        <ele>313.57</ele>
        <time>2020-06-07T09:43:02Z</time>
      </trkpt>
      <trkpt lat="46.43719" lon="4.49406">
        <ele>315.57</ele>
        <time>2020-06-07T09:43:07Z</time>
      </trkpt>
      <trkpt lat="46.43721" lon="4.49416">
        <ele>314.57</ele>
        <time>2020-06-07T09:43:12Z</time>
      </trkpt>
      <trkpt lat="46.43721" lon="4.49428">
        <ele>313.57</ele>
        <time>2020-06-07T09:43:17Z</time>
      </trkpt>
      <trkpt lat="46.43718" lon="4.49441">
        <ele>316.57</ele>
        <time>2020-06-07T09:43:22Z</time>
      </trkpt>
      <trkpt lat="46.43723" lon="4.49449">
        <ele>315.57</ele>
        <time>2020-06-07T09:43:27Z</time>
      </trkpt>
      <trkpt lat="46.43724" lon="4.4946">
        <ele>316.57</ele>
        <time>2020-06-07T09:43:32Z</time>
      </trkpt>
      <trkpt lat="46.43727" lon="4.49468">
        <ele>314.57</ele>
        <time>2020-06-07T09:43:37Z</time>
      </trkpt>
      <trkpt lat="46.43728" lon="4.49478">
        <ele>312.57</ele>
        <time>2020-06-07T09:43:42Z</time>
      </trkpt>
      <trkpt lat="46.43731" lon="4.49487">
        <ele>312.57</ele>
        <time>2020-06-07T09:43:47Z</time>
      </trkpt>
      <trkpt lat="46.43733" lon="4.49498">
        <ele>314.57</ele>
        <time>2020-06-07T09:43:53Z</time>
      </trkpt>
      <trkpt lat="46.43734" lon="4.49509">
        <ele>314.57</ele>
        <time>2020-06-07T09:43:58Z</time>
      </trkpt>
      <trkpt lat="46.43737" lon="4.4952">
        <ele>311.57</ele>
        <time>2020-06-07T09:44:03Z</time>
      </trkpt>
      <trkpt lat="46.43738" lon="4.49531">
        <ele>312.57</ele>
        <time>2020-06-07T09:44:10Z</time>
      </trkpt>
      <trkpt lat="46.43736" lon="4.4954">
        <ele>309.57</ele>
        <time>2020-06-07T09:44:17Z</time>
      </trkpt>
      <trkpt lat="46.43739" lon="4.49552">
        <ele>307.57</ele>
        <time>2020-06-07T09:44:22Z</time>
      </trkpt>
      <trkpt lat="46.43737" lon="4.49563">
        <ele>307.57</ele>
        <time>2020-06-07T09:44:29Z</time>
      </trkpt>
      <trkpt lat="46.43737" lon="4.49574">
        <ele>309.57</ele>
        <time>2020-06-07T09:44:34Z</time>
      </trkpt>
      <trkpt lat="46.43736" lon="4.49586">
        <ele>307.57</ele>
        <time>2020-06-07T09:44:40Z</time>
      </trkpt>
      <trkpt lat="46.43732" lon="4.49597">
        <ele>307.57</ele>
        <time>2020-06-07T09:44:46Z</time>
      </trkpt>
      <trkpt lat="46.43729" lon="4.49607">
        <ele>307.57</ele>
        <time>2020-06-07T09:44:51Z</time>
      </trkpt>
      <trkpt lat="46.43725" lon="4.49619">
        <ele>308.57</ele>
        <time>2020-06-07T09:44:56Z</time>
      </trkpt>
      <trkpt lat="46.43728" lon="4.49629">
        <ele>311.57</ele>
        <time>2020-06-07T09:45:04Z</time>
      </trkpt>
      <trkpt lat="46.43729" lon="4.49639">
        <ele>310.57</ele>
        <time>2020-06-07T09:45:10Z</time>
      </trkpt>
      <trkpt lat="46.43726" lon="4.49647">
        <ele>308.57</ele>
        <time>2020-06-07T09:45:16Z</time>
      </trkpt>
      <trkpt lat="46.43735" lon="4.49657">
        <ele>301.57</ele>
        <time>2020-06-07T09:45:21Z</time>
      </trkpt>
      <trkpt lat="46.43735" lon="4.49667">
        <ele>303.57</ele>
        <time>2020-06-07T09:45:26Z</time>
      </trkpt>
      <trkpt lat="46.43737" lon="4.49677">
        <ele>301.57</ele>
        <time>2020-06-07T09:45:32Z</time>
      </trkpt>
      <trkpt lat="46.43735" lon="4.49687">
        <ele>298.57</ele>
        <time>2020-06-07T09:45:37Z</time>
      </trkpt>
      <trkpt lat="46.43734" lon="4.497">
        <ele>296.57</ele>
        <time>2020-06-07T09:45:42Z</time>
      </trkpt>
      <trkpt lat="46.43734" lon="4.49712">
        <ele>296.57</ele>
        <time>2020-06-07T09:45:47Z</time>
      </trkpt>
      <trkpt lat="46.43731" lon="4.49723">
        <ele>296.57</ele>
        <time>2020-06-07T09:45:54Z</time>
      </trkpt>
      <trkpt lat="46.43728" lon="4.49735">
        <ele>297.57</ele>
        <time>2020-06-07T09:45:59Z</time>
      </trkpt>
      <trkpt lat="46.43727" lon="4.49747">
        <ele>297.57</ele>
        <time>2020-06-07T09:46:04Z</time>
      </trkpt>
      <trkpt lat="46.43729" lon="4.49756">
        <ele>297.57</ele>
        <time>2020-06-07T09:46:09Z</time>
      </trkpt>
      <trkpt lat="46.43731" lon="4.49765">
        <ele>299.57</ele>
        <time>2020-06-07T09:46:14Z</time>
      </trkpt>
      <trkpt lat="46.43734" lon="4.49774">
        <ele>301.57</ele>
        <time>2020-06-07T09:46:19Z</time>
      </trkpt>
      <trkpt lat="46.43735" lon="4.49783">
        <ele>302.57</ele>
        <time>2020-06-07T09:46:26Z</time>
      </trkpt>
      <trkpt lat="46.43743" lon="4.49789">
        <ele>301.57</ele>
        <time>2020-06-07T09:46:31Z</time>
      </trkpt>
      <trkpt lat="46.43751" lon="4.49801">
        <ele>301.57</ele>
        <time>2020-06-07T09:46:36Z</time>
      </trkpt>
      <trkpt lat="46.43756" lon="4.49811">
        <ele>297.57</ele>
        <time>2020-06-07T09:46:44Z</time>
      </trkpt>
      <trkpt lat="46.43761" lon="4.49819">
        <ele>296.57</ele>
        <time>2020-06-07T09:46:52Z</time>
      </trkpt>
      <trkpt lat="46.43761" lon="4.49828">
        <ele>297.57</ele>
        <time>2020-06-07T09:46:57Z</time>
      </trkpt>
      <trkpt lat="46.43766" lon="4.49839">
        <ele>297.57</ele>
        <time>2020-06-07T09:47:02Z</time>
      </trkpt>
      <trkpt lat="46.43771" lon="4.49845">
        <ele>298.57</ele>
        <time>2020-06-07T09:47:07Z</time>
      </trkpt>
      <trkpt lat="46.43778" lon="4.49849">
        <ele>301.57</ele>
        <time>2020-06-07T09:47:12Z</time>
      </trkpt>
      <trkpt lat="46.43785" lon="4.49852">
        <ele>303.57</ele>
        <time>2020-06-07T09:47:19Z</time>
      </trkpt>
      <trkpt lat="46.43792" lon="4.4985">
        <ele>303.57</ele>
        <time>2020-06-07T09:47:25Z</time>
      </trkpt>
      <trkpt lat="46.43798" lon="4.49853">
        <ele>303.57</ele>
        <time>2020-06-07T09:47:31Z</time>
      </trkpt>
      <trkpt lat="46.43804" lon="4.49858">
        <ele>306.57</ele>
        <time>2020-06-07T09:47:38Z</time>
      </trkpt>
      <trkpt lat="46.43805" lon="4.49867">
        <ele>306.57</ele>
        <time>2020-06-07T09:47:43Z</time>
      </trkpt>
      <trkpt lat="46.43811" lon="4.49875">
        <ele>302.57</ele>
        <time>2020-06-07T09:47:51Z</time>
      </trkpt>
      <trkpt lat="46.43817" lon="4.49872">
        <ele>309.57</ele>
        <time>2020-06-07T09:48:33Z</time>
      </trkpt>
      <trkpt lat="46.43823" lon="4.49877">
        <ele>307.57</ele>
        <time>2020-06-07T09:48:40Z</time>
      </trkpt>
      <trkpt lat="46.43829" lon="4.49881">
        <ele>307.57</ele>
        <time>2020-06-07T09:48:47Z</time>
      </trkpt>
      <trkpt lat="46.43837" lon="4.49885">
        <ele>309.57</ele>
        <time>2020-06-07T09:48:55Z</time>
      </trkpt>
      <trkpt lat="46.43843" lon="4.49884">
        <ele>310.57</ele>
        <time>2020-06-07T09:49:02Z</time>
      </trkpt>
      <trkpt lat="46.43849" lon="4.49889">
        <ele>308.571</ele>
        <time>2020-06-07T09:49:08Z</time>
      </trkpt>
      <trkpt lat="46.43856" lon="4.49893">
        <ele>313.571</ele>
        <time>2020-06-07T09:49:14Z</time>
      </trkpt>
      <trkpt lat="46.43863" lon="4.49889">
        <ele>315.571</ele>
        <time>2020-06-07T09:49:20Z</time>
      </trkpt>
      <trkpt lat="46.43867" lon="4.49895">
        <ele>319.571</ele>
        <time>2020-06-07T09:49:29Z</time>
      </trkpt>
      <trkpt lat="46.43874" lon="4.49896">
        <ele>318.571</ele>
        <time>2020-06-07T09:49:39Z</time>
      </trkpt>
      <trkpt lat="46.43881" lon="4.499">
        <ele>320.571</ele>
        <time>2020-06-07T09:49:50Z</time>
      </trkpt>
      <trkpt lat="46.43888" lon="4.49901">
        <ele>322.571</ele>
        <time>2020-06-07T09:50:03Z</time>
      </trkpt>
      <trkpt lat="46.43894" lon="4.49906">
        <ele>323.571</ele>
        <time>2020-06-07T09:50:14Z</time>
      </trkpt>
      <trkpt lat="46.43898" lon="4.49897">
        <ele>322.571</ele>
        <time>2020-06-07T09:50:19Z</time>
      </trkpt>
      <trkpt lat="46.43905" lon="4.49895">
        <ele>320.571</ele>
        <time>2020-06-07T09:50:30Z</time>
      </trkpt>
      <trkpt lat="46.43913" lon="4.49893">
        <ele>320.571</ele>
        <time>2020-06-07T09:50:38Z</time>
      </trkpt>
      <trkpt lat="46.4392" lon="4.49892">
        <ele>322.571</ele>
        <time>2020-06-07T09:50:48Z</time>
      </trkpt>
      <trkpt lat="46.43927" lon="4.49892">
        <ele>323.571</ele>
        <time>2020-06-07T09:50:54Z</time>
      </trkpt>
      <trkpt lat="46.43933" lon="4.49895">
        <ele>324.571</ele>
        <time>2020-06-07T09:51:00Z</time>
      </trkpt>
      <trkpt lat="46.4394" lon="4.49895">
        <ele>325.571</ele>
        <time>2020-06-07T09:51:06Z</time>
      </trkpt>
      <trkpt lat="46.43947" lon="4.49899">
        <ele>328.571</ele>
        <time>2020-06-07T09:51:13Z</time>
      </trkpt>
      <trkpt lat="46.43955" lon="4.49898">
        <ele>328.571</ele>
        <time>2020-06-07T09:51:20Z</time>
      </trkpt>
      <trkpt lat="46.43961" lon="4.49899">
        <ele>329.571</ele>
        <time>2020-06-07T09:51:27Z</time>
      </trkpt>
      <trkpt lat="46.43968" lon="4.49901">
        <ele>329.571</ele>
        <time>2020-06-07T09:51:35Z</time>
      </trkpt>
      <trkpt lat="46.43974" lon="4.49903">
        <ele>330.571</ele>
        <time>2020-06-07T09:51:41Z</time>
      </trkpt>
      <trkpt lat="46.43982" lon="4.49906">
        <ele>331.571</ele>
        <time>2020-06-07T09:51:48Z</time>
      </trkpt>
      <trkpt lat="46.43988" lon="4.49908">
        <ele>331.571</ele>
        <time>2020-06-07T09:51:53Z</time>
      </trkpt>
      <trkpt lat="46.43996" lon="4.4991">
        <ele>332.571</ele>
        <time>2020-06-07T09:52:00Z</time>
      </trkpt>
      <trkpt lat="46.44002" lon="4.49914">
        <ele>331.571</ele>
        <time>2020-06-07T09:52:06Z</time>
      </trkpt>
      <trkpt lat="46.44009" lon="4.49916">
        <ele>331.571</ele>
        <time>2020-06-07T09:52:13Z</time>
      </trkpt>
      <trkpt lat="46.44016" lon="4.49917">
        <ele>333.571</ele>
        <time>2020-06-07T09:52:19Z</time>
      </trkpt>
      <trkpt lat="46.44022" lon="4.4992">
        <ele>332.571</ele>
        <time>2020-06-07T09:52:25Z</time>
      </trkpt>
      <trkpt lat="46.44028" lon="4.4992">
        <ele>331.571</ele>
        <time>2020-06-07T09:52:32Z</time>
      </trkpt>
      <trkpt lat="46.44035" lon="4.49926">
        <ele>330.571</ele>
        <time>2020-06-07T09:52:38Z</time>
      </trkpt>
      <trkpt lat="46.44042" lon="4.49925">
        <ele>332.571</ele>
        <time>2020-06-07T09:52:47Z</time>
      </trkpt>
      <trkpt lat="46.44047" lon="4.49931">
        <ele>333.571</ele>
        <time>2020-06-07T09:52:57Z</time>
      </trkpt>
      <trkpt lat="46.44053" lon="4.49938">
        <ele>336.571</ele>
        <time>2020-06-07T09:53:02Z</time>
      </trkpt>
      <trkpt lat="46.44058" lon="4.49946">
        <ele>338.571</ele>
        <time>2020-06-07T09:53:07Z</time>
      </trkpt>
      <trkpt lat="46.44063" lon="4.49952">
        <ele>338.571</ele>
        <time>2020-06-07T09:53:13Z</time>
      </trkpt>
      <trkpt lat="46.44068" lon="4.49958">
        <ele>339.571</ele>
        <time>2020-06-07T09:53:18Z</time>
      </trkpt>
      <trkpt lat="46.44073" lon="4.49964">
        <ele>341.571</ele>
        <time>2020-06-07T09:53:23Z</time>
      </trkpt>
      <trkpt lat="46.4408" lon="4.4997">
        <ele>341.571</ele>
        <time>2020-06-07T09:53:29Z</time>
      </trkpt>
      <trkpt lat="46.44084" lon="4.49979">
        <ele>341.571</ele>
        <time>2020-06-07T09:53:35Z</time>
      </trkpt>
      <trkpt lat="46.4409" lon="4.49985">
        <ele>344.571</ele>
        <time>2020-06-07T09:53:41Z</time>
      </trkpt>
      <trkpt lat="46.44094" lon="4.49994">
        <ele>344.571</ele>
        <time>2020-06-07T09:53:47Z</time>
      </trkpt>
      <trkpt lat="46.441" lon="4.5">
        <ele>343.571</ele>
        <time>2020-06-07T09:53:55Z</time>
      </trkpt>
      <trkpt lat="46.44106" lon="4.50007">
        <ele>345.571</ele>
        <time>2020-06-07T09:54:01Z</time>
      </trkpt>
      <trkpt lat="46.4411" lon="4.50015">
        <ele>346.571</ele>
        <time>2020-06-07T09:54:06Z</time>
      </trkpt>
      <trkpt lat="46.44117" lon="4.50019">
        <ele>348.571</ele>
        <time>2020-06-07T09:54:12Z</time>
      </trkpt>
      <trkpt lat="46.44124" lon="4.50026">
        <ele>348.571</ele>
        <time>2020-06-07T09:54:17Z</time>
      </trkpt>
      <trkpt lat="46.4413" lon="4.50033">
        <ele>348.571</ele>
        <time>2020-06-07T09:54:23Z</time>
      </trkpt>
      <trkpt lat="46.44134" lon="4.5004">
        <ele>351.571</ele>
        <time>2020-06-07T09:54:28Z</time>
      </trkpt>
      <trkpt lat="46.4414" lon="4.50047">
        <ele>350.571</ele>
        <time>2020-06-07T09:54:33Z</time>
      </trkpt>
      <trkpt lat="46.44146" lon="4.50052">
        <ele>349.571</ele>
        <time>2020-06-07T09:54:38Z</time>
      </trkpt>
      <trkpt lat="46.44153" lon="4.50056">
        <ele>349.571</ele>
        <time>2020-06-07T09:54:44Z</time>
      </trkpt>
      <trkpt lat="46.4416" lon="4.5006">
        <ele>348.571</ele>
        <time>2020-06-07T09:54:50Z</time>
      </trkpt>
      <trkpt lat="46.44166" lon="4.50063">
        <ele>348.572</ele>
        <time>2020-06-07T09:54:55Z</time>
      </trkpt>
      <trkpt lat="46.44173" lon="4.50065">
        <ele>348.572</ele>
        <time>2020-06-07T09:55:00Z</time>
      </trkpt>
      <trkpt lat="46.4418" lon="4.50067">
        <ele>346.572</ele>
        <time>2020-06-07T09:55:06Z</time>
      </trkpt>
      <trkpt lat="46.44186" lon="4.50071">
        <ele>348.572</ele>
        <time>2020-06-07T09:55:12Z</time>
      </trkpt>
      <trkpt lat="46.44192" lon="4.50077">
        <ele>349.572</ele>
        <time>2020-06-07T09:55:18Z</time>
      </trkpt>
      <trkpt lat="46.44199" lon="4.50082">
        <ele>348.572</ele>
        <time>2020-06-07T09:55:23Z</time>
      </trkpt>
      <trkpt lat="46.44206" lon="4.50085">
        <ele>350.572</ele>
        <time>2020-06-07T09:55:29Z</time>
      </trkpt>
      <trkpt lat="46.44213" lon="4.50091">
        <ele>351.572</ele>
        <time>2020-06-07T09:55:34Z</time>
      </trkpt>
      <trkpt lat="46.4422" lon="4.50092">
        <ele>349.572</ele>
        <time>2020-06-07T09:55:40Z</time>
      </trkpt>
      <trkpt lat="46.44227" lon="4.50088">
        <ele>347.572</ele>
        <time>2020-06-07T09:55:46Z</time>
      </trkpt>
      <trkpt lat="46.44233" lon="4.50085">
        <ele>347.572</ele>
        <time>2020-06-07T09:55:51Z</time>
      </trkpt>
      <trkpt lat="46.4424" lon="4.50085">
        <ele>349.572</ele>
        <time>2020-06-07T09:55:58Z</time>
      </trkpt>
      <trkpt lat="46.44246" lon="4.50088">
        <ele>350.572</ele>
        <time>2020-06-07T09:56:03Z</time>
      </trkpt>
      <trkpt lat="46.44252" lon="4.50095">
        <ele>351.572</ele>
        <time>2020-06-07T09:56:08Z</time>
      </trkpt>
      <trkpt lat="46.44258" lon="4.50102">
        <ele>352.572</ele>
        <time>2020-06-07T09:56:14Z</time>
      </trkpt>
      <trkpt lat="46.44262" lon="4.5011">
        <ele>353.572</ele>
        <time>2020-06-07T09:56:19Z</time>
      </trkpt>
      <trkpt lat="46.44263" lon="4.5012">
        <ele>353.572</ele>
        <time>2020-06-07T09:56:24Z</time>
      </trkpt>
      <trkpt lat="46.44264" lon="4.5013">
        <ele>353.572</ele>
        <time>2020-06-07T09:56:29Z</time>
      </trkpt>
      <trkpt lat="46.44266" lon="4.5014">
        <ele>354.572</ele>
        <time>2020-06-07T09:56:35Z</time>
      </trkpt>
      <trkpt lat="46.44266" lon="4.50149">
        <ele>355.572</ele>
        <time>2020-06-07T09:56:40Z</time>
      </trkpt>
      <trkpt lat="46.44267" lon="4.50161">
        <ele>354.572</ele>
        <time>2020-06-07T09:56:45Z</time>
      </trkpt>
      <trkpt lat="46.44271" lon="4.50171">
        <ele>354.572</ele>
        <time>2020-06-07T09:56:51Z</time>
      </trkpt>
      <trkpt lat="46.44273" lon="4.5018">
        <ele>354.572</ele>
        <time>2020-06-07T09:56:56Z</time>
      </trkpt>
      <trkpt lat="46.44274" lon="4.50191">
        <ele>354.572</ele>
        <time>2020-06-07T09:57:02Z</time>
      </trkpt>
      <trkpt lat="46.44276" lon="4.50201">
        <ele>355.572</ele>
        <time>2020-06-07T09:57:07Z</time>
      </trkpt>
      <trkpt lat="46.44277" lon="4.50212">
        <ele>353.572</ele>
        <time>2020-06-07T09:57:13Z</time>
      </trkpt>
      <trkpt lat="46.44278" lon="4.50224">
        <ele>355.572</ele>
        <time>2020-06-07T09:57:18Z</time>
      </trkpt>
      <trkpt lat="46.4428" lon="4.50233">
        <ele>356.572</ele>
        <time>2020-06-07T09:57:24Z</time>
      </trkpt>
      <trkpt lat="46.44281" lon="4.50243">
        <ele>356.572</ele>
        <time>2020-06-07T09:57:31Z</time>
      </trkpt>
      <trkpt lat="46.44282" lon="4.50255">
        <ele>357.572</ele>
        <time>2020-06-07T09:57:37Z</time>
      </trkpt>
      <trkpt lat="46.44285" lon="4.50264">
        <ele>358.572</ele>
        <time>2020-06-07T09:57:42Z</time>
      </trkpt>
      <trkpt lat="46.44285" lon="4.50276">
        <ele>357.572</ele>
        <time>2020-06-07T09:57:48Z</time>
      </trkpt>
      <trkpt lat="46.44287" lon="4.50286">
        <ele>356.572</ele>
        <time>2020-06-07T09:57:53Z</time>
      </trkpt>
      <trkpt lat="46.4429" lon="4.50297">
        <ele>356.572</ele>
        <time>2020-06-07T09:57:59Z</time>
      </trkpt>
      <trkpt lat="46.44292" lon="4.50306">
        <ele>355.572</ele>
        <time>2020-06-07T09:58:04Z</time>
      </trkpt>
      <trkpt lat="46.44295" lon="4.50317">
        <ele>355.572</ele>
        <time>2020-06-07T09:58:11Z</time>
      </trkpt>
      <trkpt lat="46.44298" lon="4.50325">
        <ele>356.572</ele>
        <time>2020-06-07T09:58:16Z</time>
      </trkpt>
      <trkpt lat="46.44302" lon="4.50333">
        <ele>354.572</ele>
        <time>2020-06-07T09:58:22Z</time>
      </trkpt>
      <trkpt lat="46.44308" lon="4.50337">
        <ele>353.572</ele>
        <time>2020-06-07T09:58:28Z</time>
      </trkpt>
      <trkpt lat="46.44314" lon="4.50345">
        <ele>355.572</ele>
        <time>2020-06-07T09:58:33Z</time>
      </trkpt>
      <trkpt lat="46.44321" lon="4.5035">
        <ele>354.572</ele>
        <time>2020-06-07T09:58:38Z</time>
      </trkpt>
      <trkpt lat="46.44328" lon="4.50351">
        <ele>353.572</ele>
        <time>2020-06-07T09:58:43Z</time>
      </trkpt>
      <trkpt lat="46.44335" lon="4.50355">
        <ele>351.572</ele>
        <time>2020-06-07T09:58:48Z</time>
      </trkpt>
      <trkpt lat="46.44342" lon="4.50355">
        <ele>350.572</ele>
        <time>2020-06-07T09:58:53Z</time>
      </trkpt>
      <trkpt lat="46.44348" lon="4.50356">
        <ele>349.572</ele>
        <time>2020-06-07T09:58:58Z</time>
      </trkpt>
      <trkpt lat="46.44356" lon="4.50356">
        <ele>347.572</ele>
        <time>2020-06-07T09:59:04Z</time>
      </trkpt>
      <trkpt lat="46.44364" lon="4.5036">
        <ele>348.572</ele>
        <time>2020-06-07T09:59:09Z</time>
      </trkpt>
      <trkpt lat="46.44371" lon="4.50364">
        <ele>347.572</ele>
        <time>2020-06-07T09:59:14Z</time>
      </trkpt>
      <trkpt lat="46.44378" lon="4.50367">
        <ele>347.572</ele>
        <time>2020-06-07T09:59:19Z</time>
      </trkpt>
      <trkpt lat="46.44386" lon="4.50369">
        <ele>347.572</ele>
        <time>2020-06-07T09:59:24Z</time>
      </trkpt>
      <trkpt lat="46.44394" lon="4.50372">
        <ele>347.572</ele>
        <time>2020-06-07T09:59:29Z</time>
      </trkpt>
      <trkpt lat="46.44401" lon="4.50374">
        <ele>347.572</ele>
        <time>2020-06-07T09:59:34Z</time>
      </trkpt>
      <trkpt lat="46.44408" lon="4.50379">
        <ele>347.572</ele>
        <time>2020-06-07T09:59:39Z</time>
      </trkpt>
      <trkpt lat="46.44414" lon="4.50383">
        <ele>346.572</ele>
        <time>2020-06-07T09:59:44Z</time>
      </trkpt>
      <trkpt lat="46.4442" lon="4.50387">
        <ele>345.572</ele>
        <time>2020-06-07T09:59:49Z</time>
      </trkpt>
      <trkpt lat="46.44426" lon="4.50394">
        <ele>344.572</ele>
        <time>2020-06-07T09:59:54Z</time>
      </trkpt>
      <trkpt lat="46.44432" lon="4.50404">
        <ele>344.573</ele>
        <time>2020-06-07T09:59:59Z</time>
      </trkpt>
      <trkpt lat="46.44435" lon="4.50413">
        <ele>343.573</ele>
        <time>2020-06-07T10:00:04Z</time>
      </trkpt>
      <trkpt lat="46.44436" lon="4.50423">
        <ele>343.573</ele>
        <time>2020-06-07T10:00:09Z</time>
      </trkpt>
      <trkpt lat="46.44439" lon="4.50431">
        <ele>343.573</ele>
        <time>2020-06-07T10:00:14Z</time>
      </trkpt>
      <trkpt lat="46.4444" lon="4.50443">
        <ele>342.573</ele>
        <time>2020-06-07T10:00:19Z</time>
      </trkpt>
      <trkpt lat="46.4444" lon="4.50454">
        <ele>342.573</ele>
        <time>2020-06-07T10:00:24Z</time>
      </trkpt>
      <trkpt lat="46.44441" lon="4.50465">
        <ele>342.573</ele>
        <time>2020-06-07T10:00:29Z</time>
      </trkpt>
      <trkpt lat="46.44441" lon="4.50476">
        <ele>340.573</ele>
        <time>2020-06-07T10:00:34Z</time>
      </trkpt>
      <trkpt lat="46.44443" lon="4.50486">
        <ele>340.573</ele>
        <time>2020-06-07T10:00:39Z</time>
      </trkpt>
      <trkpt lat="46.44445" lon="4.50497">
        <ele>340.573</ele>
        <time>2020-06-07T10:00:44Z</time>
      </trkpt>
      <trkpt lat="46.44448" lon="4.50505">
        <ele>339.573</ele>
        <time>2020-06-07T10:00:49Z</time>
      </trkpt>
      <trkpt lat="46.44452" lon="4.50516">
        <ele>339.573</ele>
        <time>2020-06-07T10:00:54Z</time>
      </trkpt>
      <trkpt lat="46.44456" lon="4.50525">
        <ele>338.573</ele>
        <time>2020-06-07T10:00:59Z</time>
      </trkpt>
      <trkpt lat="46.44461" lon="4.50532">
        <ele>338.573</ele>
        <time>2020-06-07T10:01:04Z</time>
      </trkpt>
      <trkpt lat="46.44467" lon="4.50539">
        <ele>337.573</ele>
        <time>2020-06-07T10:01:09Z</time>
      </trkpt>
      <trkpt lat="46.44472" lon="4.50546">
        <ele>337.573</ele>
        <time>2020-06-07T10:01:14Z</time>
      </trkpt>
      <trkpt lat="46.44476" lon="4.50553">
        <ele>336.573</ele>
        <time>2020-06-07T10:01:19Z</time>
      </trkpt>
      <trkpt lat="46.4448" lon="4.50563">
        <ele>336.573</ele>
        <time>2020-06-07T10:01:24Z</time>
      </trkpt>
      <trkpt lat="46.44484" lon="4.50572">
        <ele>336.573</ele>
        <time>2020-06-07T10:01:29Z</time>
      </trkpt>
      <trkpt lat="46.44488" lon="4.5058">
        <ele>335.573</ele>
        <time>2020-06-07T10:01:34Z</time>
      </trkpt>
      <trkpt lat="46.44491" lon="4.50591">
        <ele>335.573</ele>
        <time>2020-06-07T10:01:39Z</time>
      </trkpt>
      <trkpt lat="46.44493" lon="4.50602">
        <ele>335.573</ele>
        <time>2020-06-07T10:01:44Z</time>
      </trkpt>
      <trkpt lat="46.44496" lon="4.50613">
        <ele>335.573</ele>
        <time>2020-06-07T10:01:49Z</time>
      </trkpt>
      <trkpt lat="46.44499" lon="4.50624">
        <ele>335.573</ele>
        <time>2020-06-07T10:01:54Z</time>
      </trkpt>
      <trkpt lat="46.44502" lon="4.50633">
        <ele>336.573</ele>
        <time>2020-06-07T10:01:59Z</time>
      </trkpt>
      <trkpt lat="46.44505" lon="4.50643">
        <ele>335.573</ele>
        <time>2020-06-07T10:02:04Z</time>
      </trkpt>
      <trkpt lat="46.44508" lon="4.50652">
        <ele>335.573</ele>
        <time>2020-06-07T10:02:09Z</time>
      </trkpt>
      <trkpt lat="46.44509" lon="4.50664">
        <ele>336.573</ele>
        <time>2020-06-07T10:02:14Z</time>
      </trkpt>
      <trkpt lat="46.44513" lon="4.50673">
        <ele>336.573</ele>
        <time>2020-06-07T10:02:19Z</time>
      </trkpt>
      <trkpt lat="46.44516" lon="4.50684">
        <ele>337.573</ele>
        <time>2020-06-07T10:02:24Z</time>
      </trkpt>
      <trkpt lat="46.4452" lon="4.50694">
        <ele>338.573</ele>
        <time>2020-06-07T10:02:31Z</time>
      </trkpt>
      <trkpt lat="46.44522" lon="4.50705">
        <ele>338.573</ele>
        <time>2020-06-07T10:02:36Z</time>
      </trkpt>
      <trkpt lat="46.44524" lon="4.50717">
        <ele>334.573</ele>
        <time>2020-06-07T10:02:41Z</time>
      </trkpt>
      <trkpt lat="46.44525" lon="4.50727">
        <ele>332.573</ele>
        <time>2020-06-07T10:02:46Z</time>
      </trkpt>
      <trkpt lat="46.44529" lon="4.50735">
        <ele>332.573</ele>
        <time>2020-06-07T10:02:51Z</time>
      </trkpt>
      <trkpt lat="46.44529" lon="4.50744">
        <ele>329.573</ele>
        <time>2020-06-07T10:02:58Z</time>
      </trkpt>
      <trkpt lat="46.44529" lon="4.50754">
        <ele>327.573</ele>
        <time>2020-06-07T10:03:03Z</time>
      </trkpt>
      <trkpt lat="46.44533" lon="4.50765">
        <ele>325.573</ele>
        <time>2020-06-07T10:03:09Z</time>
      </trkpt>
      <trkpt lat="46.44538" lon="4.50779">
        <ele>325.573</ele>
        <time>2020-06-07T10:03:14Z</time>
      </trkpt>
      <trkpt lat="46.44537" lon="4.50793">
        <ele>325.573</ele>
        <time>2020-06-07T10:03:19Z</time>
      </trkpt>
      <trkpt lat="46.44536" lon="4.50809">
        <ele>326.573</ele>
        <time>2020-06-07T10:03:24Z</time>
      </trkpt>
      <trkpt lat="46.44535" lon="4.50823">
        <ele>330.573</ele>
        <time>2020-06-07T10:03:29Z</time>
      </trkpt>
      <trkpt lat="46.44534" lon="4.50836">
        <ele>334.573</ele>
        <time>2020-06-07T10:03:34Z</time>
      </trkpt>
      <trkpt lat="46.44536" lon="4.50846">
        <ele>335.573</ele>
        <time>2020-06-07T10:03:40Z</time>
      </trkpt>
      <trkpt lat="46.44536" lon="4.50857">
        <ele>334.573</ele>
        <time>2020-06-07T10:03:45Z</time>
      </trkpt>
      <trkpt lat="46.44537" lon="4.50868">
        <ele>333.573</ele>
        <time>2020-06-07T10:03:50Z</time>
      </trkpt>
      <trkpt lat="46.44536" lon="4.50879">
        <ele>334.573</ele>
        <time>2020-06-07T10:03:55Z</time>
      </trkpt>
      <trkpt lat="46.44534" lon="4.50891">
        <ele>335.573</ele>
        <time>2020-06-07T10:04:00Z</time>
      </trkpt>
      <trkpt lat="46.4454" lon="4.50897">
        <ele>329.573</ele>
        <time>2020-06-07T10:04:06Z</time>
      </trkpt>
      <trkpt lat="46.44545" lon="4.50905">
        <ele>326.573</ele>
        <time>2020-06-07T10:04:11Z</time>
      </trkpt>
      <trkpt lat="46.4455" lon="4.50913">
        <ele>328.573</ele>
        <time>2020-06-07T10:04:18Z</time>
      </trkpt>
      <trkpt lat="46.44556" lon="4.50918">
        <ele>325.573</ele>
        <time>2020-06-07T10:04:24Z</time>
      </trkpt>
      <trkpt lat="46.44564" lon="4.50924">
        <ele>329.573</ele>
        <time>2020-06-07T10:04:30Z</time>
      </trkpt>
      <trkpt lat="46.44574" lon="4.5092">
        <ele>325.573</ele>
        <time>2020-06-07T10:04:35Z</time>
      </trkpt>
      <trkpt lat="46.44584" lon="4.50916">
        <ele>327.573</ele>
        <time>2020-06-07T10:04:40Z</time>
      </trkpt>
      <trkpt lat="46.44593" lon="4.50917">
        <ele>327.573</ele>
        <time>2020-06-07T10:04:45Z</time>
      </trkpt>
      <trkpt lat="46.44601" lon="4.50913">
        <ele>327.573</ele>
        <time>2020-06-07T10:04:50Z</time>
      </trkpt>
      <trkpt lat="46.44611" lon="4.50907">
        <ele>330.573</ele>
        <time>2020-06-07T10:04:55Z</time>
      </trkpt>
      <trkpt lat="46.44617" lon="4.50906">
        <ele>328.573</ele>
        <time>2020-06-07T10:05:00Z</time>
      </trkpt>
      <trkpt lat="46.44625" lon="4.50902">
        <ele>328.573</ele>
        <time>2020-06-07T10:05:06Z</time>
      </trkpt>
      <trkpt lat="46.44631" lon="4.50896">
        <ele>325.573</ele>
        <time>2020-06-07T10:05:12Z</time>
      </trkpt>
      <trkpt lat="46.44639" lon="4.50892">
        <ele>327.573</ele>
        <time>2020-06-07T10:05:17Z</time>
      </trkpt>
      <trkpt lat="46.44646" lon="4.50887">
        <ele>323.573</ele>
        <time>2020-06-07T10:05:23Z</time>
      </trkpt>
      <trkpt lat="46.44653" lon="4.50882">
        <ele>321.573</ele>
        <time>2020-06-07T10:05:28Z</time>
      </trkpt>
      <trkpt lat="46.4466" lon="4.50878">
        <ele>321.573</ele>
        <time>2020-06-07T10:05:34Z</time>
      </trkpt>
      <trkpt lat="46.44668" lon="4.50876">
        <ele>321.574</ele>
        <time>2020-06-07T10:05:39Z</time>
      </trkpt>
      <trkpt lat="46.44677" lon="4.50873">
        <ele>320.574</ele>
        <time>2020-06-07T10:05:44Z</time>
      </trkpt>
      <trkpt lat="46.44684" lon="4.50873">
        <ele>319.574</ele>
        <time>2020-06-07T10:05:49Z</time>
      </trkpt>
      <trkpt lat="46.44691" lon="4.50869">
        <ele>316.574</ele>
        <time>2020-06-07T10:05:54Z</time>
      </trkpt>
      <trkpt lat="46.44699" lon="4.5087">
        <ele>315.574</ele>
        <time>2020-06-07T10:06:00Z</time>
      </trkpt>
      <trkpt lat="46.44706" lon="4.50867">
        <ele>314.574</ele>
        <time>2020-06-07T10:06:05Z</time>
      </trkpt>
      <trkpt lat="46.44714" lon="4.50868">
        <ele>314.574</ele>
        <time>2020-06-07T10:06:10Z</time>
      </trkpt>
      <trkpt lat="46.44721" lon="4.50866">
        <ele>312.574</ele>
        <time>2020-06-07T10:06:15Z</time>
      </trkpt>
      <trkpt lat="46.44728" lon="4.50866">
        <ele>312.574</ele>
        <time>2020-06-07T10:06:20Z</time>
      </trkpt>
      <trkpt lat="46.44735" lon="4.50863">
        <ele>311.574</ele>
        <time>2020-06-07T10:06:25Z</time>
      </trkpt>
      <trkpt lat="46.44743" lon="4.50861">
        <ele>308.574</ele>
        <time>2020-06-07T10:06:31Z</time>
      </trkpt>
      <trkpt lat="46.44749" lon="4.5086">
        <ele>306.574</ele>
        <time>2020-06-07T10:06:36Z</time>
      </trkpt>
      <trkpt lat="46.44757" lon="4.50861">
        <ele>306.574</ele>
        <time>2020-06-07T10:06:41Z</time>
      </trkpt>
      <trkpt lat="46.44764" lon="4.50859">
        <ele>303.574</ele>
        <time>2020-06-07T10:06:47Z</time>
      </trkpt>
      <trkpt lat="46.44772" lon="4.5086">
        <ele>303.574</ele>
        <time>2020-06-07T10:06:52Z</time>
      </trkpt>
      <trkpt lat="46.4478" lon="4.50859">
        <ele>303.574</ele>
        <time>2020-06-07T10:06:58Z</time>
      </trkpt>
      <trkpt lat="46.44787" lon="4.50861">
        <ele>303.574</ele>
        <time>2020-06-07T10:07:04Z</time>
      </trkpt>
      <trkpt lat="46.44794" lon="4.5086">
        <ele>304.574</ele>
        <time>2020-06-07T10:07:09Z</time>
      </trkpt>
      <trkpt lat="46.44801" lon="4.50861">
        <ele>300.574</ele>
        <time>2020-06-07T10:07:14Z</time>
      </trkpt>
      <trkpt lat="46.44809" lon="4.50859">
        <ele>297.574</ele>
        <time>2020-06-07T10:07:20Z</time>
      </trkpt>
      <trkpt lat="46.44817" lon="4.50855">
        <ele>297.574</ele>
        <time>2020-06-07T10:07:25Z</time>
      </trkpt>
      <trkpt lat="46.44824" lon="4.50849">
        <ele>298.574</ele>
        <time>2020-06-07T10:07:30Z</time>
      </trkpt>
      <trkpt lat="46.44831" lon="4.50844">
        <ele>297.574</ele>
        <time>2020-06-07T10:07:35Z</time>
      </trkpt>
      <trkpt lat="46.44837" lon="4.50837">
        <ele>298.574</ele>
        <time>2020-06-07T10:07:41Z</time>
      </trkpt>
      <trkpt lat="46.44843" lon="4.50829">
        <ele>298.574</ele>
        <time>2020-06-07T10:07:46Z</time>
      </trkpt>
      <trkpt lat="46.44846" lon="4.50818">
        <ele>298.574</ele>
        <time>2020-06-07T10:07:51Z</time>
      </trkpt>
      <trkpt lat="46.4485" lon="4.5081">
        <ele>298.574</ele>
        <time>2020-06-07T10:07:56Z</time>
      </trkpt>
      <trkpt lat="46.44855" lon="4.50803">
        <ele>299.574</ele>
        <time>2020-06-07T10:08:01Z</time>
      </trkpt>
      <trkpt lat="46.44858" lon="4.50793">
        <ele>297.574</ele>
        <time>2020-06-07T10:08:06Z</time>
      </trkpt>
      <trkpt lat="46.44861" lon="4.50783">
        <ele>297.574</ele>
        <time>2020-06-07T10:08:11Z</time>
      </trkpt>
      <trkpt lat="46.44863" lon="4.50772">
        <ele>294.574</ele>
        <time>2020-06-07T10:08:16Z</time>
      </trkpt>
      <trkpt lat="46.44868" lon="4.50763">
        <ele>295.574</ele>
        <time>2020-06-07T10:08:22Z</time>
      </trkpt>
      <trkpt lat="46.44873" lon="4.50754">
        <ele>296.574</ele>
        <time>2020-06-07T10:08:27Z</time>
      </trkpt>
      <trkpt lat="46.44874" lon="4.50744">
        <ele>295.574</ele>
        <time>2020-06-07T10:08:32Z</time>
      </trkpt>
      <trkpt lat="46.44877" lon="4.50734">
        <ele>291.574</ele>
        <time>2020-06-07T10:08:37Z</time>
      </trkpt>
      <trkpt lat="46.44883" lon="4.50726">
        <ele>292.574</ele>
        <time>2020-06-07T10:08:43Z</time>
      </trkpt>
      <trkpt lat="46.44888" lon="4.50721">
        <ele>289.574</ele>
        <time>2020-06-07T10:08:48Z</time>
      </trkpt>
      <trkpt lat="46.44895" lon="4.50713">
        <ele>288.574</ele>
        <time>2020-06-07T10:08:53Z</time>
      </trkpt>
      <trkpt lat="46.44903" lon="4.50707">
        <ele>289.574</ele>
        <time>2020-06-07T10:08:58Z</time>
      </trkpt>
      <trkpt lat="46.4491" lon="4.50705">
        <ele>289.574</ele>
        <time>2020-06-07T10:09:04Z</time>
      </trkpt>
      <trkpt lat="46.44917" lon="4.50702">
        <ele>290.574</ele>
        <time>2020-06-07T10:09:09Z</time>
      </trkpt>
      <trkpt lat="46.44926" lon="4.50698">
        <ele>291.574</ele>
        <time>2020-06-07T10:09:14Z</time>
      </trkpt>
      <trkpt lat="46.44934" lon="4.50698">
        <ele>290.574</ele>
        <time>2020-06-07T10:09:19Z</time>
      </trkpt>
      <trkpt lat="46.44941" lon="4.50701">
        <ele>291.574</ele>
        <time>2020-06-07T10:09:25Z</time>
      </trkpt>
      <trkpt lat="46.4495" lon="4.50704">
        <ele>290.574</ele>
        <time>2020-06-07T10:09:30Z</time>
      </trkpt>
      <trkpt lat="46.44956" lon="4.50709">
        <ele>291.574</ele>
        <time>2020-06-07T10:09:35Z</time>
      </trkpt>
      <trkpt lat="46.44962" lon="4.50715">
        <ele>293.574</ele>
        <time>2020-06-07T10:09:41Z</time>
      </trkpt>
      <trkpt lat="46.44968" lon="4.50722">
        <ele>294.574</ele>
        <time>2020-06-07T10:09:46Z</time>
      </trkpt>
      <trkpt lat="46.44972" lon="4.50732">
        <ele>295.574</ele>
        <time>2020-06-07T10:09:51Z</time>
      </trkpt>
      <trkpt lat="46.44976" lon="4.5074">
        <ele>296.574</ele>
        <time>2020-06-07T10:09:56Z</time>
      </trkpt>
      <trkpt lat="46.44979" lon="4.5075">
        <ele>297.574</ele>
        <time>2020-06-07T10:10:02Z</time>
      </trkpt>
      <trkpt lat="46.44981" lon="4.50759">
        <ele>297.574</ele>
        <time>2020-06-07T10:10:07Z</time>
      </trkpt>
      <trkpt lat="46.44987" lon="4.50765">
        <ele>296.574</ele>
        <time>2020-06-07T10:10:14Z</time>
      </trkpt>
      <trkpt lat="46.44987" lon="4.50774">
        <ele>297.574</ele>
        <time>2020-06-07T10:10:19Z</time>
      </trkpt>
      <trkpt lat="46.44989" lon="4.50785">
        <ele>296.574</ele>
        <time>2020-06-07T10:10:26Z</time>
      </trkpt>
      <trkpt lat="46.44988" lon="4.50796">
        <ele>297.574</ele>
        <time>2020-06-07T10:10:32Z</time>
      </trkpt>
      <trkpt lat="46.44984" lon="4.50811">
        <ele>298.574</ele>
        <time>2020-06-07T10:10:37Z</time>
      </trkpt>
      <trkpt lat="46.44978" lon="4.50822">
        <ele>299.574</ele>
        <time>2020-06-07T10:10:42Z</time>
      </trkpt>
      <trkpt lat="46.44981" lon="4.5083">
        <ele>297.574</ele>
        <time>2020-06-07T10:10:45Z</time>
      </trkpt>
      <trkpt lat="46.44981" lon="4.50841">
        <ele>296.574</ele>
        <time>2020-06-07T10:10:52Z</time>
      </trkpt>
      <trkpt lat="46.44982" lon="4.5085">
        <ele>298.574</ele>
        <time>2020-06-07T10:10:57Z</time>
      </trkpt>
      <trkpt lat="46.44983" lon="4.5086">
        <ele>300.574</ele>
        <time>2020-06-07T10:11:03Z</time>
      </trkpt>
      <trkpt lat="46.44984" lon="4.50871">
        <ele>300.574</ele>
        <time>2020-06-07T10:11:09Z</time>
      </trkpt>
      <trkpt lat="46.44982" lon="4.50881">
        <ele>301.574</ele>
        <time>2020-06-07T10:11:15Z</time>
      </trkpt>
      <trkpt lat="46.4498" lon="4.50894">
        <ele>303.574</ele>
        <time>2020-06-07T10:11:20Z</time>
      </trkpt>
      <trkpt lat="46.44979" lon="4.50904">
        <ele>299.574</ele>
        <time>2020-06-07T10:11:26Z</time>
      </trkpt>
      <trkpt lat="46.44977" lon="4.50914">
        <ele>299.574</ele>
        <time>2020-06-07T10:11:31Z</time>
      </trkpt>
      <trkpt lat="46.44976" lon="4.50924">
        <ele>300.574</ele>
        <time>2020-06-07T10:11:36Z</time>
      </trkpt>
      <trkpt lat="46.44976" lon="4.50935">
        <ele>300.574</ele>
        <time>2020-06-07T10:11:42Z</time>
      </trkpt>
      <trkpt lat="46.44979" lon="4.50943">
        <ele>302.574</ele>
        <time>2020-06-07T10:11:48Z</time>
      </trkpt>
      <trkpt lat="46.44985" lon="4.50939">
        <ele>303.574</ele>
        <time>2020-06-07T10:11:53Z</time>
      </trkpt>
      <trkpt lat="46.44992" lon="4.50939">
        <ele>302.574</ele>
        <time>2020-06-07T10:12:00Z</time>
      </trkpt>
      <trkpt lat="46.44997" lon="4.50947">
        <ele>303.574</ele>
        <time>2020-06-07T10:12:07Z</time>
      </trkpt>
      <trkpt lat="46.45" lon="4.50957">
        <ele>303.574</ele>
        <time>2020-06-07T10:12:14Z</time>
      </trkpt>
      <trkpt lat="46.45003" lon="4.50966">
        <ele>305.575</ele>
        <time>2020-06-07T10:12:20Z</time>
      </trkpt>
      <trkpt lat="46.45005" lon="4.50975">
        <ele>305.575</ele>
        <time>2020-06-07T10:12:27Z</time>
      </trkpt>
      <trkpt lat="46.45008" lon="4.50985">
        <ele>305.575</ele>
        <time>2020-06-07T10:12:34Z</time>
      </trkpt>
      <trkpt lat="46.45009" lon="4.50995">
        <ele>306.575</ele>
        <time>2020-06-07T10:12:40Z</time>
      </trkpt>
      <trkpt lat="46.45014" lon="4.51003">
        <ele>306.575</ele>
        <time>2020-06-07T10:12:47Z</time>
      </trkpt>
      <trkpt lat="46.45018" lon="4.5101">
        <ele>306.575</ele>
        <time>2020-06-07T10:12:55Z</time>
      </trkpt>
      <trkpt lat="46.45019" lon="4.51022">
        <ele>308.575</ele>
        <time>2020-06-07T10:13:02Z</time>
      </trkpt>
      <trkpt lat="46.4502" lon="4.51032">
        <ele>308.575</ele>
        <time>2020-06-07T10:13:09Z</time>
      </trkpt>
      <trkpt lat="46.45023" lon="4.5104">
        <ele>309.575</ele>
        <time>2020-06-07T10:13:16Z</time>
      </trkpt>
      <trkpt lat="46.45026" lon="4.5105">
        <ele>312.575</ele>
        <time>2020-06-07T10:13:23Z</time>
      </trkpt>
      <trkpt lat="46.4503" lon="4.51059">
        <ele>311.575</ele>
        <time>2020-06-07T10:13:32Z</time>
      </trkpt>
      <trkpt lat="46.45037" lon="4.51063">
        <ele>314.575</ele>
        <time>2020-06-07T10:13:40Z</time>
      </trkpt>
      <trkpt lat="46.45041" lon="4.5107">
        <ele>315.575</ele>
        <time>2020-06-07T10:13:46Z</time>
      </trkpt>
      <trkpt lat="46.45044" lon="4.51081">
        <ele>315.575</ele>
        <time>2020-06-07T10:13:53Z</time>
      </trkpt>
      <trkpt lat="46.45047" lon="4.51089">
        <ele>314.575</ele>
        <time>2020-06-07T10:14:00Z</time>
      </trkpt>
      <trkpt lat="46.45051" lon="4.51099">
        <ele>318.575</ele>
        <time>2020-06-07T10:14:08Z</time>
      </trkpt>
      <trkpt lat="46.45055" lon="4.51107">
        <ele>318.575</ele>
        <time>2020-06-07T10:14:14Z</time>
      </trkpt>
      <trkpt lat="46.4506" lon="4.51116">
        <ele>316.575</ele>
        <time>2020-06-07T10:14:21Z</time>
      </trkpt>
      <trkpt lat="46.45062" lon="4.51125">
        <ele>319.575</ele>
        <time>2020-06-07T10:14:27Z</time>
      </trkpt>
      <trkpt lat="46.45067" lon="4.51133">
        <ele>317.575</ele>
        <time>2020-06-07T10:14:33Z</time>
      </trkpt>
      <trkpt lat="46.45069" lon="4.51142">
        <ele>321.575</ele>
        <time>2020-06-07T10:14:40Z</time>
      </trkpt>
      <trkpt lat="46.45075" lon="4.51146">
        <ele>316.575</ele>
        <time>2020-06-07T10:14:47Z</time>
      </trkpt>
      <trkpt lat="46.45078" lon="4.51154">
        <ele>318.575</ele>
        <time>2020-06-07T10:14:55Z</time>
      </trkpt>
      <trkpt lat="46.45083" lon="4.51161">
        <ele>315.575</ele>
        <time>2020-06-07T10:15:03Z</time>
      </trkpt>
      <trkpt lat="46.45088" lon="4.51167">
        <ele>317.575</ele>
        <time>2020-06-07T10:15:10Z</time>
      </trkpt>
      <trkpt lat="46.45095" lon="4.51174">
        <ele>318.575</ele>
        <time>2020-06-07T10:15:18Z</time>
      </trkpt>
      <trkpt lat="46.45101" lon="4.5118">
        <ele>321.575</ele>
        <time>2020-06-07T10:15:28Z</time>
      </trkpt>
      <trkpt lat="46.45106" lon="4.51186">
        <ele>321.575</ele>
        <time>2020-06-07T10:15:34Z</time>
      </trkpt>
      <trkpt lat="46.45112" lon="4.51193">
        <ele>324.575</ele>
        <time>2020-06-07T10:15:40Z</time>
      </trkpt>
      <trkpt lat="46.45117" lon="4.512">
        <ele>327.575</ele>
        <time>2020-06-07T10:15:45Z</time>
      </trkpt>
      <trkpt lat="46.45124" lon="4.51209">
        <ele>327.575</ele>
        <time>2020-06-07T10:15:53Z</time>
      </trkpt>
      <trkpt lat="46.45128" lon="4.51217">
        <ele>329.575</ele>
        <time>2020-06-07T10:16:00Z</time>
      </trkpt>
      <trkpt lat="46.45133" lon="4.51224">
        <ele>329.575</ele>
        <time>2020-06-07T10:16:07Z</time>
      </trkpt>
      <trkpt lat="46.45139" lon="4.51229">
        <ele>328.575</ele>
        <time>2020-06-07T10:16:12Z</time>
      </trkpt>
      <trkpt lat="46.45146" lon="4.5123">
        <ele>331.575</ele>
        <time>2020-06-07T10:16:19Z</time>
      </trkpt>
      <trkpt lat="46.45153" lon="4.51235">
        <ele>329.575</ele>
        <time>2020-06-07T10:16:26Z</time>
      </trkpt>
      <trkpt lat="46.45158" lon="4.51243">
        <ele>332.575</ele>
        <time>2020-06-07T10:16:31Z</time>
      </trkpt>
      <trkpt lat="46.45164" lon="4.51246">
        <ele>330.575</ele>
        <time>2020-06-07T10:16:38Z</time>
      </trkpt>
      <trkpt lat="46.4517" lon="4.5125">
        <ele>331.575</ele>
        <time>2020-06-07T10:16:43Z</time>
      </trkpt>
      <trkpt lat="46.45177" lon="4.51253">
        <ele>330.575</ele>
        <time>2020-06-07T10:16:48Z</time>
      </trkpt>
      <trkpt lat="46.45184" lon="4.51259">
        <ele>331.575</ele>
        <time>2020-06-07T10:16:55Z</time>
      </trkpt>
      <trkpt lat="46.4519" lon="4.51264">
        <ele>330.575</ele>
        <time>2020-06-07T10:17:01Z</time>
      </trkpt>
      <trkpt lat="46.45197" lon="4.51265">
        <ele>329.575</ele>
        <time>2020-06-07T10:17:06Z</time>
      </trkpt>
      <trkpt lat="46.45203" lon="4.51271">
        <ele>329.575</ele>
        <time>2020-06-07T10:17:12Z</time>
      </trkpt>
      <trkpt lat="46.4521" lon="4.51274">
        <ele>331.575</ele>
        <time>2020-06-07T10:17:19Z</time>
      </trkpt>
      <trkpt lat="46.45217" lon="4.51273">
        <ele>334.575</ele>
        <time>2020-06-07T10:17:24Z</time>
      </trkpt>
      <trkpt lat="46.45225" lon="4.51274">
        <ele>336.575</ele>
        <time>2020-06-07T10:17:31Z</time>
      </trkpt>
      <trkpt lat="46.45232" lon="4.51272">
        <ele>336.575</ele>
        <time>2020-06-07T10:17:36Z</time>
      </trkpt>
      <trkpt lat="46.4524" lon="4.51274">
        <ele>335.575</ele>
        <time>2020-06-07T10:17:44Z</time>
      </trkpt>
      <trkpt lat="46.45247" lon="4.51271">
        <ele>335.575</ele>
        <time>2020-06-07T10:17:50Z</time>
      </trkpt>
      <trkpt lat="46.45254" lon="4.51272">
        <ele>337.575</ele>
        <time>2020-06-07T10:17:56Z</time>
      </trkpt>
      <trkpt lat="46.45261" lon="4.5127">
        <ele>335.575</ele>
        <time>2020-06-07T10:18:01Z</time>
      </trkpt>
      <trkpt lat="46.45269" lon="4.5127">
        <ele>335.575</ele>
        <time>2020-06-07T10:18:06Z</time>
      </trkpt>
      <trkpt lat="46.45278" lon="4.5127">
        <ele>335.575</ele>
        <time>2020-06-07T10:18:11Z</time>
      </trkpt>
      <trkpt lat="46.45285" lon="4.51268">
        <ele>333.576</ele>
        <time>2020-06-07T10:18:17Z</time>
      </trkpt>
      <trkpt lat="46.45292" lon="4.51267">
        <ele>333.576</ele>
        <time>2020-06-07T10:18:22Z</time>
      </trkpt>
      <trkpt lat="46.45299" lon="4.51269">
        <ele>333.576</ele>
        <time>2020-06-07T10:18:27Z</time>
      </trkpt>
      <trkpt lat="46.45305" lon="4.51273">
        <ele>332.576</ele>
        <time>2020-06-07T10:18:32Z</time>
      </trkpt>
      <trkpt lat="46.45311" lon="4.51278">
        <ele>334.576</ele>
        <time>2020-06-07T10:18:37Z</time>
      </trkpt>
      <trkpt lat="46.45319" lon="4.51285">
        <ele>334.576</ele>
        <time>2020-06-07T10:18:42Z</time>
      </trkpt>
      <trkpt lat="46.45327" lon="4.51289">
        <ele>334.576</ele>
        <time>2020-06-07T10:18:47Z</time>
      </trkpt>
      <trkpt lat="46.45334" lon="4.51291">
        <ele>336.576</ele>
        <time>2020-06-07T10:18:52Z</time>
      </trkpt>
      <trkpt lat="46.45341" lon="4.51293">
        <ele>336.576</ele>
        <time>2020-06-07T10:18:58Z</time>
      </trkpt>
      <trkpt lat="46.45348" lon="4.51295">
        <ele>334.576</ele>
        <time>2020-06-07T10:19:04Z</time>
      </trkpt>
      <trkpt lat="46.45356" lon="4.51296">
        <ele>332.576</ele>
        <time>2020-06-07T10:19:09Z</time>
      </trkpt>
      <trkpt lat="46.45363" lon="4.51295">
        <ele>331.576</ele>
        <time>2020-06-07T10:19:14Z</time>
      </trkpt>
      <trkpt lat="46.45371" lon="4.51293">
        <ele>330.576</ele>
        <time>2020-06-07T10:19:22Z</time>
      </trkpt>
      <trkpt lat="46.45377" lon="4.51289">
        <ele>333.576</ele>
        <time>2020-06-07T10:19:27Z</time>
      </trkpt>
      <trkpt lat="46.45385" lon="4.5129">
        <ele>333.576</ele>
        <time>2020-06-07T10:19:33Z</time>
      </trkpt>
      <trkpt lat="46.45392" lon="4.51291">
        <ele>334.576</ele>
        <time>2020-06-07T10:19:38Z</time>
      </trkpt>
      <trkpt lat="46.45401" lon="4.51293">
        <ele>335.576</ele>
        <time>2020-06-07T10:19:43Z</time>
      </trkpt>
      <trkpt lat="46.45408" lon="4.51298">
        <ele>336.576</ele>
        <time>2020-06-07T10:19:48Z</time>
      </trkpt>
      <trkpt lat="46.45415" lon="4.51304">
        <ele>337.576</ele>
        <time>2020-06-07T10:19:53Z</time>
      </trkpt>
      <trkpt lat="46.45421" lon="4.51307">
        <ele>335.576</ele>
        <time>2020-06-07T10:19:59Z</time>
      </trkpt>
      <trkpt lat="46.45427" lon="4.51312">
        <ele>336.576</ele>
        <time>2020-06-07T10:20:05Z</time>
      </trkpt>
      <trkpt lat="46.45433" lon="4.51319">
        <ele>338.576</ele>
        <time>2020-06-07T10:20:10Z</time>
      </trkpt>
      <trkpt lat="46.45437" lon="4.51328">
        <ele>338.576</ele>
        <time>2020-06-07T10:20:15Z</time>
      </trkpt>
      <trkpt lat="46.45442" lon="4.51335">
        <ele>340.576</ele>
        <time>2020-06-07T10:20:20Z</time>
      </trkpt>
      <trkpt lat="46.45448" lon="4.51341">
        <ele>340.576</ele>
        <time>2020-06-07T10:20:25Z</time>
      </trkpt>
      <trkpt lat="46.45455" lon="4.51347">
        <ele>341.576</ele>
        <time>2020-06-07T10:20:31Z</time>
      </trkpt>
      <trkpt lat="46.45461" lon="4.51353">
        <ele>343.576</ele>
        <time>2020-06-07T10:20:36Z</time>
      </trkpt>
      <trkpt lat="46.45467" lon="4.51361">
        <ele>344.576</ele>
        <time>2020-06-07T10:20:42Z</time>
      </trkpt>
      <trkpt lat="46.45473" lon="4.51365">
        <ele>344.576</ele>
        <time>2020-06-07T10:20:47Z</time>
      </trkpt>
      <trkpt lat="46.4548" lon="4.51366">
        <ele>345.576</ele>
        <time>2020-06-07T10:20:52Z</time>
      </trkpt>
      <trkpt lat="46.45486" lon="4.5137">
        <ele>345.576</ele>
        <time>2020-06-07T10:20:57Z</time>
      </trkpt>
      <trkpt lat="46.45493" lon="4.5137">
        <ele>344.576</ele>
        <time>2020-06-07T10:21:02Z</time>
      </trkpt>
      <trkpt lat="46.45501" lon="4.51371">
        <ele>345.576</ele>
        <time>2020-06-07T10:21:07Z</time>
      </trkpt>
      <trkpt lat="46.45508" lon="4.51367">
        <ele>347.576</ele>
        <time>2020-06-07T10:21:12Z</time>
      </trkpt>
      <trkpt lat="46.45516" lon="4.51369">
        <ele>346.576</ele>
        <time>2020-06-07T10:21:17Z</time>
      </trkpt>
      <trkpt lat="46.45523" lon="4.51367">
        <ele>348.576</ele>
        <time>2020-06-07T10:21:22Z</time>
      </trkpt>
      <trkpt lat="46.4553" lon="4.51365">
        <ele>348.576</ele>
        <time>2020-06-07T10:21:29Z</time>
      </trkpt>
      <trkpt lat="46.45537" lon="4.51362">
        <ele>349.576</ele>
        <time>2020-06-07T10:21:34Z</time>
      </trkpt>
      <trkpt lat="46.45543" lon="4.51357">
        <ele>348.576</ele>
        <time>2020-06-07T10:21:39Z</time>
      </trkpt>
      <trkpt lat="46.45549" lon="4.5135">
        <ele>348.576</ele>
        <time>2020-06-07T10:21:44Z</time>
      </trkpt>
      <trkpt lat="46.45555" lon="4.51345">
        <ele>348.576</ele>
        <time>2020-06-07T10:21:50Z</time>
      </trkpt>
      <trkpt lat="46.45562" lon="4.51338">
        <ele>346.576</ele>
        <time>2020-06-07T10:21:56Z</time>
      </trkpt>
      <trkpt lat="46.45568" lon="4.51332">
        <ele>346.576</ele>
        <time>2020-06-07T10:22:01Z</time>
      </trkpt>
      <trkpt lat="46.45577" lon="4.5133">
        <ele>346.576</ele>
        <time>2020-06-07T10:22:06Z</time>
      </trkpt>
      <trkpt lat="46.45585" lon="4.51328">
        <ele>345.576</ele>
        <time>2020-06-07T10:22:11Z</time>
      </trkpt>
      <trkpt lat="46.4559" lon="4.51322">
        <ele>347.576</ele>
        <time>2020-06-07T10:22:17Z</time>
      </trkpt>
      <trkpt lat="46.45597" lon="4.51321">
        <ele>348.576</ele>
        <time>2020-06-07T10:22:25Z</time>
      </trkpt>
      <trkpt lat="46.45604" lon="4.51316">
        <ele>349.576</ele>
        <time>2020-06-07T10:22:30Z</time>
      </trkpt>
      <trkpt lat="46.45611" lon="4.51314">
        <ele>348.576</ele>
        <time>2020-06-07T10:22:35Z</time>
      </trkpt>
      <trkpt lat="46.45618" lon="4.51312">
        <ele>346.576</ele>
        <time>2020-06-07T10:22:45Z</time>
      </trkpt>
      <trkpt lat="46.45628" lon="4.51313">
        <ele>349.576</ele>
        <time>2020-06-07T10:22:50Z</time>
      </trkpt>
      <trkpt lat="46.45636" lon="4.51313">
        <ele>346.577</ele>
        <time>2020-06-07T10:22:56Z</time>
      </trkpt>
      <trkpt lat="46.45644" lon="4.51314">
        <ele>347.577</ele>
        <time>2020-06-07T10:23:03Z</time>
      </trkpt>
      <trkpt lat="46.4565" lon="4.51319">
        <ele>345.577</ele>
        <time>2020-06-07T10:23:09Z</time>
      </trkpt>
      <trkpt lat="46.45655" lon="4.51327">
        <ele>345.577</ele>
        <time>2020-06-07T10:23:14Z</time>
      </trkpt>
      <trkpt lat="46.45659" lon="4.51337">
        <ele>347.577</ele>
        <time>2020-06-07T10:23:19Z</time>
      </trkpt>
      <trkpt lat="46.45664" lon="4.51348">
        <ele>347.577</ele>
        <time>2020-06-07T10:23:24Z</time>
      </trkpt>
      <trkpt lat="46.45667" lon="4.51358">
        <ele>348.577</ele>
        <time>2020-06-07T10:23:29Z</time>
      </trkpt>
      <trkpt lat="46.45673" lon="4.51366">
        <ele>348.577</ele>
        <time>2020-06-07T10:23:34Z</time>
      </trkpt>
      <trkpt lat="46.45679" lon="4.51372">
        <ele>349.577</ele>
        <time>2020-06-07T10:23:39Z</time>
      </trkpt>
      <trkpt lat="46.45686" lon="4.51383">
        <ele>351.577</ele>
        <time>2020-06-07T10:23:44Z</time>
      </trkpt>
      <trkpt lat="46.45692" lon="4.5139">
        <ele>353.577</ele>
        <time>2020-06-07T10:23:50Z</time>
      </trkpt>
      <trkpt lat="46.45697" lon="4.51399">
        <ele>353.577</ele>
        <time>2020-06-07T10:23:56Z</time>
      </trkpt>
      <trkpt lat="46.45701" lon="4.5141">
        <ele>351.577</ele>
        <time>2020-06-07T10:24:01Z</time>
      </trkpt>
      <trkpt lat="46.45705" lon="4.51419">
        <ele>352.577</ele>
        <time>2020-06-07T10:24:06Z</time>
      </trkpt>
      <trkpt lat="46.4571" lon="4.51427">
        <ele>350.577</ele>
        <time>2020-06-07T10:24:11Z</time>
      </trkpt>
      <trkpt lat="46.45715" lon="4.51435">
        <ele>349.577</ele>
        <time>2020-06-07T10:24:17Z</time>
      </trkpt>
      <trkpt lat="46.45719" lon="4.51442">
        <ele>346.577</ele>
        <time>2020-06-07T10:24:22Z</time>
      </trkpt>
      <trkpt lat="46.45724" lon="4.5145">
        <ele>345.577</ele>
        <time>2020-06-07T10:24:27Z</time>
      </trkpt>
      <trkpt lat="46.4573" lon="4.51456">
        <ele>344.577</ele>
        <time>2020-06-07T10:24:32Z</time>
      </trkpt>
      <trkpt lat="46.45736" lon="4.51461">
        <ele>342.577</ele>
        <time>2020-06-07T10:24:37Z</time>
      </trkpt>
      <trkpt lat="46.45743" lon="4.51465">
        <ele>341.577</ele>
        <time>2020-06-07T10:24:43Z</time>
      </trkpt>
      <trkpt lat="46.45748" lon="4.51473">
        <ele>341.577</ele>
        <time>2020-06-07T10:24:48Z</time>
      </trkpt>
      <trkpt lat="46.45754" lon="4.5148">
        <ele>339.577</ele>
        <time>2020-06-07T10:24:54Z</time>
      </trkpt>
      <trkpt lat="46.45758" lon="4.5149">
        <ele>341.577</ele>
        <time>2020-06-07T10:24:59Z</time>
      </trkpt>
      <trkpt lat="46.45763" lon="4.51498">
        <ele>340.577</ele>
        <time>2020-06-07T10:25:04Z</time>
      </trkpt>
      <trkpt lat="46.45769" lon="4.51503">
        <ele>339.577</ele>
        <time>2020-06-07T10:25:10Z</time>
      </trkpt>
      <trkpt lat="46.45775" lon="4.51509">
        <ele>337.577</ele>
        <time>2020-06-07T10:25:16Z</time>
      </trkpt>
      <trkpt lat="46.45783" lon="4.51514">
        <ele>336.577</ele>
        <time>2020-06-07T10:25:21Z</time>
      </trkpt>
      <trkpt lat="46.45789" lon="4.51517">
        <ele>334.577</ele>
        <time>2020-06-07T10:25:26Z</time>
      </trkpt>
      <trkpt lat="46.45797" lon="4.5152">
        <ele>335.577</ele>
        <time>2020-06-07T10:25:32Z</time>
      </trkpt>
      <trkpt lat="46.45803" lon="4.51523">
        <ele>335.577</ele>
        <time>2020-06-07T10:25:37Z</time>
      </trkpt>
      <trkpt lat="46.45814" lon="4.51525">
        <ele>332.577</ele>
        <time>2020-06-07T10:25:42Z</time>
      </trkpt>
      <trkpt lat="46.45821" lon="4.51527">
        <ele>335.577</ele>
        <time>2020-06-07T10:25:47Z</time>
      </trkpt>
      <trkpt lat="46.45828" lon="4.51533">
        <ele>333.577</ele>
        <time>2020-06-07T10:25:53Z</time>
      </trkpt>
      <trkpt lat="46.45834" lon="4.51538">
        <ele>330.577</ele>
        <time>2020-06-07T10:25:58Z</time>
      </trkpt>
      <trkpt lat="46.45841" lon="4.51541">
        <ele>330.577</ele>
        <time>2020-06-07T10:26:04Z</time>
      </trkpt>
      <trkpt lat="46.45848" lon="4.51547">
        <ele>330.577</ele>
        <time>2020-06-07T10:26:09Z</time>
      </trkpt>
      <trkpt lat="46.45853" lon="4.51552">
        <ele>326.577</ele>
        <time>2020-06-07T10:26:15Z</time>
      </trkpt>
      <trkpt lat="46.4586" lon="4.51557">
        <ele>326.577</ele>
        <time>2020-06-07T10:26:20Z</time>
      </trkpt>
      <trkpt lat="46.45868" lon="4.51562">
        <ele>327.577</ele>
        <time>2020-06-07T10:26:26Z</time>
      </trkpt>
      <trkpt lat="46.45874" lon="4.51573">
        <ele>326.577</ele>
        <time>2020-06-07T10:26:31Z</time>
      </trkpt>
      <trkpt lat="46.45881" lon="4.51578">
        <ele>327.577</ele>
        <time>2020-06-07T10:26:36Z</time>
      </trkpt>
      <trkpt lat="46.45888" lon="4.51581">
        <ele>328.577</ele>
        <time>2020-06-07T10:26:41Z</time>
      </trkpt>
      <trkpt lat="46.45897" lon="4.51581">
        <ele>324.577</ele>
        <time>2020-06-07T10:26:46Z</time>
      </trkpt>
      <trkpt lat="46.45903" lon="4.51585">
        <ele>322.577</ele>
        <time>2020-06-07T10:26:51Z</time>
      </trkpt>
      <trkpt lat="46.45909" lon="4.51588">
        <ele>322.577</ele>
        <time>2020-06-07T10:26:58Z</time>
      </trkpt>
      <trkpt lat="46.45916" lon="4.51593">
        <ele>327.577</ele>
        <time>2020-06-07T10:27:04Z</time>
      </trkpt>
      <trkpt lat="46.45924" lon="4.51599">
        <ele>332.578</ele>
        <time>2020-06-07T10:27:09Z</time>
      </trkpt>
      <trkpt lat="46.45932" lon="4.51602">
        <ele>333.578</ele>
        <time>2020-06-07T10:27:16Z</time>
      </trkpt>
      <trkpt lat="46.45938" lon="4.51611">
        <ele>330.578</ele>
        <time>2020-06-07T10:27:21Z</time>
      </trkpt>
      <trkpt lat="46.45945" lon="4.51614">
        <ele>329.578</ele>
        <time>2020-06-07T10:27:26Z</time>
      </trkpt>
      <trkpt lat="46.45952" lon="4.51617">
        <ele>329.578</ele>
        <time>2020-06-07T10:27:31Z</time>
      </trkpt>
      <trkpt lat="46.4596" lon="4.51618">
        <ele>327.578</ele>
        <time>2020-06-07T10:27:36Z</time>
      </trkpt>
      <trkpt lat="46.45967" lon="4.51616">
        <ele>320.578</ele>
        <time>2020-06-07T10:27:41Z</time>
      </trkpt>
      <trkpt lat="46.45975" lon="4.5162">
        <ele>318.578</ele>
        <time>2020-06-07T10:27:46Z</time>
      </trkpt>
      <trkpt lat="46.45984" lon="4.51622">
        <ele>317.578</ele>
        <time>2020-06-07T10:27:51Z</time>
      </trkpt>
      <trkpt lat="46.45989" lon="4.5163">
        <ele>317.578</ele>
        <time>2020-06-07T10:27:58Z</time>
      </trkpt>
      <trkpt lat="46.45995" lon="4.51635">
        <ele>316.578</ele>
        <time>2020-06-07T10:28:03Z</time>
      </trkpt>
      <trkpt lat="46.46004" lon="4.51636">
        <ele>317.578</ele>
        <time>2020-06-07T10:28:09Z</time>
      </trkpt>
      <trkpt lat="46.46011" lon="4.51641">
        <ele>316.578</ele>
        <time>2020-06-07T10:28:15Z</time>
      </trkpt>
      <trkpt lat="46.46017" lon="4.51643">
        <ele>315.578</ele>
        <time>2020-06-07T10:28:21Z</time>
      </trkpt>
      <trkpt lat="46.46024" lon="4.51648">
        <ele>314.578</ele>
        <time>2020-06-07T10:28:27Z</time>
      </trkpt>
      <trkpt lat="46.46032" lon="4.51652">
        <ele>315.578</ele>
        <time>2020-06-07T10:28:32Z</time>
      </trkpt>
      <trkpt lat="46.4604" lon="4.51648">
        <ele>310.578</ele>
        <time>2020-06-07T10:28:37Z</time>
      </trkpt>
      <trkpt lat="46.46047" lon="4.51648">
        <ele>306.578</ele>
        <time>2020-06-07T10:28:42Z</time>
      </trkpt>
      <trkpt lat="46.46054" lon="4.51653">
        <ele>306.578</ele>
        <time>2020-06-07T10:28:47Z</time>
      </trkpt>
      <trkpt lat="46.4606" lon="4.51655">
        <ele>304.578</ele>
        <time>2020-06-07T10:28:53Z</time>
      </trkpt>
      <trkpt lat="46.46067" lon="4.51659">
        <ele>305.578</ele>
        <time>2020-06-07T10:28:59Z</time>
      </trkpt>
      <trkpt lat="46.46074" lon="4.51659">
        <ele>303.578</ele>
        <time>2020-06-07T10:29:04Z</time>
      </trkpt>
      <trkpt lat="46.46083" lon="4.51662">
        <ele>303.578</ele>
        <time>2020-06-07T10:29:09Z</time>
      </trkpt>
      <trkpt lat="46.46089" lon="4.51665">
        <ele>305.578</ele>
        <time>2020-06-07T10:29:15Z</time>
      </trkpt>
      <trkpt lat="46.46096" lon="4.51668">
        <ele>304.578</ele>
        <time>2020-06-07T10:29:20Z</time>
      </trkpt>
      <trkpt lat="46.46103" lon="4.51671">
        <ele>302.578</ele>
        <time>2020-06-07T10:29:25Z</time>
      </trkpt>
      <trkpt lat="46.4611" lon="4.51674">
        <ele>303.578</ele>
        <time>2020-06-07T10:29:30Z</time>
      </trkpt>
      <trkpt lat="46.46117" lon="4.51677">
        <ele>302.578</ele>
        <time>2020-06-07T10:29:41Z</time>
      </trkpt>
      <trkpt lat="46.46128" lon="4.51681">
        <ele>295.578</ele>
        <time>2020-06-07T10:29:46Z</time>
      </trkpt>
      <trkpt lat="46.46135" lon="4.51683">
        <ele>297.578</ele>
        <time>2020-06-07T10:29:51Z</time>
      </trkpt>
      <trkpt lat="46.4614" lon="4.51691">
        <ele>301.578</ele>
        <time>2020-06-07T10:29:56Z</time>
      </trkpt>
      <trkpt lat="46.46148" lon="4.51696">
        <ele>302.578</ele>
        <time>2020-06-07T10:30:01Z</time>
      </trkpt>
      <trkpt lat="46.46153" lon="4.51705">
        <ele>302.578</ele>
        <time>2020-06-07T10:30:06Z</time>
      </trkpt>
      <trkpt lat="46.46159" lon="4.5171">
        <ele>297.578</ele>
        <time>2020-06-07T10:30:11Z</time>
      </trkpt>
      <trkpt lat="46.46164" lon="4.51718">
        <ele>294.578</ele>
        <time>2020-06-07T10:30:16Z</time>
      </trkpt>
      <trkpt lat="46.46171" lon="4.51721">
        <ele>292.578</ele>
        <time>2020-06-07T10:30:21Z</time>
      </trkpt>
      <trkpt lat="46.46179" lon="4.51722">
        <ele>291.578</ele>
        <time>2020-06-07T10:30:27Z</time>
      </trkpt>
      <trkpt lat="46.46185" lon="4.51721">
        <ele>293.578</ele>
        <time>2020-06-07T10:30:32Z</time>
      </trkpt>
      <trkpt lat="46.46193" lon="4.51723">
        <ele>292.578</ele>
        <time>2020-06-07T10:30:37Z</time>
      </trkpt>
      <trkpt lat="46.46201" lon="4.51722">
        <ele>292.578</ele>
        <time>2020-06-07T10:30:42Z</time>
      </trkpt>
      <trkpt lat="46.46208" lon="4.51723">
        <ele>292.578</ele>
        <time>2020-06-07T10:30:47Z</time>
      </trkpt>
      <trkpt lat="46.46216" lon="4.51718">
        <ele>290.578</ele>
        <time>2020-06-07T10:30:52Z</time>
      </trkpt>
      <trkpt lat="46.46222" lon="4.51713">
        <ele>290.578</ele>
        <time>2020-06-07T10:30:57Z</time>
      </trkpt>
      <trkpt lat="46.46228" lon="4.51709">
        <ele>292.578</ele>
        <time>2020-06-07T10:31:03Z</time>
      </trkpt>
      <trkpt lat="46.46234" lon="4.51704">
        <ele>293.578</ele>
        <time>2020-06-07T10:31:09Z</time>
      </trkpt>
      <trkpt lat="46.46241" lon="4.51696">
        <ele>296.578</ele>
        <time>2020-06-07T10:31:15Z</time>
      </trkpt>
      <trkpt lat="46.46246" lon="4.5169">
        <ele>296.578</ele>
        <time>2020-06-07T10:31:24Z</time>
      </trkpt>
      <trkpt lat="46.46253" lon="4.51682">
        <ele>297.578</ele>
        <time>2020-06-07T10:31:32Z</time>
      </trkpt>
      <trkpt lat="46.46259" lon="4.51677">
        <ele>299.579</ele>
        <time>2020-06-07T10:31:41Z</time>
      </trkpt>
      <trkpt lat="46.46266" lon="4.51672">
        <ele>300.579</ele>
        <time>2020-06-07T10:31:46Z</time>
      </trkpt>
      <trkpt lat="46.46272" lon="4.51664">
        <ele>302.579</ele>
        <time>2020-06-07T10:31:52Z</time>
      </trkpt>
      <trkpt lat="46.46278" lon="4.51661">
        <ele>302.579</ele>
        <time>2020-06-07T10:31:58Z</time>
      </trkpt>
      <trkpt lat="46.46285" lon="4.51655">
        <ele>301.579</ele>
        <time>2020-06-07T10:32:03Z</time>
      </trkpt>
      <trkpt lat="46.46293" lon="4.51649">
        <ele>303.579</ele>
        <time>2020-06-07T10:32:08Z</time>
      </trkpt>
      <trkpt lat="46.46302" lon="4.51646">
        <ele>306.579</ele>
        <time>2020-06-07T10:32:13Z</time>
      </trkpt>
      <trkpt lat="46.46308" lon="4.51641">
        <ele>307.579</ele>
        <time>2020-06-07T10:32:18Z</time>
      </trkpt>
      <trkpt lat="46.46315" lon="4.51637">
        <ele>309.579</ele>
        <time>2020-06-07T10:32:25Z</time>
      </trkpt>
      <trkpt lat="46.4632" lon="4.51631">
        <ele>309.579</ele>
        <time>2020-06-07T10:32:31Z</time>
      </trkpt>
      <trkpt lat="46.46327" lon="4.51626">
        <ele>311.579</ele>
        <time>2020-06-07T10:32:37Z</time>
      </trkpt>
      <trkpt lat="46.46333" lon="4.51625">
        <ele>317.579</ele>
        <time>2020-06-07T10:32:47Z</time>
      </trkpt>
      <trkpt lat="46.46341" lon="4.51618">
        <ele>319.579</ele>
        <time>2020-06-07T10:32:54Z</time>
      </trkpt>
      <trkpt lat="46.46346" lon="4.51613">
        <ele>317.579</ele>
        <time>2020-06-07T10:33:01Z</time>
      </trkpt>
      <trkpt lat="46.46353" lon="4.51612">
        <ele>318.579</ele>
        <time>2020-06-07T10:33:06Z</time>
      </trkpt>
      <trkpt lat="46.46359" lon="4.51607">
        <ele>320.579</ele>
        <time>2020-06-07T10:33:11Z</time>
      </trkpt>
      <trkpt lat="46.46366" lon="4.51608">
        <ele>320.579</ele>
        <time>2020-06-07T10:33:20Z</time>
      </trkpt>
      <trkpt lat="46.46375" lon="4.51607">
        <ele>318.579</ele>
        <time>2020-06-07T10:33:25Z</time>
      </trkpt>
      <trkpt lat="46.46387" lon="4.51604">
        <ele>319.579</ele>
        <time>2020-06-07T10:33:30Z</time>
      </trkpt>
      <trkpt lat="46.46394" lon="4.51605">
        <ele>320.579</ele>
        <time>2020-06-07T10:33:35Z</time>
      </trkpt>
      <trkpt lat="46.46401" lon="4.51601">
        <ele>321.579</ele>
        <time>2020-06-07T10:33:40Z</time>
      </trkpt>
      <trkpt lat="46.46407" lon="4.51595">
        <ele>324.579</ele>
        <time>2020-06-07T10:33:46Z</time>
      </trkpt>
      <trkpt lat="46.46413" lon="4.5159">
        <ele>325.579</ele>
        <time>2020-06-07T10:33:54Z</time>
      </trkpt>
      <trkpt lat="46.46419" lon="4.51587">
        <ele>322.579</ele>
        <time>2020-06-07T10:33:59Z</time>
      </trkpt>
      <trkpt lat="46.46424" lon="4.51579">
        <ele>323.579</ele>
        <time>2020-06-07T10:34:05Z</time>
      </trkpt>
      <trkpt lat="46.46431" lon="4.51574">
        <ele>321.579</ele>
        <time>2020-06-07T10:34:11Z</time>
      </trkpt>
      <trkpt lat="46.46437" lon="4.51567">
        <ele>320.579</ele>
        <time>2020-06-07T10:34:16Z</time>
      </trkpt>
      <trkpt lat="46.46446" lon="4.51565">
        <ele>318.579</ele>
        <time>2020-06-07T10:34:21Z</time>
      </trkpt>
      <trkpt lat="46.46453" lon="4.51565">
        <ele>321.579</ele>
        <time>2020-06-07T10:34:26Z</time>
      </trkpt>
      <trkpt lat="46.4646" lon="4.51565">
        <ele>322.579</ele>
        <time>2020-06-07T10:34:32Z</time>
      </trkpt>
      <trkpt lat="46.46468" lon="4.51561">
        <ele>319.579</ele>
        <time>2020-06-07T10:34:39Z</time>
      </trkpt>
      <trkpt lat="46.46477" lon="4.51561">
        <ele>319.579</ele>
        <time>2020-06-07T10:34:44Z</time>
      </trkpt>
      <trkpt lat="46.46484" lon="4.51557">
        <ele>314.579</ele>
        <time>2020-06-07T10:34:49Z</time>
      </trkpt>
      <trkpt lat="46.46491" lon="4.51553">
        <ele>316.579</ele>
        <time>2020-06-07T10:34:54Z</time>
      </trkpt>
      <trkpt lat="46.46501" lon="4.51549">
        <ele>316.579</ele>
        <time>2020-06-07T10:34:59Z</time>
      </trkpt>
      <trkpt lat="46.46512" lon="4.51546">
        <ele>321.579</ele>
        <time>2020-06-07T10:35:04Z</time>
      </trkpt>
      <trkpt lat="46.46517" lon="4.5154">
        <ele>319.579</ele>
        <time>2020-06-07T10:35:10Z</time>
      </trkpt>
      <trkpt lat="46.46523" lon="4.51533">
        <ele>319.579</ele>
        <time>2020-06-07T10:35:16Z</time>
      </trkpt>
      <trkpt lat="46.46529" lon="4.51525">
        <ele>319.579</ele>
        <time>2020-06-07T10:35:22Z</time>
      </trkpt>
      <trkpt lat="46.46535" lon="4.51521">
        <ele>319.579</ele>
        <time>2020-06-07T10:35:28Z</time>
      </trkpt>
      <trkpt lat="46.46541" lon="4.51515">
        <ele>314.579</ele>
        <time>2020-06-07T10:35:34Z</time>
      </trkpt>
      <trkpt lat="46.46548" lon="4.51513">
        <ele>313.579</ele>
        <time>2020-06-07T10:35:40Z</time>
      </trkpt>
      <trkpt lat="46.46555" lon="4.51509">
        <ele>317.579</ele>
        <time>2020-06-07T10:35:47Z</time>
      </trkpt>
      <trkpt lat="46.46562" lon="4.51511">
        <ele>309.579</ele>
        <time>2020-06-07T10:35:52Z</time>
      </trkpt>
      <trkpt lat="46.46568" lon="4.51518">
        <ele>308.579</ele>
        <time>2020-06-07T10:35:57Z</time>
      </trkpt>
      <trkpt lat="46.46575" lon="4.51519">
        <ele>311.579</ele>
        <time>2020-06-07T10:36:02Z</time>
      </trkpt>
      <trkpt lat="46.46583" lon="4.5152">
        <ele>311.579</ele>
        <time>2020-06-07T10:36:07Z</time>
      </trkpt>
      <trkpt lat="46.46592" lon="4.51519">
        <ele>311.579</ele>
        <time>2020-06-07T10:36:13Z</time>
      </trkpt>
      <trkpt lat="46.46599" lon="4.51519">
        <ele>309.579</ele>
        <time>2020-06-07T10:36:18Z</time>
      </trkpt>
      <trkpt lat="46.46606" lon="4.51519">
        <ele>306.579</ele>
        <time>2020-06-07T10:36:25Z</time>
      </trkpt>
      <trkpt lat="46.46612" lon="4.51523">
        <ele>306.579</ele>
        <time>2020-06-07T10:36:31Z</time>
      </trkpt>
      <trkpt lat="46.4662" lon="4.51527">
        <ele>310.579</ele>
        <time>2020-06-07T10:36:36Z</time>
      </trkpt>
      <trkpt lat="46.46627" lon="4.51527">
        <ele>308.579</ele>
        <time>2020-06-07T10:36:44Z</time>
      </trkpt>
      <trkpt lat="46.46634" lon="4.51529">
        <ele>308.579</ele>
        <time>2020-06-07T10:36:49Z</time>
      </trkpt>
      <trkpt lat="46.46642" lon="4.51529">
        <ele>305.579</ele>
        <time>2020-06-07T10:36:56Z</time>
      </trkpt>
      <trkpt lat="46.46648" lon="4.51526">
        <ele>304.579</ele>
        <time>2020-06-07T10:37:01Z</time>
      </trkpt>
      <trkpt lat="46.46659" lon="4.51527">
        <ele>302.579</ele>
        <time>2020-06-07T10:37:06Z</time>
      </trkpt>
      <trkpt lat="46.46668" lon="4.51529">
        <ele>302.58</ele>
        <time>2020-06-07T10:37:11Z</time>
      </trkpt>
      <trkpt lat="46.46674" lon="4.51534">
        <ele>302.58</ele>
        <time>2020-06-07T10:37:17Z</time>
      </trkpt>
      <trkpt lat="46.46681" lon="4.51532">
        <ele>302.58</ele>
        <time>2020-06-07T10:37:22Z</time>
      </trkpt>
      <trkpt lat="46.46687" lon="4.51536">
        <ele>298.58</ele>
        <time>2020-06-07T10:37:27Z</time>
      </trkpt>
      <trkpt lat="46.46695" lon="4.51541">
        <ele>298.58</ele>
        <time>2020-06-07T10:37:32Z</time>
      </trkpt>
      <trkpt lat="46.46702" lon="4.5154">
        <ele>299.58</ele>
        <time>2020-06-07T10:37:37Z</time>
      </trkpt>
      <trkpt lat="46.4671" lon="4.51542">
        <ele>294.58</ele>
        <time>2020-06-07T10:37:43Z</time>
      </trkpt>
      <trkpt lat="46.46717" lon="4.51545">
        <ele>292.58</ele>
        <time>2020-06-07T10:37:48Z</time>
      </trkpt>
      <trkpt lat="46.46725" lon="4.51544">
        <ele>290.58</ele>
        <time>2020-06-07T10:37:53Z</time>
      </trkpt>
      <trkpt lat="46.46732" lon="4.51543">
        <ele>287.58</ele>
        <time>2020-06-07T10:37:59Z</time>
      </trkpt>
      <trkpt lat="46.46739" lon="4.51544">
        <ele>286.58</ele>
        <time>2020-06-07T10:38:04Z</time>
      </trkpt>
      <trkpt lat="46.46747" lon="4.51547">
        <ele>284.58</ele>
        <time>2020-06-07T10:38:10Z</time>
      </trkpt>
      <trkpt lat="46.46753" lon="4.51549">
        <ele>281.58</ele>
        <time>2020-06-07T10:38:15Z</time>
      </trkpt>
      <trkpt lat="46.4676" lon="4.51544">
        <ele>281.58</ele>
        <time>2020-06-07T10:38:20Z</time>
      </trkpt>
      <trkpt lat="46.46767" lon="4.51543">
        <ele>280.58</ele>
        <time>2020-06-07T10:38:25Z</time>
      </trkpt>
      <trkpt lat="46.46773" lon="4.51546">
        <ele>281.58</ele>
        <time>2020-06-07T10:38:31Z</time>
      </trkpt>
      <trkpt lat="46.46779" lon="4.5155">
        <ele>281.58</ele>
        <time>2020-06-07T10:38:36Z</time>
      </trkpt>
      <trkpt lat="46.46786" lon="4.51553">
        <ele>279.58</ele>
        <time>2020-06-07T10:38:42Z</time>
      </trkpt>
      <trkpt lat="46.46793" lon="4.51555">
        <ele>280.58</ele>
        <time>2020-06-07T10:38:48Z</time>
      </trkpt>
      <trkpt lat="46.468" lon="4.51557">
        <ele>281.58</ele>
        <time>2020-06-07T10:38:53Z</time>
      </trkpt>
      <trkpt lat="46.46809" lon="4.51556">
        <ele>280.58</ele>
        <time>2020-06-07T10:38:58Z</time>
      </trkpt>
      <trkpt lat="46.46815" lon="4.5156">
        <ele>280.58</ele>
        <time>2020-06-07T10:39:04Z</time>
      </trkpt>
      <trkpt lat="46.46822" lon="4.51568">
        <ele>280.58</ele>
        <time>2020-06-07T10:39:09Z</time>
      </trkpt>
      <trkpt lat="46.46829" lon="4.51572">
        <ele>275.58</ele>
        <time>2020-06-07T10:39:15Z</time>
      </trkpt>
      <trkpt lat="46.46836" lon="4.5157">
        <ele>275.58</ele>
        <time>2020-06-07T10:39:22Z</time>
      </trkpt>
      <trkpt lat="46.46843" lon="4.51568">
        <ele>274.58</ele>
        <time>2020-06-07T10:39:27Z</time>
      </trkpt>
      <trkpt lat="46.4685" lon="4.51564">
        <ele>271.58</ele>
        <time>2020-06-07T10:39:33Z</time>
      </trkpt>
      <trkpt lat="46.46854" lon="4.51555">
        <ele>267.58</ele>
        <time>2020-06-07T10:39:38Z</time>
      </trkpt>
      <trkpt lat="46.4686" lon="4.51547">
        <ele>265.58</ele>
        <time>2020-06-07T10:39:43Z</time>
      </trkpt>
      <trkpt lat="46.46865" lon="4.51541">
        <ele>264.58</ele>
        <time>2020-06-07T10:39:49Z</time>
      </trkpt>
      <trkpt lat="46.46872" lon="4.51531">
        <ele>266.58</ele>
        <time>2020-06-07T10:39:54Z</time>
      </trkpt>
      <trkpt lat="46.46877" lon="4.51524">
        <ele>266.58</ele>
        <time>2020-06-07T10:40:01Z</time>
      </trkpt>
      <trkpt lat="46.46884" lon="4.51517">
        <ele>266.58</ele>
        <time>2020-06-07T10:40:06Z</time>
      </trkpt>
      <trkpt lat="46.4689" lon="4.51512">
        <ele>264.58</ele>
        <time>2020-06-07T10:40:11Z</time>
      </trkpt>
      <trkpt lat="46.46894" lon="4.51504">
        <ele>265.58</ele>
        <time>2020-06-07T10:40:16Z</time>
      </trkpt>
      <trkpt lat="46.46899" lon="4.51498">
        <ele>265.58</ele>
        <time>2020-06-07T10:40:26Z</time>
      </trkpt>
      <trkpt lat="46.46904" lon="4.51491">
        <ele>263.58</ele>
        <time>2020-06-07T10:40:31Z</time>
      </trkpt>
      <trkpt lat="46.46913" lon="4.51481">
        <ele>266.58</ele>
        <time>2020-06-07T10:40:36Z</time>
      </trkpt>
      <trkpt lat="46.4692" lon="4.51468">
        <ele>268.58</ele>
        <time>2020-06-07T10:40:41Z</time>
      </trkpt>
      <trkpt lat="46.46926" lon="4.51462">
        <ele>267.58</ele>
        <time>2020-06-07T10:40:46Z</time>
      </trkpt>
      <trkpt lat="46.46932" lon="4.51455">
        <ele>269.58</ele>
        <time>2020-06-07T10:40:52Z</time>
      </trkpt>
      <trkpt lat="46.46939" lon="4.51447">
        <ele>271.58</ele>
        <time>2020-06-07T10:40:57Z</time>
      </trkpt>
      <trkpt lat="46.46942" lon="4.51439">
        <ele>270.58</ele>
        <time>2020-06-07T10:41:04Z</time>
      </trkpt>
      <trkpt lat="46.46945" lon="4.51429">
        <ele>270.58</ele>
        <time>2020-06-07T10:41:11Z</time>
      </trkpt>
      <trkpt lat="46.46952" lon="4.51421">
        <ele>270.58</ele>
        <time>2020-06-07T10:41:16Z</time>
      </trkpt>
      <trkpt lat="46.4696" lon="4.51412">
        <ele>270.58</ele>
        <time>2020-06-07T10:41:21Z</time>
      </trkpt>
      <trkpt lat="46.46967" lon="4.51406">
        <ele>273.58</ele>
        <time>2020-06-07T10:41:26Z</time>
      </trkpt>
      <trkpt lat="46.46973" lon="4.51399">
        <ele>271.58</ele>
        <time>2020-06-07T10:41:31Z</time>
      </trkpt>
      <trkpt lat="46.4698" lon="4.51395">
        <ele>272.58</ele>
        <time>2020-06-07T10:41:36Z</time>
      </trkpt>
      <trkpt lat="46.46984" lon="4.51386">
        <ele>271.58</ele>
        <time>2020-06-07T10:41:42Z</time>
      </trkpt>
      <trkpt lat="46.46987" lon="4.51378">
        <ele>270.58</ele>
        <time>2020-06-07T10:41:47Z</time>
      </trkpt>
      <trkpt lat="46.46991" lon="4.51369">
        <ele>269.58</ele>
        <time>2020-06-07T10:41:53Z</time>
      </trkpt>
      <trkpt lat="46.46998" lon="4.51365">
        <ele>270.58</ele>
        <time>2020-06-07T10:41:58Z</time>
      </trkpt>
      <trkpt lat="46.47004" lon="4.51358">
        <ele>271.58</ele>
        <time>2020-06-07T10:42:03Z</time>
      </trkpt>
      <trkpt lat="46.47009" lon="4.51351">
        <ele>272.58</ele>
        <time>2020-06-07T10:42:09Z</time>
      </trkpt>
      <trkpt lat="46.47008" lon="4.51361">
        <ele>274.58</ele>
        <time>2020-06-07T10:42:30Z</time>
      </trkpt>
      <trkpt lat="46.47009" lon="4.51371">
        <ele>277.58</ele>
        <time>2020-06-07T10:42:35Z</time>
      </trkpt>
      <trkpt lat="46.47012" lon="4.51379">
        <ele>276.58</ele>
        <time>2020-06-07T10:42:42Z</time>
      </trkpt>
      <trkpt lat="46.47016" lon="4.51388">
        <ele>277.58</ele>
        <time>2020-06-07T10:42:47Z</time>
      </trkpt>
      <trkpt lat="46.4702" lon="4.51395">
        <ele>277.58</ele>
        <time>2020-06-07T10:42:54Z</time>
      </trkpt>
      <trkpt lat="46.47024" lon="4.51403">
        <ele>277.58</ele>
        <time>2020-06-07T10:42:59Z</time>
      </trkpt>
      <trkpt lat="46.4703" lon="4.51409">
        <ele>279.58</ele>
        <time>2020-06-07T10:43:05Z</time>
      </trkpt>
      <trkpt lat="46.47036" lon="4.51413">
        <ele>280.58</ele>
        <time>2020-06-07T10:43:11Z</time>
      </trkpt>
      <trkpt lat="46.47041" lon="4.51421">
        <ele>280.58</ele>
        <time>2020-06-07T10:43:18Z</time>
      </trkpt>
      <trkpt lat="46.47045" lon="4.5143">
        <ele>280.58</ele>
        <time>2020-06-07T10:43:24Z</time>
      </trkpt>
      <trkpt lat="46.4705" lon="4.51437">
        <ele>281.58</ele>
        <time>2020-06-07T10:43:30Z</time>
      </trkpt>
      <trkpt lat="46.47055" lon="4.51445">
        <ele>281.581</ele>
        <time>2020-06-07T10:43:36Z</time>
      </trkpt>
      <trkpt lat="46.47061" lon="4.51449">
        <ele>281.581</ele>
        <time>2020-06-07T10:43:42Z</time>
      </trkpt>
      <trkpt lat="46.47066" lon="4.51458">
        <ele>284.581</ele>
        <time>2020-06-07T10:43:48Z</time>
      </trkpt>
      <trkpt lat="46.47071" lon="4.51463">
        <ele>283.581</ele>
        <time>2020-06-07T10:43:54Z</time>
      </trkpt>
      <trkpt lat="46.47076" lon="4.5147">
        <ele>285.581</ele>
        <time>2020-06-07T10:43:59Z</time>
      </trkpt>
      <trkpt lat="46.4708" lon="4.51479">
        <ele>286.581</ele>
        <time>2020-06-07T10:44:04Z</time>
      </trkpt>
      <trkpt lat="46.47084" lon="4.51488">
        <ele>287.581</ele>
        <time>2020-06-07T10:44:10Z</time>
      </trkpt>
      <trkpt lat="46.47087" lon="4.51497">
        <ele>287.581</ele>
        <time>2020-06-07T10:44:15Z</time>
      </trkpt>
      <trkpt lat="46.47092" lon="4.51505">
        <ele>287.581</ele>
        <time>2020-06-07T10:44:20Z</time>
      </trkpt>
      <trkpt lat="46.47095" lon="4.51515">
        <ele>288.581</ele>
        <time>2020-06-07T10:44:26Z</time>
      </trkpt>
      <trkpt lat="46.47099" lon="4.51523">
        <ele>288.581</ele>
        <time>2020-06-07T10:44:32Z</time>
      </trkpt>
      <trkpt lat="46.471" lon="4.51533">
        <ele>292.581</ele>
        <time>2020-06-07T10:44:37Z</time>
      </trkpt>
      <trkpt lat="46.47106" lon="4.51541">
        <ele>292.581</ele>
        <time>2020-06-07T10:44:42Z</time>
      </trkpt>
      <trkpt lat="46.4711" lon="4.51551">
        <ele>293.581</ele>
        <time>2020-06-07T10:44:50Z</time>
      </trkpt>
      <trkpt lat="46.47113" lon="4.51559">
        <ele>295.581</ele>
        <time>2020-06-07T10:44:56Z</time>
      </trkpt>
      <trkpt lat="46.47118" lon="4.51565">
        <ele>294.581</ele>
        <time>2020-06-07T10:45:02Z</time>
      </trkpt>
      <trkpt lat="46.47125" lon="4.51571">
        <ele>295.581</ele>
        <time>2020-06-07T10:45:08Z</time>
      </trkpt>
      <trkpt lat="46.47129" lon="4.51581">
        <ele>297.581</ele>
        <time>2020-06-07T10:45:15Z</time>
      </trkpt>
      <trkpt lat="46.47135" lon="4.51585">
        <ele>300.581</ele>
        <time>2020-06-07T10:45:21Z</time>
      </trkpt>
      <trkpt lat="46.47141" lon="4.5159">
        <ele>298.581</ele>
        <time>2020-06-07T10:45:27Z</time>
      </trkpt>
      <trkpt lat="46.47148" lon="4.5159">
        <ele>300.581</ele>
        <time>2020-06-07T10:45:34Z</time>
      </trkpt>
      <trkpt lat="46.47154" lon="4.51595">
        <ele>300.581</ele>
        <time>2020-06-07T10:45:39Z</time>
      </trkpt>
      <trkpt lat="46.47161" lon="4.51599">
        <ele>299.581</ele>
        <time>2020-06-07T10:45:46Z</time>
      </trkpt>
      <trkpt lat="46.47167" lon="4.51604">
        <ele>302.581</ele>
        <time>2020-06-07T10:45:52Z</time>
      </trkpt>
      <trkpt lat="46.47175" lon="4.51603">
        <ele>300.581</ele>
        <time>2020-06-07T10:45:58Z</time>
      </trkpt>
      <trkpt lat="46.47181" lon="4.51607">
        <ele>300.581</ele>
        <time>2020-06-07T10:46:03Z</time>
      </trkpt>
      <trkpt lat="46.47189" lon="4.51609">
        <ele>301.581</ele>
        <time>2020-06-07T10:46:09Z</time>
      </trkpt>
      <trkpt lat="46.47195" lon="4.51607">
        <ele>300.581</ele>
        <time>2020-06-07T10:46:15Z</time>
      </trkpt>
      <trkpt lat="46.47202" lon="4.51611">
        <ele>303.581</ele>
        <time>2020-06-07T10:46:20Z</time>
      </trkpt>
      <trkpt lat="46.4721" lon="4.51613">
        <ele>304.581</ele>
        <time>2020-06-07T10:46:26Z</time>
      </trkpt>
      <trkpt lat="46.47216" lon="4.51617">
        <ele>304.581</ele>
        <time>2020-06-07T10:46:31Z</time>
      </trkpt>
      <trkpt lat="46.47223" lon="4.51619">
        <ele>304.581</ele>
        <time>2020-06-07T10:46:36Z</time>
      </trkpt>
      <trkpt lat="46.4723" lon="4.51621">
        <ele>307.581</ele>
        <time>2020-06-07T10:46:41Z</time>
      </trkpt>
      <trkpt lat="46.47236" lon="4.51627">
        <ele>309.581</ele>
        <time>2020-06-07T10:46:46Z</time>
      </trkpt>
      <trkpt lat="46.47244" lon="4.51628">
        <ele>308.581</ele>
        <time>2020-06-07T10:46:52Z</time>
      </trkpt>
      <trkpt lat="46.47251" lon="4.51628">
        <ele>308.581</ele>
        <time>2020-06-07T10:46:57Z</time>
      </trkpt>
      <trkpt lat="46.47258" lon="4.51628">
        <ele>308.581</ele>
        <time>2020-06-07T10:47:02Z</time>
      </trkpt>
      <trkpt lat="46.47265" lon="4.51628">
        <ele>310.581</ele>
        <time>2020-06-07T10:47:09Z</time>
      </trkpt>
      <trkpt lat="46.47272" lon="4.51632">
        <ele>311.581</ele>
        <time>2020-06-07T10:47:14Z</time>
      </trkpt>
      <trkpt lat="46.47279" lon="4.51633">
        <ele>309.581</ele>
        <time>2020-06-07T10:47:20Z</time>
      </trkpt>
      <trkpt lat="46.47288" lon="4.51633">
        <ele>310.581</ele>
        <time>2020-06-07T10:47:25Z</time>
      </trkpt>
      <trkpt lat="46.47295" lon="4.51639">
        <ele>313.581</ele>
        <time>2020-06-07T10:47:31Z</time>
      </trkpt>
      <trkpt lat="46.47301" lon="4.51639">
        <ele>313.581</ele>
        <time>2020-06-07T10:47:36Z</time>
      </trkpt>
      <trkpt lat="46.47308" lon="4.51641">
        <ele>312.581</ele>
        <time>2020-06-07T10:47:43Z</time>
      </trkpt>
      <trkpt lat="46.47315" lon="4.51641">
        <ele>312.581</ele>
        <time>2020-06-07T10:47:48Z</time>
      </trkpt>
      <trkpt lat="46.47323" lon="4.51639">
        <ele>309.581</ele>
        <time>2020-06-07T10:47:53Z</time>
      </trkpt>
      <trkpt lat="46.47331" lon="4.51642">
        <ele>307.581</ele>
        <time>2020-06-07T10:47:59Z</time>
      </trkpt>
      <trkpt lat="46.47339" lon="4.51639">
        <ele>306.581</ele>
        <time>2020-06-07T10:48:04Z</time>
      </trkpt>
      <trkpt lat="46.47347" lon="4.51637">
        <ele>308.581</ele>
        <time>2020-06-07T10:48:09Z</time>
      </trkpt>
      <trkpt lat="46.47354" lon="4.5164">
        <ele>310.581</ele>
        <time>2020-06-07T10:48:15Z</time>
      </trkpt>
      <trkpt lat="46.47361" lon="4.51642">
        <ele>309.581</ele>
        <time>2020-06-07T10:48:20Z</time>
      </trkpt>
      <trkpt lat="46.47369" lon="4.51646">
        <ele>310.582</ele>
        <time>2020-06-07T10:48:25Z</time>
      </trkpt>
      <trkpt lat="46.47376" lon="4.51646">
        <ele>313.582</ele>
        <time>2020-06-07T10:48:30Z</time>
      </trkpt>
      <trkpt lat="46.47383" lon="4.51647">
        <ele>312.582</ele>
        <time>2020-06-07T10:48:36Z</time>
      </trkpt>
      <trkpt lat="46.47389" lon="4.51653">
        <ele>311.582</ele>
        <time>2020-06-07T10:48:41Z</time>
      </trkpt>
      <trkpt lat="46.47398" lon="4.51663">
        <ele>314.582</ele>
        <time>2020-06-07T10:48:47Z</time>
      </trkpt>
      <trkpt lat="46.47408" lon="4.51668">
        <ele>315.582</ele>
        <time>2020-06-07T10:48:54Z</time>
      </trkpt>
      <trkpt lat="46.47415" lon="4.51673">
        <ele>309.582</ele>
        <time>2020-06-07T10:49:03Z</time>
      </trkpt>
      <trkpt lat="46.47422" lon="4.51681">
        <ele>309.582</ele>
        <time>2020-06-07T10:49:08Z</time>
      </trkpt>
      <trkpt lat="46.47429" lon="4.5169">
        <ele>310.582</ele>
        <time>2020-06-07T10:49:13Z</time>
      </trkpt>
      <trkpt lat="46.47437" lon="4.51692">
        <ele>309.582</ele>
        <time>2020-06-07T10:49:19Z</time>
      </trkpt>
      <trkpt lat="46.47443" lon="4.51697">
        <ele>311.582</ele>
        <time>2020-06-07T10:49:30Z</time>
      </trkpt>
      <trkpt lat="46.4745" lon="4.51699">
        <ele>310.582</ele>
        <time>2020-06-07T10:49:35Z</time>
      </trkpt>
      <trkpt lat="46.47458" lon="4.51698">
        <ele>309.582</ele>
        <time>2020-06-07T10:49:42Z</time>
      </trkpt>
      <trkpt lat="46.47466" lon="4.51695">
        <ele>307.582</ele>
        <time>2020-06-07T10:49:47Z</time>
      </trkpt>
      <trkpt lat="46.47473" lon="4.51699">
        <ele>310.582</ele>
        <time>2020-06-07T10:49:52Z</time>
      </trkpt>
      <trkpt lat="46.47483" lon="4.51697">
        <ele>307.582</ele>
        <time>2020-06-07T10:49:57Z</time>
      </trkpt>
      <trkpt lat="46.4749" lon="4.51696">
        <ele>308.582</ele>
        <time>2020-06-07T10:50:02Z</time>
      </trkpt>
      <trkpt lat="46.47496" lon="4.51699">
        <ele>309.582</ele>
        <time>2020-06-07T10:50:07Z</time>
      </trkpt>
      <trkpt lat="46.47504" lon="4.51703">
        <ele>308.582</ele>
        <time>2020-06-07T10:50:12Z</time>
      </trkpt>
      <trkpt lat="46.47511" lon="4.517">
        <ele>307.582</ele>
        <time>2020-06-07T10:50:18Z</time>
      </trkpt>
      <trkpt lat="46.47519" lon="4.51699">
        <ele>307.582</ele>
        <time>2020-06-07T10:50:23Z</time>
      </trkpt>
      <trkpt lat="46.47526" lon="4.51696">
        <ele>307.582</ele>
        <time>2020-06-07T10:50:28Z</time>
      </trkpt>
      <trkpt lat="46.47533" lon="4.51696">
        <ele>306.582</ele>
        <time>2020-06-07T10:50:33Z</time>
      </trkpt>
      <trkpt lat="46.4754" lon="4.51698">
        <ele>306.582</ele>
        <time>2020-06-07T10:50:38Z</time>
      </trkpt>
      <trkpt lat="46.47549" lon="4.51697">
        <ele>305.582</ele>
        <time>2020-06-07T10:50:43Z</time>
      </trkpt>
      <trkpt lat="46.47555" lon="4.51696">
        <ele>308.582</ele>
        <time>2020-06-07T10:50:48Z</time>
      </trkpt>
      <trkpt lat="46.47563" lon="4.51697">
        <ele>306.582</ele>
        <time>2020-06-07T10:50:53Z</time>
      </trkpt>
      <trkpt lat="46.47571" lon="4.517">
        <ele>307.582</ele>
        <time>2020-06-07T10:50:59Z</time>
      </trkpt>
      <trkpt lat="46.47578" lon="4.517">
        <ele>305.582</ele>
        <time>2020-06-07T10:51:06Z</time>
      </trkpt>
      <trkpt lat="46.47586" lon="4.51704">
        <ele>303.582</ele>
        <time>2020-06-07T10:51:11Z</time>
      </trkpt>
      <trkpt lat="46.47594" lon="4.51707">
        <ele>300.582</ele>
        <time>2020-06-07T10:51:16Z</time>
      </trkpt>
      <trkpt lat="46.47603" lon="4.51707">
        <ele>295.582</ele>
        <time>2020-06-07T10:51:21Z</time>
      </trkpt>
      <trkpt lat="46.47609" lon="4.51712">
        <ele>295.582</ele>
        <time>2020-06-07T10:51:26Z</time>
      </trkpt>
      <trkpt lat="46.47615" lon="4.51716">
        <ele>295.582</ele>
        <time>2020-06-07T10:51:31Z</time>
      </trkpt>
      <trkpt lat="46.4762" lon="4.51725">
        <ele>298.582</ele>
        <time>2020-06-07T10:51:37Z</time>
      </trkpt>
      <trkpt lat="46.47626" lon="4.51718">
        <ele>299.582</ele>
        <time>2020-06-07T10:51:54Z</time>
      </trkpt>
      <trkpt lat="46.47633" lon="4.51713">
        <ele>299.582</ele>
        <time>2020-06-07T10:51:59Z</time>
      </trkpt>
      <trkpt lat="46.47641" lon="4.51704">
        <ele>301.582</ele>
        <time>2020-06-07T10:52:04Z</time>
      </trkpt>
      <trkpt lat="46.47648" lon="4.51697">
        <ele>299.582</ele>
        <time>2020-06-07T10:52:13Z</time>
      </trkpt>
      <trkpt lat="46.47652" lon="4.5169">
        <ele>299.582</ele>
        <time>2020-06-07T10:52:18Z</time>
      </trkpt>
      <trkpt lat="46.47659" lon="4.51684">
        <ele>298.582</ele>
        <time>2020-06-07T10:52:23Z</time>
      </trkpt>
      <trkpt lat="46.47666" lon="4.51681">
        <ele>297.582</ele>
        <time>2020-06-07T10:52:30Z</time>
      </trkpt>
      <trkpt lat="46.47672" lon="4.51678">
        <ele>298.582</ele>
        <time>2020-06-07T10:52:35Z</time>
      </trkpt>
      <trkpt lat="46.4768" lon="4.5168">
        <ele>299.582</ele>
        <time>2020-06-07T10:52:40Z</time>
      </trkpt>
      <trkpt lat="46.47688" lon="4.5168">
        <ele>299.582</ele>
        <time>2020-06-07T10:52:48Z</time>
      </trkpt>
      <trkpt lat="46.47694" lon="4.5168">
        <ele>297.582</ele>
        <time>2020-06-07T10:52:53Z</time>
      </trkpt>
      <trkpt lat="46.47703" lon="4.51677">
        <ele>297.582</ele>
        <time>2020-06-07T10:52:58Z</time>
      </trkpt>
      <trkpt lat="46.47711" lon="4.51676">
        <ele>297.582</ele>
        <time>2020-06-07T10:53:03Z</time>
      </trkpt>
      <trkpt lat="46.47718" lon="4.51678">
        <ele>301.583</ele>
        <time>2020-06-07T10:53:10Z</time>
      </trkpt>
      <trkpt lat="46.47726" lon="4.51677">
        <ele>301.583</ele>
        <time>2020-06-07T10:53:15Z</time>
      </trkpt>
      <trkpt lat="46.47734" lon="4.51675">
        <ele>300.583</ele>
        <time>2020-06-07T10:53:20Z</time>
      </trkpt>
      <trkpt lat="46.47742" lon="4.51677">
        <ele>300.583</ele>
        <time>2020-06-07T10:53:25Z</time>
      </trkpt>
      <trkpt lat="46.47749" lon="4.51679">
        <ele>302.583</ele>
        <time>2020-06-07T10:53:32Z</time>
      </trkpt>
      <trkpt lat="46.47756" lon="4.51679">
        <ele>304.583</ele>
        <time>2020-06-07T10:53:37Z</time>
      </trkpt>
      <trkpt lat="46.47762" lon="4.51678">
        <ele>303.583</ele>
        <time>2020-06-07T10:53:42Z</time>
      </trkpt>
      <trkpt lat="46.4777" lon="4.51678">
        <ele>302.583</ele>
        <time>2020-06-07T10:53:47Z</time>
      </trkpt>
      <trkpt lat="46.47778" lon="4.51677">
        <ele>300.583</ele>
        <time>2020-06-07T10:53:53Z</time>
      </trkpt>
      <trkpt lat="46.47786" lon="4.51677">
        <ele>299.583</ele>
        <time>2020-06-07T10:53:58Z</time>
      </trkpt>
      <trkpt lat="46.47793" lon="4.51676">
        <ele>297.583</ele>
        <time>2020-06-07T10:54:05Z</time>
      </trkpt>
      <trkpt lat="46.47802" lon="4.51679">
        <ele>296.583</ele>
        <time>2020-06-07T10:54:10Z</time>
      </trkpt>
      <trkpt lat="46.47813" lon="4.51674">
        <ele>295.583</ele>
        <time>2020-06-07T10:54:15Z</time>
      </trkpt>
      <trkpt lat="46.4782" lon="4.51674">
        <ele>293.583</ele>
        <time>2020-06-07T10:54:20Z</time>
      </trkpt>
      <trkpt lat="46.47828" lon="4.51668">
        <ele>295.583</ele>
        <time>2020-06-07T10:54:26Z</time>
      </trkpt>
      <trkpt lat="46.47834" lon="4.51663">
        <ele>297.583</ele>
        <time>2020-06-07T10:54:33Z</time>
      </trkpt>
      <trkpt lat="46.47843" lon="4.51667">
        <ele>293.583</ele>
        <time>2020-06-07T10:54:38Z</time>
      </trkpt>
      <trkpt lat="46.47849" lon="4.51665">
        <ele>291.583</ele>
        <time>2020-06-07T10:54:43Z</time>
      </trkpt>
      <trkpt lat="46.47856" lon="4.51664">
        <ele>293.583</ele>
        <time>2020-06-07T10:54:48Z</time>
      </trkpt>
      <trkpt lat="46.47864" lon="4.51664">
        <ele>291.583</ele>
        <time>2020-06-07T10:54:57Z</time>
      </trkpt>
      <trkpt lat="46.47873" lon="4.51665">
        <ele>293.583</ele>
        <time>2020-06-07T10:55:02Z</time>
      </trkpt>
      <trkpt lat="46.47881" lon="4.51665">
        <ele>283.583</ele>
        <time>2020-06-07T10:55:07Z</time>
      </trkpt>
      <trkpt lat="46.47889" lon="4.51665">
        <ele>284.583</ele>
        <time>2020-06-07T10:55:12Z</time>
      </trkpt>
      <trkpt lat="46.47899" lon="4.51662">
        <ele>284.583</ele>
        <time>2020-06-07T10:55:17Z</time>
      </trkpt>
      <trkpt lat="46.47905" lon="4.51659">
        <ele>284.583</ele>
        <time>2020-06-07T10:55:24Z</time>
      </trkpt>
      <trkpt lat="46.4791" lon="4.51653">
        <ele>284.583</ele>
        <time>2020-06-07T10:57:06Z</time>
      </trkpt>
      <trkpt lat="46.47917" lon="4.51651">
        <ele>285.583</ele>
        <time>2020-06-07T10:57:57Z</time>
      </trkpt>
      <trkpt lat="46.4792" lon="4.51664">
        <ele>281.583</ele>
        <time>2020-06-07T10:58:12Z</time>
      </trkpt>
      <trkpt lat="46.47924" lon="4.51651">
        <ele>282.583</ele>
        <time>2020-06-07T10:58:17Z</time>
      </trkpt>
      <trkpt lat="46.47931" lon="4.51644">
        <ele>282.583</ele>
        <time>2020-06-07T10:58:56Z</time>
      </trkpt>
      <trkpt lat="46.47937" lon="4.51638">
        <ele>278.583</ele>
        <time>2020-06-07T10:59:01Z</time>
      </trkpt>
      <trkpt lat="46.47944" lon="4.51632">
        <ele>278.583</ele>
        <time>2020-06-07T10:59:06Z</time>
      </trkpt>
      <trkpt lat="46.47949" lon="4.51626">
        <ele>277.583</ele>
        <time>2020-06-07T10:59:11Z</time>
      </trkpt>
      <trkpt lat="46.47955" lon="4.51622">
        <ele>280.583</ele>
        <time>2020-06-07T10:59:16Z</time>
      </trkpt>
      <trkpt lat="46.47963" lon="4.51616">
        <ele>276.583</ele>
        <time>2020-06-07T10:59:23Z</time>
      </trkpt>
      <trkpt lat="46.47969" lon="4.51608">
        <ele>275.583</ele>
        <time>2020-06-07T10:59:29Z</time>
      </trkpt>
      <trkpt lat="46.47972" lon="4.51597">
        <ele>275.583</ele>
        <time>2020-06-07T10:59:34Z</time>
      </trkpt>
      <trkpt lat="46.47972" lon="4.51587">
        <ele>274.583</ele>
        <time>2020-06-07T10:59:39Z</time>
      </trkpt>
      <trkpt lat="46.47974" lon="4.51575">
        <ele>273.583</ele>
        <time>2020-06-07T10:59:44Z</time>
      </trkpt>
      <trkpt lat="46.47976" lon="4.51565">
        <ele>273.583</ele>
        <time>2020-06-07T10:59:49Z</time>
      </trkpt>
      <trkpt lat="46.47981" lon="4.51555">
        <ele>275.583</ele>
        <time>2020-06-07T10:59:54Z</time>
      </trkpt>
      <trkpt lat="46.47984" lon="4.51545">
        <ele>276.583</ele>
        <time>2020-06-07T10:59:59Z</time>
      </trkpt>
      <trkpt lat="46.47987" lon="4.51533">
        <ele>277.583</ele>
        <time>2020-06-07T11:00:07Z</time>
      </trkpt>
      <trkpt lat="46.47988" lon="4.51516">
        <ele>275.583</ele>
        <time>2020-06-07T11:00:12Z</time>
      </trkpt>
      <trkpt lat="46.47994" lon="4.51506">
        <ele>276.583</ele>
        <time>2020-06-07T11:00:17Z</time>
      </trkpt>
      <trkpt lat="46.47999" lon="4.51494">
        <ele>276.583</ele>
        <time>2020-06-07T11:00:22Z</time>
      </trkpt>
      <trkpt lat="46.48" lon="4.51482">
        <ele>274.583</ele>
        <time>2020-06-07T11:00:27Z</time>
      </trkpt>
      <trkpt lat="46.48002" lon="4.51473">
        <ele>273.583</ele>
        <time>2020-06-07T11:00:33Z</time>
      </trkpt>
      <trkpt lat="46.4799" lon="4.51463">
        <ele>265.583</ele>
        <time>2020-06-07T11:00:38Z</time>
      </trkpt>
      <trkpt lat="46.47994" lon="4.51451">
        <ele>268.583</ele>
        <time>2020-06-07T11:00:43Z</time>
      </trkpt>
      <trkpt lat="46.47996" lon="4.51439">
        <ele>267.583</ele>
        <time>2020-06-07T11:00:48Z</time>
      </trkpt>
      <trkpt lat="46.48" lon="4.51427">
        <ele>266.583</ele>
        <time>2020-06-07T11:00:53Z</time>
      </trkpt>
      <trkpt lat="46.48004" lon="4.51417">
        <ele>267.583</ele>
        <time>2020-06-07T11:00:58Z</time>
      </trkpt>
      <trkpt lat="46.48007" lon="4.51405">
        <ele>271.583</ele>
        <time>2020-06-07T11:01:03Z</time>
      </trkpt>
      <trkpt lat="46.4801" lon="4.51395">
        <ele>270.583</ele>
        <time>2020-06-07T11:01:10Z</time>
      </trkpt>
      <trkpt lat="46.48006" lon="4.51383">
        <ele>269.583</ele>
        <time>2020-06-07T11:01:15Z</time>
      </trkpt>
      <trkpt lat="46.48016" lon="4.51378">
        <ele>269.583</ele>
        <time>2020-06-07T11:01:20Z</time>
      </trkpt>
      <trkpt lat="46.48025" lon="4.51377">
        <ele>266.583</ele>
        <time>2020-06-07T11:01:25Z</time>
      </trkpt>
      <trkpt lat="46.48032" lon="4.5138">
        <ele>266.583</ele>
        <time>2020-06-07T11:01:30Z</time>
      </trkpt>
      <trkpt lat="46.4804" lon="4.51385">
        <ele>266.583</ele>
        <time>2020-06-07T11:01:35Z</time>
      </trkpt>
      <trkpt lat="46.48044" lon="4.51396">
        <ele>267.583</ele>
        <time>2020-06-07T11:01:40Z</time>
      </trkpt>
      <trkpt lat="46.48046" lon="4.51409">
        <ele>269.583</ele>
        <time>2020-06-07T11:01:45Z</time>
      </trkpt>
      <trkpt lat="46.48046" lon="4.51423">
        <ele>273.583</ele>
        <time>2020-06-07T11:01:50Z</time>
      </trkpt>
      <trkpt lat="46.48048" lon="4.51432">
        <ele>271.583</ele>
        <time>2020-06-07T11:01:56Z</time>
      </trkpt>
      <trkpt lat="46.48047" lon="4.51443">
        <ele>270.583</ele>
        <time>2020-06-07T11:02:02Z</time>
      </trkpt>
      <trkpt lat="46.48047" lon="4.51458">
        <ele>272.583</ele>
        <time>2020-06-07T11:02:07Z</time>
      </trkpt>
      <trkpt lat="46.48051" lon="4.51467">
        <ele>270.583</ele>
        <time>2020-06-07T11:02:13Z</time>
      </trkpt>
      <trkpt lat="46.48052" lon="4.51477">
        <ele>270.583</ele>
        <time>2020-06-07T11:02:18Z</time>
      </trkpt>
      <trkpt lat="46.48054" lon="4.51486">
        <ele>273.583</ele>
        <time>2020-06-07T11:02:24Z</time>
      </trkpt>
      <trkpt lat="46.48056" lon="4.51495">
        <ele>274.583</ele>
        <time>2020-06-07T11:02:29Z</time>
      </trkpt>
      <trkpt lat="46.48056" lon="4.51507">
        <ele>277.583</ele>
        <time>2020-06-07T11:02:35Z</time>
      </trkpt>
      <trkpt lat="46.48058" lon="4.51517">
        <ele>274.583</ele>
        <time>2020-06-07T11:02:40Z</time>
      </trkpt>
      <trkpt lat="46.48059" lon="4.51528">
        <ele>269.583</ele>
        <time>2020-06-07T11:02:45Z</time>
      </trkpt>
      <trkpt lat="46.48062" lon="4.51538">
        <ele>270.583</ele>
        <time>2020-06-07T11:02:50Z</time>
      </trkpt>
      <trkpt lat="46.48064" lon="4.51549">
        <ele>267.583</ele>
        <time>2020-06-07T11:02:56Z</time>
      </trkpt>
      <trkpt lat="46.48067" lon="4.51558">
        <ele>267.583</ele>
        <time>2020-06-07T11:03:01Z</time>
      </trkpt>
      <trkpt lat="46.48068" lon="4.51571">
        <ele>269.583</ele>
        <time>2020-06-07T11:03:06Z</time>
      </trkpt>
      <trkpt lat="46.48073" lon="4.51578">
        <ele>270.583</ele>
        <time>2020-06-07T11:03:12Z</time>
      </trkpt>
      <trkpt lat="46.48078" lon="4.51587">
        <ele>271.583</ele>
        <time>2020-06-07T11:03:18Z</time>
      </trkpt>
      <trkpt lat="46.48082" lon="4.51597">
        <ele>270.583</ele>
        <time>2020-06-07T11:03:24Z</time>
      </trkpt>
      <trkpt lat="46.48088" lon="4.51605">
        <ele>271.583</ele>
        <time>2020-06-07T11:03:30Z</time>
      </trkpt>
      <trkpt lat="46.48096" lon="4.51614">
        <ele>273.583</ele>
        <time>2020-06-07T11:03:35Z</time>
      </trkpt>
      <trkpt lat="46.48104" lon="4.51617">
        <ele>274.584</ele>
        <time>2020-06-07T11:03:40Z</time>
      </trkpt>
      <trkpt lat="46.48111" lon="4.51614">
        <ele>271.584</ele>
        <time>2020-06-07T11:03:45Z</time>
      </trkpt>
      <trkpt lat="46.48118" lon="4.51614">
        <ele>269.584</ele>
        <time>2020-06-07T11:03:51Z</time>
      </trkpt>
      <trkpt lat="46.48127" lon="4.51615">
        <ele>270.584</ele>
        <time>2020-06-07T11:03:58Z</time>
      </trkpt>
      <trkpt lat="46.48133" lon="4.51609">
        <ele>271.584</ele>
        <time>2020-06-07T11:04:03Z</time>
      </trkpt>
      <trkpt lat="46.48141" lon="4.5161">
        <ele>271.584</ele>
        <time>2020-06-07T11:04:08Z</time>
      </trkpt>
      <trkpt lat="46.48151" lon="4.51614">
        <ele>269.584</ele>
        <time>2020-06-07T11:04:13Z</time>
      </trkpt>
      <trkpt lat="46.48157" lon="4.51618">
        <ele>271.584</ele>
        <time>2020-06-07T11:04:18Z</time>
      </trkpt>
      <trkpt lat="46.48163" lon="4.51625">
        <ele>275.584</ele>
        <time>2020-06-07T11:04:26Z</time>
      </trkpt>
      <trkpt lat="46.4817" lon="4.51631">
        <ele>274.584</ele>
        <time>2020-06-07T11:04:31Z</time>
      </trkpt>
      <trkpt lat="46.48176" lon="4.51634">
        <ele>274.584</ele>
        <time>2020-06-07T11:04:36Z</time>
      </trkpt>
      <trkpt lat="46.48184" lon="4.51636">
        <ele>271.584</ele>
        <time>2020-06-07T11:04:41Z</time>
      </trkpt>
      <trkpt lat="46.48191" lon="4.51642">
        <ele>269.584</ele>
        <time>2020-06-07T11:04:46Z</time>
      </trkpt>
      <trkpt lat="46.48199" lon="4.51647">
        <ele>273.584</ele>
        <time>2020-06-07T11:04:51Z</time>
      </trkpt>
      <trkpt lat="46.48206" lon="4.51653">
        <ele>274.584</ele>
        <time>2020-06-07T11:04:56Z</time>
      </trkpt>
      <trkpt lat="46.48213" lon="4.5166">
        <ele>276.584</ele>
        <time>2020-06-07T11:05:01Z</time>
      </trkpt>
      <trkpt lat="46.4822" lon="4.51659">
        <ele>274.584</ele>
        <time>2020-06-07T11:05:06Z</time>
      </trkpt>
      <trkpt lat="46.48227" lon="4.51659">
        <ele>272.584</ele>
        <time>2020-06-07T11:05:11Z</time>
      </trkpt>
      <trkpt lat="46.48233" lon="4.51667">
        <ele>274.584</ele>
        <time>2020-06-07T11:05:16Z</time>
      </trkpt>
      <trkpt lat="46.48242" lon="4.51671">
        <ele>274.584</ele>
        <time>2020-06-07T11:05:21Z</time>
      </trkpt>
      <trkpt lat="46.48249" lon="4.51674">
        <ele>273.584</ele>
        <time>2020-06-07T11:05:29Z</time>
      </trkpt>
      <trkpt lat="46.48256" lon="4.51677">
        <ele>273.584</ele>
        <time>2020-06-07T11:05:36Z</time>
      </trkpt>
      <trkpt lat="46.48266" lon="4.51677">
        <ele>275.584</ele>
        <time>2020-06-07T11:05:41Z</time>
      </trkpt>
      <trkpt lat="46.48272" lon="4.51682">
        <ele>275.584</ele>
        <time>2020-06-07T11:05:46Z</time>
      </trkpt>
      <trkpt lat="46.48281" lon="4.51684">
        <ele>272.584</ele>
        <time>2020-06-07T11:05:51Z</time>
      </trkpt>
      <trkpt lat="46.48288" lon="4.51689">
        <ele>268.584</ele>
        <time>2020-06-07T11:05:56Z</time>
      </trkpt>
      <trkpt lat="46.48295" lon="4.51688">
        <ele>268.584</ele>
        <time>2020-06-07T11:06:01Z</time>
      </trkpt>
      <trkpt lat="46.483" lon="4.51696">
        <ele>267.584</ele>
        <time>2020-06-07T11:06:06Z</time>
      </trkpt>
      <trkpt lat="46.48306" lon="4.51701">
        <ele>268.584</ele>
        <time>2020-06-07T11:06:11Z</time>
      </trkpt>
      <trkpt lat="46.48314" lon="4.51703">
        <ele>270.584</ele>
        <time>2020-06-07T11:06:17Z</time>
      </trkpt>
      <trkpt lat="46.4832" lon="4.51707">
        <ele>270.584</ele>
        <time>2020-06-07T11:06:22Z</time>
      </trkpt>
      <trkpt lat="46.48326" lon="4.51706">
        <ele>270.584</ele>
        <time>2020-06-07T11:06:27Z</time>
      </trkpt>
      <trkpt lat="46.48334" lon="4.51709">
        <ele>270.584</ele>
        <time>2020-06-07T11:06:32Z</time>
      </trkpt>
      <trkpt lat="46.48341" lon="4.51709">
        <ele>268.584</ele>
        <time>2020-06-07T11:06:37Z</time>
      </trkpt>
      <trkpt lat="46.4835" lon="4.51711">
        <ele>272.584</ele>
        <time>2020-06-07T11:06:42Z</time>
      </trkpt>
      <trkpt lat="46.48357" lon="4.5171">
        <ele>275.584</ele>
        <time>2020-06-07T11:06:47Z</time>
      </trkpt>
      <trkpt lat="46.48364" lon="4.51708">
        <ele>278.584</ele>
        <time>2020-06-07T11:06:52Z</time>
      </trkpt>
      <trkpt lat="46.48371" lon="4.51705">
        <ele>277.584</ele>
        <time>2020-06-07T11:06:57Z</time>
      </trkpt>
      <trkpt lat="46.48378" lon="4.51705">
        <ele>277.584</ele>
        <time>2020-06-07T11:07:02Z</time>
      </trkpt>
      <trkpt lat="46.48384" lon="4.51703">
        <ele>276.584</ele>
        <time>2020-06-07T11:07:08Z</time>
      </trkpt>
      <trkpt lat="46.48391" lon="4.51705">
        <ele>277.584</ele>
        <time>2020-06-07T11:07:13Z</time>
      </trkpt>
      <trkpt lat="46.484" lon="4.51708">
        <ele>276.584</ele>
        <time>2020-06-07T11:07:18Z</time>
      </trkpt>
      <trkpt lat="46.48408" lon="4.51708">
        <ele>274.584</ele>
        <time>2020-06-07T11:07:23Z</time>
      </trkpt>
      <trkpt lat="46.48416" lon="4.51709">
        <ele>275.584</ele>
        <time>2020-06-07T11:07:28Z</time>
      </trkpt>
      <trkpt lat="46.48422" lon="4.51711">
        <ele>278.584</ele>
        <time>2020-06-07T11:07:33Z</time>
      </trkpt>
      <trkpt lat="46.48429" lon="4.51713">
        <ele>279.584</ele>
        <time>2020-06-07T11:07:38Z</time>
      </trkpt>
      <trkpt lat="46.48437" lon="4.51714">
        <ele>279.585</ele>
        <time>2020-06-07T11:07:43Z</time>
      </trkpt>
      <trkpt lat="46.48444" lon="4.51719">
        <ele>277.585</ele>
        <time>2020-06-07T11:07:50Z</time>
      </trkpt>
      <trkpt lat="46.48451" lon="4.51722">
        <ele>276.585</ele>
        <time>2020-06-07T11:07:55Z</time>
      </trkpt>
      <trkpt lat="46.48459" lon="4.5172">
        <ele>279.585</ele>
        <time>2020-06-07T11:08:00Z</time>
      </trkpt>
      <trkpt lat="46.48466" lon="4.51724">
        <ele>282.585</ele>
        <time>2020-06-07T11:08:05Z</time>
      </trkpt>
      <trkpt lat="46.48473" lon="4.51723">
        <ele>282.585</ele>
        <time>2020-06-07T11:08:10Z</time>
      </trkpt>
      <trkpt lat="46.48484" lon="4.51728">
        <ele>280.585</ele>
        <time>2020-06-07T11:08:15Z</time>
      </trkpt>
      <trkpt lat="46.4849" lon="4.51721">
        <ele>282.585</ele>
        <time>2020-06-07T11:08:22Z</time>
      </trkpt>
      <trkpt lat="46.48496" lon="4.51714">
        <ele>278.585</ele>
        <time>2020-06-07T11:08:27Z</time>
      </trkpt>
      <trkpt lat="46.48502" lon="4.51707">
        <ele>277.585</ele>
        <time>2020-06-07T11:08:32Z</time>
      </trkpt>
      <trkpt lat="46.48508" lon="4.51702">
        <ele>277.585</ele>
        <time>2020-06-07T11:08:38Z</time>
      </trkpt>
      <trkpt lat="46.48514" lon="4.51695">
        <ele>278.585</ele>
        <time>2020-06-07T11:08:43Z</time>
      </trkpt>
      <trkpt lat="46.4852" lon="4.51692">
        <ele>279.585</ele>
        <time>2020-06-07T11:08:49Z</time>
      </trkpt>
      <trkpt lat="46.48528" lon="4.51696">
        <ele>280.585</ele>
        <time>2020-06-07T11:08:54Z</time>
      </trkpt>
      <trkpt lat="46.48535" lon="4.51701">
        <ele>282.585</ele>
        <time>2020-06-07T11:08:59Z</time>
      </trkpt>
      <trkpt lat="46.48542" lon="4.51706">
        <ele>282.585</ele>
        <time>2020-06-07T11:09:04Z</time>
      </trkpt>
      <trkpt lat="46.4855" lon="4.51709">
        <ele>281.585</ele>
        <time>2020-06-07T11:09:11Z</time>
      </trkpt>
      <trkpt lat="46.48555" lon="4.51714">
        <ele>278.585</ele>
        <time>2020-06-07T11:09:16Z</time>
      </trkpt>
      <trkpt lat="46.48563" lon="4.51721">
        <ele>279.585</ele>
        <time>2020-06-07T11:09:21Z</time>
      </trkpt>
      <trkpt lat="46.48569" lon="4.51721">
        <ele>279.585</ele>
        <time>2020-06-07T11:09:26Z</time>
      </trkpt>
      <trkpt lat="46.48576" lon="4.51733">
        <ele>278.585</ele>
        <time>2020-06-07T11:09:31Z</time>
      </trkpt>
      <trkpt lat="46.4858" lon="4.51743">
        <ele>275.585</ele>
        <time>2020-06-07T11:09:37Z</time>
      </trkpt>
      <trkpt lat="46.48583" lon="4.51752">
        <ele>277.585</ele>
        <time>2020-06-07T11:09:44Z</time>
      </trkpt>
      <trkpt lat="46.48586" lon="4.51762">
        <ele>277.585</ele>
        <time>2020-06-07T11:09:49Z</time>
      </trkpt>
      <trkpt lat="46.4859" lon="4.51771">
        <ele>279.585</ele>
        <time>2020-06-07T11:09:55Z</time>
      </trkpt>
      <trkpt lat="46.48593" lon="4.51783">
        <ele>281.585</ele>
        <time>2020-06-07T11:10:00Z</time>
      </trkpt>
      <trkpt lat="46.48598" lon="4.51791">
        <ele>283.585</ele>
        <time>2020-06-07T11:10:05Z</time>
      </trkpt>
      <trkpt lat="46.486" lon="4.51804">
        <ele>282.585</ele>
        <time>2020-06-07T11:10:10Z</time>
      </trkpt>
      <trkpt lat="46.48604" lon="4.51813">
        <ele>281.585</ele>
        <time>2020-06-07T11:10:16Z</time>
      </trkpt>
      <trkpt lat="46.48609" lon="4.5182">
        <ele>279.585</ele>
        <time>2020-06-07T11:10:22Z</time>
      </trkpt>
      <trkpt lat="46.48613" lon="4.51828">
        <ele>279.585</ele>
        <time>2020-06-07T11:10:27Z</time>
      </trkpt>
      <trkpt lat="46.48621" lon="4.51834">
        <ele>276.585</ele>
        <time>2020-06-07T11:10:32Z</time>
      </trkpt>
      <trkpt lat="46.48629" lon="4.51839">
        <ele>274.585</ele>
        <time>2020-06-07T11:10:37Z</time>
      </trkpt>
      <trkpt lat="46.48634" lon="4.51846">
        <ele>276.585</ele>
        <time>2020-06-07T11:10:43Z</time>
      </trkpt>
      <trkpt lat="46.48642" lon="4.51853">
        <ele>278.585</ele>
        <time>2020-06-07T11:10:48Z</time>
      </trkpt>
      <trkpt lat="46.48649" lon="4.51859">
        <ele>279.585</ele>
        <time>2020-06-07T11:10:53Z</time>
      </trkpt>
      <trkpt lat="46.48656" lon="4.51858">
        <ele>278.585</ele>
        <time>2020-06-07T11:10:58Z</time>
      </trkpt>
      <trkpt lat="46.48662" lon="4.51868">
        <ele>277.585</ele>
        <time>2020-06-07T11:11:03Z</time>
      </trkpt>
      <trkpt lat="46.48669" lon="4.51873">
        <ele>277.585</ele>
        <time>2020-06-07T11:11:09Z</time>
      </trkpt>
      <trkpt lat="46.48676" lon="4.51873">
        <ele>274.585</ele>
        <time>2020-06-07T11:11:15Z</time>
      </trkpt>
      <trkpt lat="46.48682" lon="4.51886">
        <ele>274.585</ele>
        <time>2020-06-07T11:11:20Z</time>
      </trkpt>
      <trkpt lat="46.4869" lon="4.51887">
        <ele>274.585</ele>
        <time>2020-06-07T11:11:25Z</time>
      </trkpt>
      <trkpt lat="46.48696" lon="4.51895">
        <ele>276.585</ele>
        <time>2020-06-07T11:11:30Z</time>
      </trkpt>
      <trkpt lat="46.48705" lon="4.51901">
        <ele>277.585</ele>
        <time>2020-06-07T11:11:35Z</time>
      </trkpt>
      <trkpt lat="46.48713" lon="4.51906">
        <ele>277.585</ele>
        <time>2020-06-07T11:11:40Z</time>
      </trkpt>
      <trkpt lat="46.48722" lon="4.51904">
        <ele>279.585</ele>
        <time>2020-06-07T11:11:45Z</time>
      </trkpt>
      <trkpt lat="46.48731" lon="4.51911">
        <ele>279.585</ele>
        <time>2020-06-07T11:11:50Z</time>
      </trkpt>
      <trkpt lat="46.48739" lon="4.51914">
        <ele>277.585</ele>
        <time>2020-06-07T11:11:55Z</time>
      </trkpt>
      <trkpt lat="46.48746" lon="4.51919">
        <ele>275.586</ele>
        <time>2020-06-07T11:12:00Z</time>
      </trkpt>
      <trkpt lat="46.48754" lon="4.5192">
        <ele>272.586</ele>
        <time>2020-06-07T11:12:07Z</time>
      </trkpt>
      <trkpt lat="46.48761" lon="4.51926">
        <ele>272.586</ele>
        <time>2020-06-07T11:12:13Z</time>
      </trkpt>
      <trkpt lat="46.48768" lon="4.51927">
        <ele>272.586</ele>
        <time>2020-06-07T11:12:18Z</time>
      </trkpt>
      <trkpt lat="46.48774" lon="4.51932">
        <ele>274.586</ele>
        <time>2020-06-07T11:12:24Z</time>
      </trkpt>
      <trkpt lat="46.4878" lon="4.5194">
        <ele>273.586</ele>
        <time>2020-06-07T11:12:30Z</time>
      </trkpt>
      <trkpt lat="46.48787" lon="4.51941">
        <ele>272.586</ele>
        <time>2020-06-07T11:12:35Z</time>
      </trkpt>
      <trkpt lat="46.48794" lon="4.51946">
        <ele>271.586</ele>
        <time>2020-06-07T11:12:40Z</time>
      </trkpt>
      <trkpt lat="46.48801" lon="4.51952">
        <ele>271.586</ele>
        <time>2020-06-07T11:12:45Z</time>
      </trkpt>
      <trkpt lat="46.48808" lon="4.51949">
        <ele>272.586</ele>
        <time>2020-06-07T11:12:52Z</time>
      </trkpt>
      <trkpt lat="46.48815" lon="4.5195">
        <ele>274.586</ele>
        <time>2020-06-07T11:12:57Z</time>
      </trkpt>
      <trkpt lat="46.48824" lon="4.51952">
        <ele>277.586</ele>
        <time>2020-06-07T11:13:02Z</time>
      </trkpt>
      <trkpt lat="46.48831" lon="4.51951">
        <ele>278.586</ele>
        <time>2020-06-07T11:13:07Z</time>
      </trkpt>
      <trkpt lat="46.48837" lon="4.51946">
        <ele>278.586</ele>
        <time>2020-06-07T11:13:14Z</time>
      </trkpt>
      <trkpt lat="46.48845" lon="4.51945">
        <ele>277.586</ele>
        <time>2020-06-07T11:13:19Z</time>
      </trkpt>
      <trkpt lat="46.48852" lon="4.51944">
        <ele>276.586</ele>
        <time>2020-06-07T11:13:24Z</time>
      </trkpt>
      <trkpt lat="46.48859" lon="4.51944">
        <ele>273.586</ele>
        <time>2020-06-07T11:13:29Z</time>
      </trkpt>
      <trkpt lat="46.48867" lon="4.51945">
        <ele>274.586</ele>
        <time>2020-06-07T11:13:34Z</time>
      </trkpt>
      <trkpt lat="46.48874" lon="4.51947">
        <ele>274.586</ele>
        <time>2020-06-07T11:13:40Z</time>
      </trkpt>
      <trkpt lat="46.48881" lon="4.5195">
        <ele>272.586</ele>
        <time>2020-06-07T11:13:46Z</time>
      </trkpt>
      <trkpt lat="46.48888" lon="4.51947">
        <ele>270.586</ele>
        <time>2020-06-07T11:13:53Z</time>
      </trkpt>
      <trkpt lat="46.48896" lon="4.51944">
        <ele>269.586</ele>
        <time>2020-06-07T11:13:58Z</time>
      </trkpt>
      <trkpt lat="46.48903" lon="4.51939">
        <ele>268.586</ele>
        <time>2020-06-07T11:14:03Z</time>
      </trkpt>
      <trkpt lat="46.48909" lon="4.51935">
        <ele>265.586</ele>
        <time>2020-06-07T11:14:08Z</time>
      </trkpt>
      <trkpt lat="46.48917" lon="4.51934">
        <ele>264.586</ele>
        <time>2020-06-07T11:14:13Z</time>
      </trkpt>
      <trkpt lat="46.48927" lon="4.51933">
        <ele>266.586</ele>
        <time>2020-06-07T11:14:18Z</time>
      </trkpt>
      <trkpt lat="46.48935" lon="4.51931">
        <ele>267.586</ele>
        <time>2020-06-07T11:14:23Z</time>
      </trkpt>
      <trkpt lat="46.48942" lon="4.5193">
        <ele>266.586</ele>
        <time>2020-06-07T11:14:28Z</time>
      </trkpt>
      <trkpt lat="46.48949" lon="4.51929">
        <ele>267.586</ele>
        <time>2020-06-07T11:14:33Z</time>
      </trkpt>
      <trkpt lat="46.48957" lon="4.51926">
        <ele>267.586</ele>
        <time>2020-06-07T11:14:38Z</time>
      </trkpt>
      <trkpt lat="46.48963" lon="4.51921">
        <ele>266.586</ele>
        <time>2020-06-07T11:14:43Z</time>
      </trkpt>
      <trkpt lat="46.4897" lon="4.51916">
        <ele>266.586</ele>
        <time>2020-06-07T11:14:48Z</time>
      </trkpt>
      <trkpt lat="46.48978" lon="4.51912">
        <ele>267.586</ele>
        <time>2020-06-07T11:14:53Z</time>
      </trkpt>
      <trkpt lat="46.48984" lon="4.51908">
        <ele>264.586</ele>
        <time>2020-06-07T11:14:58Z</time>
      </trkpt>
      <trkpt lat="46.48991" lon="4.51905">
        <ele>264.586</ele>
        <time>2020-06-07T11:15:03Z</time>
      </trkpt>
      <trkpt lat="46.49" lon="4.519">
        <ele>267.586</ele>
        <time>2020-06-07T11:15:08Z</time>
      </trkpt>
      <trkpt lat="46.49007" lon="4.51895">
        <ele>266.586</ele>
        <time>2020-06-07T11:15:13Z</time>
      </trkpt>
      <trkpt lat="46.49014" lon="4.51892">
        <ele>261.586</ele>
        <time>2020-06-07T11:15:20Z</time>
      </trkpt>
      <trkpt lat="46.4902" lon="4.51887">
        <ele>260.586</ele>
        <time>2020-06-07T11:15:27Z</time>
      </trkpt>
      <trkpt lat="46.49027" lon="4.51887">
        <ele>259.586</ele>
        <time>2020-06-07T11:15:32Z</time>
      </trkpt>
      <trkpt lat="46.49033" lon="4.51887">
        <ele>259.586</ele>
        <time>2020-06-07T11:15:38Z</time>
      </trkpt>
      <trkpt lat="46.49041" lon="4.51886">
        <ele>257.586</ele>
        <time>2020-06-07T11:15:43Z</time>
      </trkpt>
      <trkpt lat="46.4905" lon="4.51884">
        <ele>256.586</ele>
        <time>2020-06-07T11:15:48Z</time>
      </trkpt>
      <trkpt lat="46.49058" lon="4.51883">
        <ele>256.586</ele>
        <time>2020-06-07T11:15:53Z</time>
      </trkpt>
      <trkpt lat="46.49066" lon="4.51882">
        <ele>256.586</ele>
        <time>2020-06-07T11:15:58Z</time>
      </trkpt>
      <trkpt lat="46.49074" lon="4.51879">
        <ele>259.586</ele>
        <time>2020-06-07T11:16:03Z</time>
      </trkpt>
      <trkpt lat="46.49082" lon="4.5188">
        <ele>258.586</ele>
        <time>2020-06-07T11:16:08Z</time>
      </trkpt>
      <trkpt lat="46.49089" lon="4.51877">
        <ele>256.586</ele>
        <time>2020-06-07T11:16:14Z</time>
      </trkpt>
      <trkpt lat="46.49096" lon="4.51878">
        <ele>254.586</ele>
        <time>2020-06-07T11:16:19Z</time>
      </trkpt>
      <trkpt lat="46.49103" lon="4.51878">
        <ele>255.586</ele>
        <time>2020-06-07T11:16:24Z</time>
      </trkpt>
      <trkpt lat="46.49112" lon="4.5188">
        <ele>257.586</ele>
        <time>2020-06-07T11:16:29Z</time>
      </trkpt>
      <trkpt lat="46.49119" lon="4.51884">
        <ele>257.587</ele>
        <time>2020-06-07T11:16:34Z</time>
      </trkpt>
      <trkpt lat="46.49126" lon="4.51888">
        <ele>258.587</ele>
        <time>2020-06-07T11:16:41Z</time>
      </trkpt>
      <trkpt lat="46.49132" lon="4.51893">
        <ele>261.587</ele>
        <time>2020-06-07T11:16:47Z</time>
      </trkpt>
      <trkpt lat="46.49138" lon="4.51902">
        <ele>263.587</ele>
        <time>2020-06-07T11:16:52Z</time>
      </trkpt>
      <trkpt lat="46.49142" lon="4.51913">
        <ele>262.587</ele>
        <time>2020-06-07T11:16:57Z</time>
      </trkpt>
      <trkpt lat="46.49149" lon="4.51918">
        <ele>258.587</ele>
        <time>2020-06-07T11:17:04Z</time>
      </trkpt>
      <trkpt lat="46.49153" lon="4.51928">
        <ele>258.587</ele>
        <time>2020-06-07T11:17:09Z</time>
      </trkpt>
      <trkpt lat="46.49155" lon="4.51938">
        <ele>258.587</ele>
        <time>2020-06-07T11:17:14Z</time>
      </trkpt>
      <trkpt lat="46.4916" lon="4.51946">
        <ele>259.587</ele>
        <time>2020-06-07T11:17:20Z</time>
      </trkpt>
      <trkpt lat="46.49162" lon="4.51956">
        <ele>259.587</ele>
        <time>2020-06-07T11:17:25Z</time>
      </trkpt>
      <trkpt lat="46.49163" lon="4.51966">
        <ele>259.587</ele>
        <time>2020-06-07T11:17:30Z</time>
      </trkpt>
      <trkpt lat="46.49167" lon="4.51974">
        <ele>258.587</ele>
        <time>2020-06-07T11:17:36Z</time>
      </trkpt>
      <trkpt lat="46.49168" lon="4.51983">
        <ele>259.587</ele>
        <time>2020-06-07T11:17:42Z</time>
      </trkpt>
      <trkpt lat="46.49169" lon="4.51993">
        <ele>260.587</ele>
        <time>2020-06-07T11:17:47Z</time>
      </trkpt>
      <trkpt lat="46.49169" lon="4.52005">
        <ele>262.587</ele>
        <time>2020-06-07T11:17:52Z</time>
      </trkpt>
      <trkpt lat="46.49172" lon="4.5202">
        <ele>267.587</ele>
        <time>2020-06-07T11:17:57Z</time>
      </trkpt>
      <trkpt lat="46.49179" lon="4.52025">
        <ele>265.587</ele>
        <time>2020-06-07T11:18:04Z</time>
      </trkpt>
      <trkpt lat="46.49186" lon="4.52031">
        <ele>264.587</ele>
        <time>2020-06-07T11:18:10Z</time>
      </trkpt>
      <trkpt lat="46.49193" lon="4.52036">
        <ele>263.587</ele>
        <time>2020-06-07T11:18:15Z</time>
      </trkpt>
      <trkpt lat="46.492" lon="4.5204">
        <ele>266.587</ele>
        <time>2020-06-07T11:18:22Z</time>
      </trkpt>
      <trkpt lat="46.49205" lon="4.52046">
        <ele>267.587</ele>
        <time>2020-06-07T11:18:27Z</time>
      </trkpt>
      <trkpt lat="46.49209" lon="4.52055">
        <ele>267.587</ele>
        <time>2020-06-07T11:18:33Z</time>
      </trkpt>
      <trkpt lat="46.49217" lon="4.52057">
        <ele>261.587</ele>
        <time>2020-06-07T11:18:40Z</time>
      </trkpt>
      <trkpt lat="46.49226" lon="4.52058">
        <ele>263.587</ele>
        <time>2020-06-07T11:18:45Z</time>
      </trkpt>
      <trkpt lat="46.49229" lon="4.52067">
        <ele>261.587</ele>
        <time>2020-06-07T11:18:51Z</time>
      </trkpt>
      <trkpt lat="46.49233" lon="4.52075">
        <ele>258.587</ele>
        <time>2020-06-07T11:18:57Z</time>
      </trkpt>
      <trkpt lat="46.49239" lon="4.52081">
        <ele>258.587</ele>
        <time>2020-06-07T11:19:03Z</time>
      </trkpt>
      <trkpt lat="46.49242" lon="4.52091">
        <ele>258.587</ele>
        <time>2020-06-07T11:19:09Z</time>
      </trkpt>
      <trkpt lat="46.49245" lon="4.521">
        <ele>256.587</ele>
        <time>2020-06-07T11:19:15Z</time>
      </trkpt>
      <trkpt lat="46.49247" lon="4.52109">
        <ele>257.587</ele>
        <time>2020-06-07T11:19:20Z</time>
      </trkpt>
      <trkpt lat="46.49249" lon="4.52119">
        <ele>254.587</ele>
        <time>2020-06-07T11:19:26Z</time>
      </trkpt>
      <trkpt lat="46.49253" lon="4.52129">
        <ele>255.587</ele>
        <time>2020-06-07T11:19:31Z</time>
      </trkpt>
      <trkpt lat="46.49254" lon="4.5214">
        <ele>254.587</ele>
        <time>2020-06-07T11:19:36Z</time>
      </trkpt>
      <trkpt lat="46.4926" lon="4.52148">
        <ele>253.587</ele>
        <time>2020-06-07T11:19:45Z</time>
      </trkpt>
      <trkpt lat="46.49266" lon="4.52154">
        <ele>255.587</ele>
        <time>2020-06-07T11:19:52Z</time>
      </trkpt>
      <trkpt lat="46.49273" lon="4.52154">
        <ele>251.587</ele>
        <time>2020-06-07T11:20:00Z</time>
      </trkpt>
      <trkpt lat="46.49276" lon="4.52146">
        <ele>253.587</ele>
        <time>2020-06-07T11:20:05Z</time>
      </trkpt>
      <trkpt lat="46.49278" lon="4.52136">
        <ele>251.587</ele>
        <time>2020-06-07T11:20:11Z</time>
      </trkpt>
      <trkpt lat="46.49284" lon="4.5213">
        <ele>250.587</ele>
        <time>2020-06-07T11:20:17Z</time>
      </trkpt>
      <trkpt lat="46.4929" lon="4.52129">
        <ele>247.587</ele>
        <time>2020-06-07T11:20:23Z</time>
      </trkpt>
      <trkpt lat="46.49297" lon="4.52129">
        <ele>251.587</ele>
        <time>2020-06-07T11:20:28Z</time>
      </trkpt>
      <trkpt lat="46.49305" lon="4.52133">
        <ele>251.587</ele>
        <time>2020-06-07T11:20:42Z</time>
      </trkpt>
      <trkpt lat="46.49314" lon="4.52139">
        <ele>253.587</ele>
        <time>2020-06-07T11:20:47Z</time>
      </trkpt>
      <trkpt lat="46.4932" lon="4.5215">
        <ele>253.587</ele>
        <time>2020-06-07T11:20:52Z</time>
      </trkpt>
      <trkpt lat="46.49326" lon="4.52158">
        <ele>251.587</ele>
        <time>2020-06-07T11:20:57Z</time>
      </trkpt>
      <trkpt lat="46.49334" lon="4.5216">
        <ele>251.587</ele>
        <time>2020-06-07T11:21:02Z</time>
      </trkpt>
      <trkpt lat="46.4934" lon="4.52166">
        <ele>250.587</ele>
        <time>2020-06-07T11:21:08Z</time>
      </trkpt>
      <trkpt lat="46.49347" lon="4.5217">
        <ele>251.587</ele>
        <time>2020-06-07T11:21:14Z</time>
      </trkpt>
      <trkpt lat="46.49352" lon="4.52177">
        <ele>252.587</ele>
        <time>2020-06-07T11:21:19Z</time>
      </trkpt>
      <trkpt lat="46.49358" lon="4.52175">
        <ele>251.587</ele>
        <time>2020-06-07T11:21:24Z</time>
      </trkpt>
      <trkpt lat="46.49365" lon="4.52181">
        <ele>256.587</ele>
        <time>2020-06-07T11:21:30Z</time>
      </trkpt>
      <trkpt lat="46.4937" lon="4.52188">
        <ele>260.587</ele>
        <time>2020-06-07T11:21:38Z</time>
      </trkpt>
      <trkpt lat="46.49378" lon="4.52192">
        <ele>260.587</ele>
        <time>2020-06-07T11:21:43Z</time>
      </trkpt>
      <trkpt lat="46.49384" lon="4.52196">
        <ele>259.587</ele>
        <time>2020-06-07T11:21:49Z</time>
      </trkpt>
      <trkpt lat="46.49392" lon="4.522">
        <ele>257.587</ele>
        <time>2020-06-07T11:21:58Z</time>
      </trkpt>
      <trkpt lat="46.49397" lon="4.52205">
        <ele>256.588</ele>
        <time>2020-06-07T11:22:04Z</time>
      </trkpt>
      <trkpt lat="46.49405" lon="4.52205">
        <ele>260.588</ele>
        <time>2020-06-07T11:22:09Z</time>
      </trkpt>
      <trkpt lat="46.49411" lon="4.52198">
        <ele>260.588</ele>
        <time>2020-06-07T11:22:15Z</time>
      </trkpt>
      <trkpt lat="46.49417" lon="4.52191">
        <ele>260.588</ele>
        <time>2020-06-07T11:22:21Z</time>
      </trkpt>
      <trkpt lat="46.49421" lon="4.52183">
        <ele>260.588</ele>
        <time>2020-06-07T11:22:27Z</time>
      </trkpt>
      <trkpt lat="46.49428" lon="4.52177">
        <ele>259.588</ele>
        <time>2020-06-07T11:22:32Z</time>
      </trkpt>
      <trkpt lat="46.49432" lon="4.5217">
        <ele>256.588</ele>
        <time>2020-06-07T11:22:37Z</time>
      </trkpt>
      <trkpt lat="46.4944" lon="4.52165">
        <ele>257.588</ele>
        <time>2020-06-07T11:22:42Z</time>
      </trkpt>
      <trkpt lat="46.4945" lon="4.52168">
        <ele>257.588</ele>
        <time>2020-06-07T11:22:47Z</time>
      </trkpt>
      <trkpt lat="46.49457" lon="4.52171">
        <ele>260.588</ele>
        <time>2020-06-07T11:22:57Z</time>
      </trkpt>
      <trkpt lat="46.49461" lon="4.52178">
        <ele>260.588</ele>
        <time>2020-06-07T11:23:04Z</time>
      </trkpt>
      <trkpt lat="46.49464" lon="4.52187">
        <ele>261.588</ele>
        <time>2020-06-07T11:23:11Z</time>
      </trkpt>
      <trkpt lat="46.4947" lon="4.52194">
        <ele>262.588</ele>
        <time>2020-06-07T11:23:18Z</time>
      </trkpt>
      <trkpt lat="46.49471" lon="4.52207">
        <ele>266.588</ele>
        <time>2020-06-07T11:23:23Z</time>
      </trkpt>
      <trkpt lat="46.49473" lon="4.52218">
        <ele>268.588</ele>
        <time>2020-06-07T11:23:28Z</time>
      </trkpt>
      <trkpt lat="46.4948" lon="4.52224">
        <ele>266.588</ele>
        <time>2020-06-07T11:23:34Z</time>
      </trkpt>
      <trkpt lat="46.49481" lon="4.52235">
        <ele>267.588</ele>
        <time>2020-06-07T11:23:39Z</time>
      </trkpt>
      <trkpt lat="46.49482" lon="4.52247">
        <ele>267.588</ele>
        <time>2020-06-07T11:23:44Z</time>
      </trkpt>
      <trkpt lat="46.49481" lon="4.52257">
        <ele>268.588</ele>
        <time>2020-06-07T11:23:49Z</time>
      </trkpt>
      <trkpt lat="46.4948" lon="4.52271">
        <ele>265.588</ele>
        <time>2020-06-07T11:23:54Z</time>
      </trkpt>
      <trkpt lat="46.49487" lon="4.52276">
        <ele>264.588</ele>
        <time>2020-06-07T11:23:59Z</time>
      </trkpt>
      <trkpt lat="46.49492" lon="4.52285">
        <ele>265.588</ele>
        <time>2020-06-07T11:24:04Z</time>
      </trkpt>
      <trkpt lat="46.49496" lon="4.52294">
        <ele>268.588</ele>
        <time>2020-06-07T11:24:10Z</time>
      </trkpt>
      <trkpt lat="46.49499" lon="4.52303">
        <ele>269.588</ele>
        <time>2020-06-07T11:24:15Z</time>
      </trkpt>
      <trkpt lat="46.49505" lon="4.52311">
        <ele>270.588</ele>
        <time>2020-06-07T11:24:20Z</time>
      </trkpt>
      <trkpt lat="46.49512" lon="4.52317">
        <ele>270.588</ele>
        <time>2020-06-07T11:24:25Z</time>
      </trkpt>
      <trkpt lat="46.4952" lon="4.5232">
        <ele>268.588</ele>
        <time>2020-06-07T11:24:33Z</time>
      </trkpt>
      <trkpt lat="46.49526" lon="4.52323">
        <ele>265.588</ele>
        <time>2020-06-07T11:24:39Z</time>
      </trkpt>
      <trkpt lat="46.49534" lon="4.52331">
        <ele>268.588</ele>
        <time>2020-06-07T11:24:44Z</time>
      </trkpt>
      <trkpt lat="46.49543" lon="4.52333">
        <ele>268.588</ele>
        <time>2020-06-07T11:24:49Z</time>
      </trkpt>
      <trkpt lat="46.4955" lon="4.52331">
        <ele>267.588</ele>
        <time>2020-06-07T11:24:54Z</time>
      </trkpt>
      <trkpt lat="46.49557" lon="4.52332">
        <ele>268.588</ele>
        <time>2020-06-07T11:24:59Z</time>
      </trkpt>
      <trkpt lat="46.49563" lon="4.52337">
        <ele>271.588</ele>
        <time>2020-06-07T11:25:04Z</time>
      </trkpt>
      <trkpt lat="46.49571" lon="4.52337">
        <ele>268.588</ele>
        <time>2020-06-07T11:25:09Z</time>
      </trkpt>
      <trkpt lat="46.49578" lon="4.52334">
        <ele>268.588</ele>
        <time>2020-06-07T11:25:14Z</time>
      </trkpt>
      <trkpt lat="46.49586" lon="4.5233">
        <ele>266.588</ele>
        <time>2020-06-07T11:25:20Z</time>
      </trkpt>
      <trkpt lat="46.49595" lon="4.52329">
        <ele>263.588</ele>
        <time>2020-06-07T11:25:25Z</time>
      </trkpt>
      <trkpt lat="46.49602" lon="4.52332">
        <ele>264.588</ele>
        <time>2020-06-07T11:25:32Z</time>
      </trkpt>
      <trkpt lat="46.49612" lon="4.52333">
        <ele>266.588</ele>
        <time>2020-06-07T11:25:37Z</time>
      </trkpt>
      <trkpt lat="46.4962" lon="4.52327">
        <ele>266.588</ele>
        <time>2020-06-07T11:25:43Z</time>
      </trkpt>
      <trkpt lat="46.49628" lon="4.52324">
        <ele>265.588</ele>
        <time>2020-06-07T11:25:49Z</time>
      </trkpt>
      <trkpt lat="46.49635" lon="4.52319">
        <ele>262.588</ele>
        <time>2020-06-07T11:25:55Z</time>
      </trkpt>
      <trkpt lat="46.49645" lon="4.52314">
        <ele>261.588</ele>
        <time>2020-06-07T11:26:00Z</time>
      </trkpt>
      <trkpt lat="46.49658" lon="4.52311">
        <ele>263.588</ele>
        <time>2020-06-07T11:26:05Z</time>
      </trkpt>
      <trkpt lat="46.49664" lon="4.52307">
        <ele>264.588</ele>
        <time>2020-06-07T11:26:13Z</time>
      </trkpt>
      <trkpt lat="46.49671" lon="4.52305">
        <ele>266.588</ele>
        <time>2020-06-07T11:26:19Z</time>
      </trkpt>
      <trkpt lat="46.4968" lon="4.52305">
        <ele>269.588</ele>
        <time>2020-06-07T11:26:24Z</time>
      </trkpt>
      <trkpt lat="46.49688" lon="4.52305">
        <ele>263.588</ele>
        <time>2020-06-07T11:26:31Z</time>
      </trkpt>
      <trkpt lat="46.49696" lon="4.52304">
        <ele>259.588</ele>
        <time>2020-06-07T11:26:37Z</time>
      </trkpt>
      <trkpt lat="46.49702" lon="4.52308">
        <ele>260.588</ele>
        <time>2020-06-07T11:26:44Z</time>
      </trkpt>
      <trkpt lat="46.49708" lon="4.52312">
        <ele>263.588</ele>
        <time>2020-06-07T11:26:51Z</time>
      </trkpt>
      <trkpt lat="46.49715" lon="4.52317">
        <ele>267.588</ele>
        <time>2020-06-07T11:26:57Z</time>
      </trkpt>
      <trkpt lat="46.49723" lon="4.52322">
        <ele>269.588</ele>
        <time>2020-06-07T11:27:03Z</time>
      </trkpt>
      <trkpt lat="46.49728" lon="4.52328">
        <ele>275.589</ele>
        <time>2020-06-07T11:27:10Z</time>
      </trkpt>
      <trkpt lat="46.49735" lon="4.52333">
        <ele>274.589</ele>
        <time>2020-06-07T11:27:15Z</time>
      </trkpt>
      <trkpt lat="46.49742" lon="4.52333">
        <ele>275.589</ele>
        <time>2020-06-07T11:27:20Z</time>
      </trkpt>
      <trkpt lat="46.49749" lon="4.52333">
        <ele>274.589</ele>
        <time>2020-06-07T11:27:26Z</time>
      </trkpt>
      <trkpt lat="46.49758" lon="4.52332">
        <ele>275.589</ele>
        <time>2020-06-07T11:27:31Z</time>
      </trkpt>
      <trkpt lat="46.49765" lon="4.52332">
        <ele>275.589</ele>
        <time>2020-06-07T11:27:38Z</time>
      </trkpt>
      <trkpt lat="46.49772" lon="4.52331">
        <ele>277.589</ele>
        <time>2020-06-07T11:27:44Z</time>
      </trkpt>
      <trkpt lat="46.49781" lon="4.52332">
        <ele>279.589</ele>
        <time>2020-06-07T11:27:49Z</time>
      </trkpt>
      <trkpt lat="46.49788" lon="4.52332">
        <ele>278.589</ele>
        <time>2020-06-07T11:27:54Z</time>
      </trkpt>
      <trkpt lat="46.49794" lon="4.5233">
        <ele>279.589</ele>
        <time>2020-06-07T11:27:59Z</time>
      </trkpt>
      <trkpt lat="46.49802" lon="4.52334">
        <ele>279.589</ele>
        <time>2020-06-07T11:28:05Z</time>
      </trkpt>
      <trkpt lat="46.49809" lon="4.52331">
        <ele>281.589</ele>
        <time>2020-06-07T11:28:10Z</time>
      </trkpt>
      <trkpt lat="46.49817" lon="4.5233">
        <ele>280.589</ele>
        <time>2020-06-07T11:28:15Z</time>
      </trkpt>
      <trkpt lat="46.49823" lon="4.52329">
        <ele>280.589</ele>
        <time>2020-06-07T11:28:20Z</time>
      </trkpt>
      <trkpt lat="46.49831" lon="4.52328">
        <ele>281.589</ele>
        <time>2020-06-07T11:28:26Z</time>
      </trkpt>
      <trkpt lat="46.49838" lon="4.52329">
        <ele>281.589</ele>
        <time>2020-06-07T11:28:31Z</time>
      </trkpt>
      <trkpt lat="46.49846" lon="4.52326">
        <ele>281.589</ele>
        <time>2020-06-07T11:28:36Z</time>
      </trkpt>
      <trkpt lat="46.49854" lon="4.52332">
        <ele>281.589</ele>
        <time>2020-06-07T11:28:41Z</time>
      </trkpt>
      <trkpt lat="46.49861" lon="4.52334">
        <ele>284.589</ele>
        <time>2020-06-07T11:28:48Z</time>
      </trkpt>
      <trkpt lat="46.49869" lon="4.52333">
        <ele>283.589</ele>
        <time>2020-06-07T11:28:53Z</time>
      </trkpt>
      <trkpt lat="46.49875" lon="4.52329">
        <ele>284.589</ele>
        <time>2020-06-07T11:28:58Z</time>
      </trkpt>
      <trkpt lat="46.49882" lon="4.52325">
        <ele>281.589</ele>
        <time>2020-06-07T11:29:04Z</time>
      </trkpt>
      <trkpt lat="46.49891" lon="4.52323">
        <ele>279.589</ele>
        <time>2020-06-07T11:29:09Z</time>
      </trkpt>
      <trkpt lat="46.49898" lon="4.52318">
        <ele>279.589</ele>
        <time>2020-06-07T11:29:15Z</time>
      </trkpt>
      <trkpt lat="46.49905" lon="4.52315">
        <ele>281.589</ele>
        <time>2020-06-07T11:29:20Z</time>
      </trkpt>
      <trkpt lat="46.49915" lon="4.5231">
        <ele>281.589</ele>
        <time>2020-06-07T11:29:25Z</time>
      </trkpt>
      <trkpt lat="46.49923" lon="4.52304">
        <ele>284.589</ele>
        <time>2020-06-07T11:29:30Z</time>
      </trkpt>
      <trkpt lat="46.49926" lon="4.52296">
        <ele>284.589</ele>
        <time>2020-06-07T11:29:38Z</time>
      </trkpt>
      <trkpt lat="46.49934" lon="4.52293">
        <ele>284.589</ele>
        <time>2020-06-07T11:29:43Z</time>
      </trkpt>
      <trkpt lat="46.49942" lon="4.52289">
        <ele>284.589</ele>
        <time>2020-06-07T11:29:48Z</time>
      </trkpt>
      <trkpt lat="46.49947" lon="4.52282">
        <ele>283.589</ele>
        <time>2020-06-07T11:29:55Z</time>
      </trkpt>
      <trkpt lat="46.49957" lon="4.52277">
        <ele>284.589</ele>
        <time>2020-06-07T11:30:00Z</time>
      </trkpt>
      <trkpt lat="46.49963" lon="4.52273">
        <ele>283.589</ele>
        <time>2020-06-07T11:30:07Z</time>
      </trkpt>
      <trkpt lat="46.49972" lon="4.52271">
        <ele>281.589</ele>
        <time>2020-06-07T11:30:12Z</time>
      </trkpt>
      <trkpt lat="46.49982" lon="4.52267">
        <ele>276.589</ele>
        <time>2020-06-07T11:30:17Z</time>
      </trkpt>
      <trkpt lat="46.4999" lon="4.52262">
        <ele>277.589</ele>
        <time>2020-06-07T11:30:23Z</time>
      </trkpt>
      <trkpt lat="46.49996" lon="4.52258">
        <ele>276.589</ele>
        <time>2020-06-07T11:30:28Z</time>
      </trkpt>
      <trkpt lat="46.50002" lon="4.52253">
        <ele>280.589</ele>
        <time>2020-06-07T11:30:36Z</time>
      </trkpt>
      <trkpt lat="46.50009" lon="4.5225">
        <ele>281.589</ele>
        <time>2020-06-07T11:30:41Z</time>
      </trkpt>
      <trkpt lat="46.50017" lon="4.52246">
        <ele>284.589</ele>
        <time>2020-06-07T11:30:46Z</time>
      </trkpt>
      <trkpt lat="46.50025" lon="4.52242">
        <ele>282.589</ele>
        <time>2020-06-07T11:30:51Z</time>
      </trkpt>
      <trkpt lat="46.50032" lon="4.52236">
        <ele>282.589</ele>
        <time>2020-06-07T11:30:57Z</time>
      </trkpt>
      <trkpt lat="46.50038" lon="4.52231">
        <ele>284.589</ele>
        <time>2020-06-07T11:31:02Z</time>
      </trkpt>
      <trkpt lat="46.50044" lon="4.52225">
        <ele>285.589</ele>
        <time>2020-06-07T11:31:08Z</time>
      </trkpt>
      <trkpt lat="46.5005" lon="4.52222">
        <ele>288.589</ele>
        <time>2020-06-07T11:31:13Z</time>
      </trkpt>
      <trkpt lat="46.50059" lon="4.52217">
        <ele>289.589</ele>
        <time>2020-06-07T11:31:18Z</time>
      </trkpt>
      <trkpt lat="46.50065" lon="4.52211">
        <ele>293.589</ele>
        <time>2020-06-07T11:31:26Z</time>
      </trkpt>
      <trkpt lat="46.50072" lon="4.52205">
        <ele>289.589</ele>
        <time>2020-06-07T11:31:32Z</time>
      </trkpt>
      <trkpt lat="46.50079" lon="4.522">
        <ele>290.589</ele>
        <time>2020-06-07T11:31:38Z</time>
      </trkpt>
      <trkpt lat="46.50092" lon="4.52196">
        <ele>288.589</ele>
        <time>2020-06-07T11:31:43Z</time>
      </trkpt>
      <trkpt lat="46.50097" lon="4.52189">
        <ele>289.589</ele>
        <time>2020-06-07T11:31:48Z</time>
      </trkpt>
      <trkpt lat="46.50104" lon="4.52183">
        <ele>289.589</ele>
        <time>2020-06-07T11:31:53Z</time>
      </trkpt>
      <trkpt lat="46.50111" lon="4.52176">
        <ele>291.589</ele>
        <time>2020-06-07T11:32:01Z</time>
      </trkpt>
      <trkpt lat="46.50118" lon="4.5217">
        <ele>291.589</ele>
        <time>2020-06-07T11:32:07Z</time>
      </trkpt>
      <trkpt lat="46.50125" lon="4.52167">
        <ele>291.589</ele>
        <time>2020-06-07T11:32:14Z</time>
      </trkpt>
      <trkpt lat="46.50131" lon="4.52164">
        <ele>292.589</ele>
        <time>2020-06-07T11:32:19Z</time>
      </trkpt>
      <trkpt lat="46.50138" lon="4.5216">
        <ele>292.589</ele>
        <time>2020-06-07T11:32:24Z</time>
      </trkpt>
      <trkpt lat="46.50144" lon="4.52157">
        <ele>294.59</ele>
        <time>2020-06-07T11:32:31Z</time>
      </trkpt>
      <trkpt lat="46.50152" lon="4.52151">
        <ele>294.59</ele>
        <time>2020-06-07T11:32:36Z</time>
      </trkpt>
      <trkpt lat="46.50159" lon="4.52148">
        <ele>297.59</ele>
        <time>2020-06-07T11:32:42Z</time>
      </trkpt>
      <trkpt lat="46.50166" lon="4.52145">
        <ele>298.59</ele>
        <time>2020-06-07T11:32:47Z</time>
      </trkpt>
      <trkpt lat="46.50173" lon="4.52143">
        <ele>299.59</ele>
        <time>2020-06-07T11:32:52Z</time>
      </trkpt>
      <trkpt lat="46.5018" lon="4.52143">
        <ele>300.59</ele>
        <time>2020-06-07T11:33:01Z</time>
      </trkpt>
      <trkpt lat="46.50189" lon="4.52143">
        <ele>303.59</ele>
        <time>2020-06-07T11:33:07Z</time>
      </trkpt>
      <trkpt lat="46.50199" lon="4.52143">
        <ele>301.59</ele>
        <time>2020-06-07T11:33:12Z</time>
      </trkpt>
      <trkpt lat="46.50207" lon="4.52146">
        <ele>298.59</ele>
        <time>2020-06-07T11:33:18Z</time>
      </trkpt>
      <trkpt lat="46.50215" lon="4.52145">
        <ele>297.59</ele>
        <time>2020-06-07T11:33:23Z</time>
      </trkpt>
      <trkpt lat="46.50223" lon="4.52145">
        <ele>296.59</ele>
        <time>2020-06-07T11:33:28Z</time>
      </trkpt>
      <trkpt lat="46.50231" lon="4.52144">
        <ele>295.59</ele>
        <time>2020-06-07T11:33:33Z</time>
      </trkpt>
      <trkpt lat="46.50236" lon="4.52138">
        <ele>296.59</ele>
        <time>2020-06-07T11:33:38Z</time>
      </trkpt>
      <trkpt lat="46.50244" lon="4.52139">
        <ele>295.59</ele>
        <time>2020-06-07T11:33:43Z</time>
      </trkpt>
      <trkpt lat="46.50251" lon="4.52139">
        <ele>295.59</ele>
        <time>2020-06-07T11:33:48Z</time>
      </trkpt>
      <trkpt lat="46.50259" lon="4.52141">
        <ele>297.59</ele>
        <time>2020-06-07T11:33:53Z</time>
      </trkpt>
      <trkpt lat="46.50267" lon="4.5214">
        <ele>297.59</ele>
        <time>2020-06-07T11:33:58Z</time>
      </trkpt>
      <trkpt lat="46.50275" lon="4.52142">
        <ele>297.59</ele>
        <time>2020-06-07T11:34:04Z</time>
      </trkpt>
      <trkpt lat="46.50282" lon="4.52144">
        <ele>294.59</ele>
        <time>2020-06-07T11:34:10Z</time>
      </trkpt>
      <trkpt lat="46.50291" lon="4.52147">
        <ele>294.59</ele>
        <time>2020-06-07T11:34:17Z</time>
      </trkpt>
      <trkpt lat="46.50304" lon="4.52152">
        <ele>293.59</ele>
        <time>2020-06-07T11:34:22Z</time>
      </trkpt>
      <trkpt lat="46.50311" lon="4.52151">
        <ele>291.59</ele>
        <time>2020-06-07T11:34:28Z</time>
      </trkpt>
      <trkpt lat="46.50319" lon="4.52154">
        <ele>293.59</ele>
        <time>2020-06-07T11:34:35Z</time>
      </trkpt>
      <trkpt lat="46.50325" lon="4.52157">
        <ele>294.59</ele>
        <time>2020-06-07T11:34:40Z</time>
      </trkpt>
      <trkpt lat="46.50331" lon="4.52161">
        <ele>293.59</ele>
        <time>2020-06-07T11:34:45Z</time>
      </trkpt>
      <trkpt lat="46.50338" lon="4.52161">
        <ele>294.59</ele>
        <time>2020-06-07T11:34:51Z</time>
      </trkpt>
      <trkpt lat="46.50345" lon="4.52161">
        <ele>296.59</ele>
        <time>2020-06-07T11:34:56Z</time>
      </trkpt>
      <trkpt lat="46.50352" lon="4.52167">
        <ele>293.59</ele>
        <time>2020-06-07T11:35:01Z</time>
      </trkpt>
      <trkpt lat="46.5036" lon="4.52172">
        <ele>293.59</ele>
        <time>2020-06-07T11:35:06Z</time>
      </trkpt>
      <trkpt lat="46.50367" lon="4.52169">
        <ele>293.59</ele>
        <time>2020-06-07T11:35:11Z</time>
      </trkpt>
      <trkpt lat="46.50375" lon="4.5217">
        <ele>295.59</ele>
        <time>2020-06-07T11:35:18Z</time>
      </trkpt>
      <trkpt lat="46.50382" lon="4.52177">
        <ele>296.59</ele>
        <time>2020-06-07T11:35:23Z</time>
      </trkpt>
      <trkpt lat="46.50388" lon="4.52183">
        <ele>303.59</ele>
        <time>2020-06-07T11:35:28Z</time>
      </trkpt>
      <trkpt lat="46.50395" lon="4.52186">
        <ele>305.59</ele>
        <time>2020-06-07T11:35:34Z</time>
      </trkpt>
      <trkpt lat="46.50401" lon="4.52183">
        <ele>305.59</ele>
        <time>2020-06-07T11:35:39Z</time>
      </trkpt>
      <trkpt lat="46.50408" lon="4.52182">
        <ele>307.59</ele>
        <time>2020-06-07T11:35:45Z</time>
      </trkpt>
      <trkpt lat="46.50415" lon="4.5218">
        <ele>307.59</ele>
        <time>2020-06-07T11:35:50Z</time>
      </trkpt>
      <trkpt lat="46.50422" lon="4.52179">
        <ele>307.59</ele>
        <time>2020-06-07T11:35:55Z</time>
      </trkpt>
      <trkpt lat="46.50428" lon="4.52185">
        <ele>305.59</ele>
        <time>2020-06-07T11:36:00Z</time>
      </trkpt>
      <trkpt lat="46.50435" lon="4.52185">
        <ele>305.59</ele>
        <time>2020-06-07T11:36:05Z</time>
      </trkpt>
      <trkpt lat="46.50442" lon="4.52187">
        <ele>305.59</ele>
        <time>2020-06-07T11:36:11Z</time>
      </trkpt>
      <trkpt lat="46.50449" lon="4.52187">
        <ele>306.59</ele>
        <time>2020-06-07T11:36:17Z</time>
      </trkpt>
      <trkpt lat="46.50456" lon="4.52187">
        <ele>303.59</ele>
        <time>2020-06-07T11:36:22Z</time>
      </trkpt>
      <trkpt lat="46.50463" lon="4.52188">
        <ele>302.59</ele>
        <time>2020-06-07T11:36:30Z</time>
      </trkpt>
      <trkpt lat="46.50469" lon="4.52191">
        <ele>301.59</ele>
        <time>2020-06-07T11:36:36Z</time>
      </trkpt>
      <trkpt lat="46.50477" lon="4.52188">
        <ele>301.59</ele>
        <time>2020-06-07T11:36:41Z</time>
      </trkpt>
      <trkpt lat="46.50485" lon="4.52188">
        <ele>302.59</ele>
        <time>2020-06-07T11:36:47Z</time>
      </trkpt>
      <trkpt lat="46.50493" lon="4.52182">
        <ele>298.59</ele>
        <time>2020-06-07T11:36:52Z</time>
      </trkpt>
      <trkpt lat="46.505" lon="4.52181">
        <ele>298.591</ele>
        <time>2020-06-07T11:36:58Z</time>
      </trkpt>
      <trkpt lat="46.50507" lon="4.52178">
        <ele>296.591</ele>
        <time>2020-06-07T11:37:03Z</time>
      </trkpt>
      <trkpt lat="46.50514" lon="4.52179">
        <ele>300.591</ele>
        <time>2020-06-07T11:37:09Z</time>
      </trkpt>
      <trkpt lat="46.50519" lon="4.52188">
        <ele>302.591</ele>
        <time>2020-06-07T11:37:16Z</time>
      </trkpt>
      <trkpt lat="46.50523" lon="4.52195">
        <ele>303.591</ele>
        <time>2020-06-07T11:37:21Z</time>
      </trkpt>
      <trkpt lat="46.50527" lon="4.52206">
        <ele>306.591</ele>
        <time>2020-06-07T11:37:26Z</time>
      </trkpt>
      <trkpt lat="46.50529" lon="4.52216">
        <ele>305.591</ele>
        <time>2020-06-07T11:37:31Z</time>
      </trkpt>
      <trkpt lat="46.50529" lon="4.52227">
        <ele>305.591</ele>
        <time>2020-06-07T11:37:36Z</time>
      </trkpt>
      <trkpt lat="46.50531" lon="4.52237">
        <ele>302.591</ele>
        <time>2020-06-07T11:37:41Z</time>
      </trkpt>
      <trkpt lat="46.50534" lon="4.52251">
        <ele>302.591</ele>
        <time>2020-06-07T11:37:46Z</time>
      </trkpt>
      <trkpt lat="46.50535" lon="4.52261">
        <ele>302.591</ele>
        <time>2020-06-07T11:37:51Z</time>
      </trkpt>
      <trkpt lat="46.50535" lon="4.52273">
        <ele>301.591</ele>
        <time>2020-06-07T11:37:56Z</time>
      </trkpt>
      <trkpt lat="46.50537" lon="4.52285">
        <ele>303.591</ele>
        <time>2020-06-07T11:38:01Z</time>
      </trkpt>
      <trkpt lat="46.5054" lon="4.52296">
        <ele>301.591</ele>
        <time>2020-06-07T11:38:07Z</time>
      </trkpt>
      <trkpt lat="46.50542" lon="4.52306">
        <ele>304.591</ele>
        <time>2020-06-07T11:38:13Z</time>
      </trkpt>
      <trkpt lat="46.50546" lon="4.52315">
        <ele>301.591</ele>
        <time>2020-06-07T11:38:21Z</time>
      </trkpt>
      <trkpt lat="46.50547" lon="4.52325">
        <ele>298.591</ele>
        <time>2020-06-07T11:38:26Z</time>
      </trkpt>
      <trkpt lat="46.50547" lon="4.52336">
        <ele>299.591</ele>
        <time>2020-06-07T11:38:31Z</time>
      </trkpt>
      <trkpt lat="46.50545" lon="4.52353">
        <ele>299.591</ele>
        <time>2020-06-07T11:38:36Z</time>
      </trkpt>
      <trkpt lat="46.50542" lon="4.52367">
        <ele>306.591</ele>
        <time>2020-06-07T11:38:41Z</time>
      </trkpt>
      <trkpt lat="46.50547" lon="4.52374">
        <ele>304.591</ele>
        <time>2020-06-07T11:38:46Z</time>
      </trkpt>
      <trkpt lat="46.50552" lon="4.52385">
        <ele>304.591</ele>
        <time>2020-06-07T11:38:51Z</time>
      </trkpt>
      <trkpt lat="46.50558" lon="4.5239">
        <ele>303.591</ele>
        <time>2020-06-07T11:38:56Z</time>
      </trkpt>
      <trkpt lat="46.50559" lon="4.52401">
        <ele>306.591</ele>
        <time>2020-06-07T11:39:01Z</time>
      </trkpt>
      <trkpt lat="46.50559" lon="4.52414">
        <ele>307.591</ele>
        <time>2020-06-07T11:39:06Z</time>
      </trkpt>
      <trkpt lat="46.50558" lon="4.52424">
        <ele>302.591</ele>
        <time>2020-06-07T11:39:12Z</time>
      </trkpt>
      <trkpt lat="46.50555" lon="4.52433">
        <ele>300.591</ele>
        <time>2020-06-07T11:39:18Z</time>
      </trkpt>
      <trkpt lat="46.50556" lon="4.52443">
        <ele>304.591</ele>
        <time>2020-06-07T11:39:27Z</time>
      </trkpt>
      <trkpt lat="46.50558" lon="4.52453">
        <ele>303.591</ele>
        <time>2020-06-07T11:39:32Z</time>
      </trkpt>
      <trkpt lat="46.50563" lon="4.52463">
        <ele>299.591</ele>
        <time>2020-06-07T11:39:37Z</time>
      </trkpt>
      <trkpt lat="46.5056" lon="4.52477">
        <ele>302.591</ele>
        <time>2020-06-07T11:39:42Z</time>
      </trkpt>
      <trkpt lat="46.5056" lon="4.52488">
        <ele>301.591</ele>
        <time>2020-06-07T11:39:47Z</time>
      </trkpt>
      <trkpt lat="46.50562" lon="4.52498">
        <ele>299.591</ele>
        <time>2020-06-07T11:39:52Z</time>
      </trkpt>
      <trkpt lat="46.50563" lon="4.52508">
        <ele>300.591</ele>
        <time>2020-06-07T11:39:57Z</time>
      </trkpt>
      <trkpt lat="46.50564" lon="4.5252">
        <ele>301.591</ele>
        <time>2020-06-07T11:40:02Z</time>
      </trkpt>
      <trkpt lat="46.50568" lon="4.52528">
        <ele>299.591</ele>
        <time>2020-06-07T11:40:08Z</time>
      </trkpt>
      <trkpt lat="46.50574" lon="4.52534">
        <ele>297.591</ele>
        <time>2020-06-07T11:40:14Z</time>
      </trkpt>
      <trkpt lat="46.50575" lon="4.5255">
        <ele>299.591</ele>
        <time>2020-06-07T11:40:19Z</time>
      </trkpt>
      <trkpt lat="46.50572" lon="4.52565">
        <ele>304.591</ele>
        <time>2020-06-07T11:40:24Z</time>
      </trkpt>
      <trkpt lat="46.50575" lon="4.52574">
        <ele>306.591</ele>
        <time>2020-06-07T11:42:57Z</time>
      </trkpt>
      <trkpt lat="46.50575" lon="4.52583">
        <ele>307.591</ele>
        <time>2020-06-07T11:43:02Z</time>
      </trkpt>
      <trkpt lat="46.50577" lon="4.52593">
        <ele>307.591</ele>
        <time>2020-06-07T11:43:08Z</time>
      </trkpt>
      <trkpt lat="46.50579" lon="4.52602">
        <ele>307.591</ele>
        <time>2020-06-07T11:43:15Z</time>
      </trkpt>
      <trkpt lat="46.50583" lon="4.52613">
        <ele>308.591</ele>
        <time>2020-06-07T11:43:20Z</time>
      </trkpt>
      <trkpt lat="46.50587" lon="4.52624">
        <ele>308.591</ele>
        <time>2020-06-07T11:43:25Z</time>
      </trkpt>
      <trkpt lat="46.50594" lon="4.52631">
        <ele>307.591</ele>
        <time>2020-06-07T11:43:30Z</time>
      </trkpt>
      <trkpt lat="46.50599" lon="4.52637">
        <ele>308.591</ele>
        <time>2020-06-07T11:43:35Z</time>
      </trkpt>
      <trkpt lat="46.50604" lon="4.52645">
        <ele>308.591</ele>
        <time>2020-06-07T11:43:40Z</time>
      </trkpt>
      <trkpt lat="46.50611" lon="4.52646">
        <ele>308.591</ele>
        <time>2020-06-07T11:43:47Z</time>
      </trkpt>
      <trkpt lat="46.50617" lon="4.52653">
        <ele>307.591</ele>
        <time>2020-06-07T11:43:53Z</time>
      </trkpt>
      <trkpt lat="46.50621" lon="4.52662">
        <ele>303.591</ele>
        <time>2020-06-07T11:43:58Z</time>
      </trkpt>
      <trkpt lat="46.50627" lon="4.5267">
        <ele>302.591</ele>
        <time>2020-06-07T11:44:03Z</time>
      </trkpt>
      <trkpt lat="46.50632" lon="4.52676">
        <ele>298.591</ele>
        <time>2020-06-07T11:44:10Z</time>
      </trkpt>
      <trkpt lat="46.50636" lon="4.52687">
        <ele>299.591</ele>
        <time>2020-06-07T11:44:16Z</time>
      </trkpt>
      <trkpt lat="46.50642" lon="4.52698">
        <ele>302.591</ele>
        <time>2020-06-07T11:44:21Z</time>
      </trkpt>
      <trkpt lat="46.50646" lon="4.52707">
        <ele>303.591</ele>
        <time>2020-06-07T11:44:26Z</time>
      </trkpt>
      <trkpt lat="46.50651" lon="4.52711">
        <ele>303.591</ele>
        <time>2020-06-07T11:44:31Z</time>
      </trkpt>
      <trkpt lat="46.50656" lon="4.52722">
        <ele>303.591</ele>
        <time>2020-06-07T11:44:38Z</time>
      </trkpt>
      <trkpt lat="46.50655" lon="4.52731">
        <ele>303.591</ele>
        <time>2020-06-07T11:44:43Z</time>
      </trkpt>
      <trkpt lat="46.50661" lon="4.52737">
        <ele>305.591</ele>
        <time>2020-06-07T11:44:48Z</time>
      </trkpt>
      <trkpt lat="46.50667" lon="4.52743">
        <ele>307.591</ele>
        <time>2020-06-07T11:44:53Z</time>
      </trkpt>
      <trkpt lat="46.50674" lon="4.5275">
        <ele>305.591</ele>
        <time>2020-06-07T11:44:59Z</time>
      </trkpt>
      <trkpt lat="46.5068" lon="4.52751">
        <ele>301.591</ele>
        <time>2020-06-07T11:45:05Z</time>
      </trkpt>
      <trkpt lat="46.50686" lon="4.52757">
        <ele>302.591</ele>
        <time>2020-06-07T11:45:10Z</time>
      </trkpt>
      <trkpt lat="46.50694" lon="4.52761">
        <ele>305.591</ele>
        <time>2020-06-07T11:45:16Z</time>
      </trkpt>
      <trkpt lat="46.507" lon="4.52766">
        <ele>306.591</ele>
        <time>2020-06-07T11:45:21Z</time>
      </trkpt>
      <trkpt lat="46.50707" lon="4.52766">
        <ele>307.592</ele>
        <time>2020-06-07T11:45:26Z</time>
      </trkpt>
      <trkpt lat="46.50713" lon="4.52767">
        <ele>312.592</ele>
        <time>2020-06-07T11:45:31Z</time>
      </trkpt>
      <trkpt lat="46.50721" lon="4.52769">
        <ele>313.592</ele>
        <time>2020-06-07T11:45:36Z</time>
      </trkpt>
      <trkpt lat="46.50728" lon="4.52768">
        <ele>313.592</ele>
        <time>2020-06-07T11:45:41Z</time>
      </trkpt>
      <trkpt lat="46.50735" lon="4.52769">
        <ele>314.592</ele>
        <time>2020-06-07T11:45:46Z</time>
      </trkpt>
      <trkpt lat="46.50742" lon="4.52766">
        <ele>316.592</ele>
        <time>2020-06-07T11:45:52Z</time>
      </trkpt>
      <trkpt lat="46.50749" lon="4.52767">
        <ele>318.592</ele>
        <time>2020-06-07T11:45:57Z</time>
      </trkpt>
      <trkpt lat="46.50756" lon="4.52768">
        <ele>317.592</ele>
        <time>2020-06-07T11:46:02Z</time>
      </trkpt>
      <trkpt lat="46.50764" lon="4.52773">
        <ele>311.592</ele>
        <time>2020-06-07T11:46:09Z</time>
      </trkpt>
      <trkpt lat="46.50771" lon="4.5277">
        <ele>311.592</ele>
        <time>2020-06-07T11:46:14Z</time>
      </trkpt>
      <trkpt lat="46.50778" lon="4.52772">
        <ele>313.592</ele>
        <time>2020-06-07T11:46:21Z</time>
      </trkpt>
      <trkpt lat="46.50783" lon="4.52779">
        <ele>312.592</ele>
        <time>2020-06-07T11:46:29Z</time>
      </trkpt>
      <trkpt lat="46.50787" lon="4.52786">
        <ele>312.592</ele>
        <time>2020-06-07T11:46:34Z</time>
      </trkpt>
      <trkpt lat="46.50795" lon="4.52791">
        <ele>315.592</ele>
        <time>2020-06-07T11:46:42Z</time>
      </trkpt>
      <trkpt lat="46.50803" lon="4.528">
        <ele>313.592</ele>
        <time>2020-06-07T11:46:47Z</time>
      </trkpt>
      <trkpt lat="46.5081" lon="4.52809">
        <ele>314.592</ele>
        <time>2020-06-07T11:46:52Z</time>
      </trkpt>
      <trkpt lat="46.50816" lon="4.52818">
        <ele>316.592</ele>
        <time>2020-06-07T11:46:57Z</time>
      </trkpt>
      <trkpt lat="46.50821" lon="4.52825">
        <ele>317.592</ele>
        <time>2020-06-07T11:47:03Z</time>
      </trkpt>
      <trkpt lat="46.50827" lon="4.5283">
        <ele>317.592</ele>
        <time>2020-06-07T11:47:08Z</time>
      </trkpt>
      <trkpt lat="46.50832" lon="4.52836">
        <ele>316.592</ele>
        <time>2020-06-07T11:47:14Z</time>
      </trkpt>
      <trkpt lat="46.50838" lon="4.52842">
        <ele>318.592</ele>
        <time>2020-06-07T11:47:21Z</time>
      </trkpt>
      <trkpt lat="46.50844" lon="4.52851">
        <ele>320.592</ele>
        <time>2020-06-07T11:47:26Z</time>
      </trkpt>
      <trkpt lat="46.50848" lon="4.52858">
        <ele>319.592</ele>
        <time>2020-06-07T11:47:31Z</time>
      </trkpt>
      <trkpt lat="46.50853" lon="4.52866">
        <ele>320.592</ele>
        <time>2020-06-07T11:47:36Z</time>
      </trkpt>
      <trkpt lat="46.50859" lon="4.52874">
        <ele>319.592</ele>
        <time>2020-06-07T11:47:41Z</time>
      </trkpt>
      <trkpt lat="46.50863" lon="4.52885">
        <ele>318.592</ele>
        <time>2020-06-07T11:47:48Z</time>
      </trkpt>
      <trkpt lat="46.50867" lon="4.52893">
        <ele>319.592</ele>
        <time>2020-06-07T11:47:53Z</time>
      </trkpt>
      <trkpt lat="46.50869" lon="4.52903">
        <ele>321.592</ele>
        <time>2020-06-07T11:47:58Z</time>
      </trkpt>
      <trkpt lat="46.50874" lon="4.52911">
        <ele>321.592</ele>
        <time>2020-06-07T11:48:03Z</time>
      </trkpt>
      <trkpt lat="46.50876" lon="4.52922">
        <ele>319.592</ele>
        <time>2020-06-07T11:48:08Z</time>
      </trkpt>
      <trkpt lat="46.50878" lon="4.52932">
        <ele>321.592</ele>
        <time>2020-06-07T11:48:14Z</time>
      </trkpt>
      <trkpt lat="46.50882" lon="4.52943">
        <ele>322.592</ele>
        <time>2020-06-07T11:48:19Z</time>
      </trkpt>
      <trkpt lat="46.50885" lon="4.52953">
        <ele>322.592</ele>
        <time>2020-06-07T11:48:25Z</time>
      </trkpt>
      <trkpt lat="46.5089" lon="4.52959">
        <ele>320.592</ele>
        <time>2020-06-07T11:48:30Z</time>
      </trkpt>
      <trkpt lat="46.50895" lon="4.52968">
        <ele>317.592</ele>
        <time>2020-06-07T11:48:36Z</time>
      </trkpt>
      <trkpt lat="46.50897" lon="4.52976">
        <ele>317.592</ele>
        <time>2020-06-07T11:48:41Z</time>
      </trkpt>
      <trkpt lat="46.509" lon="4.52985">
        <ele>317.592</ele>
        <time>2020-06-07T11:48:46Z</time>
      </trkpt>
      <trkpt lat="46.50904" lon="4.52995">
        <ele>317.592</ele>
        <time>2020-06-07T11:48:51Z</time>
      </trkpt>
      <trkpt lat="46.50907" lon="4.53005">
        <ele>319.592</ele>
        <time>2020-06-07T11:48:57Z</time>
      </trkpt>
      <trkpt lat="46.50914" lon="4.53012">
        <ele>322.592</ele>
        <time>2020-06-07T11:49:02Z</time>
      </trkpt>
      <trkpt lat="46.5092" lon="4.53018">
        <ele>323.592</ele>
        <time>2020-06-07T11:49:07Z</time>
      </trkpt>
      <trkpt lat="46.50926" lon="4.53028">
        <ele>325.592</ele>
        <time>2020-06-07T11:49:12Z</time>
      </trkpt>
      <trkpt lat="46.5093" lon="4.53037">
        <ele>324.592</ele>
        <time>2020-06-07T11:49:17Z</time>
      </trkpt>
      <trkpt lat="46.50935" lon="4.53045">
        <ele>324.592</ele>
        <time>2020-06-07T11:49:22Z</time>
      </trkpt>
      <trkpt lat="46.5094" lon="4.53053">
        <ele>322.592</ele>
        <time>2020-06-07T11:49:27Z</time>
      </trkpt>
      <trkpt lat="46.50943" lon="4.53062">
        <ele>323.592</ele>
        <time>2020-06-07T11:49:32Z</time>
      </trkpt>
      <trkpt lat="46.50946" lon="4.53072">
        <ele>323.592</ele>
        <time>2020-06-07T11:49:37Z</time>
      </trkpt>
      <trkpt lat="46.50951" lon="4.53081">
        <ele>320.592</ele>
        <time>2020-06-07T11:49:46Z</time>
      </trkpt>
      <trkpt lat="46.50957" lon="4.53087">
        <ele>319.592</ele>
        <time>2020-06-07T11:49:52Z</time>
      </trkpt>
      <trkpt lat="46.5096" lon="4.53097">
        <ele>320.592</ele>
        <time>2020-06-07T11:49:57Z</time>
      </trkpt>
      <trkpt lat="46.50966" lon="4.53102">
        <ele>315.592</ele>
        <time>2020-06-07T11:50:02Z</time>
      </trkpt>
      <trkpt lat="46.50971" lon="4.53108">
        <ele>316.592</ele>
        <time>2020-06-07T11:50:10Z</time>
      </trkpt>
      <trkpt lat="46.50976" lon="4.53119">
        <ele>312.593</ele>
        <time>2020-06-07T11:50:15Z</time>
      </trkpt>
      <trkpt lat="46.50978" lon="4.53129">
        <ele>312.593</ele>
        <time>2020-06-07T11:50:20Z</time>
      </trkpt>
      <trkpt lat="46.50982" lon="4.53137">
        <ele>310.593</ele>
        <time>2020-06-07T11:50:26Z</time>
      </trkpt>
      <trkpt lat="46.50987" lon="4.53146">
        <ele>313.593</ele>
        <time>2020-06-07T11:50:31Z</time>
      </trkpt>
      <trkpt lat="46.50994" lon="4.53156">
        <ele>317.593</ele>
        <time>2020-06-07T11:50:36Z</time>
      </trkpt>
      <trkpt lat="46.50999" lon="4.53164">
        <ele>314.593</ele>
        <time>2020-06-07T11:50:42Z</time>
      </trkpt>
      <trkpt lat="46.51003" lon="4.53174">
        <ele>312.593</ele>
        <time>2020-06-07T11:50:48Z</time>
      </trkpt>
      <trkpt lat="46.51002" lon="4.53184">
        <ele>314.593</ele>
        <time>2020-06-07T11:50:53Z</time>
      </trkpt>
      <trkpt lat="46.51009" lon="4.53191">
        <ele>309.593</ele>
        <time>2020-06-07T11:50:59Z</time>
      </trkpt>
      <trkpt lat="46.51014" lon="4.53198">
        <ele>310.593</ele>
        <time>2020-06-07T11:51:07Z</time>
      </trkpt>
      <trkpt lat="46.51019" lon="4.53204">
        <ele>310.593</ele>
        <time>2020-06-07T11:51:12Z</time>
      </trkpt>
      <trkpt lat="46.51027" lon="4.53214">
        <ele>311.593</ele>
        <time>2020-06-07T11:51:19Z</time>
      </trkpt>
      <trkpt lat="46.51033" lon="4.5323">
        <ele>310.593</ele>
        <time>2020-06-07T11:51:24Z</time>
      </trkpt>
      <trkpt lat="46.51035" lon="4.53241">
        <ele>313.593</ele>
        <time>2020-06-07T11:51:29Z</time>
      </trkpt>
      <trkpt lat="46.51042" lon="4.53246">
        <ele>316.593</ele>
        <time>2020-06-07T11:51:34Z</time>
      </trkpt>
      <trkpt lat="46.51048" lon="4.53251">
        <ele>319.593</ele>
        <time>2020-06-07T11:51:39Z</time>
      </trkpt>
      <trkpt lat="46.51055" lon="4.5325">
        <ele>314.593</ele>
        <time>2020-06-07T11:51:47Z</time>
      </trkpt>
      <trkpt lat="46.51063" lon="4.5325">
        <ele>314.593</ele>
        <time>2020-06-07T11:51:52Z</time>
      </trkpt>
      <trkpt lat="46.51069" lon="4.53249">
        <ele>310.593</ele>
        <time>2020-06-07T11:51:58Z</time>
      </trkpt>
      <trkpt lat="46.51076" lon="4.53247">
        <ele>307.593</ele>
        <time>2020-06-07T11:52:06Z</time>
      </trkpt>
      <trkpt lat="46.51083" lon="4.53242">
        <ele>304.593</ele>
        <time>2020-06-07T11:52:14Z</time>
      </trkpt>
      <trkpt lat="46.5109" lon="4.53237">
        <ele>303.593</ele>
        <time>2020-06-07T11:52:19Z</time>
      </trkpt>
      <trkpt lat="46.51099" lon="4.53238">
        <ele>302.593</ele>
        <time>2020-06-07T11:52:24Z</time>
      </trkpt>
      <trkpt lat="46.5111" lon="4.53234">
        <ele>305.593</ele>
        <time>2020-06-07T11:52:29Z</time>
      </trkpt>
      <trkpt lat="46.51118" lon="4.53235">
        <ele>307.593</ele>
        <time>2020-06-07T11:52:34Z</time>
      </trkpt>
      <trkpt lat="46.51128" lon="4.53235">
        <ele>310.593</ele>
        <time>2020-06-07T11:52:39Z</time>
      </trkpt>
      <trkpt lat="46.51135" lon="4.53236">
        <ele>312.593</ele>
        <time>2020-06-07T11:52:44Z</time>
      </trkpt>
      <trkpt lat="46.51142" lon="4.53234">
        <ele>311.593</ele>
        <time>2020-06-07T11:52:50Z</time>
      </trkpt>
      <trkpt lat="46.5115" lon="4.53236">
        <ele>312.593</ele>
        <time>2020-06-07T11:52:56Z</time>
      </trkpt>
      <trkpt lat="46.51159" lon="4.53239">
        <ele>315.593</ele>
        <time>2020-06-07T11:53:01Z</time>
      </trkpt>
      <trkpt lat="46.51166" lon="4.53243">
        <ele>315.593</ele>
        <time>2020-06-07T11:53:07Z</time>
      </trkpt>
      <trkpt lat="46.51173" lon="4.53251">
        <ele>312.593</ele>
        <time>2020-06-07T11:53:12Z</time>
      </trkpt>
      <trkpt lat="46.51182" lon="4.53255">
        <ele>313.593</ele>
        <time>2020-06-07T11:53:17Z</time>
      </trkpt>
      <trkpt lat="46.51185" lon="4.53267">
        <ele>314.593</ele>
        <time>2020-06-07T11:53:22Z</time>
      </trkpt>
      <trkpt lat="46.51189" lon="4.53275">
        <ele>314.593</ele>
        <time>2020-06-07T11:53:28Z</time>
      </trkpt>
      <trkpt lat="46.51195" lon="4.53279">
        <ele>314.593</ele>
        <time>2020-06-07T11:53:34Z</time>
      </trkpt>
      <trkpt lat="46.512" lon="4.53285">
        <ele>314.593</ele>
        <time>2020-06-07T11:53:41Z</time>
      </trkpt>
      <trkpt lat="46.51206" lon="4.53291">
        <ele>311.593</ele>
        <time>2020-06-07T11:53:48Z</time>
      </trkpt>
      <trkpt lat="46.5122" lon="4.5329">
        <ele>309.593</ele>
        <time>2020-06-07T11:53:53Z</time>
      </trkpt>
      <trkpt lat="46.51225" lon="4.53297">
        <ele>309.593</ele>
        <time>2020-06-07T11:53:58Z</time>
      </trkpt>
      <trkpt lat="46.51232" lon="4.53301">
        <ele>307.593</ele>
        <time>2020-06-07T11:54:03Z</time>
      </trkpt>
      <trkpt lat="46.51238" lon="4.53308">
        <ele>310.593</ele>
        <time>2020-06-07T11:54:08Z</time>
      </trkpt>
      <trkpt lat="46.51245" lon="4.53316">
        <ele>308.593</ele>
        <time>2020-06-07T11:54:13Z</time>
      </trkpt>
      <trkpt lat="46.51252" lon="4.53321">
        <ele>310.593</ele>
        <time>2020-06-07T11:54:19Z</time>
      </trkpt>
      <trkpt lat="46.5126" lon="4.53327">
        <ele>311.593</ele>
        <time>2020-06-07T11:54:24Z</time>
      </trkpt>
      <trkpt lat="46.51265" lon="4.53332">
        <ele>305.593</ele>
        <time>2020-06-07T11:54:31Z</time>
      </trkpt>
      <trkpt lat="46.51271" lon="4.53341">
        <ele>306.593</ele>
        <time>2020-06-07T11:54:38Z</time>
      </trkpt>
      <trkpt lat="46.51277" lon="4.53344">
        <ele>305.594</ele>
        <time>2020-06-07T11:54:46Z</time>
      </trkpt>
      <trkpt lat="46.51285" lon="4.53346">
        <ele>304.594</ele>
        <time>2020-06-07T11:54:52Z</time>
      </trkpt>
      <trkpt lat="46.51295" lon="4.53354">
        <ele>302.594</ele>
        <time>2020-06-07T11:54:57Z</time>
      </trkpt>
      <trkpt lat="46.513" lon="4.5336">
        <ele>302.594</ele>
        <time>2020-06-07T11:55:02Z</time>
      </trkpt>
      <trkpt lat="46.51305" lon="4.53368">
        <ele>301.594</ele>
        <time>2020-06-07T11:55:07Z</time>
      </trkpt>
      <trkpt lat="46.51312" lon="4.53373">
        <ele>302.594</ele>
        <time>2020-06-07T11:55:12Z</time>
      </trkpt>
      <trkpt lat="46.5132" lon="4.53382">
        <ele>302.594</ele>
        <time>2020-06-07T11:55:17Z</time>
      </trkpt>
      <trkpt lat="46.51325" lon="4.53388">
        <ele>303.594</ele>
        <time>2020-06-07T11:55:22Z</time>
      </trkpt>
      <trkpt lat="46.51332" lon="4.53394">
        <ele>302.594</ele>
        <time>2020-06-07T11:55:27Z</time>
      </trkpt>
      <trkpt lat="46.51338" lon="4.53396">
        <ele>302.594</ele>
        <time>2020-06-07T11:55:32Z</time>
      </trkpt>
      <trkpt lat="46.51345" lon="4.53399">
        <ele>302.594</ele>
        <time>2020-06-07T11:55:37Z</time>
      </trkpt>
      <trkpt lat="46.51352" lon="4.53407">
        <ele>302.594</ele>
        <time>2020-06-07T11:55:42Z</time>
      </trkpt>
      <trkpt lat="46.51359" lon="4.53416">
        <ele>303.594</ele>
        <time>2020-06-07T11:55:47Z</time>
      </trkpt>
      <trkpt lat="46.51364" lon="4.53423">
        <ele>304.594</ele>
        <time>2020-06-07T11:55:52Z</time>
      </trkpt>
      <trkpt lat="46.5137" lon="4.53427">
        <ele>304.594</ele>
        <time>2020-06-07T11:55:58Z</time>
      </trkpt>
      <trkpt lat="46.51375" lon="4.53435">
        <ele>304.594</ele>
        <time>2020-06-07T11:56:04Z</time>
      </trkpt>
      <trkpt lat="46.51381" lon="4.53443">
        <ele>307.594</ele>
        <time>2020-06-07T11:56:10Z</time>
      </trkpt>
      <trkpt lat="46.51387" lon="4.53448">
        <ele>306.594</ele>
        <time>2020-06-07T11:56:15Z</time>
      </trkpt>
      <trkpt lat="46.51394" lon="4.53455">
        <ele>306.594</ele>
        <time>2020-06-07T11:56:20Z</time>
      </trkpt>
      <trkpt lat="46.51401" lon="4.53461">
        <ele>307.594</ele>
        <time>2020-06-07T11:56:25Z</time>
      </trkpt>
      <trkpt lat="46.51408" lon="4.53466">
        <ele>307.594</ele>
        <time>2020-06-07T11:56:31Z</time>
      </trkpt>
      <trkpt lat="46.51415" lon="4.53472">
        <ele>308.594</ele>
        <time>2020-06-07T11:56:36Z</time>
      </trkpt>
      <trkpt lat="46.5142" lon="4.53479">
        <ele>306.594</ele>
        <time>2020-06-07T11:56:41Z</time>
      </trkpt>
      <trkpt lat="46.51426" lon="4.53485">
        <ele>307.594</ele>
        <time>2020-06-07T11:56:47Z</time>
      </trkpt>
      <trkpt lat="46.51433" lon="4.53491">
        <ele>306.594</ele>
        <time>2020-06-07T11:56:52Z</time>
      </trkpt>
      <trkpt lat="46.51442" lon="4.53496">
        <ele>304.594</ele>
        <time>2020-06-07T11:56:57Z</time>
      </trkpt>
      <trkpt lat="46.51448" lon="4.53502">
        <ele>307.594</ele>
        <time>2020-06-07T11:57:03Z</time>
      </trkpt>
      <trkpt lat="46.51449" lon="4.53512">
        <ele>306.594</ele>
        <time>2020-06-07T11:57:08Z</time>
      </trkpt>
      <trkpt lat="46.51457" lon="4.53516">
        <ele>305.594</ele>
        <time>2020-06-07T11:57:15Z</time>
      </trkpt>
      <trkpt lat="46.51462" lon="4.53527">
        <ele>306.594</ele>
        <time>2020-06-07T11:57:20Z</time>
      </trkpt>
      <trkpt lat="46.51468" lon="4.53529">
        <ele>307.594</ele>
        <time>2020-06-07T11:57:25Z</time>
      </trkpt>
      <trkpt lat="46.51475" lon="4.5353">
        <ele>309.594</ele>
        <time>2020-06-07T11:57:30Z</time>
      </trkpt>
      <trkpt lat="46.51483" lon="4.53535">
        <ele>310.594</ele>
        <time>2020-06-07T11:57:39Z</time>
      </trkpt>
      <trkpt lat="46.51489" lon="4.53538">
        <ele>310.594</ele>
        <time>2020-06-07T11:57:45Z</time>
      </trkpt>
      <trkpt lat="46.51497" lon="4.53542">
        <ele>310.594</ele>
        <time>2020-06-07T11:57:51Z</time>
      </trkpt>
      <trkpt lat="46.51505" lon="4.53544">
        <ele>308.594</ele>
        <time>2020-06-07T11:57:56Z</time>
      </trkpt>
      <trkpt lat="46.51514" lon="4.53546">
        <ele>306.594</ele>
        <time>2020-06-07T11:58:01Z</time>
      </trkpt>
      <trkpt lat="46.51522" lon="4.53549">
        <ele>308.594</ele>
        <time>2020-06-07T11:58:06Z</time>
      </trkpt>
      <trkpt lat="46.51529" lon="4.53555">
        <ele>306.594</ele>
        <time>2020-06-07T11:58:11Z</time>
      </trkpt>
      <trkpt lat="46.51536" lon="4.53557">
        <ele>306.594</ele>
        <time>2020-06-07T11:58:17Z</time>
      </trkpt>
      <trkpt lat="46.51543" lon="4.53558">
        <ele>308.594</ele>
        <time>2020-06-07T11:58:25Z</time>
      </trkpt>
      <trkpt lat="46.51552" lon="4.53564">
        <ele>308.594</ele>
        <time>2020-06-07T11:58:30Z</time>
      </trkpt>
      <trkpt lat="46.51559" lon="4.53565">
        <ele>307.594</ele>
        <time>2020-06-07T11:58:36Z</time>
      </trkpt>
      <trkpt lat="46.51567" lon="4.5357">
        <ele>305.594</ele>
        <time>2020-06-07T11:58:41Z</time>
      </trkpt>
      <trkpt lat="46.51573" lon="4.53569">
        <ele>305.594</ele>
        <time>2020-06-07T11:58:46Z</time>
      </trkpt>
      <trkpt lat="46.51585" lon="4.53571">
        <ele>303.595</ele>
        <time>2020-06-07T11:58:51Z</time>
      </trkpt>
      <trkpt lat="46.51591" lon="4.53575">
        <ele>307.595</ele>
        <time>2020-06-07T11:58:58Z</time>
      </trkpt>
      <trkpt lat="46.51599" lon="4.53577">
        <ele>306.595</ele>
        <time>2020-06-07T11:59:05Z</time>
      </trkpt>
      <trkpt lat="46.51608" lon="4.53583">
        <ele>305.595</ele>
        <time>2020-06-07T11:59:10Z</time>
      </trkpt>
      <trkpt lat="46.51617" lon="4.53582">
        <ele>306.595</ele>
        <time>2020-06-07T11:59:15Z</time>
      </trkpt>
      <trkpt lat="46.51625" lon="4.53585">
        <ele>310.595</ele>
        <time>2020-06-07T11:59:22Z</time>
      </trkpt>
      <trkpt lat="46.51633" lon="4.53589">
        <ele>307.595</ele>
        <time>2020-06-07T11:59:28Z</time>
      </trkpt>
      <trkpt lat="46.5164" lon="4.5359">
        <ele>305.595</ele>
        <time>2020-06-07T11:59:34Z</time>
      </trkpt>
      <trkpt lat="46.5165" lon="4.53593">
        <ele>304.595</ele>
        <time>2020-06-07T11:59:39Z</time>
      </trkpt>
      <trkpt lat="46.51657" lon="4.53598">
        <ele>305.595</ele>
        <time>2020-06-07T11:59:44Z</time>
      </trkpt>
      <trkpt lat="46.51663" lon="4.53599">
        <ele>306.595</ele>
        <time>2020-06-07T11:59:49Z</time>
      </trkpt>
      <trkpt lat="46.51671" lon="4.53602">
        <ele>304.595</ele>
        <time>2020-06-07T11:59:55Z</time>
      </trkpt>
      <trkpt lat="46.51677" lon="4.53606">
        <ele>308.595</ele>
        <time>2020-06-07T12:00:01Z</time>
      </trkpt>
      <trkpt lat="46.51684" lon="4.5361">
        <ele>307.595</ele>
        <time>2020-06-07T12:00:07Z</time>
      </trkpt>
      <trkpt lat="46.51693" lon="4.53614">
        <ele>307.595</ele>
        <time>2020-06-07T12:00:12Z</time>
      </trkpt>
      <trkpt lat="46.517" lon="4.53619">
        <ele>307.595</ele>
        <time>2020-06-07T12:00:17Z</time>
      </trkpt>
      <trkpt lat="46.51707" lon="4.53622">
        <ele>304.595</ele>
        <time>2020-06-07T12:00:27Z</time>
      </trkpt>
      <trkpt lat="46.51716" lon="4.53627">
        <ele>305.595</ele>
        <time>2020-06-07T12:00:32Z</time>
      </trkpt>
      <trkpt lat="46.51724" lon="4.53629">
        <ele>300.595</ele>
        <time>2020-06-07T12:00:37Z</time>
      </trkpt>
      <trkpt lat="46.51731" lon="4.5363">
        <ele>304.595</ele>
        <time>2020-06-07T12:00:44Z</time>
      </trkpt>
      <trkpt lat="46.51738" lon="4.53632">
        <ele>303.595</ele>
        <time>2020-06-07T12:00:50Z</time>
      </trkpt>
      <trkpt lat="46.51745" lon="4.53634">
        <ele>301.595</ele>
        <time>2020-06-07T12:00:55Z</time>
      </trkpt>
      <trkpt lat="46.51753" lon="4.53637">
        <ele>302.595</ele>
        <time>2020-06-07T12:01:00Z</time>
      </trkpt>
      <trkpt lat="46.5176" lon="4.53641">
        <ele>303.595</ele>
        <time>2020-06-07T12:01:05Z</time>
      </trkpt>
      <trkpt lat="46.51768" lon="4.53644">
        <ele>303.595</ele>
        <time>2020-06-07T12:01:10Z</time>
      </trkpt>
      <trkpt lat="46.51775" lon="4.53647">
        <ele>303.595</ele>
        <time>2020-06-07T12:01:15Z</time>
      </trkpt>
      <trkpt lat="46.51782" lon="4.53649">
        <ele>304.595</ele>
        <time>2020-06-07T12:01:20Z</time>
      </trkpt>
      <trkpt lat="46.51789" lon="4.53652">
        <ele>302.595</ele>
        <time>2020-06-07T12:01:25Z</time>
      </trkpt>
      <trkpt lat="46.51795" lon="4.53657">
        <ele>298.595</ele>
        <time>2020-06-07T12:01:34Z</time>
      </trkpt>
      <trkpt lat="46.51804" lon="4.53657">
        <ele>300.595</ele>
        <time>2020-06-07T12:01:39Z</time>
      </trkpt>
      <trkpt lat="46.51815" lon="4.53659">
        <ele>298.595</ele>
        <time>2020-06-07T12:01:44Z</time>
      </trkpt>
      <trkpt lat="46.51822" lon="4.53663">
        <ele>295.595</ele>
        <time>2020-06-07T12:01:51Z</time>
      </trkpt>
      <trkpt lat="46.51829" lon="4.53668">
        <ele>295.595</ele>
        <time>2020-06-07T12:01:56Z</time>
      </trkpt>
      <trkpt lat="46.51836" lon="4.53669">
        <ele>294.595</ele>
        <time>2020-06-07T12:02:01Z</time>
      </trkpt>
      <trkpt lat="46.51845" lon="4.53676">
        <ele>292.595</ele>
        <time>2020-06-07T12:02:07Z</time>
      </trkpt>
      <trkpt lat="46.51854" lon="4.53677">
        <ele>291.595</ele>
        <time>2020-06-07T12:02:12Z</time>
      </trkpt>
      <trkpt lat="46.51861" lon="4.53678">
        <ele>297.595</ele>
        <time>2020-06-07T12:02:23Z</time>
      </trkpt>
      <trkpt lat="46.51868" lon="4.5368">
        <ele>297.595</ele>
        <time>2020-06-07T12:02:28Z</time>
      </trkpt>
      <trkpt lat="46.51876" lon="4.53686">
        <ele>299.595</ele>
        <time>2020-06-07T12:02:33Z</time>
      </trkpt>
      <trkpt lat="46.51884" lon="4.53691">
        <ele>298.595</ele>
        <time>2020-06-07T12:02:38Z</time>
      </trkpt>
      <trkpt lat="46.51892" lon="4.53694">
        <ele>300.595</ele>
        <time>2020-06-07T12:02:43Z</time>
      </trkpt>
      <trkpt lat="46.51899" lon="4.53694">
        <ele>301.595</ele>
        <time>2020-06-07T12:02:49Z</time>
      </trkpt>
      <trkpt lat="46.51907" lon="4.53695">
        <ele>300.595</ele>
        <time>2020-06-07T12:02:54Z</time>
      </trkpt>
      <trkpt lat="46.51911" lon="4.53686">
        <ele>300.595</ele>
        <time>2020-06-07T12:02:59Z</time>
      </trkpt>
      <trkpt lat="46.51913" lon="4.53675">
        <ele>300.595</ele>
        <time>2020-06-07T12:03:04Z</time>
      </trkpt>
      <trkpt lat="46.51914" lon="4.53666">
        <ele>300.595</ele>
        <time>2020-06-07T12:03:09Z</time>
      </trkpt>
      <trkpt lat="46.51916" lon="4.53655">
        <ele>298.595</ele>
        <time>2020-06-07T12:03:16Z</time>
      </trkpt>
      <trkpt lat="46.51914" lon="4.53643">
        <ele>300.595</ele>
        <time>2020-06-07T12:03:21Z</time>
      </trkpt>
      <trkpt lat="46.51919" lon="4.53634">
        <ele>298.595</ele>
        <time>2020-06-07T12:03:26Z</time>
      </trkpt>
      <trkpt lat="46.51921" lon="4.53624">
        <ele>298.595</ele>
        <time>2020-06-07T12:03:31Z</time>
      </trkpt>
      <trkpt lat="46.51923" lon="4.53614">
        <ele>296.595</ele>
        <time>2020-06-07T12:03:36Z</time>
      </trkpt>
      <trkpt lat="46.51922" lon="4.53601">
        <ele>296.595</ele>
        <time>2020-06-07T12:03:41Z</time>
      </trkpt>
      <trkpt lat="46.51923" lon="4.53591">
        <ele>294.595</ele>
        <time>2020-06-07T12:03:47Z</time>
      </trkpt>
      <trkpt lat="46.51927" lon="4.53582">
        <ele>288.595</ele>
        <time>2020-06-07T12:03:54Z</time>
      </trkpt>
      <trkpt lat="46.51928" lon="4.53572">
        <ele>289.595</ele>
        <time>2020-06-07T12:04:00Z</time>
      </trkpt>
      <trkpt lat="46.5193" lon="4.5356">
        <ele>291.595</ele>
        <time>2020-06-07T12:04:07Z</time>
      </trkpt>
      <trkpt lat="46.51934" lon="4.5355">
        <ele>292.595</ele>
        <time>2020-06-07T12:04:12Z</time>
      </trkpt>
      <trkpt lat="46.51936" lon="4.53541">
        <ele>294.595</ele>
        <time>2020-06-07T12:04:17Z</time>
      </trkpt>
      <trkpt lat="46.5194" lon="4.53533">
        <ele>295.595</ele>
        <time>2020-06-07T12:04:22Z</time>
      </trkpt>
      <trkpt lat="46.51944" lon="4.53522">
        <ele>293.595</ele>
        <time>2020-06-07T12:04:27Z</time>
      </trkpt>
      <trkpt lat="46.51949" lon="4.53516">
        <ele>287.595</ele>
        <time>2020-06-07T12:04:32Z</time>
      </trkpt>
      <trkpt lat="46.51956" lon="4.53509">
        <ele>288.595</ele>
        <time>2020-06-07T12:04:38Z</time>
      </trkpt>
      <trkpt lat="46.5196" lon="4.535">
        <ele>289.595</ele>
        <time>2020-06-07T12:04:45Z</time>
      </trkpt>
      <trkpt lat="46.51966" lon="4.53497">
        <ele>287.595</ele>
        <time>2020-06-07T12:04:50Z</time>
      </trkpt>
      <trkpt lat="46.51973" lon="4.5349">
        <ele>285.596</ele>
        <time>2020-06-07T12:04:56Z</time>
      </trkpt>
      <trkpt lat="46.51978" lon="4.53484">
        <ele>285.596</ele>
        <time>2020-06-07T12:05:01Z</time>
      </trkpt>
      <trkpt lat="46.51985" lon="4.53479">
        <ele>282.596</ele>
        <time>2020-06-07T12:05:06Z</time>
      </trkpt>
      <trkpt lat="46.51992" lon="4.53471">
        <ele>282.596</ele>
        <time>2020-06-07T12:05:11Z</time>
      </trkpt>
      <trkpt lat="46.51997" lon="4.53465">
        <ele>283.596</ele>
        <time>2020-06-07T12:05:21Z</time>
      </trkpt>
      <trkpt lat="46.52003" lon="4.53455">
        <ele>285.596</ele>
        <time>2020-06-07T12:05:26Z</time>
      </trkpt>
      <trkpt lat="46.52007" lon="4.53447">
        <ele>284.596</ele>
        <time>2020-06-07T12:05:31Z</time>
      </trkpt>
      <trkpt lat="46.5201" lon="4.53437">
        <ele>286.596</ele>
        <time>2020-06-07T12:05:36Z</time>
      </trkpt>
      <trkpt lat="46.52017" lon="4.53436">
        <ele>285.596</ele>
        <time>2020-06-07T12:05:48Z</time>
      </trkpt>
      <trkpt lat="46.52025" lon="4.53433">
        <ele>284.596</ele>
        <time>2020-06-07T12:05:53Z</time>
      </trkpt>
      <trkpt lat="46.52032" lon="4.5343">
        <ele>282.596</ele>
        <time>2020-06-07T12:06:04Z</time>
      </trkpt>
      <trkpt lat="46.52046" lon="4.53427">
        <ele>282.596</ele>
        <time>2020-06-07T12:06:09Z</time>
      </trkpt>
      <trkpt lat="46.52052" lon="4.53425">
        <ele>281.596</ele>
        <time>2020-06-07T12:06:18Z</time>
      </trkpt>
      <trkpt lat="46.52058" lon="4.5342">
        <ele>280.596</ele>
        <time>2020-06-07T12:06:26Z</time>
      </trkpt>
      <trkpt lat="46.52067" lon="4.53417">
        <ele>277.596</ele>
        <time>2020-06-07T12:06:31Z</time>
      </trkpt>
      <trkpt lat="46.52075" lon="4.53412">
        <ele>276.596</ele>
        <time>2020-06-07T12:06:38Z</time>
      </trkpt>
      <trkpt lat="46.52082" lon="4.5341">
        <ele>275.596</ele>
        <time>2020-06-07T12:06:43Z</time>
      </trkpt>
      <trkpt lat="46.5209" lon="4.53406">
        <ele>274.596</ele>
        <time>2020-06-07T12:06:48Z</time>
      </trkpt>
      <trkpt lat="46.52097" lon="4.53406">
        <ele>274.596</ele>
        <time>2020-06-07T12:06:56Z</time>
      </trkpt>
      <trkpt lat="46.52109" lon="4.53406">
        <ele>274.596</ele>
        <time>2020-06-07T12:07:01Z</time>
      </trkpt>
      <trkpt lat="46.52116" lon="4.53405">
        <ele>272.596</ele>
        <time>2020-06-07T12:07:08Z</time>
      </trkpt>
      <trkpt lat="46.52124" lon="4.53404">
        <ele>272.596</ele>
        <time>2020-06-07T12:07:13Z</time>
      </trkpt>
      <trkpt lat="46.52133" lon="4.53408">
        <ele>268.596</ele>
        <time>2020-06-07T12:07:18Z</time>
      </trkpt>
      <trkpt lat="46.5214" lon="4.53407">
        <ele>269.596</ele>
        <time>2020-06-07T12:07:23Z</time>
      </trkpt>
      <trkpt lat="46.52148" lon="4.53407">
        <ele>269.596</ele>
        <time>2020-06-07T12:07:28Z</time>
      </trkpt>
      <trkpt lat="46.52155" lon="4.53408">
        <ele>268.596</ele>
        <time>2020-06-07T12:07:34Z</time>
      </trkpt>
      <trkpt lat="46.52162" lon="4.53405">
        <ele>271.596</ele>
        <time>2020-06-07T12:07:41Z</time>
      </trkpt>
      <trkpt lat="46.52169" lon="4.53404">
        <ele>269.596</ele>
        <time>2020-06-07T12:07:46Z</time>
      </trkpt>
      <trkpt lat="46.52175" lon="4.53408">
        <ele>269.596</ele>
        <time>2020-06-07T12:07:55Z</time>
      </trkpt>
      <trkpt lat="46.52183" lon="4.53408">
        <ele>271.596</ele>
        <time>2020-06-07T12:08:00Z</time>
      </trkpt>
      <trkpt lat="46.5219" lon="4.5341">
        <ele>270.596</ele>
        <time>2020-06-07T12:08:06Z</time>
      </trkpt>
      <trkpt lat="46.52199" lon="4.53411">
        <ele>268.596</ele>
        <time>2020-06-07T12:08:11Z</time>
      </trkpt>
      <trkpt lat="46.52206" lon="4.53409">
        <ele>268.596</ele>
        <time>2020-06-07T12:08:16Z</time>
      </trkpt>
      <trkpt lat="46.52213" lon="4.53406">
        <ele>268.596</ele>
        <time>2020-06-07T12:08:21Z</time>
      </trkpt>
      <trkpt lat="46.5222" lon="4.53405">
        <ele>267.596</ele>
        <time>2020-06-07T12:08:27Z</time>
      </trkpt>
      <trkpt lat="46.52229" lon="4.53402">
        <ele>266.596</ele>
        <time>2020-06-07T12:08:32Z</time>
      </trkpt>
      <trkpt lat="46.52236" lon="4.534">
        <ele>265.596</ele>
        <time>2020-06-07T12:08:37Z</time>
      </trkpt>
      <trkpt lat="46.52242" lon="4.53398">
        <ele>266.596</ele>
        <time>2020-06-07T12:08:42Z</time>
      </trkpt>
      <trkpt lat="46.52251" lon="4.53399">
        <ele>265.596</ele>
        <time>2020-06-07T12:08:47Z</time>
      </trkpt>
      <trkpt lat="46.5226" lon="4.53398">
        <ele>266.596</ele>
        <time>2020-06-07T12:08:52Z</time>
      </trkpt>
      <trkpt lat="46.52267" lon="4.53402">
        <ele>265.596</ele>
        <time>2020-06-07T12:08:58Z</time>
      </trkpt>
      <trkpt lat="46.52274" lon="4.53405">
        <ele>263.596</ele>
        <time>2020-06-07T12:09:08Z</time>
      </trkpt>
      <trkpt lat="46.52282" lon="4.53406">
        <ele>261.596</ele>
        <time>2020-06-07T12:09:17Z</time>
      </trkpt>
      <trkpt lat="46.52293" lon="4.53408">
        <ele>258.596</ele>
        <time>2020-06-07T12:09:22Z</time>
      </trkpt>
      <trkpt lat="46.523" lon="4.53409">
        <ele>254.596</ele>
        <time>2020-06-07T12:09:27Z</time>
      </trkpt>
      <trkpt lat="46.52309" lon="4.53411">
        <ele>256.596</ele>
        <time>2020-06-07T12:09:32Z</time>
      </trkpt>
      <trkpt lat="46.52317" lon="4.53415">
        <ele>257.596</ele>
        <time>2020-06-07T12:09:37Z</time>
      </trkpt>
      <trkpt lat="46.52325" lon="4.53418">
        <ele>259.596</ele>
        <time>2020-06-07T12:09:43Z</time>
      </trkpt>
      <trkpt lat="46.52337" lon="4.5342">
        <ele>261.596</ele>
        <time>2020-06-07T12:09:48Z</time>
      </trkpt>
      <trkpt lat="46.52346" lon="4.53423">
        <ele>262.596</ele>
        <time>2020-06-07T12:09:53Z</time>
      </trkpt>
      <trkpt lat="46.52354" lon="4.53422">
        <ele>262.597</ele>
        <time>2020-06-07T12:09:58Z</time>
      </trkpt>
      <trkpt lat="46.52361" lon="4.5342">
        <ele>260.597</ele>
        <time>2020-06-07T12:10:03Z</time>
      </trkpt>
      <trkpt lat="46.52369" lon="4.53419">
        <ele>259.597</ele>
        <time>2020-06-07T12:10:08Z</time>
      </trkpt>
      <trkpt lat="46.52376" lon="4.53421">
        <ele>259.597</ele>
        <time>2020-06-07T12:10:13Z</time>
      </trkpt>
      <trkpt lat="46.52383" lon="4.5342">
        <ele>261.597</ele>
        <time>2020-06-07T12:10:20Z</time>
      </trkpt>
      <trkpt lat="46.52393" lon="4.53423">
        <ele>259.597</ele>
        <time>2020-06-07T12:10:25Z</time>
      </trkpt>
      <trkpt lat="46.524" lon="4.53424">
        <ele>258.597</ele>
        <time>2020-06-07T12:10:39Z</time>
      </trkpt>
      <trkpt lat="46.52409" lon="4.53431">
        <ele>258.597</ele>
        <time>2020-06-07T12:10:44Z</time>
      </trkpt>
      <trkpt lat="46.52419" lon="4.53432">
        <ele>258.597</ele>
        <time>2020-06-07T12:10:49Z</time>
      </trkpt>
      <trkpt lat="46.52426" lon="4.53434">
        <ele>258.597</ele>
        <time>2020-06-07T12:10:54Z</time>
      </trkpt>
      <trkpt lat="46.52433" lon="4.53436">
        <ele>254.597</ele>
        <time>2020-06-07T12:10:59Z</time>
      </trkpt>
      <trkpt lat="46.52441" lon="4.53442">
        <ele>252.597</ele>
        <time>2020-06-07T12:11:04Z</time>
      </trkpt>
      <trkpt lat="46.52447" lon="4.53448">
        <ele>252.597</ele>
        <time>2020-06-07T12:11:09Z</time>
      </trkpt>
      <trkpt lat="46.52452" lon="4.53455">
        <ele>250.597</ele>
        <time>2020-06-07T12:11:14Z</time>
      </trkpt>
      <trkpt lat="46.52458" lon="4.5346">
        <ele>251.597</ele>
        <time>2020-06-07T12:11:19Z</time>
      </trkpt>
      <trkpt lat="46.52463" lon="4.5347">
        <ele>254.597</ele>
        <time>2020-06-07T12:11:24Z</time>
      </trkpt>
      <trkpt lat="46.52469" lon="4.53478">
        <ele>257.597</ele>
        <time>2020-06-07T12:11:29Z</time>
      </trkpt>
      <trkpt lat="46.52474" lon="4.53483">
        <ele>258.597</ele>
        <time>2020-06-07T12:11:35Z</time>
      </trkpt>
      <trkpt lat="46.52482" lon="4.53485">
        <ele>258.597</ele>
        <time>2020-06-07T12:11:41Z</time>
      </trkpt>
      <trkpt lat="46.52489" lon="4.53485">
        <ele>259.597</ele>
        <time>2020-06-07T12:11:46Z</time>
      </trkpt>
      <trkpt lat="46.52497" lon="4.53484">
        <ele>260.597</ele>
        <time>2020-06-07T12:11:54Z</time>
      </trkpt>
      <trkpt lat="46.52504" lon="4.5348">
        <ele>258.597</ele>
        <time>2020-06-07T12:12:01Z</time>
      </trkpt>
      <trkpt lat="46.5251" lon="4.53477">
        <ele>259.597</ele>
        <time>2020-06-07T12:12:06Z</time>
      </trkpt>
      <trkpt lat="46.52518" lon="4.53478">
        <ele>260.597</ele>
        <time>2020-06-07T12:12:12Z</time>
      </trkpt>
      <trkpt lat="46.52526" lon="4.53477">
        <ele>262.597</ele>
        <time>2020-06-07T12:12:19Z</time>
      </trkpt>
      <trkpt lat="46.52535" lon="4.53476">
        <ele>261.597</ele>
        <time>2020-06-07T12:12:24Z</time>
      </trkpt>
      <trkpt lat="46.52543" lon="4.53479">
        <ele>257.597</ele>
        <time>2020-06-07T12:12:29Z</time>
      </trkpt>
      <trkpt lat="46.52551" lon="4.53477">
        <ele>259.597</ele>
        <time>2020-06-07T12:12:35Z</time>
      </trkpt>
      <trkpt lat="46.52559" lon="4.53476">
        <ele>258.597</ele>
        <time>2020-06-07T12:12:40Z</time>
      </trkpt>
      <trkpt lat="46.52565" lon="4.53479">
        <ele>256.597</ele>
        <time>2020-06-07T12:12:48Z</time>
      </trkpt>
      <trkpt lat="46.52572" lon="4.53476">
        <ele>260.597</ele>
        <time>2020-06-07T12:13:06Z</time>
      </trkpt>
      <trkpt lat="46.52582" lon="4.53474">
        <ele>256.597</ele>
        <time>2020-06-07T12:13:11Z</time>
      </trkpt>
      <trkpt lat="46.52589" lon="4.5347">
        <ele>260.597</ele>
        <time>2020-06-07T12:13:17Z</time>
      </trkpt>
      <trkpt lat="46.52596" lon="4.53469">
        <ele>261.597</ele>
        <time>2020-06-07T12:13:22Z</time>
      </trkpt>
      <trkpt lat="46.52605" lon="4.53468">
        <ele>262.597</ele>
        <time>2020-06-07T12:13:35Z</time>
      </trkpt>
      <trkpt lat="46.52617" lon="4.53468">
        <ele>261.597</ele>
        <time>2020-06-07T12:13:40Z</time>
      </trkpt>
      <trkpt lat="46.52627" lon="4.53471">
        <ele>262.597</ele>
        <time>2020-06-07T12:13:45Z</time>
      </trkpt>
      <trkpt lat="46.52638" lon="4.53474">
        <ele>259.597</ele>
        <time>2020-06-07T12:13:50Z</time>
      </trkpt>
      <trkpt lat="46.52647" lon="4.53475">
        <ele>255.597</ele>
        <time>2020-06-07T12:13:55Z</time>
      </trkpt>
      <trkpt lat="46.52653" lon="4.53474">
        <ele>257.597</ele>
        <time>2020-06-07T12:14:03Z</time>
      </trkpt>
      <trkpt lat="46.52662" lon="4.53474">
        <ele>258.597</ele>
        <time>2020-06-07T12:14:08Z</time>
      </trkpt>
      <trkpt lat="46.52669" lon="4.53474">
        <ele>262.597</ele>
        <time>2020-06-07T12:14:13Z</time>
      </trkpt>
      <trkpt lat="46.52683" lon="4.53478">
        <ele>259.597</ele>
        <time>2020-06-07T12:14:18Z</time>
      </trkpt>
      <trkpt lat="46.52692" lon="4.53478">
        <ele>259.597</ele>
        <time>2020-06-07T12:14:23Z</time>
      </trkpt>
      <trkpt lat="46.527" lon="4.53475">
        <ele>260.597</ele>
        <time>2020-06-07T12:14:29Z</time>
      </trkpt>
      <trkpt lat="46.52709" lon="4.53476">
        <ele>259.598</ele>
        <time>2020-06-07T12:14:34Z</time>
      </trkpt>
      <trkpt lat="46.52715" lon="4.53471">
        <ele>259.598</ele>
        <time>2020-06-07T12:14:40Z</time>
      </trkpt>
      <trkpt lat="46.52725" lon="4.53475">
        <ele>258.598</ele>
        <time>2020-06-07T12:14:46Z</time>
      </trkpt>
      <trkpt lat="46.52732" lon="4.53478">
        <ele>259.598</ele>
        <time>2020-06-07T12:14:52Z</time>
      </trkpt>
      <trkpt lat="46.52739" lon="4.5348">
        <ele>263.598</ele>
        <time>2020-06-07T12:14:58Z</time>
      </trkpt>
      <trkpt lat="46.52748" lon="4.53481">
        <ele>260.598</ele>
        <time>2020-06-07T12:15:03Z</time>
      </trkpt>
      <trkpt lat="46.52756" lon="4.53482">
        <ele>262.598</ele>
        <time>2020-06-07T12:15:09Z</time>
      </trkpt>
      <trkpt lat="46.52763" lon="4.53482">
        <ele>260.598</ele>
        <time>2020-06-07T12:15:14Z</time>
      </trkpt>
      <trkpt lat="46.5277" lon="4.53484">
        <ele>260.598</ele>
        <time>2020-06-07T12:15:20Z</time>
      </trkpt>
      <trkpt lat="46.52776" lon="4.53483">
        <ele>259.598</ele>
        <time>2020-06-07T12:15:25Z</time>
      </trkpt>
      <trkpt lat="46.52783" lon="4.53482">
        <ele>259.598</ele>
        <time>2020-06-07T12:15:34Z</time>
      </trkpt>
      <trkpt lat="46.5279" lon="4.53482">
        <ele>259.598</ele>
        <time>2020-06-07T12:15:41Z</time>
      </trkpt>
      <trkpt lat="46.52799" lon="4.53486">
        <ele>252.598</ele>
        <time>2020-06-07T12:15:46Z</time>
      </trkpt>
      <trkpt lat="46.52809" lon="4.5349">
        <ele>254.598</ele>
        <time>2020-06-07T12:15:51Z</time>
      </trkpt>
      <trkpt lat="46.52818" lon="4.53493">
        <ele>253.598</ele>
        <time>2020-06-07T12:15:56Z</time>
      </trkpt>
      <trkpt lat="46.52826" lon="4.53497">
        <ele>252.598</ele>
        <time>2020-06-07T12:16:01Z</time>
      </trkpt>
      <trkpt lat="46.52832" lon="4.53504">
        <ele>250.598</ele>
        <time>2020-06-07T12:16:07Z</time>
      </trkpt>
      <trkpt lat="46.52839" lon="4.53509">
        <ele>250.598</ele>
        <time>2020-06-07T12:16:12Z</time>
      </trkpt>
      <trkpt lat="46.52845" lon="4.53514">
        <ele>249.598</ele>
        <time>2020-06-07T12:16:17Z</time>
      </trkpt>
      <trkpt lat="46.52853" lon="4.53519">
        <ele>252.598</ele>
        <time>2020-06-07T12:16:23Z</time>
      </trkpt>
      <trkpt lat="46.52858" lon="4.53526">
        <ele>251.598</ele>
        <time>2020-06-07T12:16:30Z</time>
      </trkpt>
      <trkpt lat="46.52864" lon="4.53531">
        <ele>251.598</ele>
        <time>2020-06-07T12:16:40Z</time>
      </trkpt>
      <trkpt lat="46.5287" lon="4.53527">
        <ele>253.598</ele>
        <time>2020-06-07T12:16:45Z</time>
      </trkpt>
      <trkpt lat="46.52876" lon="4.53529">
        <ele>254.598</ele>
        <time>2020-06-07T12:16:58Z</time>
      </trkpt>
      <trkpt lat="46.52883" lon="4.53532">
        <ele>251.598</ele>
        <time>2020-06-07T12:17:03Z</time>
      </trkpt>
      <trkpt lat="46.52893" lon="4.53537">
        <ele>249.598</ele>
        <time>2020-06-07T12:17:08Z</time>
      </trkpt>
      <trkpt lat="46.529" lon="4.53539">
        <ele>249.598</ele>
        <time>2020-06-07T12:17:14Z</time>
      </trkpt>
      <trkpt lat="46.52907" lon="4.53542">
        <ele>247.598</ele>
        <time>2020-06-07T12:17:21Z</time>
      </trkpt>
      <trkpt lat="46.52913" lon="4.53546">
        <ele>247.598</ele>
        <time>2020-06-07T12:17:26Z</time>
      </trkpt>
      <trkpt lat="46.5292" lon="4.53552">
        <ele>243.598</ele>
        <time>2020-06-07T12:17:31Z</time>
      </trkpt>
      <trkpt lat="46.52928" lon="4.53556">
        <ele>241.598</ele>
        <time>2020-06-07T12:17:37Z</time>
      </trkpt>
      <trkpt lat="46.52935" lon="4.53553">
        <ele>243.598</ele>
        <time>2020-06-07T12:17:45Z</time>
      </trkpt>
      <trkpt lat="46.52942" lon="4.5355">
        <ele>245.598</ele>
        <time>2020-06-07T12:17:51Z</time>
      </trkpt>
      <trkpt lat="46.52951" lon="4.53548">
        <ele>244.598</ele>
        <time>2020-06-07T12:17:56Z</time>
      </trkpt>
      <trkpt lat="46.52959" lon="4.53549">
        <ele>243.598</ele>
        <time>2020-06-07T12:18:01Z</time>
      </trkpt>
      <trkpt lat="46.52967" lon="4.53546">
        <ele>243.598</ele>
        <time>2020-06-07T12:18:06Z</time>
      </trkpt>
      <trkpt lat="46.52973" lon="4.53545">
        <ele>242.598</ele>
        <time>2020-06-07T12:18:13Z</time>
      </trkpt>
      <trkpt lat="46.52979" lon="4.53539">
        <ele>244.598</ele>
        <time>2020-06-07T12:18:23Z</time>
      </trkpt>
      <trkpt lat="46.52986" lon="4.53533">
        <ele>244.598</ele>
        <time>2020-06-07T12:18:28Z</time>
      </trkpt>
      <trkpt lat="46.52991" lon="4.53524">
        <ele>244.598</ele>
        <time>2020-06-07T12:18:34Z</time>
      </trkpt>
      <trkpt lat="46.52995" lon="4.53517">
        <ele>244.598</ele>
        <time>2020-06-07T12:18:39Z</time>
      </trkpt>
      <trkpt lat="46.53003" lon="4.53517">
        <ele>239.598</ele>
        <time>2020-06-07T12:18:44Z</time>
      </trkpt>
      <trkpt lat="46.5301" lon="4.53518">
        <ele>238.598</ele>
        <time>2020-06-07T12:18:49Z</time>
      </trkpt>
      <trkpt lat="46.53017" lon="4.53516">
        <ele>236.598</ele>
        <time>2020-06-07T12:18:54Z</time>
      </trkpt>
      <trkpt lat="46.53023" lon="4.53514">
        <ele>240.598</ele>
        <time>2020-06-07T12:19:02Z</time>
      </trkpt>
      <trkpt lat="46.5303" lon="4.53515">
        <ele>241.598</ele>
        <time>2020-06-07T12:19:11Z</time>
      </trkpt>
      <trkpt lat="46.53036" lon="4.53517">
        <ele>245.598</ele>
        <time>2020-06-07T12:19:19Z</time>
      </trkpt>
      <trkpt lat="46.53042" lon="4.53522">
        <ele>248.598</ele>
        <time>2020-06-07T12:19:26Z</time>
      </trkpt>
      <trkpt lat="46.5305" lon="4.53527">
        <ele>245.598</ele>
        <time>2020-06-07T12:19:31Z</time>
      </trkpt>
      <trkpt lat="46.53055" lon="4.53533">
        <ele>248.598</ele>
        <time>2020-06-07T12:19:37Z</time>
      </trkpt>
      <trkpt lat="46.53063" lon="4.53533">
        <ele>247.599</ele>
        <time>2020-06-07T12:19:42Z</time>
      </trkpt>
      <trkpt lat="46.53069" lon="4.53532">
        <ele>250.599</ele>
        <time>2020-06-07T12:19:48Z</time>
      </trkpt>
      <trkpt lat="46.53077" lon="4.53533">
        <ele>251.599</ele>
        <time>2020-06-07T12:19:53Z</time>
      </trkpt>
      <trkpt lat="46.53083" lon="4.53535">
        <ele>250.599</ele>
        <time>2020-06-07T12:20:00Z</time>
      </trkpt>
      <trkpt lat="46.5309" lon="4.53536">
        <ele>253.599</ele>
        <time>2020-06-07T12:20:06Z</time>
      </trkpt>
      <trkpt lat="46.53098" lon="4.53535">
        <ele>256.599</ele>
        <time>2020-06-07T12:20:11Z</time>
      </trkpt>
      <trkpt lat="46.53105" lon="4.53538">
        <ele>254.599</ele>
        <time>2020-06-07T12:20:18Z</time>
      </trkpt>
      <trkpt lat="46.53112" lon="4.53539">
        <ele>254.599</ele>
        <time>2020-06-07T12:20:28Z</time>
      </trkpt>
      <trkpt lat="46.53121" lon="4.53546">
        <ele>250.599</ele>
        <time>2020-06-07T12:20:33Z</time>
      </trkpt>
      <trkpt lat="46.5313" lon="4.53548">
        <ele>252.599</ele>
        <time>2020-06-07T12:20:39Z</time>
      </trkpt>
      <trkpt lat="46.53138" lon="4.53551">
        <ele>251.599</ele>
        <time>2020-06-07T12:20:44Z</time>
      </trkpt>
      <trkpt lat="46.53144" lon="4.53552">
        <ele>254.599</ele>
        <time>2020-06-07T12:20:49Z</time>
      </trkpt>
      <trkpt lat="46.53151" lon="4.53556">
        <ele>251.599</ele>
        <time>2020-06-07T12:20:57Z</time>
      </trkpt>
      <trkpt lat="46.53159" lon="4.53556">
        <ele>255.599</ele>
        <time>2020-06-07T12:21:03Z</time>
      </trkpt>
      <trkpt lat="46.53166" lon="4.53564">
        <ele>255.599</ele>
        <time>2020-06-07T12:21:08Z</time>
      </trkpt>
      <trkpt lat="46.53175" lon="4.5357">
        <ele>261.599</ele>
        <time>2020-06-07T12:21:13Z</time>
      </trkpt>
      <trkpt lat="46.53182" lon="4.53572">
        <ele>257.599</ele>
        <time>2020-06-07T12:21:18Z</time>
      </trkpt>
      <trkpt lat="46.53189" lon="4.53575">
        <ele>259.599</ele>
        <time>2020-06-07T12:21:25Z</time>
      </trkpt>
      <trkpt lat="46.53195" lon="4.53578">
        <ele>259.599</ele>
        <time>2020-06-07T12:21:31Z</time>
      </trkpt>
      <trkpt lat="46.53202" lon="4.53582">
        <ele>256.599</ele>
        <time>2020-06-07T12:21:36Z</time>
      </trkpt>
      <trkpt lat="46.53209" lon="4.53582">
        <ele>257.599</ele>
        <time>2020-06-07T12:21:43Z</time>
      </trkpt>
      <trkpt lat="46.53217" lon="4.53578">
        <ele>256.599</ele>
        <time>2020-06-07T12:21:48Z</time>
      </trkpt>
      <trkpt lat="46.53225" lon="4.53573">
        <ele>254.599</ele>
        <time>2020-06-07T12:21:53Z</time>
      </trkpt>
      <trkpt lat="46.53232" lon="4.53572">
        <ele>255.599</ele>
        <time>2020-06-07T12:21:58Z</time>
      </trkpt>
      <trkpt lat="46.53237" lon="4.53568">
        <ele>257.599</ele>
        <time>2020-06-07T12:22:04Z</time>
      </trkpt>
      <trkpt lat="46.53243" lon="4.53564">
        <ele>256.599</ele>
        <time>2020-06-07T12:22:09Z</time>
      </trkpt>
      <trkpt lat="46.53251" lon="4.53564">
        <ele>257.599</ele>
        <time>2020-06-07T12:22:14Z</time>
      </trkpt>
      <trkpt lat="46.53259" lon="4.53563">
        <ele>256.599</ele>
        <time>2020-06-07T12:22:19Z</time>
      </trkpt>
      <trkpt lat="46.53265" lon="4.53559">
        <ele>255.599</ele>
        <time>2020-06-07T12:22:24Z</time>
      </trkpt>
      <trkpt lat="46.53271" lon="4.53556">
        <ele>253.599</ele>
        <time>2020-06-07T12:22:29Z</time>
      </trkpt>
      <trkpt lat="46.53277" lon="4.53548">
        <ele>252.599</ele>
        <time>2020-06-07T12:22:34Z</time>
      </trkpt>
      <trkpt lat="46.53276" lon="4.53538">
        <ele>250.599</ele>
        <time>2020-06-07T12:22:39Z</time>
      </trkpt>
      <trkpt lat="46.53282" lon="4.53531">
        <ele>248.599</ele>
        <time>2020-06-07T12:22:46Z</time>
      </trkpt>
      <trkpt lat="46.53288" lon="4.53525">
        <ele>250.599</ele>
        <time>2020-06-07T12:22:51Z</time>
      </trkpt>
      <trkpt lat="46.53297" lon="4.53527">
        <ele>247.599</ele>
        <time>2020-06-07T12:22:56Z</time>
      </trkpt>
      <trkpt lat="46.53305" lon="4.53525">
        <ele>246.599</ele>
        <time>2020-06-07T12:23:07Z</time>
      </trkpt>
      <trkpt lat="46.53313" lon="4.53522">
        <ele>243.599</ele>
        <time>2020-06-07T12:23:13Z</time>
      </trkpt>
      <trkpt lat="46.53322" lon="4.5352">
        <ele>241.599</ele>
        <time>2020-06-07T12:23:18Z</time>
      </trkpt>
      <trkpt lat="46.53329" lon="4.53521">
        <ele>239.599</ele>
        <time>2020-06-07T12:23:24Z</time>
      </trkpt>
      <trkpt lat="46.53337" lon="4.53517">
        <ele>238.599</ele>
        <time>2020-06-07T12:23:29Z</time>
      </trkpt>
      <trkpt lat="46.53345" lon="4.53521">
        <ele>238.599</ele>
        <time>2020-06-07T12:23:34Z</time>
      </trkpt>
      <trkpt lat="46.53353" lon="4.53521">
        <ele>239.599</ele>
        <time>2020-06-07T12:23:39Z</time>
      </trkpt>
      <trkpt lat="46.5336" lon="4.53525">
        <ele>243.599</ele>
        <time>2020-06-07T12:23:44Z</time>
      </trkpt>
      <trkpt lat="46.53367" lon="4.53529">
        <ele>245.599</ele>
        <time>2020-06-07T12:23:50Z</time>
      </trkpt>
      <trkpt lat="46.53376" lon="4.53531">
        <ele>240.599</ele>
        <time>2020-06-07T12:23:55Z</time>
      </trkpt>
      <trkpt lat="46.53385" lon="4.53538">
        <ele>239.599</ele>
        <time>2020-06-07T12:24:04Z</time>
      </trkpt>
      <trkpt lat="46.53391" lon="4.53543">
        <ele>243.599</ele>
        <time>2020-06-07T12:24:10Z</time>
      </trkpt>
      <trkpt lat="46.53395" lon="4.53551">
        <ele>245.599</ele>
        <time>2020-06-07T12:24:15Z</time>
      </trkpt>
      <trkpt lat="46.53405" lon="4.5356">
        <ele>241.599</ele>
        <time>2020-06-07T12:24:20Z</time>
      </trkpt>
      <trkpt lat="46.53412" lon="4.53564">
        <ele>243.599</ele>
        <time>2020-06-07T12:24:27Z</time>
      </trkpt>
      <trkpt lat="46.53419" lon="4.53565">
        <ele>242.6</ele>
        <time>2020-06-07T12:24:33Z</time>
      </trkpt>
      <trkpt lat="46.53426" lon="4.53571">
        <ele>243.6</ele>
        <time>2020-06-07T12:24:40Z</time>
      </trkpt>
      <trkpt lat="46.53434" lon="4.53576">
        <ele>238.6</ele>
        <time>2020-06-07T12:24:45Z</time>
      </trkpt>
      <trkpt lat="46.53441" lon="4.53579">
        <ele>236.6</ele>
        <time>2020-06-07T12:24:50Z</time>
      </trkpt>
      <trkpt lat="46.53446" lon="4.53585">
        <ele>238.6</ele>
        <time>2020-06-07T12:24:55Z</time>
      </trkpt>
      <trkpt lat="46.53457" lon="4.53588">
        <ele>236.6</ele>
        <time>2020-06-07T12:25:00Z</time>
      </trkpt>
      <trkpt lat="46.53465" lon="4.53595">
        <ele>235.6</ele>
        <time>2020-06-07T12:25:05Z</time>
      </trkpt>
      <trkpt lat="46.53472" lon="4.53597">
        <ele>235.6</ele>
        <time>2020-06-07T12:25:10Z</time>
      </trkpt>
      <trkpt lat="46.53482" lon="4.53604">
        <ele>234.6</ele>
        <time>2020-06-07T12:25:15Z</time>
      </trkpt>
      <trkpt lat="46.53489" lon="4.53602">
        <ele>238.6</ele>
        <time>2020-06-07T12:25:21Z</time>
      </trkpt>
      <trkpt lat="46.53495" lon="4.53607">
        <ele>237.6</ele>
        <time>2020-06-07T12:25:26Z</time>
      </trkpt>
      <trkpt lat="46.53504" lon="4.53609">
        <ele>236.6</ele>
        <time>2020-06-07T12:25:31Z</time>
      </trkpt>
      <trkpt lat="46.5351" lon="4.53606">
        <ele>233.6</ele>
        <time>2020-06-07T12:25:36Z</time>
      </trkpt>
      <trkpt lat="46.53518" lon="4.53609">
        <ele>230.6</ele>
        <time>2020-06-07T12:25:41Z</time>
      </trkpt>
      <trkpt lat="46.53524" lon="4.53614">
        <ele>236.6</ele>
        <time>2020-06-07T12:25:48Z</time>
      </trkpt>
      <trkpt lat="46.53531" lon="4.53618">
        <ele>242.6</ele>
        <time>2020-06-07T12:25:54Z</time>
      </trkpt>
      <trkpt lat="46.53536" lon="4.53624">
        <ele>245.6</ele>
        <time>2020-06-07T12:26:00Z</time>
      </trkpt>
      <trkpt lat="46.53542" lon="4.5363">
        <ele>246.6</ele>
        <time>2020-06-07T12:26:05Z</time>
      </trkpt>
      <trkpt lat="46.53551" lon="4.53636">
        <ele>245.6</ele>
        <time>2020-06-07T12:26:10Z</time>
      </trkpt>
      <trkpt lat="46.5356" lon="4.53638">
        <ele>239.6</ele>
        <time>2020-06-07T12:26:15Z</time>
      </trkpt>
      <trkpt lat="46.5357" lon="4.53643">
        <ele>237.6</ele>
        <time>2020-06-07T12:26:20Z</time>
      </trkpt>
      <trkpt lat="46.53576" lon="4.5365">
        <ele>238.6</ele>
        <time>2020-06-07T12:26:26Z</time>
      </trkpt>
      <trkpt lat="46.53581" lon="4.53655">
        <ele>237.6</ele>
        <time>2020-06-07T12:26:31Z</time>
      </trkpt>
      <trkpt lat="46.53588" lon="4.53657">
        <ele>237.6</ele>
        <time>2020-06-07T12:26:37Z</time>
      </trkpt>
      <trkpt lat="46.53594" lon="4.53662">
        <ele>237.6</ele>
        <time>2020-06-07T12:26:42Z</time>
      </trkpt>
      <trkpt lat="46.53601" lon="4.53664">
        <ele>238.6</ele>
        <time>2020-06-07T12:26:48Z</time>
      </trkpt>
      <trkpt lat="46.53608" lon="4.53666">
        <ele>238.6</ele>
        <time>2020-06-07T12:26:55Z</time>
      </trkpt>
      <trkpt lat="46.53614" lon="4.53668">
        <ele>241.6</ele>
        <time>2020-06-07T12:27:00Z</time>
      </trkpt>
      <trkpt lat="46.53626" lon="4.53671">
        <ele>240.6</ele>
        <time>2020-06-07T12:27:05Z</time>
      </trkpt>
      <trkpt lat="46.53632" lon="4.53678">
        <ele>239.6</ele>
        <time>2020-06-07T12:27:10Z</time>
      </trkpt>
      <trkpt lat="46.53638" lon="4.53682">
        <ele>240.6</ele>
        <time>2020-06-07T12:27:15Z</time>
      </trkpt>
      <trkpt lat="46.53646" lon="4.53685">
        <ele>241.6</ele>
        <time>2020-06-07T12:27:22Z</time>
      </trkpt>
      <trkpt lat="46.53653" lon="4.53697">
        <ele>239.6</ele>
        <time>2020-06-07T12:27:27Z</time>
      </trkpt>
      <trkpt lat="46.5366" lon="4.53694">
        <ele>239.6</ele>
        <time>2020-06-07T12:27:33Z</time>
      </trkpt>
      <trkpt lat="46.53666" lon="4.53697">
        <ele>242.6</ele>
        <time>2020-06-07T12:27:39Z</time>
      </trkpt>
      <trkpt lat="46.53673" lon="4.53699">
        <ele>243.6</ele>
        <time>2020-06-07T12:27:44Z</time>
      </trkpt>
      <trkpt lat="46.5368" lon="4.53698">
        <ele>241.6</ele>
        <time>2020-06-07T12:27:50Z</time>
      </trkpt>
      <trkpt lat="46.5369" lon="4.53698">
        <ele>241.6</ele>
        <time>2020-06-07T12:27:57Z</time>
      </trkpt>
      <trkpt lat="46.53701" lon="4.53697">
        <ele>240.6</ele>
        <time>2020-06-07T12:28:02Z</time>
      </trkpt>
      <trkpt lat="46.53708" lon="4.53693">
        <ele>243.6</ele>
        <time>2020-06-07T12:28:09Z</time>
      </trkpt>
      <trkpt lat="46.53714" lon="4.53688">
        <ele>243.6</ele>
        <time>2020-06-07T12:28:16Z</time>
      </trkpt>
      <trkpt lat="46.53722" lon="4.53686">
        <ele>247.6</ele>
        <time>2020-06-07T12:28:21Z</time>
      </trkpt>
      <trkpt lat="46.53729" lon="4.53686">
        <ele>247.6</ele>
        <time>2020-06-07T12:28:28Z</time>
      </trkpt>
      <trkpt lat="46.53737" lon="4.53687">
        <ele>243.6</ele>
        <time>2020-06-07T12:28:33Z</time>
      </trkpt>
      <trkpt lat="46.53744" lon="4.53685">
        <ele>241.6</ele>
        <time>2020-06-07T12:28:38Z</time>
      </trkpt>
      <trkpt lat="46.53749" lon="4.53678">
        <ele>240.601</ele>
        <time>2020-06-07T12:28:43Z</time>
      </trkpt>
      <trkpt lat="46.53755" lon="4.5367">
        <ele>239.601</ele>
        <time>2020-06-07T12:28:49Z</time>
      </trkpt>
      <trkpt lat="46.5376" lon="4.53662">
        <ele>239.601</ele>
        <time>2020-06-07T12:28:57Z</time>
      </trkpt>
      <trkpt lat="46.53768" lon="4.53655">
        <ele>241.601</ele>
        <time>2020-06-07T12:29:02Z</time>
      </trkpt>
      <trkpt lat="46.53775" lon="4.53648">
        <ele>239.601</ele>
        <time>2020-06-07T12:29:07Z</time>
      </trkpt>
      <trkpt lat="46.53775" lon="4.53639">
        <ele>235.601</ele>
        <time>2020-06-07T12:29:12Z</time>
      </trkpt>
      <trkpt lat="46.53779" lon="4.53631">
        <ele>234.601</ele>
        <time>2020-06-07T12:29:17Z</time>
      </trkpt>
      <trkpt lat="46.5378" lon="4.53621">
        <ele>233.601</ele>
        <time>2020-06-07T12:29:22Z</time>
      </trkpt>
      <trkpt lat="46.53783" lon="4.5361">
        <ele>235.601</ele>
        <time>2020-06-07T12:29:27Z</time>
      </trkpt>
      <trkpt lat="46.53786" lon="4.536">
        <ele>230.601</ele>
        <time>2020-06-07T12:29:33Z</time>
      </trkpt>
      <trkpt lat="46.5379" lon="4.53592">
        <ele>229.601</ele>
        <time>2020-06-07T12:29:38Z</time>
      </trkpt>
      <trkpt lat="46.53797" lon="4.53584">
        <ele>228.601</ele>
        <time>2020-06-07T12:29:43Z</time>
      </trkpt>
      <trkpt lat="46.53805" lon="4.53578">
        <ele>227.601</ele>
        <time>2020-06-07T12:29:48Z</time>
      </trkpt>
      <trkpt lat="46.53812" lon="4.53575">
        <ele>228.601</ele>
        <time>2020-06-07T12:29:54Z</time>
      </trkpt>
      <trkpt lat="46.53821" lon="4.53573">
        <ele>229.601</ele>
        <time>2020-06-07T12:29:59Z</time>
      </trkpt>
      <trkpt lat="46.53828" lon="4.53572">
        <ele>228.601</ele>
        <time>2020-06-07T12:30:04Z</time>
      </trkpt>
      <trkpt lat="46.53836" lon="4.53572">
        <ele>228.601</ele>
        <time>2020-06-07T12:30:09Z</time>
      </trkpt>
      <trkpt lat="46.53843" lon="4.53572">
        <ele>228.601</ele>
        <time>2020-06-07T12:30:14Z</time>
      </trkpt>
      <trkpt lat="46.53849" lon="4.53571">
        <ele>228.601</ele>
        <time>2020-06-07T12:30:19Z</time>
      </trkpt>
      <trkpt lat="46.53858" lon="4.53573">
        <ele>228.601</ele>
        <time>2020-06-07T12:30:24Z</time>
      </trkpt>
      <trkpt lat="46.53864" lon="4.53568">
        <ele>232.601</ele>
        <time>2020-06-07T12:30:30Z</time>
      </trkpt>
      <trkpt lat="46.53871" lon="4.53564">
        <ele>233.601</ele>
        <time>2020-06-07T12:30:35Z</time>
      </trkpt>
      <trkpt lat="46.53878" lon="4.5356">
        <ele>233.601</ele>
        <time>2020-06-07T12:30:40Z</time>
      </trkpt>
      <trkpt lat="46.53883" lon="4.53553">
        <ele>234.601</ele>
        <time>2020-06-07T12:30:47Z</time>
      </trkpt>
      <trkpt lat="46.53889" lon="4.53547">
        <ele>231.601</ele>
        <time>2020-06-07T12:30:53Z</time>
      </trkpt>
      <trkpt lat="46.53897" lon="4.5354">
        <ele>229.601</ele>
        <time>2020-06-07T12:30:58Z</time>
      </trkpt>
      <trkpt lat="46.53903" lon="4.53536">
        <ele>227.601</ele>
        <time>2020-06-07T12:31:03Z</time>
      </trkpt>
      <trkpt lat="46.5391" lon="4.53529">
        <ele>226.601</ele>
        <time>2020-06-07T12:31:08Z</time>
      </trkpt>
      <trkpt lat="46.53919" lon="4.53524">
        <ele>227.601</ele>
        <time>2020-06-07T12:31:13Z</time>
      </trkpt>
      <trkpt lat="46.53927" lon="4.5352">
        <ele>228.601</ele>
        <time>2020-06-07T12:31:18Z</time>
      </trkpt>
      <trkpt lat="46.53934" lon="4.53516">
        <ele>227.601</ele>
        <time>2020-06-07T12:31:25Z</time>
      </trkpt>
      <trkpt lat="46.53941" lon="4.53512">
        <ele>224.601</ele>
        <time>2020-06-07T12:31:31Z</time>
      </trkpt>
      <trkpt lat="46.53946" lon="4.53503">
        <ele>224.601</ele>
        <time>2020-06-07T12:31:36Z</time>
      </trkpt>
      <trkpt lat="46.53949" lon="4.53493">
        <ele>224.601</ele>
        <time>2020-06-07T12:31:42Z</time>
      </trkpt>
      <trkpt lat="46.53956" lon="4.53482">
        <ele>224.601</ele>
        <time>2020-06-07T12:31:47Z</time>
      </trkpt>
      <trkpt lat="46.53957" lon="4.53473">
        <ele>227.601</ele>
        <time>2020-06-07T12:31:54Z</time>
      </trkpt>
      <trkpt lat="46.5396" lon="4.53463">
        <ele>229.601</ele>
        <time>2020-06-07T12:31:59Z</time>
      </trkpt>
      <trkpt lat="46.53958" lon="4.53455">
        <ele>231.601</ele>
        <time>2020-06-07T12:32:06Z</time>
      </trkpt>
      <trkpt lat="46.53962" lon="4.53446">
        <ele>230.601</ele>
        <time>2020-06-07T12:32:12Z</time>
      </trkpt>
      <trkpt lat="46.53964" lon="4.53437">
        <ele>231.601</ele>
        <time>2020-06-07T12:32:19Z</time>
      </trkpt>
      <trkpt lat="46.53959" lon="4.53428">
        <ele>232.601</ele>
        <time>2020-06-07T12:32:26Z</time>
      </trkpt>
      <trkpt lat="46.53952" lon="4.53423">
        <ele>234.601</ele>
        <time>2020-06-07T12:32:32Z</time>
      </trkpt>
      <trkpt lat="46.53944" lon="4.53421">
        <ele>239.601</ele>
        <time>2020-06-07T12:32:37Z</time>
      </trkpt>
      <trkpt lat="46.53937" lon="4.5342">
        <ele>239.601</ele>
        <time>2020-06-07T12:32:42Z</time>
      </trkpt>
      <trkpt lat="46.5393" lon="4.5342">
        <ele>240.601</ele>
        <time>2020-06-07T12:32:50Z</time>
      </trkpt>
      <trkpt lat="46.53922" lon="4.53416">
        <ele>243.601</ele>
        <time>2020-06-07T12:32:56Z</time>
      </trkpt>
      <trkpt lat="46.53911" lon="4.534">
        <ele>245.601</ele>
        <time>2020-06-07T12:33:01Z</time>
      </trkpt>
      <trkpt lat="46.53904" lon="4.53396">
        <ele>247.601</ele>
        <time>2020-06-07T12:33:06Z</time>
      </trkpt>
      <trkpt lat="46.53905" lon="4.53409">
        <ele>237.601</ele>
        <time>2020-06-07T12:33:11Z</time>
      </trkpt>
      <trkpt lat="46.53898" lon="4.53406">
        <ele>237.601</ele>
        <time>2020-06-07T12:33:16Z</time>
      </trkpt>
      <trkpt lat="46.53892" lon="4.53402">
        <ele>236.601</ele>
        <time>2020-06-07T12:33:21Z</time>
      </trkpt>
      <trkpt lat="46.53884" lon="4.53397">
        <ele>239.601</ele>
        <time>2020-06-07T12:33:26Z</time>
      </trkpt>
      <trkpt lat="46.53877" lon="4.53393">
        <ele>240.601</ele>
        <time>2020-06-07T12:33:31Z</time>
      </trkpt>
      <trkpt lat="46.5387" lon="4.53389">
        <ele>238.601</ele>
        <time>2020-06-07T12:33:36Z</time>
      </trkpt>
      <trkpt lat="46.53861" lon="4.53383">
        <ele>240.601</ele>
        <time>2020-06-07T12:33:41Z</time>
      </trkpt>
      <trkpt lat="46.53854" lon="4.53379">
        <ele>241.601</ele>
        <time>2020-06-07T12:33:47Z</time>
      </trkpt>
      <trkpt lat="46.53847" lon="4.53378">
        <ele>243.601</ele>
        <time>2020-06-07T12:33:53Z</time>
      </trkpt>
      <trkpt lat="46.5384" lon="4.5338">
        <ele>238.601</ele>
        <time>2020-06-07T12:34:00Z</time>
      </trkpt>
      <trkpt lat="46.53834" lon="4.53374">
        <ele>237.601</ele>
        <time>2020-06-07T12:34:05Z</time>
      </trkpt>
      <trkpt lat="46.53827" lon="4.53366">
        <ele>235.6</ele>
        <time>2020-06-07T12:34:10Z</time>
      </trkpt>
      <trkpt lat="46.5382" lon="4.53357">
        <ele>241.6</ele>
        <time>2020-06-07T12:34:15Z</time>
      </trkpt>
      <trkpt lat="46.53813" lon="4.5335">
        <ele>241.6</ele>
        <time>2020-06-07T12:34:21Z</time>
      </trkpt>
      <trkpt lat="46.53805" lon="4.53344">
        <ele>242.6</ele>
        <time>2020-06-07T12:34:26Z</time>
      </trkpt>
      <trkpt lat="46.53798" lon="4.53341">
        <ele>242.6</ele>
        <time>2020-06-07T12:34:31Z</time>
      </trkpt>
      <trkpt lat="46.53792" lon="4.53337">
        <ele>242.6</ele>
        <time>2020-06-07T12:34:36Z</time>
      </trkpt>
      <trkpt lat="46.53785" lon="4.53332">
        <ele>245.6</ele>
        <time>2020-06-07T12:34:42Z</time>
      </trkpt>
      <trkpt lat="46.53774" lon="4.5332">
        <ele>251.6</ele>
        <time>2020-06-07T12:34:47Z</time>
      </trkpt>
      <trkpt lat="46.5377" lon="4.5333">
        <ele>246.6</ele>
        <time>2020-06-07T12:34:54Z</time>
      </trkpt>
      <trkpt lat="46.5377" lon="4.53342">
        <ele>245.6</ele>
        <time>2020-06-07T12:34:59Z</time>
      </trkpt>
      <trkpt lat="46.53773" lon="4.53353">
        <ele>244.6</ele>
        <time>2020-06-07T12:35:05Z</time>
      </trkpt>
      <trkpt lat="46.53773" lon="4.53363">
        <ele>244.6</ele>
        <time>2020-06-07T12:35:13Z</time>
      </trkpt>
      <trkpt lat="46.5378" lon="4.53361">
        <ele>239.6</ele>
        <time>2020-06-07T12:35:24Z</time>
      </trkpt>
    </trkseg>
  </trk>
</gpx>